# Wetter Temperatur Luftdruck Luftfeuchtigkeit Sichtweite Windgeschwindigkeit Windrichtung Zeit
1 Fog 21 1011 100 10000 1 0 19:56 17.10.2019
2 Fog 21 1011 100 10000 1 0 19:38 17.10.2019
3 Fog 21 1011 100 10000 1 0 19:18 17.10.2019
4 Clouds 23 1011 94 10000 1 0 18:43 17.10.2019
5 Clouds 23 1011 94 10000 1 0 18:21 17.10.2019
6 Clouds 23 1012 94 10000 1.5 0 17:58 17.10.2019
7 Clouds 23 1012 94 10000 1.5 0 17:40 17.10.2019
8 Clouds 23 1012 94 10000 1.5 0 17:22 17.10.2019
9 Clouds 22 1012 100 10000 1.5 0 16:55 17.10.2019
10 Clouds 22 1012 100 10000 1.5 0 16:36 17.10.2019
11 Clouds 22 1012 100 10000 1.5 0 16:18 17.10.2019
12 Clouds 24 1013 87 0 6.635 119 15:41 17.10.2019
13 Clouds 24 1013 94 10000 2.6 150 15:21 17.10.2019
14 Clouds 24 1013 94 10000 2.6 150 14:58 17.10.2019
15 Clouds 24 1013 94 10000 2.6 150 14:39 17.10.2019
16 Clouds 25 1014 85 0 9.816 132 14:21 17.10.2019
17 Clouds 25 1014 85 0 9.816 132 13:42 17.10.2019
18 Clouds 25 1012 94 10000 2.6 140 13:21 17.10.2019
19 Clouds 25 1012 94 10000 2.6 140 12:58 17.10.2019
20 Clouds 25 1012 94 10000 2.6 140 12:40 17.10.2019
21 Haze 26 1011 83 10000 5.1 160 12:20 17.10.2019
22 Haze 26 1011 83 10000 5.1 160 12:20 17.10.2019
23 Haze 26 1011 83 10000 5.1 160 11:57 17.10.2019
24 Haze 26 1011 83 10000 5.1 160 11:38 17.10.2019
25 Haze 26 1011 83 10000 5.1 160 11:18 17.10.2019
26 Smoke 27 1010 78 10000 7.7 150 10:42 17.10.2019
27 Smoke 27 1010 78 10000 7.7 150 10:20 17.10.2019
28 Smoke 29 1010 66 10000 5.1 200 09:58 17.10.2019
29 Smoke 29 1010 66 10000 5.1 200 09:39 17.10.2019
30 Smoke 29 1010 66 10000 5.1 200 09:20 17.10.2019
31 Smoke 30 1009 66 10000 5.1 200 08:58 17.10.2019
32 Smoke 30 1009 66 10000 5.1 200 08:38 17.10.2019
33 Smoke 30 1009 66 10000 5.1 200 08:18 17.10.2019
34 Smoke 30 1010 66 10000 5.1 200 07:48 17.10.2019
35 Smoke 30 1010 66 10000 5.1 200 07:21 17.10.2019
36 Smoke 30 1010 66 10000 5.1 200 07:21 17.10.2019
37 Clouds 25 1010 81 0 6.513 147 06:58 17.10.2019
38 -273 0 0 0 0 0 06:39 17.10.2019
39 Smoke 30 1010 66 10000 5.1 200 06:19 17.10.2019
40 Smoke 30 1010 66 10000 5.1 200 05:41 17.10.2019
41 Smoke 30 1012 66 10000 5.1 200 05:21 17.10.2019
42 Smoke 30 1012 66 10000 5.1 200 04:50 17.10.2019
43 Smoke 30 1012 66 10000 5.1 200 03:50 17.10.2019
44 Smoke 29 1013 70 10000 5.1 180 02:35 17.10.2019
45 Smoke 26 1012 88 10000 1.5 0 00:44 17.10.2019
46 Smoke 26 1012 88 10000 1.5 0 00:22 17.10.2019
47 Smoke 23 1012 100 10000 2.6 150 23:59 16.10.2019
48 Smoke 23 1012 100 10000 2.6 150 23:41 16.10.2019
49 Smoke 23 1012 100 10000 2.6 150 23:19 16.10.2019
50 Smoke 23 1012 100 10000 2.6 150 23:19 16.10.2019
51 Smoke 21 1012 100 10000 2.6 140 22:55 16.10.2019
52 Smoke 21 1012 100 10000 2.6 140 22:36 16.10.2019
53 Smoke 21 1012 100 10000 2.6 140 22:36 16.10.2019
54 Clear 24 1013 85 0 1.534 63 22:18 16.10.2019
55 Clear 24 1013 85 0 1.534 63 21:55 16.10.2019
56 Clouds 24 1013 85 0 1.609 80 21:37 16.10.2019
57 Clear 24 1012 87 0 4.314 108 21:18 16.10.2019
58 Clear 24 1012 87 0 4.314 108 20:56 16.10.2019
59 Clear 24 1012 87 0 4.314 108 20:37 16.10.2019
60 Clear 24 1012 87 0 4.314 108 20:19 16.10.2019
61 Clear 24 1012 87 0 4.314 108 19:41 16.10.2019
62 Clear 24 1012 87 0 4.314 108 19:40 16.10.2019
63 Clear 24 1012 87 0 4.314 108 19:21 16.10.2019
64 Clear 24 1012 87 0 4.314 108 18:58 16.10.2019
65 Clear 24 1012 87 0 4.314 108 18:38 16.10.2019
66 Clear 24 1012 88 0 7.579 124 18:18 16.10.2019
67 Clear 24 1012 88 0 7.579 124 17:56 16.10.2019
68 Clear 24 1012 88 0 7.579 124 17:37 16.10.2019
69 Clouds 24 1012 88 10000 1.5 140 17:19 16.10.2019
70 Clouds 24 1012 88 10000 1.5 140 16:56 16.10.2019
71 Clouds 24 1012 88 10000 1.5 140 16:38 16.10.2019
72 Clouds 24 1012 88 10000 1.5 140 16:19 16.10.2019
73 -273 0 0 0 0 0 15:41 16.10.2019
74 Clouds 24 1012 88 10000 5.1 160 15:19 16.10.2019
75 Clouds 24 1012 88 10000 5.1 160 14:59 16.10.2019
76 Clouds 24 1012 88 10000 5.1 160 14:40 16.10.2019
77 Clouds 24 1012 88 10000 5.1 160 14:21 16.10.2019
78 Clouds 25 1011 88 10000 5.1 130 13:58 16.10.2019
79 Clouds 25 1011 88 10000 5.1 130 13:58 16.10.2019
80 Clouds 25 1011 88 10000 5.1 130 13:40 16.10.2019
81 Clouds 25 1011 88 10000 5.1 130 13:22 16.10.2019
82 Clouds 25 1011 88 10000 5.1 130 12:44 16.10.2019
83 Clear 25 1012 82 0 9.949 148 12:20 16.10.2019
84 Clear 25 1012 82 0 9.949 148 11:55 16.10.2019
85 Clear 25 1012 82 0 9.949 148 11:37 16.10.2019
86 Clear 25 1012 82 0 9.949 148 11:18 16.10.2019
87 Clear 25 1012 82 0 9.949 148 11:18 16.10.2019
88 Clear 25 1012 82 0 9.949 148 10:37 16.10.2019
89 Clouds 27 1008 74 10000 7.7 160 10:18 16.10.2019
90 Clouds 27 1008 74 10000 7.7 160 09:41 16.10.2019
91 Clouds 27 1008 74 10000 7.7 160 09:40 16.10.2019
92 Clouds 27 1008 74 10000 7.7 160 09:40 16.10.2019
93 Clouds 27 1008 74 10000 7.7 160 09:22 16.10.2019
94 Clouds 27 1008 74 10000 7.7 150 08:57 16.10.2019
95 Clouds 27 1008 74 10000 7.7 150 08:38 16.10.2019
96 Clouds 28 1008 69 10000 7.7 160 08:20 16.10.2019
97 Clouds 28 1008 69 10000 7.7 160 07:42 16.10.2019
98 Clear 25 1010 80 0 8.596 148 07:23 16.10.2019
99 Clear 25 1010 80 0 8.596 148 06:48 16.10.2019
100 Haze 30 1010 70 10000 7.7 140 06:29 16.10.2019
101 Clouds 30 1010 70 10000 6.2 160 04:48 16.10.2019
102 Smoke 29 1012 74 10000 4.1 150 02:51 16.10.2019
103 Clear 25 1013 86 0 4.225 161 01:21 16.10.2019
104 Clear 25 1013 86 0 4.225 161 00:59 16.10.2019
105 Clear 25 1013 86 0 4.225 161 00:40 16.10.2019
106 Clouds 22 1012 100 10000 1.5 0 23:59 15.10.2019
107 Clouds 22 1012 100 10000 1.5 0 23:38 15.10.2019
108 Clouds 22 1012 100 10000 1.5 0 23:20 15.10.2019
109 Clouds 22 1011 100 10000 1.5 0 22:55 15.10.2019
110 Clouds 22 1011 100 10000 1.5 0 22:55 15.10.2019
111 Clouds 22 1011 100 10000 1.5 0 22:37 15.10.2019
112 Clouds 22 1011 100 10000 1.5 0 22:18 15.10.2019
113 Clouds 22 1011 100 10000 1.5 0 21:54 15.10.2019
114 Clouds 22 1011 100 10000 1.5 0 21:36 15.10.2019
115 Clouds 23 1011 94 10000 1.5 0 21:18 15.10.2019
116 Clouds 23 1011 94 10000 1.5 0 20:54 15.10.2019
117 Clouds 23 1011 94 10000 1.5 0 20:54 15.10.2019
118 Clouds 23 1011 94 10000 1.5 0 20:54 15.10.2019
119 Clouds 23 1011 94 10000 1.5 0 20:54 15.10.2019
120 Clouds 23 1011 94 10000 1.5 0 20:36 15.10.2019
121 Clouds 23 1011 94 10000 1.5 0 20:18 15.10.2019
122 Clouds 23 1011 100 10000 1.5 0 19:41 15.10.2019
123 Clouds 23 1011 94 10000 2.6 140 19:20 15.10.2019
124 Clouds 23 1011 94 10000 2.6 140 19:20 15.10.2019
125 Clouds 24 1012 88 0 5.897 121 18:57 15.10.2019
126 Clouds 24 1012 88 0 5.897 121 18:57 15.10.2019
127 Clouds 24 1012 88 0 5.897 121 18:39 15.10.2019
128 Clouds 24 1012 88 0 7.902 131 18:20 15.10.2019
129 Clouds 24 1012 88 0 7.902 131 17:42 15.10.2019
130 Clouds 24 1012 88 0 7.902 131 17:42 15.10.2019
131 Clouds 24 1012 94 10000 5.1 170 17:21 15.10.2019
132 Clouds 24 1012 94 10000 5.1 170 16:59 15.10.2019
133 Clouds 24 1012 94 10000 5.1 170 16:41 15.10.2019
134 Clouds 24 1012 88 0 7.902 131 16:21 15.10.2019
135 Clouds 24 1012 88 0 7.902 131 15:55 15.10.2019
136 Clouds 24 1012 88 0 7.902 131 15:55 15.10.2019
137 Clouds 24 1012 88 0 7.902 131 15:37 15.10.2019
138 Clouds 25 1012 88 10000 2.6 150 15:19 15.10.2019
139 Clouds 25 1012 88 10000 2.6 150 14:38 15.10.2019
140 Clouds 25 1013 85 0 8.452 131 14:20 15.10.2019
141 Clouds 25 1013 85 0 8.452 131 13:59 15.10.2019
142 Clouds 25 1013 85 0 8.452 131 13:40 15.10.2019
143 Clouds 25 1013 85 0 8.452 131 13:20 15.10.2019
144 Clouds 25 1013 85 0 8.452 131 12:44 15.10.2019
145 Clouds 26 1010 88 10000 5.1 140 12:22 15.10.2019
146 Clouds 26 1010 88 10000 5.1 140 11:58 15.10.2019
147 Clouds 26 1010 88 10000 5.1 140 11:40 15.10.2019
148 Clouds 26 1010 88 10000 5.1 140 11:19 15.10.2019
149 Clouds 27 1009 83 10000 10.3 140 10:45 15.10.2019
150 Clouds 27 1009 83 10000 10.3 140 10:22 15.10.2019
151 Smoke 27 1009 83 10000 10.3 140 09:59 15.10.2019
152 Smoke 27 1009 83 10000 10.3 140 09:39 15.10.2019
153 Smoke 28 1009 78 10000 10.3 140 09:20 15.10.2019
154 -273 0 0 0 0 0 08:57 15.10.2019
155 Smoke 28 1009 78 10000 10.3 140 08:37 15.10.2019
156 Smoke 28 1009 78 10000 10.3 140 08:18 15.10.2019
157 Clouds 29 1009 74 10000 10.3 160 07:42 15.10.2019
158 Clouds 29 1009 74 10000 10.3 160 07:21 15.10.2019
159 Clouds 31 1009 66 10000 5.1 150 06:54 15.10.2019
160 Clouds 31 1009 66 10000 5.1 150 06:36 15.10.2019
161 Clouds 31 1010 66 10000 2.6 150 05:54 15.10.2019
162 Clouds 31 1010 66 10000 2.6 150 05:35 15.10.2019
163 Smoke 31 1011 62 10000 2.6 160 04:39 15.10.2019
164 Clouds 25 1011 83 0 9.95 152.842 03:57 15.10.2019
165 Smoke 29 1012 70 10000 6.2 150 03:27 15.10.2019
166 Clouds 28 1013 74 10000 4.1 160 01:51 15.10.2019
167 Smoke 26 1013 83 10000 3.6 150 01:23 15.10.2019
168 Smoke 26 1013 83 10000 3.6 150 00:52 15.10.2019
169 Smoke 26 1013 83 10000 3.6 150 00:22 15.10.2019
170 Smoke 24 1012 94 10000 2.6 140 23:46 14.10.2019
171 Smoke 24 1012 94 10000 2.6 140 23:21 14.10.2019
172 Smoke 23 1011 94 10000 2.1 0 22:59 14.10.2019
173 Smoke 23 1011 94 10000 2.1 0 22:38 14.10.2019
174 Smoke 23 1011 94 10000 2.1 0 22:19 14.10.2019
175 Smoke 23 1011 94 10000 2.1 0 22:19 14.10.2019
176 Clouds 23 1011 94 10000 1.5 0 21:56 14.10.2019
177 Clouds 23 1011 94 10000 1.5 0 21:56 14.10.2019
178 Clouds 23 1011 94 10000 1.5 0 21:37 14.10.2019
179 Clouds 23 1011 94 10000 1.5 0 21:19 14.10.2019
180 Clouds 23 1011 94 10000 1.5 0 20:55 14.10.2019
181 -273 0 0 0 0 0 20:55 14.10.2019
182 Clouds 23 1011 94 10000 1.5 0 20:36 14.10.2019
183 Clouds 23 1011 94 10000 1.5 0 20:18 14.10.2019
184 Clouds 23 1011 94 10000 1.5 0 20:18 14.10.2019
185 Clouds 23 1011 94 10000 1.5 0 19:42 14.10.2019
186 Clouds 24 1011 88 10000 4.1 140 19:23 14.10.2019
187 Clouds 24 1011 88 10000 4.1 140 18:59 14.10.2019
188 Clouds 24 1011 88 10000 4.1 140 18:39 14.10.2019
189 Clouds 24 1011 88 10000 4.1 140 18:39 14.10.2019
190 Clouds 25 1011 88 10000 4.1 150 18:19 14.10.2019
191 Clouds 25 1011 88 10000 4.1 150 18:19 14.10.2019
192 Clouds 25 1011 88 10000 4.1 150 17:57 14.10.2019
193 Clouds 25 1011 88 10000 4.1 150 17:57 14.10.2019
194 Clouds 25 1011 88 10000 4.1 150 17:38 14.10.2019
195 Clouds 25 1011 88 10000 4.1 150 17:38 14.10.2019
196 Clouds 25 1012 88 10000 5.1 150 17:19 14.10.2019
197 Clouds 25 1012 88 10000 5.1 150 16:44 14.10.2019
198 Clouds 25 1012 88 10000 5.1 150 16:21 14.10.2019
199 Clouds 26 1012 83 10000 5.1 150 15:43 14.10.2019
200 -273 0 0 0 0 0 15:24 14.10.2019
201 Clouds 26 1012 83 10000 5.1 150 14:57 14.10.2019
202 Clouds 26 1012 83 10000 5.1 150 14:57 14.10.2019
203 Clouds 26 1012 83 10000 5.1 150 14:39 14.10.2019
204 Clouds 26 1012 83 10000 5.1 150 14:19 14.10.2019
205 Clouds 26 1012 83 10000 5.1 150 13:44 14.10.2019
206 Clouds 26 1012 83 10000 5.1 150 13:21 14.10.2019
207 Clouds 26 1012 83 10000 5.1 150 12:55 14.10.2019
208 Clouds 26 1012 83 10000 5.1 150 12:37 14.10.2019
209 Clouds 26 1012 83 10000 5.1 150 12:18 14.10.2019
210 Clouds 26 1012 83 10000 5.1 150 12:18 14.10.2019
211 Clouds 26 1012 83 10000 5.1 150 12:18 14.10.2019
212 Rain 25 1012 83 0 12.24 142.245 11:44 14.10.2019
213 Rain 25 1012 83 0 12.24 142.245 11:26 14.10.2019
214 Rain 25 1012 83 0 12.24 142.245 10:57 14.10.2019
215 Rain 25 1012 83 0 12.24 142.245 10:37 14.10.2019
216 Clouds 27 1010 78 10000 5.1 150 10:18 14.10.2019
217 Clouds 27 1010 78 10000 5.1 150 10:18 14.10.2019
218 Clouds 27 1010 78 10000 5.1 150 09:41 14.10.2019
219 -273 0 0 0 0 0 09:41 14.10.2019
220 Clouds 27 1010 78 10000 5.1 150 09:41 14.10.2019
221 Clouds 28 1009 78 10000 5.1 140 09:21 14.10.2019
222 Clouds 28 1009 78 10000 5.1 140 08:50 14.10.2019
223 Clouds 28 1009 78 10000 5.1 140 08:50 14.10.2019
224 Clouds 29 1010 74 10000 5.1 150 08:23 14.10.2019
225 Clouds 29 1010 74 10000 5.1 150 07:47 14.10.2019
226 Clouds 29 1010 74 10000 5.1 150 07:25 14.10.2019
227 Clear 25 1010 82 0 11.68 146.296 06:58 14.10.2019
228 Clear 25 1010 82 0 11.68 146.296 06:28 14.10.2019
229 Clear 25 1011 82 0 11.02 149.795 05:57 14.10.2019
230 Haze 31 1012 66 10000 2.6 170 05:26 14.10.2019
231 Haze 29 1013 74 10000 4.1 160 03:50 14.10.2019
232 Haze 29 1013 74 10000 4.1 160 03:25 14.10.2019
233 Clouds 25 1014 83 0 7.98 140.199 02:31 14.10.2019
234 Haze 27 1013 78 10000 2.6 150 01:21 14.10.2019
235 Haze 27 1013 78 10000 2.6 150 00:42 14.10.2019
236 Clouds 26 1012 83 10000 1.5 0 00:18 14.10.2019
237 Clouds 26 1012 83 10000 1.5 0 23:40 13.10.2019
238 Clouds 26 1012 83 10000 1.5 0 23:19 13.10.2019
239 Clouds 25 1011 88 10000 1.5 0 22:57 13.10.2019
240 Clouds 25 1011 88 10000 1.5 0 22:38 13.10.2019
241 Clouds 25 1011 88 10000 1.5 0 22:19 13.10.2019
242 Clouds 24 1011 94 10000 1.5 0 21:56 13.10.2019
243 Clouds 24 1011 94 10000 1.5 0 21:36 13.10.2019
244 Clouds 24 1011 94 10000 1.5 0 21:36 13.10.2019
245 Clouds 25 1010 88 10000 1.5 0 21:18 13.10.2019
246 Clouds 25 1010 88 10000 1.5 0 21:18 13.10.2019
247 Clouds 25 1010 88 10000 1.5 0 20:55 13.10.2019
248 Clouds 25 1010 88 10000 1.5 0 20:37 13.10.2019
249 Clouds 24 1012 86 0 7.75 124.235 20:18 13.10.2019
250 Clouds 24 1012 86 0 7.75 124.235 19:54 13.10.2019
251 Clouds 24 1012 86 0 7.75 124.235 19:36 13.10.2019
252 Clouds 24 1012 86 0 7.75 124.235 19:36 13.10.2019
253 Clouds 24 1012 86 0 7.75 124.235 19:36 13.10.2019
254 Clouds 24 1012 86 0 7.75 124.235 19:36 13.10.2019
255 Clouds 24 1012 86 0 7.75 124.235 19:18 13.10.2019
256 Clouds 24 1012 86 0 7.75 124.235 18:40 13.10.2019
257 Clouds 25 1012 84 0 8.41 128.48 18:21 13.10.2019
258 Clouds 25 1012 84 0 8.41 128.48 17:59 13.10.2019
259 Clouds 25 1012 84 0 8.41 128.48 17:59 13.10.2019
260 Clouds 25 1012 84 0 8.41 128.48 17:41 13.10.2019
261 Clouds 25 1012 84 0 8.41 128.48 17:23 13.10.2019
262 Clouds 25 1012 84 0 8.41 128.48 16:43 13.10.2019
263 Clouds 25 1012 84 0 8.41 128.48 16:20 13.10.2019
264 -273 0 0 0 0 0 15:58 13.10.2019
265 Clouds 25 1012 84 0 8.41 128.48 15:39 13.10.2019
266 Clouds 25 1014 83 0 9.6 136.498 15:20 13.10.2019
267 Clouds 25 1014 83 0 9.6 136.498 15:20 13.10.2019
268 Clouds 25 1014 83 0 9.6 136.498 14:58 13.10.2019
269 Clouds 25 1014 83 0 9.6 136.498 14:39 13.10.2019
270 Clouds 25 1014 83 0 9.6 136.498 14:20 13.10.2019
271 Clouds 25 1014 83 0 9.6 136.498 13:55 13.10.2019
272 Clouds 25 1014 83 0 9.6 136.498 13:37 13.10.2019
273 Clouds 25 1014 83 0 9.6 136.498 13:37 13.10.2019
274 Clouds 25 1014 83 0 9.7 136.353 13:18 13.10.2019
275 Clouds 25 1014 83 0 9.7 136.353 13:18 13.10.2019
276 Clouds 25 1014 83 0 9.7 136.353 12:55 13.10.2019
277 Clouds 25 1014 83 0 9.7 136.353 12:55 13.10.2019
278 Clouds 25 1014 83 0 9.7 136.353 12:55 13.10.2019
279 Clouds 25 1014 83 0 9.7 136.353 12:36 13.10.2019
280 Clouds 25 1014 83 0 9.7 136.353 12:36 13.10.2019
281 Clouds 25 1013 80 0 11.77 144.24 12:18 13.10.2019
282 Clouds 25 1013 80 0 11.77 144.24 11:54 13.10.2019
283 Clouds 25 1013 80 0 11.77 144.24 11:36 13.10.2019
284 Haze 26 1010 83 10000 5.1 160 11:18 13.10.2019
285 Haze 26 1010 83 10000 5.1 160 10:40 13.10.2019
286 Haze 28 1009 74 10000 6.7 140 10:22 13.10.2019
287 Haze 28 1009 74 10000 6.7 140 10:22 13.10.2019
288 Haze 28 1009 74 10000 6.7 140 09:40 13.10.2019
289 Haze 28 1009 74 10000 6.7 140 09:21 13.10.2019
290 Haze 29 1009 70 10000 7.7 160 08:55 13.10.2019
291 Haze 29 1009 70 10000 7.7 160 08:27 13.10.2019
292 Haze 29 1009 70 10000 7.7 160 08:27 13.10.2019
293 Haze 29 1009 74 10000 7.7 140 07:56 13.10.2019
294 Haze 29 1009 74 10000 7.7 140 07:38 13.10.2019
295 Haze 30 1009 74 10000 5.1 140 06:54 13.10.2019
296 Haze 30 1010 70 10000 2.6 140 06:26 13.10.2019
297 Haze 30 1010 70 10000 2.6 140 05:29 13.10.2019
298 Haze 30 1011 70 10000 7.7 130 04:35 13.10.2019
299 Clouds 25 1011 84 0 6.79 154.451 03:35 13.10.2019
300 Clouds 29 1013 70 10000 2.6 200 02:32 13.10.2019
301 Clouds 29 1013 70 10000 2.6 200 01:37 13.10.2019
302 Clouds 27 1013 78 10000 1.5 0 01:18 13.10.2019
303 Clouds 27 1013 78 10000 1.5 0 00:42 13.10.2019
304 Clouds 27 1013 78 10000 1.5 0 00:42 13.10.2019
305 Clouds 25 1013 88 10000 1.5 0 00:19 13.10.2019
306 Clouds 25 1013 88 10000 1.5 0 23:42 12.10.2019
307 Clouds 22 1012 100 10000 1.5 0 23:23 12.10.2019
308 Clouds 22 1012 100 10000 1.5 0 22:59 12.10.2019
309 Clouds 22 1012 100 10000 1.5 0 22:40 12.10.2019
310 Clouds 24 1011 94 10000 5.1 160 22:22 12.10.2019
311 Clouds 24 1011 94 10000 5.1 160 21:58 12.10.2019
312 Clouds 24 1011 94 10000 5.1 160 21:40 12.10.2019
313 Clouds 24 1011 94 10000 5.1 160 21:40 12.10.2019
314 Clouds 24 1011 94 10000 5.1 160 21:21 12.10.2019
315 Clouds 24 1011 88 0 6.66 124.962 20:54 12.10.2019
316 Clouds 24 1011 88 0 6.66 124.962 20:54 12.10.2019
317 Clouds 24 1011 88 0 6.66 124.962 20:54 12.10.2019
318 Clouds 24 1011 88 0 6.66 124.962 20:36 12.10.2019
319 Clouds 24 1011 88 0 6.66 124.962 20:18 12.10.2019
320 Clouds 24 1011 88 0 6.66 124.962 19:36 12.10.2019
321 Clouds 24 1010 94 10000 5.1 160 19:18 12.10.2019
322 Clouds 24 1010 94 10000 5.1 160 18:42 12.10.2019
323 Clouds 24 1010 94 10000 5.1 160 18:24 12.10.2019
324 Clouds 24 1010 94 10000 5.1 160 17:46 12.10.2019
325 Clouds 24 1010 94 10000 5.1 160 17:21 12.10.2019
326 Clouds 24 1011 87 0 7.25 131.521 16:58 12.10.2019
327 Clouds 24 1011 87 0 7.25 131.521 16:58 12.10.2019
328 Clouds 24 1011 87 0 7.25 131.521 16:40 12.10.2019
329 Clouds 24 1011 87 0 7.25 131.521 16:20 12.10.2019
330 Clouds 24 1011 87 0 7.25 131.521 15:46 12.10.2019
331 Clouds 24 1011 87 0 7.25 131.521 15:27 12.10.2019
332 Clouds 25 1014 87 0 7.51 136.192 14:59 12.10.2019
333 Clouds 25 1014 87 0 7.51 136.192 14:38 12.10.2019
334 -273 0 0 0 0 0 14:20 12.10.2019
335 Clouds 25 1014 87 0 7.51 136.192 13:49 12.10.2019
336 Clouds 25 1014 87 0 7.76 136.702 13:31 12.10.2019
337 Clouds 25 1014 87 0 7.76 136.702 12:55 12.10.2019
338 Clouds 25 1014 87 0 7.76 136.702 12:37 12.10.2019
339 Clouds 25 1011 88 0 6.74 145.516 12:18 12.10.2019
340 Clouds 25 1011 88 0 6.74 145.516 11:41 12.10.2019
341 Haze 26 1009 83 10000 2.6 160 11:22 12.10.2019
342 Haze 26 1009 83 10000 2.6 160 10:57 12.10.2019
343 Haze 26 1009 83 10000 2.6 160 10:37 12.10.2019
344 Haze 26 1009 83 10000 2.6 160 10:19 12.10.2019
345 Haze 27 1008 78 10000 2.6 140 09:56 12.10.2019
346 Haze 27 1008 78 10000 2.6 140 09:56 12.10.2019
347 Haze 27 1008 78 10000 2.6 140 09:37 12.10.2019
348 Haze 29 1008 70 10000 2.6 160 09:19 12.10.2019
349 Haze 29 1008 70 10000 2.6 160 08:42 12.10.2019
350 Haze 29 1008 70 10000 2.6 160 08:22 12.10.2019
351 Haze 29 1008 70 10000 2.6 190 07:37 12.10.2019
352 Haze 31 1008 66 10000 2.6 190 07:18 12.10.2019
353 Haze 31 1009 66 10000 2.6 140 05:53 12.10.2019
354 Haze 31 1009 66 10000 2.6 140 05:24 12.10.2019
355 Haze 31 1010 66 10000 6.2 190 04:26 12.10.2019
356 Haze 29 1011 74 10000 5.1 100 03:42 12.10.2019
357 Haze 29 1011 74 10000 3.1 130 02:28 12.10.2019
358 Haze 26 1012 83 10000 3.1 160 01:30 12.10.2019
359 Haze 26 1012 83 10000 3.1 160 00:43 12.10.2019
360 Clouds 25 1011 88 10000 2.6 160 00:19 12.10.2019
361 Clouds 25 1011 88 10000 2.6 160 00:19 12.10.2019
362 Clouds 25 1011 88 10000 2.6 160 23:40 11.10.2019
363 Clouds 25 1011 88 10000 2.6 160 23:20 11.10.2019
364 Clouds 24 1010 94 10000 2.6 130 22:56 11.10.2019
365 Clouds 24 1010 94 10000 2.6 130 22:37 11.10.2019
366 Clouds 24 1010 94 10000 2.6 130 22:18 11.10.2019
367 Clouds 24 1010 94 10000 2.6 170 21:40 11.10.2019
368 Clouds 24 1010 94 10000 2.6 170 21:21 11.10.2019
369 Clouds 25 1009 88 10000 2.6 150 20:45 11.10.2019
370 Clouds 24 1011 88 0 6.04 127.031 20:27 11.10.2019
371 Clouds 24 1009 94 10000 2.6 180 19:59 11.10.2019
372 Clouds 24 1009 94 10000 2.6 180 19:39 11.10.2019
373 Clouds 24 1009 94 10000 2.6 180 19:18 11.10.2019
374 Clouds 24 1009 94 10000 2.6 180 19:18 11.10.2019
375 Clouds 24 1009 94 10000 2.6 180 19:18 11.10.2019
376 Clouds 24 1010 94 10000 2.6 150 18:59 11.10.2019
377 Clouds 24 1010 94 10000 2.6 150 18:38 11.10.2019
378 Clouds 24 1010 94 10000 2.6 150 18:19 11.10.2019
379 Clouds 25 1010 88 10000 5.1 180 17:59 11.10.2019
380 Clouds 25 1010 88 10000 5.1 180 17:59 11.10.2019
381 Clouds 25 1010 88 10000 5.1 180 17:38 11.10.2019
382 Clouds 25 1010 88 10000 5.1 180 17:19 11.10.2019
383 Clouds 24 1011 94 10000 2.6 140 16:58 11.10.2019
384 Clouds 24 1011 94 10000 2.6 140 16:39 11.10.2019
385 Clouds 24 1011 94 10000 2.6 140 16:19 11.10.2019
386 Clouds 25 1011 88 10000 4.1 160 15:41 11.10.2019
387 Clouds 25 1011 88 10000 6.2 160 15:20 11.10.2019
388 Clouds 25 1011 88 10000 6.2 160 14:58 11.10.2019
389 Clouds 25 1011 88 10000 6.2 160 14:58 11.10.2019
390 Clouds 25 1011 88 10000 6.2 160 14:39 11.10.2019
391 Clouds 25 1013 86 0 8.11 137.342 14:19 11.10.2019
392 Clouds 25 1013 86 0 8.11 137.342 13:45 11.10.2019
393 Clouds 25 1010 88 10000 6.7 160 13:25 11.10.2019
394 Clouds 25 1010 88 10000 6.7 160 12:57 11.10.2019
395 Clouds 25 1010 88 10000 6.7 160 12:38 11.10.2019
396 Clouds 25 1009 94 10000 5.1 160 12:20 11.10.2019
397 Clouds 25 1009 94 10000 5.1 160 11:57 11.10.2019
398 Clouds 25 1009 94 10000 5.1 160 11:38 11.10.2019
399 Clouds 25 1011 88 0 7.85 142.765 11:20 11.10.2019
400 Clouds 25 1011 88 0 7.85 142.765 10:42 11.10.2019
401 Clouds 27 1008 78 10000 10.3 150 10:23 11.10.2019
402 Clouds 27 1008 78 10000 10.3 150 09:59 11.10.2019
403 Clouds 27 1008 78 10000 10.3 150 09:40 11.10.2019
404 Clouds 28 1008 74 10000 9.3 150 09:20 11.10.2019
405 Clouds 28 1008 74 10000 9.3 150 08:56 11.10.2019
406 Clouds 28 1008 74 10000 9.3 150 08:37 11.10.2019
407 -273 0 0 0 0 0 08:19 11.10.2019
408 Clouds 29 1008 70 10000 9.3 150 07:46 11.10.2019
409 Clouds 30 1008 70 10000 7.7 140 07:27 11.10.2019
410 Clouds 30 1008 70 10000 7.7 140 06:49 11.10.2019
411 Clouds 30 1008 70 10000 7.7 140 06:24 11.10.2019
412 Clouds 29 1009 74 10000 7.7 150 05:41 11.10.2019
413 Clouds 29 1010 74 10000 5.1 170 05:20 11.10.2019
414 Clouds 29 1010 74 10000 5.1 170 04:28 11.10.2019
415 Clouds 28 1012 78 10000 5.1 170 02:41 11.10.2019
416 Clouds 26 1012 88 10000 7.7 170 00:52 11.10.2019
417 Clouds 25 1012 94 10000 5.1 160 00:29 11.10.2019
418 Clouds 25 1012 94 10000 5.1 160 23:46 10.10.2019
419 Clouds 25 1011 94 10000 5.1 160 23:23 10.10.2019
420 Clouds 25 1011 94 10000 5.1 160 22:58 10.10.2019
421 Clouds 25 1011 94 10000 5.1 160 22:39 10.10.2019
422 Clouds 25 1010 94 10000 1.5 0 22:21 10.10.2019
423 Clouds 25 1010 94 10000 1.5 0 21:58 10.10.2019
424 Clouds 25 1010 94 10000 1.5 0 21:39 10.10.2019
425 Clouds 25 1010 94 10000 4.1 150 21:21 10.10.2019
426 Clouds 25 1010 94 10000 4.1 150 20:46 10.10.2019
427 Clouds 24 1010 89 0 4.88 121.222 20:22 10.10.2019
428 Clouds 24 1010 89 0 4.88 121.222 19:59 10.10.2019
429 Clouds 24 1010 89 0 4.88 121.222 19:59 10.10.2019
430 Clouds 24 1010 89 0 4.88 121.222 19:41 10.10.2019
431 Clouds 25 1010 94 10000 3.1 160 19:21 10.10.2019
432 Clouds 25 1010 94 10000 3.1 160 18:59 10.10.2019
433 Clouds 25 1010 94 10000 3.1 160 18:40 10.10.2019
434 Clouds 25 1011 89 0 7.41 131.488 18:20 10.10.2019
435 Clouds 25 1011 89 0 7.41 131.488 17:55 10.10.2019
436 Clouds 25 1011 89 0 7.41 131.488 17:55 10.10.2019
437 Clouds 25 1011 89 0 7.41 131.488 17:37 10.10.2019
438 Clouds 25 1011 89 0 7.41 131.488 17:18 10.10.2019
439 Clouds 25 1011 89 0 7.41 131.488 16:46 10.10.2019
440 Clouds 25 1011 94 10000 4.1 160 16:26 10.10.2019
441 Clouds 25 1011 94 10000 4.1 160 15:57 10.10.2019
442 Clouds 25 1011 94 10000 4.1 160 15:37 10.10.2019
443 Clouds 25 1013 90 0 8.93 142.877 15:19 10.10.2019
444 Clouds 25 1013 90 0 8.93 142.877 14:54 10.10.2019
445 Clouds 25 1013 90 0 8.93 142.877 14:36 10.10.2019
446 Clouds 25 1013 90 0 8.93 142.877 14:18 10.10.2019
447 Clouds 25 1013 90 0 8.93 142.877 13:41 10.10.2019
448 Clouds 25 1013 90 0 8.57 142.895 13:23 10.10.2019
449 Clouds 25 1013 90 0 8.57 142.895 12:57 10.10.2019
450 Clouds 25 1013 90 0 8.57 142.895 12:39 10.10.2019
451 Clear 25 1011 90 0 8.96 155.269 12:20 10.10.2019
452 Clear 25 1011 90 0 8.96 155.269 11:56 10.10.2019
453 Clear 25 1011 90 0 8.96 155.269 11:37 10.10.2019
454 Clouds 27 1009 83 10000 5.1 180 11:18 10.10.2019
455 Clouds 27 1009 83 10000 5.1 180 10:44 10.10.2019
456 Clouds 29 1009 74 10000 7.7 180 10:26 10.10.2019
457 Clouds 29 1009 74 10000 7.7 180 09:56 10.10.2019
458 Clouds 29 1009 74 10000 7.7 180 09:38 10.10.2019
459 Clouds 29 1009 74 10000 7.7 180 09:19 10.10.2019
460 Clouds 25 1009 89 0 6.87 149.739 08:41 10.10.2019
461 Clouds 27 1008 83 10000 10.3 160 08:23 10.10.2019
462 Clouds 27 1008 83 10000 10.3 160 07:58 10.10.2019
463 Clouds 27 1008 83 10000 10.3 160 07:40 10.10.2019
464 Clouds 25 1009 89 0 6.87 149.739 07:20 10.10.2019
465 Clouds 25 1009 89 0 6.87 149.739 06:45 10.10.2019
466 Clouds 28 1010 83 10000 10.3 180 06:22 10.10.2019
467 Clouds 28 1010 83 10000 10.3 180 05:24 10.10.2019
468 Clouds 29 1011 79 10000 7.7 140 04:37 10.10.2019
469 Clouds 27 1011 83 10000 7.7 160 03:27 10.10.2019
470 Clouds 27 1012 83 10000 3.6 130 01:42 10.10.2019
471 Clouds 27 1012 83 10000 3.6 130 01:42 10.10.2019
472 Clouds 27 1012 83 10000 3.6 130 01:24 10.10.2019
473 Rain 25 1012 94 10000 3.6 140 00:45 10.10.2019
474 Rain 25 1012 94 10000 3.6 140 00:20 10.10.2019
475 Clouds 25 1011 94 10000 2.1 140 23:39 09.10.2019
476 Clouds 25 1011 94 10000 2.1 140 23:19 09.10.2019
477 Clouds 25 1011 94 10000 2.1 140 22:43 09.10.2019
478 Clouds 25 1011 94 10000 2.1 140 22:24 09.10.2019
479 Clouds 24 1012 88 0 5.84 125.66 21:59 09.10.2019
480 Clouds 24 1012 88 0 5.84 125.66 21:39 09.10.2019
481 Clouds 24 1011 88 0 5.7 133.833 21:20 09.10.2019
482 Clouds 24 1011 89 0 5.98 128.823 20:56 09.10.2019
483 Clouds 24 1011 89 0 5.98 128.823 20:56 09.10.2019
484 Clouds 24 1011 89 0 5.98 128.823 20:37 09.10.2019
485 Clouds 24 1011 89 0 5.98 128.823 20:18 09.10.2019
486 Clouds 24 1011 89 0 5.98 128.823 19:45 09.10.2019
487 Clouds 24 1011 89 0 5.98 128.823 19:23 09.10.2019
488 Clouds 24 1011 89 0 5.98 128.823 18:58 09.10.2019
489 Clouds 24 1011 89 0 5.98 128.823 18:37 09.10.2019
490 Clouds 25 1011 94 10000 4.1 150 18:18 09.10.2019
491 Clouds 25 1011 94 10000 4.1 150 17:54 09.10.2019
492 Clouds 25 1011 94 10000 4.1 150 17:36 09.10.2019
493 Rain 24 1011 89 0 7.72 134.208 17:18 09.10.2019
494 Rain 24 1011 89 0 7.72 134.208 16:40 09.10.2019
495 Rain 24 1011 89 0 7.72 134.208 16:22 09.10.2019
496 Rain 24 1011 89 0 7.72 134.208 15:58 09.10.2019
497 Rain 24 1011 89 0 7.72 134.208 15:39 09.10.2019
498 Rain 24 1013 87 0 7.75 129.919 15:19 09.10.2019
499 Rain 24 1013 87 0 7.75 129.919 14:56 09.10.2019
500 Rain 24 1013 87 0 7.75 129.919 14:37 09.10.2019
501 Rain 24 1013 87 0 7.75 129.919 14:18 09.10.2019
502 Rain 24 1013 87 0 7.75 129.919 13:39 09.10.2019
503 Rain 24 1013 87 0 7.75 129.919 13:39 09.10.2019
504 Clouds 25 1013 86 0 7.86 128.338 13:20 09.10.2019
505 Clouds 25 1013 86 0 7.86 128.338 12:57 09.10.2019
506 Clouds 25 1013 86 0 7.86 128.338 12:38 09.10.2019
507 Clouds 25 1011 84 0 9.35 144.305 12:20 09.10.2019
508 Clouds 25 1011 84 0 9.35 144.305 11:54 09.10.2019
509 Clouds 25 1011 84 0 9.35 144.305 11:36 09.10.2019
510 Clouds 25 1011 84 0 9.35 144.305 11:36 09.10.2019
511 Haze 26 1009 88 10000 7.7 150 11:18 09.10.2019
512 Haze 26 1009 88 10000 7.7 150 10:42 09.10.2019
513 -273 0 0 0 0 0 10:20 09.10.2019
514 Haze 27 1008 83 10000 6.7 150 09:56 09.10.2019
515 Haze 27 1008 83 10000 6.7 150 09:38 09.10.2019
516 Haze 27 1008 83 10000 6.7 150 09:38 09.10.2019
517 Haze 27 1008 83 10000 6.7 150 09:18 09.10.2019
518 Haze 27 1008 83 10000 7.7 160 08:39 09.10.2019
519 Haze 29 1008 74 10000 7.7 150 08:20 09.10.2019
520 Haze 29 1008 74 10000 7.7 150 08:20 09.10.2019
521 Haze 29 1008 74 10000 7.7 150 07:47 09.10.2019
522 Haze 29 1008 74 10000 7.7 150 07:47 09.10.2019
523 Haze 29 1008 74 10000 7.7 150 07:25 09.10.2019
524 Haze 30 1008 74 10000 2.6 160 06:58 09.10.2019
525 Haze 30 1008 74 10000 2.6 160 06:40 09.10.2019
526 Haze 29 1011 74 10000 2.6 140 05:53 09.10.2019
527 Haze 28 1011 78 10000 2.6 150 04:56 09.10.2019
528 Haze 28 1011 78 10000 6.2 150 03:48 09.10.2019
529 Haze 28 1012 74 10000 2.1 0 02:27 09.10.2019
530 Haze 28 1012 74 10000 2.1 0 01:39 09.10.2019
531 Haze 26 1012 83 10000 2.1 0 01:18 09.10.2019
532 Haze 26 1012 83 10000 2.1 0 00:41 09.10.2019
533 Haze 26 1012 83 10000 2.1 0 00:23 09.10.2019
534 Clouds 25 1011 88 10000 2.1 0 23:58 08.10.2019
535 Clouds 25 1011 88 10000 2.1 0 23:38 08.10.2019
536 Clouds 24 1010 94 10000 2.6 150 23:18 08.10.2019
537 Clouds 24 1010 94 10000 2.6 150 23:18 08.10.2019
538 Clouds 24 1010 94 10000 2.6 150 22:41 08.10.2019
539 Clouds 24 1010 94 10000 2.6 150 22:22 08.10.2019
540 Clouds 24 1010 94 10000 3.1 140 21:58 08.10.2019
541 Clouds 24 1010 94 10000 3.1 140 21:39 08.10.2019
542 Clouds 24 1011 86 0 8.28 122.692 21:20 08.10.2019
543 Clouds 24 1011 86 0 8.28 122.692 20:58 08.10.2019
544 Clouds 24 1011 86 0 8.28 122.692 20:58 08.10.2019
545 Clouds 24 1011 85 0 8.38 123.322 20:39 08.10.2019
546 Clouds 24 1011 85 0 8.38 123.322 20:21 08.10.2019
547 Clouds 24 1011 85 0 8.38 123.322 20:21 08.10.2019
548 Clouds 24 1011 85 0 8.38 123.322 19:59 08.10.2019
549 Clouds 24 1011 85 0 8.38 123.322 19:41 08.10.2019
550 Clouds 24 1011 85 0 8.38 123.322 19:23 08.10.2019
551 Clouds 24 1011 85 0 8.38 123.322 18:57 08.10.2019
552 Clouds 24 1011 85 0 8.38 123.322 18:39 08.10.2019
553 Clouds 24 1011 84 0 9.52 128.905 18:19 08.10.2019
554 Clouds 24 1011 84 0 9.52 128.905 17:55 08.10.2019
555 Clouds 24 1011 84 0 9.52 128.905 17:36 08.10.2019
556 Clouds 24 1011 84 0 9.52 128.905 17:18 08.10.2019
557 Clouds 24 1011 84 0 9.52 128.905 16:40 08.10.2019
558 Clouds 24 1011 94 10000 5.1 150 16:22 08.10.2019
559 Clouds 24 1011 94 10000 5.1 150 15:56 08.10.2019
560 Clouds 24 1011 94 10000 5.1 150 15:37 08.10.2019
561 Clouds 25 1011 88 10000 10.3 160 15:19 08.10.2019
562 Clouds 25 1011 88 10000 10.3 160 14:42 08.10.2019
563 Clouds 25 1011 88 10000 10.3 160 14:21 08.10.2019
564 Clouds 24 1013 81 0 10.57 132.052 13:57 08.10.2019
565 Clouds 24 1013 81 0 10.57 132.052 13:39 08.10.2019
566 Clouds 25 1010 88 10000 10.3 150 13:20 08.10.2019
567 Clouds 25 1010 88 10000 10.3 150 12:59 08.10.2019
568 Clouds 25 1010 88 10000 10.3 150 12:38 08.10.2019
569 Haze 26 1009 83 10000 10.3 150 12:18 08.10.2019
570 Haze 26 1009 83 10000 10.3 150 11:43 08.10.2019
571 Haze 26 1009 83 10000 10.3 150 11:24 08.10.2019
572 Haze 27 1008 78 10000 10.3 150 10:58 08.10.2019
573 Haze 27 1008 78 10000 10.3 150 10:38 08.10.2019
574 Haze 29 1008 70 10000 7.7 150 10:19 08.10.2019
575 Haze 29 1008 70 10000 7.7 150 09:56 08.10.2019
576 Haze 29 1008 70 10000 7.7 150 09:56 08.10.2019
577 Haze 29 1008 70 10000 7.7 150 09:37 08.10.2019
578 Haze 29 1008 70 10000 7.7 150 09:19 08.10.2019
579 Haze 29 1007 70 10000 7.7 150 08:42 08.10.2019
580 Haze 29 1007 70 10000 7.7 150 08:23 08.10.2019
581 Haze 29 1007 70 10000 7.7 150 08:23 08.10.2019
582 Haze 30 1007 66 10000 7.7 150 07:44 08.10.2019
583 Haze 30 1007 66 10000 7.7 150 07:21 08.10.2019
584 Haze 30 1008 66 10000 7.7 140 06:51 08.10.2019
585 Haze 30 1008 66 10000 7.7 140 06:28 08.10.2019
586 Haze 29 1009 70 10000 7.7 140 05:46 08.10.2019
587 Haze 29 1009 70 10000 7.7 140 05:46 08.10.2019
588 Haze 30 1010 70 10000 5.1 150 05:25 08.10.2019
589 Clouds 28 1011 78 10000 6.7 160 03:57 08.10.2019
590 Clouds 28 1012 78 10000 5.1 140 03:24 08.10.2019
591 Clouds 28 1012 78 10000 5.1 140 02:35 08.10.2019
592 Clouds 28 1014 78 10000 5.1 140 01:45 08.10.2019
593 Clouds 26 1012 88 10000 5.1 150 01:26 08.10.2019
594 Clouds 26 1012 88 10000 5.1 150 00:45 08.10.2019
595 Clouds 25 1012 94 0 4.6 140 00:20 08.10.2019
596 Clouds 25 1012 94 0 4.6 140 23:39 07.10.2019
597 Clouds 25 1012 94 0 4.6 140 23:20 07.10.2019
598 Clouds 24 1011 100 0 5.1 150 22:56 07.10.2019
599 Clouds 24 1011 100 0 5.1 150 22:37 07.10.2019
600 Clouds 24 1011 100 0 5.1 150 22:19 07.10.2019
601 Haze 24 1010 100 0 5.1 160 21:55 07.10.2019
602 Haze 24 1010 100 0 5.1 160 21:37 07.10.2019
603 Drizzle 24 1010 100 0 6.2 160 21:18 07.10.2019
604 Drizzle 24 1010 100 0 6.2 160 21:18 07.10.2019
605 Clouds 24 1010 100 10000 6.2 160 20:57 07.10.2019
606 Clouds 24 1010 100 10000 6.2 160 20:38 07.10.2019
607 Clouds 24 1010 100 10000 6.2 160 20:38 07.10.2019
608 Clouds 24 1010 100 10000 6.2 160 20:19 07.10.2019
609 Rain 24 1011 88 0 9.5 128.514 19:54 07.10.2019
610 Rain 24 1011 88 0 9.5 128.514 19:36 07.10.2019
611 Rain 24 1011 88 0 9.5 128.514 19:18 07.10.2019
612 Rain 24 1011 88 0 9.5 128.514 18:42 07.10.2019
613 Rain 24 1011 89 0 9.83 131.308 18:19 07.10.2019
614 Rain 24 1011 89 0 9.83 131.308 17:59 07.10.2019
615 Rain 24 1011 89 0 9.83 131.308 17:40 07.10.2019
616 Rain 24 1011 89 0 9.83 131.308 17:40 07.10.2019
617 Rain 24 1011 89 0 9.83 131.308 17:40 07.10.2019
618 Rain 24 1011 89 0 9.83 131.308 17:19 07.10.2019
619 Rain 24 1011 89 0 9.83 131.308 16:46 07.10.2019
620 Rain 24 1011 89 0 9.83 131.308 16:28 07.10.2019
621 Rain 24 1011 89 0 9.83 131.308 15:58 07.10.2019
622 Rain 24 1011 89 0 9.83 131.308 15:39 07.10.2019
623 Clouds 24 1013 88 0 10.11 134.872 15:21 07.10.2019
624 Clouds 24 1013 88 0 10.11 134.872 14:41 07.10.2019
625 Clouds 24 1013 88 0 10.11 134.872 14:23 07.10.2019
626 Clouds 24 1013 88 0 10.11 134.872 13:45 07.10.2019
627 Rain 24 1013 88 0 10.36 134.695 13:21 07.10.2019
628 Rain 24 1013 88 0 10.36 134.695 12:58 07.10.2019
629 Rain 24 1013 88 0 10.36 134.695 12:40 07.10.2019
630 Rain 25 1011 86 0 11.25 137.81 12:21 07.10.2019
631 Rain 25 1011 86 0 11.25 137.81 11:59 07.10.2019
632 Rain 25 1011 86 0 11.25 137.81 11:40 07.10.2019
633 Clouds 26 1009 88 10000 5.1 150 11:21 07.10.2019
634 Clouds 26 1009 88 10000 5.1 150 10:56 07.10.2019
635 Clouds 26 1009 88 10000 5.1 150 10:37 07.10.2019
636 Clouds 26 1009 88 10000 5.1 150 10:37 07.10.2019
637 Haze 27 1009 83 10000 7.7 140 10:19 07.10.2019
638 Haze 27 1009 83 10000 7.7 140 09:38 07.10.2019
639 Haze 27 1009 83 10000 7.7 140 09:20 07.10.2019
640 Haze 30 1008 74 10000 7.7 140 08:44 07.10.2019
641 Haze 30 1008 74 10000 7.7 140 08:21 07.10.2019
642 Haze 30 1008 74 10000 7.7 150 07:55 07.10.2019
643 Haze 30 1008 74 10000 7.7 150 07:28 07.10.2019
644 Haze 30 1008 74 10000 6.7 150 06:58 07.10.2019
645 Haze 30 1008 74 10000 6.7 150 06:39 07.10.2019
646 Haze 30 1008 74 10000 6.7 150 06:20 07.10.2019
647 Clouds 30 1009 70 10000 7.7 140 05:26 07.10.2019
648 Clouds 31 1010 70 10000 5.7 160 04:54 07.10.2019
649 Clouds 29 1011 79 10000 6.2 180 03:48 07.10.2019
650 Clouds 28 1012 83 10000 2.6 0 03:30 07.10.2019
651 Clouds 28 1012 83 10000 2.6 0 03:30 07.10.2019
652 Clouds 28 1012 83 10000 2.6 0 02:39 07.10.2019
653 Clouds 28 1012 83 10000 2.6 0 02:19 07.10.2019
654 Clouds 26 1012 88 10000 1.5 0 01:24 07.10.2019
655 Clouds 26 1012 88 10000 1.5 0 00:53 07.10.2019
656 Clouds 26 1012 88 10000 1.5 0 00:26 07.10.2019
657 Drizzle 25 1011 94 10000 1.5 0 23:59 06.10.2019
658 Drizzle 25 1011 94 10000 1.5 0 23:40 06.10.2019
659 Drizzle 25 1011 94 10000 1.5 0 23:20 06.10.2019
660 Clouds 25 1010 94 10000 1.5 0 22:56 06.10.2019
661 Clouds 25 1010 94 10000 1.5 0 22:37 06.10.2019
662 Clouds 25 1010 94 10000 1.5 0 22:37 06.10.2019
663 Clouds 25 1010 94 10000 1.5 0 22:19 06.10.2019
664 Clouds 25 1010 94 10000 5.1 140 21:55 06.10.2019
665 Clouds 25 1010 94 10000 5.1 140 21:36 06.10.2019
666 Clouds 25 1010 94 10000 5.1 140 21:18 06.10.2019
667 Clouds 25 1009 94 10000 5.1 140 20:54 06.10.2019
668 Clouds 25 1009 94 10000 5.1 140 20:54 06.10.2019
669 -273 0 0 0 0 0 20:54 06.10.2019
670 Clouds 25 1009 94 10000 5.1 140 20:36 06.10.2019
671 Clouds 25 1011 88 0 8.32 128.286 20:18 06.10.2019
672 Clouds 25 1011 88 0 8.32 128.286 19:55 06.10.2019
673 Clouds 25 1011 88 0 8.32 128.286 19:36 06.10.2019
674 Clouds 25 1010 94 10000 7.7 140 19:18 06.10.2019
675 Clouds 25 1010 94 10000 7.7 140 18:54 06.10.2019
676 Clouds 25 1010 94 10000 7.7 140 18:54 06.10.2019
677 Clouds 25 1010 94 10000 7.7 140 18:36 06.10.2019
678 Clouds 25 1010 94 10000 7.7 140 18:18 06.10.2019
679 Clouds 25 1010 94 10000 7.7 140 17:42 06.10.2019
680 Clouds 25 1010 94 10000 7.7 140 17:20 06.10.2019
681 Clouds 25 1011 89 0 10 132.496 16:55 06.10.2019
682 Clouds 25 1011 89 0 10 132.496 16:36 06.10.2019
683 Clouds 25 1011 94 10000 5.1 140 16:18 06.10.2019
684 Clouds 25 1011 94 10000 5.1 140 15:42 06.10.2019
685 Clouds 25 1011 94 10000 5.1 140 15:19 06.10.2019
686 Clouds 25 1011 94 10000 5.1 140 15:19 06.10.2019
687 Clouds 25 1011 94 10000 5.1 140 15:19 06.10.2019
688 Clouds 25 1011 94 10000 5.1 150 14:44 06.10.2019
689 Clouds 25 1011 94 10000 5.1 150 14:25 06.10.2019
690 Clouds 25 1013 89 0 10.82 134.828 13:59 06.10.2019
691 Clouds 25 1013 89 0 10.82 134.828 13:39 06.10.2019
692 Clouds 26 1011 88 10000 2.6 150 13:21 06.10.2019
693 Clouds 26 1011 88 10000 2.6 150 12:57 06.10.2019
694 Clouds 26 1011 88 10000 2.6 150 12:39 06.10.2019
695 Clouds 26 1011 87 0 12.42 136.018 12:20 06.10.2019
696 Clouds 26 1011 87 0 12.42 136.018 11:58 06.10.2019
697 Clouds 26 1011 87 0 12.42 136.018 11:38 06.10.2019
698 Clouds 26 1010 88 10000 5.1 150 11:20 06.10.2019
699 Clouds 26 1010 88 10000 5.1 150 10:44 06.10.2019
700 Clouds 28 1008 83 10000 5.1 150 10:26 06.10.2019
701 Clouds 28 1008 83 10000 5.1 150 09:58 06.10.2019
702 Clouds 28 1008 83 10000 5.1 150 09:40 06.10.2019
703 Clouds 28 1008 83 10000 5.1 150 09:19 06.10.2019
704 Clouds 27 1008 88 10000 7.7 150 08:43 06.10.2019
705 Clouds 27 1008 88 10000 7.7 150 08:21 06.10.2019
706 Clouds 29 1008 79 10000 7.7 150 07:56 06.10.2019
707 Clouds 29 1008 79 10000 7.7 150 07:56 06.10.2019
708 Clouds 29 1008 79 10000 7.7 150 07:33 06.10.2019
709 Clouds 30 1009 70 10000 5.1 160 06:20 06.10.2019
710 Clouds 30 1009 74 10000 5.1 150 05:34 06.10.2019
711 Clouds 25 1010 88 0 8.81 148.812 03:56 06.10.2019
712 Clouds 27 1012 83 10000 2.6 140 02:44 06.10.2019
713 Clouds 27 1012 83 10000 2.6 140 02:22 06.10.2019
714 Clouds 27 1012 88 10000 2.6 140 01:45 06.10.2019
715 Clouds 27 1012 88 10000 2.6 140 01:27 06.10.2019
716 Clouds 26 1012 88 10000 4.04 127.788 00:53 06.10.2019
717 Clouds 24 1011 94 10000 4.04 127.788 00:27 06.10.2019
718 Clouds 24 1011 94 10000 6.13 118.184 23:45 05.10.2019
719 Clouds 24 1011 94 10000 6.13 118.184 23:22 05.10.2019
720 Clouds 23 1010 100 10000 2.6 120 22:58 05.10.2019
721 Clouds 23 1010 100 10000 2.6 120 22:40 05.10.2019
722 Clouds 23 1010 100 10000 2.6 120 22:20 05.10.2019
723 Clouds 23 1010 100 10000 2.6 120 21:56 05.10.2019
724 Clouds 23 1010 100 10000 2.6 120 21:38 05.10.2019
725 Rain 25 1011 90 0 8.22 130.885 21:18 05.10.2019
726 Rain 25 1011 90 0 8.22 130.885 20:55 05.10.2019
727 Rain 25 1011 89 0 7.56 129.826 20:37 05.10.2019
728 Rain 25 1011 89 0 7.56 129.826 20:18 05.10.2019
729 Rain 25 1011 89 0 7.56 129.826 19:37 05.10.2019
730 Rain 25 1011 89 0 7.56 129.826 19:19 05.10.2019
731 Rain 25 1011 89 0 7.56 129.826 18:55 05.10.2019
732 Rain 25 1011 89 0 7.56 129.826 18:37 05.10.2019
733 Rain 25 1011 89 0 7.56 129.826 18:37 05.10.2019
734 Rain 25 1011 90 0 9.43 132.885 18:19 05.10.2019
735 Rain 25 1011 90 0 9.43 132.885 17:43 05.10.2019
736 Clouds 24 1011 100 10000 4.1 150 17:23 05.10.2019
737 Clouds 24 1011 100 10000 4.1 150 16:57 05.10.2019
738 Clouds 24 1011 100 10000 4.1 150 16:39 05.10.2019
739 Clouds 24 1011 100 10000 4.1 150 16:20 05.10.2019
740 Clouds 24 1011 100 10000 4.1 150 16:20 05.10.2019
741 Clouds 24 1011 100 10000 4.1 150 15:56 05.10.2019
742 Clouds 24 1011 100 10000 4.1 150 15:38 05.10.2019
743 Rain 25 1014 87 0 10.06 126.956 15:19 05.10.2019
744 Rain 25 1014 87 0 10.06 126.956 14:43 05.10.2019
745 Rain 25 1014 87 0 10.06 126.956 14:24 05.10.2019
746 Rain 25 1014 87 0 10.06 126.956 13:58 05.10.2019
747 Rain 25 1014 87 0 10.06 126.956 13:39 05.10.2019
748 Clouds 24 1011 94 10000 7.7 150 13:18 05.10.2019
749 Clouds 24 1011 94 10000 7.7 150 12:42 05.10.2019
750 Rain 25 1012 86 0 12.37 131.67 12:19 05.10.2019
751 Rain 25 1012 86 0 12.37 131.67 11:43 05.10.2019
752 Rain 25 1010 94 0 10.8 160 11:20 05.10.2019
753 Rain 25 1010 94 0 10.8 160 10:57 05.10.2019
754 Rain 25 1010 94 0 10.8 160 10:39 05.10.2019
755 Rain 24 1010 100 0 10.8 160 10:20 05.10.2019
756 Rain 24 1010 100 0 10.8 160 09:42 05.10.2019
757 Rain 25 1010 94 0 10.8 160 09:23 05.10.2019
758 Rain 25 1010 94 0 10.8 160 08:43 05.10.2019
759 Rain 25 1009 94 0 12.3 150 08:24 05.10.2019
760 Rain 25 1009 94 0 12.3 150 07:59 05.10.2019
761 Rain 25 1009 94 0 12.3 150 07:40 05.10.2019
762 Rain 25 1009 88 0 10.3 160 07:21 05.10.2019
763 Rain 25 1009 88 0 10.3 160 06:52 05.10.2019
764 Rain 25 1009 88 0 10.3 160 06:21 05.10.2019
765 Rain 25 1011 94 0 10.8 150 04:46 05.10.2019
766 Rain 25 1013 94 10000 10.3 150 03:32 05.10.2019
767 Rain 25 1013 94 10000 10.3 150 02:26 05.10.2019
768 Rain 25 1013 94 10000 10.3 160 01:26 05.10.2019
769 Clouds 24 1012 94 10000 8.2 140 00:48 05.10.2019
770 Clouds 24 1012 94 10000 8.2 140 00:48 05.10.2019
771 Clouds 24 1012 94 10000 8.2 140 00:27 05.10.2019
772 Clouds 24 1012 94 10000 7.7 140 23:56 04.10.2019
773 Clouds 24 1012 94 10000 7.7 140 23:37 04.10.2019
774 Clouds 24 1012 94 10000 7.7 140 23:18 04.10.2019
775 Clouds 24 1012 94 10000 7.7 140 22:41 04.10.2019
776 Clouds 25 1012 85 0 11.34 129.683 22:23 04.10.2019
777 Clouds 25 1012 85 0 11.34 129.683 21:58 04.10.2019
778 Clouds 25 1012 85 0 11.34 129.683 21:40 04.10.2019
779 Rain 25 1011 83 0 11.78 128.657 21:22 04.10.2019
780 Rain 25 1011 83 0 11.78 128.657 20:58 04.10.2019
781 Rain 25 1011 83 0 12.61 125.27 20:39 04.10.2019
782 Rain 25 1011 83 0 12.61 125.27 20:21 04.10.2019
783 Rain 25 1011 83 0 12.61 125.27 19:55 04.10.2019
784 Rain 25 1011 83 0 12.61 125.27 19:37 04.10.2019
785 Rain 25 1011 83 0 12.61 125.27 19:18 04.10.2019
786 Rain 25 1011 83 0 12.61 125.27 18:39 04.10.2019
787 Rain 25 1011 85 0 12.17 132.296 18:20 04.10.2019
788 Rain 25 1011 85 0 12.17 132.296 18:20 04.10.2019
789 Rain 25 1011 85 0 12.17 132.296 17:58 04.10.2019
790 Rain 25 1011 85 0 12.17 132.296 17:39 04.10.2019
791 Clouds 24 1012 94 10000 7.7 160 17:20 04.10.2019
792 Clouds 24 1012 94 10000 7.7 160 16:55 04.10.2019
793 Clouds 24 1012 94 10000 7.7 160 16:55 04.10.2019
794 Clouds 24 1012 94 10000 7.7 160 16:55 04.10.2019
795 Clouds 24 1012 94 10000 7.7 160 16:37 04.10.2019
796 Rain 25 1011 85 0 12.17 132.296 16:18 04.10.2019
797 Rain 25 1011 85 0 12.17 132.296 15:55 04.10.2019
798 Rain 25 1011 85 0 12.17 132.296 15:37 04.10.2019
799 Rain 25 1011 85 0 12.17 132.296 15:37 04.10.2019
800 Rain 24 1012 94 10000 10.3 150 15:18 04.10.2019
801 Rain 24 1012 94 10000 10.3 150 14:42 04.10.2019
802 Rain 25 1013 85 0 13.06 132.548 14:22 04.10.2019
803 Rain 25 1013 85 0 13.06 132.548 13:59 04.10.2019
804 Rain 25 1013 85 0 13.06 132.548 13:41 04.10.2019
805 Rain 24 1011 94 0 7.7 150 13:19 04.10.2019
806 Rain 24 1011 94 0 7.7 150 12:45 04.10.2019
807 Rain 24 1011 94 0 7.7 150 12:27 04.10.2019
808 Rain 24 1011 94 0 7.7 150 12:27 04.10.2019
809 Rain 24 1011 94 0 7.7 150 11:56 04.10.2019
810 Rain 24 1011 94 0 7.7 150 11:56 04.10.2019
811 Rain 24 1011 94 0 7.7 150 11:38 04.10.2019
812 Rain 26 1010 83 10000 7.7 160 11:19 04.10.2019
813 Rain 26 1010 83 10000 7.7 160 10:39 04.10.2019
814 Rain 26 1010 83 10000 7.7 160 10:20 04.10.2019
815 Rain 26 1010 83 10000 7.7 160 10:20 04.10.2019
816 Rain 26 1009 83 10000 7.7 160 09:44 04.10.2019
817 Clouds 27 1008 83 10000 10.3 160 09:26 04.10.2019
818 Clouds 27 1008 83 10000 10.3 160 09:26 04.10.2019
819 Clouds 27 1008 83 10000 10.3 160 08:55 04.10.2019
820 Clouds 27 1008 83 10000 10.3 160 08:37 04.10.2019
821 Clouds 27 1008 83 10000 10.3 160 08:37 04.10.2019
822 Haze 27 1008 78 10000 10.3 150 08:18 04.10.2019
823 Haze 27 1008 78 10000 10.3 150 07:42 04.10.2019
824 Clouds 29 1008 74 10000 10.3 150 07:20 04.10.2019
825 Clouds 29 1008 74 10000 10.3 150 06:41 04.10.2019
826 Clouds 29 1009 74 0 10.3 150 06:22 04.10.2019
827 Clouds 29 1009 74 0 10.3 150 05:23 04.10.2019
828 Clouds 29 1010 74 10000 12.9 160 04:54 04.10.2019
829 Clouds 29 1011 74 10000 10.3 140 03:42 04.10.2019
830 Clouds 29 1012 74 10000 10.3 150 02:53 04.10.2019
831 Clouds 28 1012 78 10000 8.7 140 01:54 04.10.2019
832 Clouds 28 1012 78 10000 8.7 140 01:54 04.10.2019
833 Clouds 28 1012 78 10000 8.7 140 01:27 04.10.2019
834 Clouds 26 1012 83 10000 7.7 140 00:44 04.10.2019
835 Clouds 25 1011 88 10000 2.6 140 23:42 03.10.2019
836 Clouds 25 1011 88 10000 2.6 140 23:22 03.10.2019
837 Clouds 24 1010 94 10000 2.6 120 22:58 03.10.2019
838 Clouds 24 1010 94 10000 2.6 120 22:40 03.10.2019
839 Clouds 24 1010 94 10000 2.6 120 22:21 03.10.2019
840 Clouds 24 1009 94 10000 3.6 120 21:59 03.10.2019
841 Clouds 24 1009 94 10000 3.6 120 21:40 03.10.2019
842 Clouds 25 1011 85 0 10.69 129.643 21:21 03.10.2019
843 Clouds 25 1011 85 0 10.69 129.643 20:58 03.10.2019
844 Clouds 25 1011 86 0 10.13 126.64 20:40 03.10.2019
845 Clouds 25 1011 86 0 10.13 126.64 20:22 03.10.2019
846 Clouds 25 1011 86 0 10.13 126.64 19:59 03.10.2019
847 Clouds 25 1011 86 0 10.13 126.64 19:59 03.10.2019
848 Clouds 25 1011 86 0 10.13 126.64 19:40 03.10.2019
849 Clouds 25 1011 86 0 10.13 126.64 19:20 03.10.2019
850 Clouds 25 1011 86 0 10.13 126.64 18:56 03.10.2019
851 Clouds 25 1011 86 0 10.13 126.64 18:38 03.10.2019
852 Clouds 25 1011 86 0 10.13 126.64 18:38 03.10.2019
853 Clouds 25 1011 85 0 12.73 129.714 18:18 03.10.2019
854 Clouds 25 1011 85 0 12.73 129.714 17:42 03.10.2019
855 Clouds 25 1011 88 10000 7.7 150 17:23 03.10.2019
856 Clouds 25 1011 88 10000 7.7 150 16:58 03.10.2019
857 Clouds 25 1011 88 10000 7.7 150 16:39 03.10.2019
858 Clouds 25 1011 88 10000 7.7 150 16:21 03.10.2019
859 Clouds 25 1011 85 0 12.73 129.714 15:45 03.10.2019
860 Rain 25 1013 85 0 12.16 130.439 15:24 03.10.2019
861 Rain 25 1013 85 0 12.16 130.439 14:58 03.10.2019
862 Rain 25 1013 85 0 12.16 130.439 14:37 03.10.2019
863 Rain 25 1013 85 0 12.16 130.439 14:18 03.10.2019
864 Rain 25 1013 85 0 12.16 130.439 13:44 03.10.2019
865 Clouds 25 1011 88 10000 7.7 150 13:25 03.10.2019
866 Clouds 25 1011 88 10000 7.7 150 13:25 03.10.2019
867 Clouds 25 1011 88 10000 7.7 150 12:58 03.10.2019
868 Clouds 25 1011 88 10000 7.7 150 12:39 03.10.2019
869 Clouds 25 1011 88 10000 7.7 150 12:39 03.10.2019
870 Clouds 25 1011 85 0 13.36 135.886 12:20 03.10.2019
871 Clouds 25 1011 85 0 13.36 135.886 11:58 03.10.2019
872 -273 0 0 0 0 0 11:39 03.10.2019
873 Clouds 25 1010 88 10000 7.7 170 11:21 03.10.2019
874 Clouds 25 1010 88 10000 7.7 170 10:57 03.10.2019
875 Clouds 25 1010 88 10000 7.7 170 10:38 03.10.2019
876 Clouds 25 1010 88 10000 7.7 170 10:18 03.10.2019
877 Clouds 26 1009 88 10000 7.7 170 09:56 03.10.2019
878 Clouds 26 1009 88 10000 7.7 170 09:37 03.10.2019
879 Clouds 26 1009 88 10000 7.7 170 09:19 03.10.2019
880 Clouds 27 1009 83 10000 7.7 160 08:42 03.10.2019
881 Clouds 28 1009 78 10000 7.7 150 08:23 03.10.2019
882 Clouds 28 1009 78 10000 7.7 150 07:42 03.10.2019
883 Clouds 28 1009 78 10000 7.7 150 07:42 03.10.2019
884 Clouds 28 1009 78 10000 7.7 150 07:20 03.10.2019
885 Clouds 28 1009 78 10000 7.7 170 06:52 03.10.2019
886 Clouds 27 1010 83 10000 7.7 160 06:26 03.10.2019
887 Clouds 27 1010 83 10000 7.7 160 05:48 03.10.2019
888 Clouds 27 1010 83 10000 7.7 160 05:25 03.10.2019
889 Clouds 25 1010 84 0 13.84 145.265 04:44 03.10.2019
890 Clouds 30 1012 70 10000 7.7 160 03:36 03.10.2019
891 Clouds 30 1012 70 10000 7.7 160 03:18 03.10.2019
892 Clouds 30 1012 70 10000 7.7 160 03:18 03.10.2019
893 Clouds 27 1013 78 10000 5.1 150 02:20 03.10.2019
894 Clouds 27 1013 78 10000 5.1 140 01:37 03.10.2019
895 Clouds 26 1013 88 10000 3.6 150 00:52 03.10.2019
896 Clouds 26 1013 88 10000 3.6 150 00:28 03.10.2019
897 Clouds 25 1012 88 10000 4.1 140 23:44 02.10.2019
898 Clouds 25 1012 88 10000 4.1 140 23:24 02.10.2019
899 Clouds 25 1011 88 10000 4.1 140 22:47 02.10.2019
900 Clouds 25 1011 88 10000 4.1 140 22:24 02.10.2019
901 Clouds 22 1012 88 10000 1.5 0 21:58 02.10.2019
902 Clouds 22 1012 88 10000 1.5 0 21:39 02.10.2019
903 Clouds 24 1011 94 10000 5.1 150 21:20 02.10.2019
904 Clouds 24 1011 94 10000 5.1 150 20:58 02.10.2019
905 Clouds 24 1011 94 10000 5.1 150 20:39 02.10.2019
906 Clouds 24 1011 94 10000 5.1 150 20:21 02.10.2019
907 Clouds 24 1011 94 10000 5.1 150 19:57 02.10.2019
908 Clouds 24 1011 94 10000 5.1 150 19:39 02.10.2019
909 Clouds 24 1011 94 10000 4.6 150 19:21 02.10.2019
910 Clouds 24 1011 94 10000 4.6 150 18:57 02.10.2019
911 Clouds 24 1011 94 10000 4.6 150 18:38 02.10.2019
912 Rain 25 1012 87 0 10.83 129.56 18:19 02.10.2019
913 Rain 25 1012 87 0 10.83 129.56 17:56 02.10.2019
914 Rain 25 1012 87 0 10.83 129.56 17:36 02.10.2019
915 Rain 25 1012 87 0 10.83 129.56 17:36 02.10.2019
916 Clouds 24 1012 94 10000 5.1 150 17:18 02.10.2019
917 Rain 25 1012 87 0 10.83 129.56 16:41 02.10.2019
918 Rain 25 1012 87 0 10.83 129.56 16:21 02.10.2019
919 Rain 25 1012 87 0 10.83 129.56 15:57 02.10.2019
920 Rain 25 1012 87 0 10.83 129.56 15:38 02.10.2019
921 Rain 25 1014 89 0 11.09 126.957 15:19 02.10.2019
922 Rain 25 1014 89 0 11.09 126.957 14:55 02.10.2019
923 Rain 25 1014 89 0 11.09 126.957 14:37 02.10.2019
924 Rain 25 1014 89 0 11.09 126.957 14:37 02.10.2019
925 Rain 25 1014 89 0 11.09 126.957 14:18 02.10.2019
926 Rain 25 1014 89 0 11.09 126.957 13:42 02.10.2019
927 Rain 24 1014 91 0 12.11 126.409 13:22 02.10.2019
928 Rain 24 1014 91 0 12.11 126.409 12:56 02.10.2019
929 Rain 24 1014 91 0 12.11 126.409 12:37 02.10.2019
930 Rain 24 1014 91 0 12.11 126.409 12:37 02.10.2019
931 Rain 25 1013 88 0 11.67 126.969 12:18 02.10.2019
932 Rain 25 1013 88 0 11.67 126.969 11:42 02.10.2019
933 Rain 25 1012 94 10000 5.1 140 11:21 02.10.2019
934 Rain 25 1012 94 10000 5.1 140 10:41 02.10.2019
935 Rain 25 1012 94 10000 5.1 140 10:20 02.10.2019
936 Clouds 26 1011 88 10000 7.7 140 09:42 02.10.2019
937 Clouds 26 1011 88 10000 7.7 140 09:22 02.10.2019
938 Clouds 27 1010 83 10000 15.4 150 08:59 02.10.2019
939 Clouds 27 1010 83 10000 15.4 150 08:41 02.10.2019
940 Clouds 25 1011 85 0 12.9 143.655 08:22 02.10.2019
941 Clouds 28 1010 83 10000 15.4 150 07:55 02.10.2019
942 Clouds 28 1010 83 10000 15.4 150 07:37 02.10.2019
943 Clouds 28 1010 83 10000 15.4 150 07:18 02.10.2019
944 Clouds 29 1011 79 10000 12.9 130 06:28 02.10.2019
945 Clouds 29 1011 79 10000 12.9 130 05:51 02.10.2019
946 Clouds 26 1011 85 0 12.1 147.786 05:22 02.10.2019
947 Clouds 30 1013 66 10000 5.1 130 04:18 02.10.2019
948 Clouds 30 1013 66 10000 5.1 130 03:45 02.10.2019
949 Clouds 28 1013 74 10000 2.6 120 02:38 02.10.2019
950 Clouds 28 1013 78 10000 2.6 170 02:20 02.10.2019
951 Clouds 27 1013 83 10000 3.1 160 00:53 02.10.2019
952 Clouds 24 1013 100 10000 1.5 0 00:30 02.10.2019
953 Clouds 24 1013 100 10000 1.5 0 23:56 01.10.2019
954 Clouds 24 1013 100 10000 1.5 0 23:37 01.10.2019
955 Clouds 24 1013 100 10000 1.5 0 23:19 01.10.2019
956 Clouds 24 1012 100 10000 1 0 22:58 01.10.2019
957 Clouds 24 1012 100 10000 1 0 22:37 01.10.2019
958 Clouds 24 1012 100 10000 1 0 22:18 01.10.2019
959 Clouds 24 1012 100 10000 1 0 22:18 01.10.2019
960 Clouds 24 1012 94 10000 2.6 340 21:42 01.10.2019
961 Clouds 24 1011 100 10000 4.1 350 21:22 01.10.2019
962 Clouds 24 1011 100 10000 4.1 350 20:58 01.10.2019
963 Clouds 24 1011 100 10000 4.1 350 20:39 01.10.2019
964 Clouds 24 1011 100 10000 1.5 0 20:20 01.10.2019
965 Clouds 24 1011 100 10000 1.5 0 20:20 01.10.2019
966 Clouds 24 1011 100 10000 1.5 0 19:57 01.10.2019
967 Clouds 24 1011 100 10000 1.5 0 19:38 01.10.2019
968 Clouds 24 1011 94 10000 2.6 0 19:20 01.10.2019
969 Clouds 24 1011 94 10000 2.6 0 18:55 01.10.2019
970 Clouds 24 1011 94 10000 2.6 0 18:36 01.10.2019
971 Clouds 25 1013 87 0 6.21 127.845 18:18 01.10.2019
972 Clouds 25 1013 87 0 6.21 127.845 17:42 01.10.2019
973 Clouds 25 1013 87 0 6.21 127.845 17:42 01.10.2019
974 Clouds 25 1012 94 10000 2.6 130 17:20 01.10.2019
975 Clouds 25 1012 94 10000 2.6 130 16:58 01.10.2019
976 Clouds 25 1012 94 10000 2.6 130 16:40 01.10.2019
977 Clouds 25 1012 94 10000 2.6 130 16:21 01.10.2019
978 Clouds 24 1012 100 10000 2.6 150 15:47 01.10.2019
979 Clouds 24 1012 100 10000 2.6 150 15:24 01.10.2019
980 -273 0 0 0 0 0 14:56 01.10.2019
981 Haze 24 1013 94 10000 2.1 0 14:37 01.10.2019
982 Rain 25 1015 88 0 4.81 132.372 14:19 01.10.2019
983 Rain 25 1015 88 0 4.81 132.372 13:41 01.10.2019
984 Haze 25 1012 88 10000 2.1 0 13:22 01.10.2019
985 Haze 25 1012 88 10000 2.1 0 12:59 01.10.2019
986 Haze 25 1012 88 10000 2.1 0 12:41 01.10.2019
987 Haze 25 1012 94 10000 2.6 0 12:19 01.10.2019
988 Haze 25 1012 94 10000 2.6 0 11:58 01.10.2019
989 Haze 25 1012 94 10000 2.6 0 11:38 01.10.2019
990 Haze 25 1012 94 10000 2.6 0 11:19 01.10.2019
991 Haze 26 1011 88 10000 2.6 0 10:49 01.10.2019
992 Rain 26 1013 87 0 4.87 128.998 10:29 01.10.2019
993 Haze 27 1011 88 10000 5.1 150 09:57 01.10.2019
994 Haze 27 1011 88 10000 5.1 150 09:39 01.10.2019
995 Haze 27 1010 88 10000 5.1 150 09:21 01.10.2019
996 Haze 27 1010 88 10000 5.1 150 08:42 01.10.2019
997 Haze 27 1010 88 10000 5.1 150 08:24 01.10.2019
998 Clouds 27 1009 88 10000 5.1 130 07:48 01.10.2019
999 Clouds 27 1009 88 10000 5.1 130 07:25 01.10.2019
1000 Clouds 30 1009 79 10000 7.7 150 06:48 01.10.2019
1001 Clouds 30 1009 79 10000 7.7 150 06:19 01.10.2019
1002 Clouds 30 1010 79 10000 5.1 150 05:46 01.10.2019
1003 Clouds 26 1011 86 0 10.3 145.427 05:18 01.10.2019
1004 Clouds 30 1012 79 10000 5.1 140 04:29 01.10.2019
1005 Rain 27 1013 88 10000 2.6 130 02:28 01.10.2019
1006 Rain 27 1013 88 10000 2.6 130 01:59 01.10.2019
1007 Clouds 26 1014 87 0 6.94 141.781 00:57 01.10.2019
1008 Clouds 25 1012 94 10000 1.5 0 00:28 01.10.2019
1009 Clouds 25 1012 94 10000 1.5 0 23:56 30.09.2019
1010 Clouds 25 1012 94 10000 1.5 0 23:38 30.09.2019
1011 Clouds 25 1012 94 10000 1.5 0 23:19 30.09.2019
1012 Clouds 25 1012 94 10000 1 0 22:43 30.09.2019
1013 Clouds 25 1011 100 10000 1.5 0 22:24 30.09.2019
1014 Clouds 25 1011 100 10000 1.5 0 21:57 30.09.2019
1015 Clouds 25 1011 100 10000 1.5 0 21:38 30.09.2019
1016 Clouds 25 1011 100 10000 1.5 0 21:19 30.09.2019
1017 Clouds 25 1011 94 10000 1.5 0 20:57 30.09.2019
1018 Clouds 25 1011 94 10000 1.5 0 20:38 30.09.2019
1019 Clouds 25 1010 94 10000 5.1 150 20:20 30.09.2019
1020 Clouds 25 1010 94 10000 5.1 150 19:56 30.09.2019
1021 Clouds 25 1010 94 10000 5.1 150 19:38 30.09.2019
1022 Clouds 25 1010 94 10000 5.1 150 19:19 30.09.2019
1023 Clouds 25 1011 94 10000 5.1 150 18:57 30.09.2019
1024 Clouds 25 1011 94 10000 5.1 150 18:37 30.09.2019
1025 Clouds 25 1011 94 10000 1.5 0 18:19 30.09.2019
1026 Clouds 25 1011 94 10000 1.5 0 17:42 30.09.2019
1027 Clouds 25 1011 94 10000 1.5 0 17:22 30.09.2019
1028 Clouds 25 1012 90 0 8.38 127.104 16:56 30.09.2019
1029 Clouds 25 1012 90 0 8.38 127.104 16:38 30.09.2019
1030 Clouds 25 1012 90 0 8.38 127.104 16:19 30.09.2019
1031 Clouds 25 1012 90 0 8.38 127.104 15:57 30.09.2019
1032 Clouds 25 1012 90 0 8.38 127.104 15:57 30.09.2019
1033 Clouds 25 1012 90 0 8.38 127.104 15:37 30.09.2019
1034 Rain 25 1014 89 0 11.67 133.195 15:19 30.09.2019
1035 Rain 25 1014 89 0 11.67 133.195 14:57 30.09.2019
1036 Rain 25 1014 89 0 11.67 133.195 14:37 30.09.2019
1037 Rain 25 1014 89 0 11.67 133.195 14:18 30.09.2019
1038 Rain 25 1014 89 0 11.67 133.195 13:55 30.09.2019
1039 Rain 25 1014 89 0 11.67 133.195 13:36 30.09.2019
1040 Rain 26 1013 87 0 12.07 137.262 13:18 30.09.2019
1041 Rain 26 1013 87 0 12.07 137.262 12:41 30.09.2019
1042 Rain 25 1012 87 0 13.59 141.467 12:21 30.09.2019
1043 Rain 25 1012 87 0 13.59 141.467 11:44 30.09.2019
1044 Haze 27 1010 88 10000 5.1 140 11:23 30.09.2019
1045 Haze 27 1010 88 10000 5.1 140 10:59 30.09.2019
1046 Haze 27 1010 88 10000 5.1 140 10:40 30.09.2019
1047 Haze 28 1009 83 10000 5.1 150 10:19 30.09.2019
1048 Haze 28 1009 83 10000 5.1 150 09:58 30.09.2019
1049 Haze 28 1009 83 10000 5.1 150 09:39 30.09.2019
1050 Clear 26 1011 85 0 13.61 146.405 09:20 30.09.2019
1051 Haze 30 1008 74 10000 7.7 150 08:46 30.09.2019
1052 Haze 30 1008 74 10000 7.7 150 08:28 30.09.2019
1053 Haze 30 1009 74 10000 7.7 160 07:44 30.09.2019
1054 Haze 30 1009 74 10000 7.7 160 07:44 30.09.2019
1055 Haze 30 1009 74 10000 7.7 160 07:26 30.09.2019
1056 Haze 31 1009 70 10000 5.1 170 06:56 30.09.2019
1057 Haze 31 1009 70 10000 5.1 170 06:33 30.09.2019
1058 Clouds 31 1010 74 10000 5.1 180 05:47 30.09.2019
1059 Clouds 31 1010 74 10000 5.1 180 05:47 30.09.2019
1060 Clouds 31 1010 74 10000 5.1 180 05:47 30.09.2019
1061 Clear 25 1011 87 0 11.78 151.436 03:45 30.09.2019
1062 Clouds 30 1013 79 10000 7.7 170 02:48 30.09.2019
1063 Clouds 29 1013 83 10000 5.1 150 01:37 30.09.2019
1064 Clouds 27 1013 88 10000 5.1 140 00:42 30.09.2019
1065 Clouds 26 1013 94 10000 2.6 130 00:21 30.09.2019
1066 Clouds 26 1013 94 10000 2.6 130 23:46 29.09.2019
1067 Clouds 25 1012 100 10000 2.6 120 23:23 29.09.2019
1068 Rain 25 1014 91 0 6.54 126.831 22:56 29.09.2019
1069 Rain 25 1014 91 0 6.54 126.831 22:38 29.09.2019
1070 Clouds 25 1011 100 10000 5.1 140 22:19 29.09.2019
1071 Clouds 25 1011 100 10000 5.1 140 21:57 29.09.2019
1072 Clouds 25 1011 100 10000 5.1 140 21:37 29.09.2019
1073 Clouds 25 1013 91 0 7.08 126.897 21:19 29.09.2019
1074 Clouds 25 1013 91 0 7.08 126.897 20:44 29.09.2019
1075 Clouds 25 1012 100 10000 5.1 140 20:20 29.09.2019
1076 Clouds 25 1012 100 10000 5.1 140 19:59 29.09.2019
1077 Clouds 25 1012 100 10000 5.1 140 19:37 29.09.2019
1078 Clouds 25 1012 100 10000 5.1 140 19:37 29.09.2019
1079 Clouds 25 1013 92 0 7.33 128.288 19:19 29.09.2019
1080 -273 0 0 0 0 0 18:56 29.09.2019
1081 Clouds 25 1012 100 10000 3.6 160 18:56 29.09.2019
1082 Clouds 25 1012 100 10000 3.6 160 18:56 29.09.2019
1083 Clouds 25 1012 100 10000 3.6 160 18:56 29.09.2019
1084 Clouds 25 1012 100 10000 3.6 160 18:38 29.09.2019
1085 Clouds 25 1013 92 0 9.15 136.51 18:19 29.09.2019
1086 Clouds 25 1013 92 0 9.15 136.51 17:57 29.09.2019
1087 Clouds 25 1013 92 0 9.15 136.51 17:38 29.09.2019
1088 Clouds 25 1012 100 10000 3.6 160 17:19 29.09.2019
1089 Clouds 25 1012 100 10000 3.6 160 16:58 29.09.2019
1090 Clouds 25 1012 100 10000 3.6 160 16:39 29.09.2019
1091 Clouds 26 1013 94 10000 4.6 160 16:19 29.09.2019
1092 Clouds 26 1013 94 10000 4.6 160 15:41 29.09.2019
1093 Clouds 26 1013 94 10000 4.6 160 15:20 29.09.2019
1094 Clouds 26 1013 88 10000 4.6 160 14:59 29.09.2019
1095 Clouds 26 1013 88 10000 4.6 160 14:40 29.09.2019
1096 Clouds 26 1013 88 10000 4.6 160 14:20 29.09.2019
1097 Clouds 25 1014 91 0 10.19 141.049 13:57 29.09.2019
1098 Clouds 25 1014 91 0 10.19 141.049 13:39 29.09.2019
1099 Haze 26 1012 94 10000 6.2 140 13:19 29.09.2019
1100 Haze 26 1012 94 10000 6.2 140 12:57 29.09.2019
1101 Haze 26 1012 94 10000 6.2 140 12:39 29.09.2019
1102 Haze 26 1011 94 10000 7.2 150 12:21 29.09.2019
1103 Haze 26 1011 94 10000 7.2 150 11:55 29.09.2019
1104 Haze 26 1011 94 10000 7.2 150 11:37 29.09.2019
1105 Haze 28 1011 83 10000 7.7 150 11:18 29.09.2019
1106 Haze 28 1011 83 10000 7.7 150 10:55 29.09.2019
1107 Haze 28 1011 83 10000 7.7 150 10:36 29.09.2019
1108 Haze 28 1010 83 10000 7.2 170 10:18 29.09.2019
1109 Haze 28 1010 83 10000 7.2 170 09:42 29.09.2019
1110 Haze 28 1010 83 10000 7.2 170 09:20 29.09.2019
1111 Haze 28 1010 83 10000 7.2 170 09:20 29.09.2019
1112 Clouds 29 1010 79 10000 5.1 170 08:55 29.09.2019
1113 Clouds 29 1010 79 10000 5.1 170 08:37 29.09.2019
1114 Clouds 30 1010 74 10000 5.1 160 08:18 29.09.2019
1115 Clouds 30 1010 74 10000 5.1 160 07:41 29.09.2019
1116 Clouds 30 1010 74 10000 5.1 160 07:22 29.09.2019
1117 Clouds 30 1010 74 10000 7.7 170 06:41 29.09.2019
1118 Clouds 31 1012 70 10000 5.1 150 04:56 29.09.2019
1119 Clouds 31 1012 70 10000 5.1 150 04:24 29.09.2019
1120 Clouds 29 1012 79 10000 5.1 200 03:49 29.09.2019
1121 Clouds 29 1013 79 10000 1.5 0 02:28 29.09.2019
1122 Clouds 27 1013 88 10000 1.5 0 01:51 29.09.2019
1123 Clouds 27 1013 88 10000 1.5 0 01:29 29.09.2019
1124 Clouds 26 1013 88 10000 1.5 0 00:41 29.09.2019
1125 Clouds 26 1013 88 10000 1.5 0 00:19 29.09.2019
1126 Clouds 26 1013 88 10000 1.5 0 00:19 29.09.2019
1127 Clouds 26 1013 88 10000 1.5 0 23:40 28.09.2019
1128 Clouds 24 1011 100 10000 1.5 0 23:21 28.09.2019
1129 Clouds 24 1011 100 10000 1.5 0 22:42 28.09.2019
1130 Clouds 24 1011 100 10000 1.5 0 22:23 28.09.2019
1131 Clouds 24 1011 100 10000 1.5 0 21:59 28.09.2019
1132 Clouds 24 1011 100 10000 1.5 0 21:40 28.09.2019
1133 Clouds 25 1011 94 10000 3.6 140 21:22 28.09.2019
1134 Clouds 25 1011 94 10000 3.6 140 20:59 28.09.2019
1135 Clouds 25 1011 94 10000 3.6 140 20:41 28.09.2019
1136 Clouds 25 1011 94 10000 4.1 160 20:21 28.09.2019
1137 Clouds 25 1011 94 10000 4.1 160 19:58 28.09.2019
1138 Clouds 25 1011 94 10000 4.1 160 19:40 28.09.2019
1139 Clouds 25 1011 94 10000 4.1 160 19:22 28.09.2019
1140 Clouds 25 1011 94 10000 3.6 120 18:58 28.09.2019
1141 Clouds 25 1011 94 10000 3.6 120 18:40 28.09.2019
1142 Clouds 25 1011 94 10000 6.2 140 18:21 28.09.2019
1143 Clouds 25 1011 94 10000 6.2 140 17:57 28.09.2019
1144 Clouds 25 1011 94 10000 6.2 140 17:38 28.09.2019
1145 Clouds 25 1012 94 10000 6.7 150 17:20 28.09.2019
1146 Clouds 25 1012 94 10000 6.7 150 16:45 28.09.2019
1147 Clouds 25 1013 94 10000 6.7 150 16:27 28.09.2019
1148 Clouds 25 1013 94 10000 6.7 150 15:42 28.09.2019
1149 Clouds 25 1013 94 10000 6.7 150 15:24 28.09.2019
1150 Clouds 25 1013 94 10000 6.7 150 14:58 28.09.2019
1151 Clouds 25 1013 94 10000 6.7 150 14:40 28.09.2019
1152 Clouds 25 1013 94 10000 7.7 150 14:21 28.09.2019
1153 Clouds 25 1013 94 10000 7.7 150 13:58 28.09.2019
1154 Clouds 25 1013 94 10000 7.7 150 13:38 28.09.2019
1155 Clouds 25 1014 88 0 11.95 139.209 13:20 28.09.2019
1156 Clouds 25 1014 88 0 11.95 139.209 12:45 28.09.2019
1157 Clouds 25 1012 88 0 12.73 144.521 12:20 28.09.2019
1158 Clouds 25 1012 88 0 12.73 144.521 11:59 28.09.2019
1159 Clouds 25 1012 88 0 12.73 144.521 11:39 28.09.2019
1160 Clouds 25 1010 94 10000 11.3 160 11:18 28.09.2019
1161 Clouds 25 1010 94 10000 11.3 160 10:43 28.09.2019
1162 Rain 25 1011 94 10000 9.3 150 10:20 28.09.2019
1163 Rain 25 1011 94 10000 9.3 150 09:57 28.09.2019
1164 Rain 25 1011 94 10000 9.3 150 09:39 28.09.2019
1165 Rain 25 1010 94 10000 11.3 160 09:18 28.09.2019
1166 Rain 25 1010 94 10000 11.3 160 08:46 28.09.2019
1167 Clouds 29 1009 74 0 10.3 150 08:28 28.09.2019
1168 Clouds 29 1009 74 0 10.3 150 07:45 28.09.2019
1169 Clouds 28 1010 83 10000 7.7 150 07:23 28.09.2019
1170 Clouds 28 1010 83 10000 7.7 150 06:55 28.09.2019
1171 Clouds 29 1011 79 10000 7.7 160 06:32 28.09.2019
1172 Clouds 29 1011 79 10000 7.7 160 05:55 28.09.2019
1173 Clouds 29 1011 79 10000 7.7 160 05:21 28.09.2019
1174 Clouds 29 1012 79 10000 10.8 150 04:40 28.09.2019
1175 Clouds 29 1012 74 10000 10.8 160 03:58 28.09.2019
1176 Clouds 29 1012 74 10000 10.8 160 03:58 28.09.2019
1177 Clouds 29 1012 74 10000 10.8 160 03:23 28.09.2019
1178 Clouds 27 1013 88 10000 7.7 140 02:56 28.09.2019
1179 Clouds 27 1013 88 10000 7.7 140 02:32 28.09.2019
1180 Clouds 27 1014 83 10000 6.2 140 01:49 28.09.2019
1181 Clouds 27 1014 83 10000 6.2 140 01:26 28.09.2019
1182 Drizzle 25 1014 94 0 6.2 140 00:55 28.09.2019
1183 Drizzle 25 1014 94 0 6.2 140 00:36 28.09.2019
1184 Drizzle 25 1013 94 10000 6.2 160 23:58 27.09.2019
1185 Drizzle 25 1013 94 10000 6.2 160 23:37 27.09.2019
1186 Drizzle 25 1013 94 10000 6.2 160 23:19 27.09.2019
1187 Drizzle 25 1012 94 10000 5.1 140 22:45 27.09.2019
1188 Drizzle 25 1012 94 10000 5.1 140 22:45 27.09.2019
1189 Clouds 25 1012 94 10000 7.7 150 22:19 27.09.2019
1190 Clouds 25 1012 94 10000 7.7 150 21:57 27.09.2019
1191 Clouds 25 1012 94 10000 7.7 150 21:37 27.09.2019
1192 Clouds 25 1012 94 10000 7.7 150 21:37 27.09.2019
1193 Clouds 25 1012 94 10000 7.7 150 21:19 27.09.2019
1194 Clouds 25 1012 89 0 9.86 135.189 20:55 27.09.2019
1195 Rain 25 1012 89 0 9.17 133.428 20:37 27.09.2019
1196 Clouds 25 1011 94 10000 7.7 140 20:18 27.09.2019
1197 Clouds 25 1011 94 10000 7.7 140 19:43 27.09.2019
1198 Clouds 25 1012 94 10000 10.3 150 19:23 27.09.2019
1199 Clouds 25 1012 94 10000 10.3 150 18:58 27.09.2019
1200 Clouds 25 1012 94 10000 10.3 150 18:39 27.09.2019
1201 Clouds 25 1012 94 10000 10.3 150 18:20 27.09.2019
1202 Clouds 25 1012 94 10000 10.3 150 18:20 27.09.2019
1203 Clouds 25 1012 94 10000 10.3 150 17:40 27.09.2019
1204 Clouds 25 1013 94 10000 9.3 150 17:22 27.09.2019
1205 Clouds 25 1013 94 10000 9.3 150 16:59 27.09.2019
1206 Clouds 25 1013 94 10000 9.3 150 16:41 27.09.2019
1207 Clouds 25 1013 94 10000 9.3 150 16:20 27.09.2019
1208 Clouds 25 1013 94 10000 9.3 150 16:20 27.09.2019
1209 Clouds 25 1013 94 10000 9.3 150 15:57 27.09.2019
1210 Clouds 25 1013 94 10000 9.3 150 15:57 27.09.2019
1211 Clouds 25 1013 94 10000 9.3 150 15:39 27.09.2019
1212 Clouds 25 1013 94 10000 10.3 140 15:19 27.09.2019
1213 Clouds 25 1013 94 10000 10.3 140 14:56 27.09.2019
1214 Clouds 25 1013 94 10000 10.3 140 14:37 27.09.2019
1215 Clouds 26 1013 88 10000 10.3 140 14:18 27.09.2019
1216 Clouds 26 1013 88 10000 10.3 140 13:42 27.09.2019
1217 Clouds 26 1012 88 10000 10.8 140 13:22 27.09.2019
1218 Clouds 26 1012 88 10000 10.8 140 13:22 27.09.2019
1219 Clouds 26 1012 88 10000 10.8 140 12:57 27.09.2019
1220 Clouds 26 1012 88 10000 10.8 140 12:38 27.09.2019
1221 Clouds 26 1012 88 10000 10.8 140 12:20 27.09.2019
1222 Clouds 26 1012 88 10000 10.3 150 11:39 27.09.2019
1223 Clouds 27 1011 83 10000 12.9 150 11:21 27.09.2019
1224 Clouds 27 1011 83 10000 12.9 150 10:57 27.09.2019
1225 Clouds 27 1011 83 10000 12.9 150 10:39 27.09.2019
1226 Clouds 27 1011 83 10000 12.9 150 10:39 27.09.2019
1227 Clouds 27 1011 83 10000 12.9 150 10:20 27.09.2019
1228 Clouds 27 1010 83 10000 12.9 150 09:42 27.09.2019
1229 Clouds 28 1010 83 10000 12.9 150 09:21 27.09.2019
1230 Clouds 28 1010 83 10000 12.9 150 08:57 27.09.2019
1231 Clouds 28 1010 83 10000 12.9 150 08:38 27.09.2019
1232 Clouds 29 1009 79 10000 11.3 150 08:19 27.09.2019
1233 Clouds 29 1009 79 10000 11.3 150 07:45 27.09.2019
1234 Haze 30 1010 74 10000 7.7 140 07:22 27.09.2019
1235 Haze 30 1010 74 10000 7.7 140 06:43 27.09.2019
1236 Haze 30 1011 74 10000 7.7 160 06:23 27.09.2019
1237 Haze 30 1011 74 10000 7.7 160 05:50 27.09.2019
1238 Haze 30 1011 74 10000 7.7 160 05:31 27.09.2019
1239 Clouds 29 1013 74 10000 10.3 150 03:55 27.09.2019
1240 Clouds 30 1013 70 10000 7.7 150 02:42 27.09.2019
1241 Clouds 29 1013 74 10000 6.7 150 01:44 27.09.2019
1242 Clouds 27 1013 78 10000 5.1 150 00:59 27.09.2019
1243 Clouds 25 1013 88 10000 3.6 150 00:20 27.09.2019
1244 Clouds 25 1013 88 10000 3.6 150 23:56 26.09.2019
1245 Clouds 25 1013 88 10000 3.6 150 23:38 26.09.2019
1246 Clouds 25 1013 88 10000 3.6 150 23:18 26.09.2019
1247 Clouds 23 1012 100 10000 1.5 0 22:55 26.09.2019
1248 Clouds 23 1012 100 10000 1.5 0 22:55 26.09.2019
1249 Clouds 23 1012 100 10000 1.5 0 22:37 26.09.2019
1250 Clouds 23 1012 100 10000 1.5 0 22:18 26.09.2019
1251 Clouds 23 1012 100 10000 1.5 0 22:18 26.09.2019
1252 Clouds 23 1012 100 10000 1.5 0 22:18 26.09.2019
1253 Clouds 25 1014 87 0 7.74 122.304 21:55 26.09.2019
1254 Clouds 25 1014 87 0 7.74 122.304 21:55 26.09.2019
1255 Clouds 25 1014 87 0 7.74 122.304 21:36 26.09.2019
1256 Clouds 25 1013 87 0 8.92 130.355 21:18 26.09.2019
1257 Clouds 25 1013 87 0 8.92 130.355 21:18 26.09.2019
1258 Clouds 25 1013 87 0 8.92 130.355 21:18 26.09.2019
1259 Clouds 25 1013 87 0 8.14 126.446 20:55 26.09.2019
1260 Clouds 25 1013 87 0 8.14 126.446 20:37 26.09.2019
1261 Clouds 25 1013 87 0 8.14 126.446 20:19 26.09.2019
1262 Clouds 25 1013 87 0 8.14 126.446 19:40 26.09.2019
1263 Clouds 25 1013 87 0 8.14 126.446 19:18 26.09.2019
1264 Clouds 25 1013 87 0 8.14 126.446 18:58 26.09.2019
1265 Clouds 25 1013 87 0 8.14 126.446 18:39 26.09.2019
1266 Clouds 25 1013 86 0 10.51 134.033 18:21 26.09.2019
1267 Clouds 25 1013 86 0 10.51 134.033 17:39 26.09.2019
1268 Clouds 25 1012 88 10000 7.7 140 17:19 26.09.2019
1269 Clouds 25 1012 88 10000 7.7 140 16:59 26.09.2019
1270 Clouds 25 1012 88 10000 7.7 140 16:39 26.09.2019
1271 Clouds 25 1012 88 10000 7.7 140 16:20 26.09.2019
1272 Clouds 25 1012 88 10000 7.7 140 16:20 26.09.2019
1273 Clouds 25 1012 88 10000 7.7 140 15:57 26.09.2019
1274 Clouds 25 1012 88 10000 7.7 140 15:37 26.09.2019
1275 Clouds 25 1014 85 0 11.44 133.732 15:18 26.09.2019
1276 Clouds 25 1014 85 0 11.44 133.732 14:42 26.09.2019
1277 Clouds 25 1014 85 0 11.44 133.732 14:23 26.09.2019
1278 Clouds 25 1014 85 0 11.44 133.732 14:23 26.09.2019
1279 Clouds 25 1014 85 0 11.44 133.732 13:58 26.09.2019
1280 Clouds 25 1014 85 0 11.44 133.732 13:58 26.09.2019
1281 Clouds 25 1014 85 0 11.44 133.732 13:40 26.09.2019
1282 Clouds 26 1012 83 10000 12.9 150 13:19 26.09.2019
1283 Clouds 26 1012 83 10000 12.9 150 12:56 26.09.2019
1284 Clouds 26 1012 83 10000 12.9 150 12:38 26.09.2019
1285 Clouds 26 1012 83 10000 12.9 150 12:19 26.09.2019
1286 Clouds 25 1013 85 0 12.78 139.066 11:42 26.09.2019
1287 Clouds 27 1011 78 10000 12.9 150 11:21 26.09.2019
1288 Clouds 27 1011 78 10000 12.9 150 10:55 26.09.2019
1289 Clouds 27 1011 78 10000 12.9 150 10:37 26.09.2019
1290 Clouds 27 1011 78 10000 12.9 150 10:19 26.09.2019
1291 Clouds 27 1010 78 10000 12.9 150 09:43 26.09.2019
1292 Clouds 27 1010 78 10000 12.9 150 09:43 26.09.2019
1293 Clouds 30 1009 74 10000 5.1 160 09:25 26.09.2019
1294 Clouds 30 1009 74 10000 5.1 160 08:54 26.09.2019
1295 Smoke 30 1010 70 10000 7.7 170 08:33 26.09.2019
1296 Smoke 30 1010 70 10000 7.7 170 07:59 26.09.2019
1297 Smoke 30 1010 70 10000 7.7 170 07:41 26.09.2019
1298 Clouds 30 1011 74 10000 7.7 130 07:20 26.09.2019
1299 Clouds 30 1011 74 10000 7.7 130 06:43 26.09.2019
1300 Clouds 30 1011 74 10000 7.7 130 06:43 26.09.2019
1301 Clouds 30 1011 74 10000 7.7 130 06:24 26.09.2019
1302 Clouds 29 1011 74 10000 5.1 130 05:44 26.09.2019
1303 Clouds 29 1011 74 10000 5.1 130 05:21 26.09.2019
1304 Clouds 27 1014 83 0 3.6 150 02:47 26.09.2019
1305 Clouds 27 1014 78 10000 2.6 130 01:53 26.09.2019
1306 Clouds 27 1014 78 10000 2.6 130 01:28 26.09.2019
1307 Haze 26 1014 88 10000 2.6 140 00:55 26.09.2019
1308 Haze 26 1014 88 10000 2.6 140 00:37 26.09.2019
1309 Haze 25 1013 88 10000 1.5 0 23:47 25.09.2019
1310 Haze 25 1013 88 10000 1.5 0 23:28 25.09.2019
1311 Haze 25 1012 88 10000 1.5 0 22:57 25.09.2019
1312 Haze 25 1012 88 10000 1.5 0 22:39 25.09.2019
1313 Haze 25 1012 88 10000 1.5 0 22:20 25.09.2019
1314 Clouds 25 1015 88 0 6.37 122.567 21:56 25.09.2019
1315 Clouds 25 1015 88 0 6.37 122.567 21:38 25.09.2019
1316 Clouds 25 1011 88 10000 1.5 0 21:18 25.09.2019
1317 Clouds 25 1011 88 10000 1.5 0 20:56 25.09.2019
1318 Clouds 25 1011 88 10000 1.5 0 20:38 25.09.2019
1319 Clouds 25 1011 88 10000 1.5 0 20:19 25.09.2019
1320 Clouds 24 1011 94 10000 3.1 150 19:41 25.09.2019
1321 Clouds 24 1011 94 10000 3.1 150 19:41 25.09.2019
1322 Clouds 25 1013 89 0 5.29 125.237 19:21 25.09.2019
1323 Clouds 25 1013 89 0 5.29 125.237 18:57 25.09.2019
1324 Clouds 25 1013 89 0 5.29 125.237 18:39 25.09.2019
1325 Clouds 24 1012 94 10000 2.1 0 18:20 25.09.2019
1326 Clouds 24 1012 94 10000 2.1 0 17:58 25.09.2019
1327 Clouds 24 1012 94 10000 2.1 0 17:36 25.09.2019
1328 Clouds 25 1012 88 10000 5.1 130 17:18 25.09.2019
1329 Clouds 25 1012 88 10000 5.1 130 16:44 25.09.2019
1330 Clouds 25 1012 88 10000 5.1 130 16:26 25.09.2019
1331 Clouds 25 1013 88 10000 5.1 150 15:58 25.09.2019
1332 Clouds 25 1013 88 10000 5.1 150 15:39 25.09.2019
1333 Clouds 25 1015 87 0 9.75 128.268 15:20 25.09.2019
1334 Clouds 25 1015 87 0 9.75 128.268 14:44 25.09.2019
1335 Clouds 26 1013 83 10000 5.1 150 14:25 25.09.2019
1336 Clouds 26 1013 83 10000 5.1 150 13:59 25.09.2019
1337 Clouds 26 1013 83 10000 5.1 150 13:40 25.09.2019
1338 Clouds 26 1012 83 10000 5.1 150 13:20 25.09.2019
1339 Clouds 26 1012 83 10000 5.1 150 12:58 25.09.2019
1340 Clouds 26 1012 83 10000 5.1 150 12:38 25.09.2019
1341 Clouds 26 1012 83 10000 5.1 150 12:20 25.09.2019
1342 Clouds 26 1012 83 10000 5.1 150 11:41 25.09.2019
1343 Clouds 27 1011 83 10000 5.1 150 11:21 25.09.2019
1344 Clouds 27 1011 83 10000 5.1 150 10:56 25.09.2019
1345 Clouds 27 1011 83 10000 5.1 150 10:38 25.09.2019
1346 Clouds 29 1010 74 10000 5.1 150 10:19 25.09.2019
1347 Clouds 29 1010 74 10000 5.1 150 09:43 25.09.2019
1348 Clouds 29 1010 74 10000 5.1 150 09:23 25.09.2019
1349 Clouds 29 1010 74 10000 5.1 150 08:59 25.09.2019
1350 Clouds 29 1010 74 10000 5.1 150 08:40 25.09.2019
1351 Clouds 29 1010 74 10000 5.1 150 08:20 25.09.2019
1352 Clouds 29 1010 79 10000 7.7 150 07:41 25.09.2019
1353 Clouds 29 1010 79 10000 5.1 150 07:23 25.09.2019
1354 Clouds 29 1010 79 10000 5.1 150 06:56 25.09.2019
1355 Clouds 29 1010 79 10000 5.1 150 06:36 25.09.2019
1356 Clouds 29 1011 74 10000 7.7 150 05:43 25.09.2019
1357 Clouds 29 1011 74 10000 7.7 150 05:19 25.09.2019
1358 Clouds 29 1014 74 10000 2.6 160 03:21 25.09.2019
1359 Clouds 26 1014 83 10000 2.6 160 01:36 25.09.2019
1360 Clouds 25 1014 88 10000 5.1 140 00:41 25.09.2019
1361 Clouds 25 1014 88 10000 5.1 140 00:22 25.09.2019
1362 Clouds 25 1013 88 10000 2.6 130 23:43 24.09.2019
1363 Rain 25 1015 87 0 8.68 128.219 23:22 24.09.2019
1364 Clouds 24 1013 94 10000 3.6 150 22:58 24.09.2019
1365 Clouds 24 1013 94 10000 3.6 150 22:38 24.09.2019
1366 Clouds 24 1013 94 10000 3.6 150 22:18 24.09.2019
1367 Clouds 24 1013 94 10000 3.6 150 22:18 24.09.2019
1368 Clouds 25 1015 87 0 8.63 126.604 21:55 24.09.2019
1369 Clouds 25 1015 87 0 8.63 126.604 21:37 24.09.2019
1370 Clouds 24 1012 94 10000 9.3 150 21:18 24.09.2019
1371 Clouds 24 1012 94 10000 9.3 150 20:55 24.09.2019
1372 Clouds 24 1012 94 10000 9.3 150 20:37 24.09.2019
1373 Clouds 24 1013 94 10000 9.3 150 20:19 24.09.2019
1374 Clouds 24 1013 94 10000 9.3 150 19:42 24.09.2019
1375 Clouds 25 1013 87 0 9.44 128.542 19:20 24.09.2019
1376 Clouds 25 1013 87 0 9.44 128.542 18:57 24.09.2019
1377 Clouds 25 1013 87 0 9.44 128.542 18:39 24.09.2019
1378 Clouds 25 1014 86 0 10.43 134.297 18:20 24.09.2019
1379 Clouds 25 1014 86 0 10.43 134.297 17:56 24.09.2019
1380 Clouds 25 1014 86 0 10.43 134.297 17:37 24.09.2019
1381 Clouds 25 1014 88 10000 7.2 140 17:19 24.09.2019
1382 Clouds 25 1014 88 10000 7.2 140 16:42 24.09.2019
1383 Clouds 25 1014 88 10000 7.2 140 16:21 24.09.2019
1384 Clouds 25 1014 88 10000 7.7 150 15:58 24.09.2019
1385 Clouds 25 1014 88 10000 7.7 150 15:39 24.09.2019
1386 Clouds 25 1014 88 10000 7.7 150 15:21 24.09.2019
1387 Clouds 25 1014 88 10000 10.3 150 14:39 24.09.2019
1388 Clouds 25 1014 88 10000 10.3 150 14:18 24.09.2019
1389 Haze 25 1014 88 10000 10.3 150 13:45 24.09.2019
1390 Haze 25 1014 88 10000 10.3 150 13:21 24.09.2019
1391 Haze 25 1014 88 10000 10.3 150 12:56 24.09.2019
1392 Haze 25 1014 88 10000 10.3 150 12:36 24.09.2019
1393 Clouds 25 1014 83 0 11.58 140.894 12:18 24.09.2019
1394 Haze 26 1013 83 10000 7.7 150 11:41 24.09.2019
1395 Haze 26 1013 83 10000 7.7 150 11:21 24.09.2019
1396 Haze 26 1012 83 10000 7.7 150 10:42 24.09.2019
1397 Haze 26 1012 83 10000 7.7 150 10:22 24.09.2019
1398 Haze 26 1011 83 10000 5.1 150 09:59 24.09.2019
1399 Haze 26 1011 83 10000 5.1 150 09:41 24.09.2019
1400 Haze 26 1011 83 10000 5.1 150 09:20 24.09.2019
1401 Haze 27 1010 78 10000 7.7 160 08:56 24.09.2019
1402 Haze 27 1010 78 10000 7.7 160 08:38 24.09.2019
1403 Haze 27 1010 78 10000 7.7 160 08:19 24.09.2019
1404 Haze 29 1010 74 10000 5.1 160 07:42 24.09.2019
1405 Haze 29 1011 74 10000 7.7 160 07:24 24.09.2019
1406 Haze 29 1011 74 10000 7.7 160 06:48 24.09.2019
1407 Haze 29 1011 74 10000 7.7 160 06:27 24.09.2019
1408 Haze 30 1012 70 10000 7.7 150 05:27 24.09.2019
1409 Haze 30 1012 66 10000 6.7 170 04:58 24.09.2019
1410 Clear 25 1013 80 0 10.43 148.96 03:42 24.09.2019
1411 Haze 27 1014 74 10000 6.7 140 02:45 24.09.2019
1412 Haze 26 1015 78 10000 4.1 150 01:44 24.09.2019
1413 Haze 24 1015 88 10000 4.1 150 00:42 24.09.2019
1414 Haze 24 1015 88 10000 4.1 150 00:23 24.09.2019
1415 Haze 24 1014 88 10000 4.1 160 23:44 23.09.2019
1416 Clouds 23 1013 88 10000 2.6 180 23:24 23.09.2019
1417 Clouds 23 1013 88 10000 2.6 180 22:57 23.09.2019
1418 Clouds 23 1013 88 10000 2.6 180 22:38 23.09.2019
1419 Clouds 23 1013 88 10000 2.6 180 22:20 23.09.2019
1420 Clouds 23 1013 88 0 2.6 160 21:56 23.09.2019
1421 Clouds 23 1013 88 0 2.6 160 21:37 23.09.2019
1422 Clouds 23 1013 88 10000 2.6 160 21:18 23.09.2019
1423 Clouds 23 1013 88 10000 2.6 160 20:40 23.09.2019
1424 Clouds 23 1013 88 10000 2.6 160 20:20 23.09.2019
1425 Clouds 24 1014 81 0 10.33 129.96 19:56 23.09.2019
1426 Clouds 24 1014 81 0 10.33 129.96 19:56 23.09.2019
1427 Clouds 24 1014 81 0 10.33 129.96 19:38 23.09.2019
1428 Clouds 24 1014 81 0 10.33 129.96 19:20 23.09.2019
1429 Clouds 24 1014 81 0 10.33 129.96 18:42 23.09.2019
1430 Clouds 24 1015 81 0 10.01 126.736 18:21 23.09.2019
1431 Clouds 24 1015 81 0 10.01 126.736 17:59 23.09.2019
1432 Clouds 24 1015 81 0 10.01 126.736 17:39 23.09.2019
1433 Clouds 24 1015 81 0 10.01 126.736 17:20 23.09.2019
1434 Clouds 24 1015 81 0 10.01 126.736 16:57 23.09.2019
1435 Clouds 24 1015 81 0 10.01 126.736 16:37 23.09.2019
1436 Clouds 24 1015 81 0 10.01 126.736 16:18 23.09.2019
1437 Clouds 24 1015 81 0 10.01 126.736 15:56 23.09.2019
1438 Clouds 24 1015 81 0 10.01 126.736 15:38 23.09.2019
1439 Clouds 24 1016 81 0 12.15 133.295 15:18 23.09.2019
1440 Clouds 24 1016 81 0 12.15 133.295 14:40 23.09.2019
1441 Clouds 24 1016 81 0 12.15 133.295 14:21 23.09.2019
1442 Clouds 24 1016 81 0 12.15 133.295 13:59 23.09.2019
1443 Clouds 24 1016 81 0 12.15 133.295 13:39 23.09.2019
1444 Clouds 24 1016 80 0 12.22 130.814 13:18 23.09.2019
1445 Clouds 24 1016 80 0 12.22 130.814 12:55 23.09.2019
1446 Clouds 24 1016 80 0 12.22 130.814 12:36 23.09.2019
1447 Clouds 25 1015 80 0 12.33 135.96 12:18 23.09.2019
1448 Clouds 25 1015 80 0 12.33 135.96 11:43 23.09.2019
1449 Haze 26 1014 78 10000 5.1 140 11:25 23.09.2019
1450 Haze 26 1014 78 10000 5.1 140 10:49 23.09.2019
1451 Haze 26 1013 78 10000 5.1 140 10:22 23.09.2019
1452 Haze 26 1013 78 10000 5.1 140 09:59 23.09.2019
1453 Haze 26 1013 78 10000 5.1 140 09:38 23.09.2019
1454 Clouds 27 1012 78 10000 7.7 160 09:20 23.09.2019
1455 Clouds 27 1012 78 10000 7.7 160 08:48 23.09.2019
1456 Clouds 27 1012 78 10000 5.1 150 08:29 23.09.2019
1457 Clouds 27 1012 78 10000 5.1 150 07:58 23.09.2019
1458 Clouds 27 1012 78 10000 5.1 150 07:58 23.09.2019
1459 Clouds 27 1012 78 10000 5.1 150 07:30 23.09.2019
1460 Clouds 27 1013 78 10000 7.7 140 06:40 23.09.2019
1461 Rain 28 1013 74 10000 7.7 150 05:54 23.09.2019
1462 Rain 28 1013 74 10000 7.7 150 05:21 23.09.2019
1463 Rain 28 1014 74 10000 11.8 160 04:54 23.09.2019
1464 Clouds 26 1016 83 10000 10.8 150 02:42 23.09.2019
1465 Clouds 25 1016 88 10000 7.7 140 01:18 23.09.2019
1466 Clouds 25 1016 88 10000 7.7 140 00:23 23.09.2019
1467 Clouds 24 1015 94 10000 5.7 140 23:52 22.09.2019
1468 Rain 24 1016 88 0 9.33 123.608 23:32 22.09.2019
1469 Clouds 24 1014 94 10000 5.7 150 22:58 22.09.2019
1470 Clouds 24 1014 94 10000 5.7 150 22:40 22.09.2019
1471 Rain 24 1016 88 0 9.33 123.608 22:22 22.09.2019
1472 Rain 24 1016 88 0 9.33 123.608 21:43 22.09.2019
1473 Clouds 24 1013 94 0 3.6 150 21:22 22.09.2019
1474 Clouds 24 1013 94 0 3.6 150 20:58 22.09.2019
1475 Clouds 24 1013 94 0 3.6 150 20:40 22.09.2019
1476 Rain 24 1014 91 0 8.45 119.312 20:22 22.09.2019
1477 Rain 24 1014 91 0 8.45 119.312 19:42 22.09.2019
1478 Rain 24 1014 91 0 8.45 119.312 19:42 22.09.2019
1479 Rain 24 1014 91 0 8.45 119.312 19:23 22.09.2019
1480 Rain 24 1014 91 0 8.45 119.312 18:59 22.09.2019
1481 Rain 24 1014 91 0 8.45 119.312 18:39 22.09.2019
1482 Rain 25 1014 90 0 8.17 119.132 18:20 22.09.2019
1483 Rain 25 1014 90 0 8.17 119.132 17:58 22.09.2019
1484 Rain 25 1014 90 0 8.17 119.132 17:40 22.09.2019
1485 Rain 23 1016 100 0 1.5 0 17:19 22.09.2019
1486 Rain 23 1016 100 0 1.5 0 16:44 22.09.2019
1487 Rain 23 1016 100 0 2.1 0 16:26 22.09.2019
1488 Rain 23 1016 100 0 2.1 0 15:56 22.09.2019
1489 Rain 23 1016 100 0 2.1 0 15:38 22.09.2019
1490 Rain 24 1016 100 0 5.1 140 15:19 22.09.2019
1491 Rain 24 1016 100 0 5.1 140 14:43 22.09.2019
1492 Rain 24 1016 100 0 5.1 140 14:25 22.09.2019
1493 Rain 24 1016 100 0 5.1 140 14:25 22.09.2019
1494 Rain 25 1015 87 0 10.41 125.026 13:55 22.09.2019
1495 Rain 25 1015 87 0 10.41 125.026 13:37 22.09.2019
1496 Rain 24 1015 100 0 10.92 125.499 13:19 22.09.2019
1497 Rain 24 1015 100 0 10.92 125.499 12:43 22.09.2019
1498 Rain 24 1014 100 0 10.3 180 12:24 22.09.2019
1499 Rain 24 1014 100 0 10.3 180 11:56 22.09.2019
1500 Rain 24 1014 100 0 10.3 180 11:38 22.09.2019
1501 Rain 24 1013 100 0 10.3 160 11:19 22.09.2019
1502 Rain 24 1013 100 0 10.3 160 11:19 22.09.2019
1503 Rain 24 1013 100 0 9.3 160 10:44 22.09.2019
1504 Rain 24 1013 100 0 9.3 160 10:20 22.09.2019
1505 Rain 25 1013 94 0 7.7 160 09:57 22.09.2019
1506 Rain 25 1013 94 0 7.7 160 09:38 22.09.2019
1507 Rain 25 1011 94 0 10.3 150 09:19 22.09.2019
1508 Rain 25 1011 94 0 10.3 150 08:44 22.09.2019
1509 Rain 27 1010 88 0 10.3 150 08:23 22.09.2019
1510 Rain 27 1010 88 0 10.3 150 07:53 22.09.2019
1511 Rain 27 1010 88 0 10.3 150 07:34 22.09.2019
1512 Rain 28 1011 83 0 7.7 150 06:59 22.09.2019
1513 Rain 28 1011 83 0 7.7 150 06:38 22.09.2019
1514 Haze 29 1012 79 10000 7.7 140 05:22 22.09.2019
1515 Haze 28 1014 83 10000 5.7 140 02:46 22.09.2019
1516 Haze 28 1014 83 10000 5.7 140 02:26 22.09.2019
1517 Haze 28 1014 78 10000 5.7 140 01:53 22.09.2019
1518 Haze 26 1013 88 10000 4.1 160 00:55 22.09.2019
1519 Haze 26 1013 88 10000 4.1 160 00:32 22.09.2019
1520 Haze 25 1013 94 10000 4.1 140 23:56 21.09.2019
1521 Haze 25 1013 94 10000 4.1 140 23:38 21.09.2019
1522 Clouds 25 1014 87 0 6.23 118.861 22:57 21.09.2019
1523 Clouds 25 1014 87 0 6.23 118.861 22:38 21.09.2019
1524 Clouds 25 1014 87 0 6.23 118.861 22:20 21.09.2019
1525 Clouds 25 1014 87 0 6.23 118.861 21:41 21.09.2019
1526 Clouds 25 1012 88 0 6.84 117.993 21:19 21.09.2019
1527 Clouds 25 1012 88 0 6.84 117.993 20:58 21.09.2019
1528 Rain 25 1013 89 0 5.63 106.18 20:38 21.09.2019
1529 Rain 25 1013 89 0 5.63 106.18 20:19 21.09.2019
1530 Rain 25 1013 89 0 5.63 106.18 19:46 21.09.2019
1531 Rain 25 1013 89 0 5.63 106.18 19:21 21.09.2019
1532 Rain 25 1013 89 0 5.63 106.18 18:42 21.09.2019
1533 Clouds 25 1012 88 0 9.4 125.06 18:22 21.09.2019
1534 Clouds 25 1012 88 0 9.4 125.06 17:43 21.09.2019
1535 Clouds 25 1011 94 10000 7.7 150 17:24 21.09.2019
1536 Clouds 25 1011 94 10000 7.7 150 16:58 21.09.2019
1537 Clouds 25 1011 94 10000 7.7 150 16:39 21.09.2019
1538 Clouds 25 1011 94 10000 7.7 150 16:20 21.09.2019
1539 Clouds 25 1012 94 10000 7.7 150 15:45 21.09.2019
1540 Clouds 25 1012 94 10000 7.7 150 15:45 21.09.2019
1541 Clouds 25 1012 94 10000 7.7 150 15:23 21.09.2019
1542 Clouds 25 1012 94 10000 7.7 150 14:49 21.09.2019
1543 Clouds 25 1012 88 10000 7.7 140 14:31 21.09.2019
1544 Clouds 25 1014 86 0 12.26 132.554 13:55 21.09.2019
1545 Clouds 25 1014 86 0 12.26 132.554 13:36 21.09.2019
1546 Clouds 25 1012 88 10000 9.3 140 13:18 21.09.2019
1547 Clouds 25 1012 88 10000 9.3 140 12:42 21.09.2019
1548 Clouds 25 1012 88 10000 9.3 140 12:22 21.09.2019
1549 Drizzle 25 1010 94 10000 12.9 150 11:59 21.09.2019
1550 Drizzle 25 1010 94 10000 12.9 150 11:41 21.09.2019
1551 Clouds 26 1010 88 10000 7.7 160 11:22 21.09.2019
1552 Clouds 26 1010 88 10000 7.7 160 10:41 21.09.2019
1553 Clouds 26 1010 88 10000 7.7 160 10:23 21.09.2019
1554 Clouds 25 1012 85 0 11.66 137.791 09:57 21.09.2019
1555 Clouds 25 1012 85 0 11.66 137.791 09:38 21.09.2019
1556 Clouds 29 1009 74 10000 7.7 160 09:20 21.09.2019
1557 Clouds 29 1009 74 10000 7.7 160 08:51 21.09.2019
1558 Clouds 29 1009 74 10000 7.7 160 08:25 21.09.2019
1559 Clouds 29 1009 74 10000 7.7 160 07:40 21.09.2019
1560 Clouds 29 1009 74 10000 7.7 160 07:21 21.09.2019
1561 Clouds 25 1011 86 0 12.94 147.054 06:36 21.09.2019
1562 Haze 30 1011 58 10000 10.3 150 05:51 21.09.2019
1563 Haze 29 1011 74 10000 10.3 160 04:48 21.09.2019
1564 Haze 29 1011 74 10000 10.3 160 04:48 21.09.2019
1565 Haze 29 1011 74 10000 10.3 160 04:29 21.09.2019
1566 Haze 28 1013 78 10000 7.7 140 02:26 21.09.2019
1567 Haze 28 1013 78 10000 7.7 140 01:50 21.09.2019
1568 Haze 28 1013 78 10000 7.7 140 01:32 21.09.2019
1569 Haze 26 1013 83 10000 5.1 140 00:26 21.09.2019
1570 Haze 25 1013 88 10000 2.6 130 23:58 20.09.2019
1571 Clouds 25 1014 86 0 11.15 130.098 23:31 20.09.2019
1572 Clouds 25 1012 88 10000 2.6 120 22:59 20.09.2019
1573 Clouds 25 1012 88 10000 2.6 120 22:38 20.09.2019
1574 Clouds 25 1012 88 10000 2.6 120 22:20 20.09.2019
1575 Clouds 25 1011 88 10000 3.1 130 21:55 20.09.2019
1576 Clouds 25 1011 88 10000 3.1 130 21:37 20.09.2019
1577 Clouds 25 1011 88 10000 3.1 130 21:18 20.09.2019
1578 Clouds 25 1011 88 10000 5.1 150 20:41 20.09.2019
1579 Clouds 25 1010 88 10000 5.1 140 20:21 20.09.2019
1580 Clouds 25 1010 88 10000 5.1 140 19:58 20.09.2019
1581 Clouds 25 1010 88 10000 5.1 140 19:39 20.09.2019
1582 Clouds 25 1010 88 10000 5.7 140 19:20 20.09.2019
1583 Clouds 25 1010 88 10000 5.7 140 18:40 20.09.2019
1584 Clouds 25 1011 88 10000 5.7 140 18:20 20.09.2019
1585 Clouds 25 1011 88 10000 5.7 140 17:58 20.09.2019
1586 Clouds 25 1011 88 10000 5.7 140 17:39 20.09.2019
1587 Clouds 25 1011 88 10000 5.7 140 17:39 20.09.2019
1588 Clouds 25 1011 88 10000 5.7 140 17:21 20.09.2019
1589 Clouds 25 1012 86 0 10.91 130.678 16:41 20.09.2019
1590 Clouds 25 1012 88 10000 7.7 140 16:19 20.09.2019
1591 Clouds 25 1012 86 0 10.91 130.678 15:43 20.09.2019
1592 Clouds 25 1012 88 10000 7.7 140 15:23 20.09.2019
1593 Clouds 25 1012 88 10000 7.7 140 14:58 20.09.2019
1594 Clouds 25 1012 88 10000 7.7 140 14:38 20.09.2019
1595 Clouds 26 1012 88 10000 7.7 140 14:18 20.09.2019
1596 Clouds 26 1012 88 10000 7.7 140 13:47 20.09.2019
1597 Clouds 25 1013 85 0 11.6 133.809 13:27 20.09.2019
1598 Clouds 25 1013 85 0 11.6 133.809 12:57 20.09.2019
1599 Clouds 25 1013 85 0 11.6 133.809 12:36 20.09.2019
1600 Clouds 26 1011 88 10000 5.1 140 12:18 20.09.2019
1601 Clouds 26 1011 88 10000 5.1 140 11:45 20.09.2019
1602 Clouds 26 1011 88 10000 5.1 140 11:20 20.09.2019
1603 Haze 27 1010 83 10000 7.7 140 10:43 20.09.2019
1604 Haze 27 1010 83 10000 7.7 140 10:23 20.09.2019
1605 Haze 27 1010 88 10000 8.7 140 09:39 20.09.2019
1606 Haze 27 1010 88 10000 8.7 140 09:19 20.09.2019
1607 Haze 27 1010 83 10000 8.7 140 08:59 20.09.2019
1608 Haze 27 1010 83 10000 8.7 140 08:40 20.09.2019
1609 Haze 27 1010 83 10000 8.7 140 08:40 20.09.2019
1610 Haze 27 1010 83 10000 8.7 140 08:21 20.09.2019
1611 Haze 28 1010 78 10000 8.7 140 07:43 20.09.2019
1612 Haze 28 1010 78 10000 8.7 140 07:24 20.09.2019
1613 Haze 28 1010 78 10000 8.7 140 06:44 20.09.2019
1614 Haze 28 1010 78 10000 8.7 140 06:44 20.09.2019
1615 Haze 29 1011 74 10000 7.7 130 06:20 20.09.2019
1616 Haze 29 1011 74 10000 7.7 130 05:22 20.09.2019
1617 Haze 27 1013 83 10000 2.6 190 03:30 20.09.2019
1618 Haze 27 1013 83 10000 2.6 190 03:30 20.09.2019
1619 Haze 26 1013 88 10000 5.1 160 02:44 20.09.2019
1620 Clouds 26 1013 88 10000 1.5 0 01:44 20.09.2019
1621 Clouds 26 1012 88 10000 1 0 00:46 20.09.2019
1622 Clouds 25 1012 94 10000 2.1 0 23:59 19.09.2019
1623 Clouds 25 1012 94 10000 2.1 0 23:41 19.09.2019
1624 Clouds 25 1012 94 10000 2.1 0 23:18 19.09.2019
1625 Clouds 24 1011 94 10000 1 0 22:41 19.09.2019
1626 Clouds 24 1011 94 10000 1 0 22:41 19.09.2019
1627 Clouds 24 1011 94 10000 1 0 22:23 19.09.2019
1628 Clouds 24 1011 94 10000 1.5 0 21:58 19.09.2019
1629 Clouds 24 1011 94 10000 1.5 0 21:39 19.09.2019
1630 Clouds 24 1011 94 10000 1.5 0 21:39 19.09.2019
1631 Clear 24 1011 89 0 5.93 117.045 21:20 19.09.2019
1632 Clear 24 1011 89 0 5.93 117.045 20:59 19.09.2019
1633 Clouds 24 1011 88 0 5.72 117.797 20:40 19.09.2019
1634 Clouds 24 1011 88 0 5.72 117.797 20:19 19.09.2019
1635 Clouds 24 1011 88 0 5.72 117.797 19:55 19.09.2019
1636 Clouds 24 1011 88 0 5.72 117.797 19:37 19.09.2019
1637 Clouds 24 1011 88 0 5.72 117.797 19:18 19.09.2019
1638 Clouds 24 1011 88 0 5.72 117.797 18:42 19.09.2019
1639 Clouds 24 1011 88 0 5.72 117.797 18:42 19.09.2019
1640 Clouds 24 1012 88 0 8.51 125.07 18:23 19.09.2019
1641 Clouds 24 1012 88 0 8.51 125.07 17:44 19.09.2019
1642 Clouds 24 1012 88 0 8.51 125.07 17:25 19.09.2019
1643 Clouds 24 1012 88 0 8.51 125.07 17:25 19.09.2019
1644 Clouds 24 1012 88 0 8.51 125.07 16:59 19.09.2019
1645 Clouds 24 1012 88 0 8.51 125.07 16:40 19.09.2019
1646 Clouds 24 1012 88 0 8.51 125.07 16:20 19.09.2019
1647 Clouds 24 1012 88 0 8.51 125.07 15:41 19.09.2019
1648 Clouds 25 1014 87 0 10.86 137.156 15:22 19.09.2019
1649 Clouds 25 1014 87 0 10.86 137.156 14:58 19.09.2019
1650 Clouds 25 1014 87 0 10.86 137.156 14:39 19.09.2019
1651 Clouds 25 1014 87 0 10.86 137.156 14:39 19.09.2019
1652 Clouds 25 1014 87 0 10.86 137.156 14:20 19.09.2019
1653 Clouds 25 1014 87 0 10.86 137.156 13:55 19.09.2019
1654 Clouds 25 1014 87 0 10.86 137.156 13:36 19.09.2019
1655 Clouds 25 1014 86 0 11.09 137.043 13:18 19.09.2019
1656 Clouds 25 1014 86 0 11.09 137.043 12:36 19.09.2019
1657 Clouds 25 1013 85 0 12.68 143.551 12:18 19.09.2019
1658 Clouds 25 1013 85 0 12.68 143.551 11:41 19.09.2019
1659 Haze 26 1010 83 10000 10.3 150 11:22 19.09.2019
1660 Haze 26 1010 83 10000 10.3 150 10:58 19.09.2019
1661 Haze 26 1010 83 10000 10.3 150 10:58 19.09.2019
1662 Haze 26 1010 83 10000 10.3 150 10:39 19.09.2019
1663 Haze 26 1010 83 10000 10.3 150 10:21 19.09.2019
1664 Haze 27 1010 78 10000 12.9 150 09:55 19.09.2019
1665 Haze 27 1010 78 10000 12.9 150 09:55 19.09.2019
1666 Haze 27 1010 78 10000 12.9 150 09:55 19.09.2019
1667 Haze 27 1010 78 10000 12.9 150 09:55 19.09.2019
1668 Haze 27 1010 78 10000 12.9 150 09:36 19.09.2019
1669 Haze 27 1010 78 10000 12.9 150 09:36 19.09.2019
1670 Clouds 25 1011 85 0 12.38 150.837 09:18 19.09.2019
1671 Haze 28 1009 78 10000 12.9 160 08:41 19.09.2019
1672 Haze 28 1009 78 10000 12.9 160 08:22 19.09.2019
1673 Haze 29 1010 74 10000 12.9 140 07:43 19.09.2019
1674 Haze 29 1010 74 10000 12.9 140 07:43 19.09.2019
1675 Haze 29 1010 74 10000 12.9 140 07:22 19.09.2019
1676 Haze 29 1010 74 10000 12.9 150 06:48 19.09.2019
1677 Clouds 30 1011 70 10000 5.1 160 06:28 19.09.2019
1678 Clouds 30 1011 70 10000 5.1 160 05:52 19.09.2019
1679 Clouds 30 1012 70 10000 5.1 160 05:31 19.09.2019
1680 Clouds 30 1013 70 10000 2.6 170 03:54 19.09.2019
1681 Clouds 29 1014 70 10000 2.6 140 02:47 19.09.2019
1682 Clouds 26 1014 83 10000 6.7 160 01:32 19.09.2019
1683 Clouds 26 1014 83 10000 6.7 160 00:50 19.09.2019
1684 Clouds 26 1014 83 10000 6.7 160 00:50 19.09.2019
1685 Clouds 24 1014 94 10000 4.6 140 00:26 19.09.2019
1686 Clouds 24 1014 94 10000 4.6 140 00:26 19.09.2019
1687 Clouds 24 1014 94 10000 4.6 140 23:42 18.09.2019
1688 Clouds 24 1014 94 10000 4.6 140 23:22 18.09.2019
1689 Clouds 24 1013 94 10000 5.7 120 22:55 18.09.2019
1690 Clouds 24 1013 94 10000 5.7 120 22:36 18.09.2019
1691 Clouds 24 1013 94 10000 5.7 120 22:18 18.09.2019
1692 Clouds 24 1013 94 10000 7.7 160 21:54 18.09.2019
1693 Clouds 24 1013 94 10000 7.7 160 21:54 18.09.2019
1694 Clouds 24 1013 94 10000 7.7 160 21:36 18.09.2019
1695 Clouds 24 1014 87 0 8.66 131.551 21:18 18.09.2019
1696 Rain 24 1014 87 0 8.5 127.981 20:55 18.09.2019
1697 Rain 24 1014 87 0 8.5 127.981 20:37 18.09.2019
1698 Clouds 23 1013 94 10000 8.5 127.981 20:18 18.09.2019
1699 Rain 24 1014 87 0 8.5 127.981 19:41 18.09.2019
1700 Rain 24 1014 87 0 8.5 127.981 19:20 18.09.2019
1701 Rain 24 1014 87 0 8.5 127.981 19:20 18.09.2019
1702 Rain 24 1014 87 0 8.5 127.981 18:56 18.09.2019
1703 Rain 24 1014 87 0 8.5 127.981 18:38 18.09.2019
1704 Clouds 24 1014 86 0 8.8 133.637 18:19 18.09.2019
1705 Clouds 24 1014 86 0 8.8 133.637 17:58 18.09.2019
1706 Clouds 24 1014 86 0 8.8 133.637 17:39 18.09.2019
1707 Clouds 24 1014 94 10000 10.3 150 17:19 18.09.2019
1708 Clouds 24 1014 94 10000 10.3 150 16:56 18.09.2019
1709 Clouds 24 1014 94 10000 10.3 150 16:38 18.09.2019
1710 Clouds 24 1014 94 10000 10.3 150 16:18 18.09.2019
1711 Clouds 24 1014 94 10000 10.3 150 15:55 18.09.2019
1712 Clouds 24 1014 94 10000 10.3 150 15:37 18.09.2019
1713 Clouds 24 1014 94 10000 10.3 150 15:18 18.09.2019
1714 Clouds 24 1014 88 10000 10.3 150 14:57 18.09.2019
1715 Clouds 24 1014 88 10000 10.3 150 14:38 18.09.2019
1716 Clouds 24 1014 94 10000 10.3 150 14:20 18.09.2019
1717 Clouds 24 1014 94 10000 10.3 150 13:43 18.09.2019
1718 Clouds 24 1014 94 10000 10.3 150 13:19 18.09.2019
1719 Clouds 25 1014 88 10000 10.3 150 12:55 18.09.2019
1720 Clouds 25 1014 88 10000 10.3 150 12:36 18.09.2019
1721 Clouds 25 1013 88 10000 10.3 150 12:18 18.09.2019
1722 Clouds 25 1013 88 10000 10.3 150 11:39 18.09.2019
1723 Clouds 25 1012 88 10000 5.1 150 11:19 18.09.2019
1724 Clouds 25 1012 88 10000 5.1 150 10:41 18.09.2019
1725 Clouds 25 1012 88 10000 5.1 150 10:21 18.09.2019
1726 Clouds 26 1012 83 10000 7.7 150 09:58 18.09.2019
1727 Clouds 26 1012 83 10000 7.7 150 09:40 18.09.2019
1728 Clouds 26 1012 83 10000 7.7 150 09:40 18.09.2019
1729 Clouds 27 1012 78 10000 7.7 160 09:22 18.09.2019
1730 Clouds 27 1012 78 10000 7.7 160 08:46 18.09.2019
1731 Clouds 27 1012 78 10000 7.7 160 08:26 18.09.2019
1732 Haze 29 1012 74 10000 5.1 160 07:59 18.09.2019
1733 Haze 29 1012 74 10000 5.1 160 07:41 18.09.2019
1734 Haze 29 1012 74 10000 5.1 160 07:22 18.09.2019
1735 Clouds 29 1012 74 10000 10.3 160 06:41 18.09.2019
1736 Clouds 29 1013 74 10000 5.1 170 05:51 18.09.2019
1737 Clouds 29 1013 74 10000 7.7 150 05:21 18.09.2019
1738 Clouds 27 1015 78 0 5.1 150 03:21 18.09.2019
1739 Clouds 27 1015 78 0 5.1 150 02:39 18.09.2019
1740 Clouds 24 1016 88 10000 5.1 130 01:25 18.09.2019
1741 Clouds 24 1016 88 10000 5.1 130 00:49 18.09.2019
1742 Clouds 23 1015 94 10000 2.1 0 00:22 18.09.2019
1743 Clouds 23 1015 94 10000 2.1 0 23:46 17.09.2019
1744 Clouds 23 1014 94 10000 3.6 130 23:23 17.09.2019
1745 Clouds 23 1014 94 10000 3.6 130 22:43 17.09.2019
1746 Clouds 23 1014 94 10000 3.6 130 22:24 17.09.2019
1747 Clouds 23 1014 94 10000 3.1 140 21:55 17.09.2019
1748 Clouds 23 1014 94 10000 3.1 140 21:37 17.09.2019
1749 Clouds 23 1014 94 10000 3.1 140 21:19 17.09.2019
1750 Clouds 23 1014 94 10000 3.1 140 20:58 17.09.2019
1751 Clouds 23 1014 94 10000 3.1 140 20:40 17.09.2019
1752 Clouds 23 1014 94 10000 3.1 140 20:22 17.09.2019
1753 Clouds 23 1014 94 10000 3.1 140 19:58 17.09.2019
1754 Clouds 23 1014 94 10000 3.1 140 19:58 17.09.2019
1755 Clouds 23 1014 94 10000 3.1 140 19:39 17.09.2019
1756 Clouds 23 1014 94 10000 3.1 140 19:39 17.09.2019
1757 Rain 24 1015 90 0 7.88 121.48 19:19 17.09.2019
1758 Rain 24 1015 90 0 7.88 121.48 18:57 17.09.2019
1759 Rain 24 1015 90 0 7.88 121.48 18:38 17.09.2019
1760 Clouds 23 1015 94 10000 3.1 140 18:20 17.09.2019
1761 Clouds 23 1015 94 10000 3.1 140 17:46 17.09.2019
1762 Rain 24 1015 91 0 9.08 132.268 17:20 17.09.2019
1763 Rain 24 1015 91 0 9.08 132.268 16:57 17.09.2019
1764 Rain 24 1015 91 0 9.08 132.268 16:39 17.09.2019
1765 Rain 24 1015 91 0 9.08 132.268 16:21 17.09.2019
1766 Rain 24 1015 91 0 9.08 132.268 16:21 17.09.2019
1767 Rain 24 1015 91 0 9.08 132.268 15:40 17.09.2019
1768 Rain 24 1017 92 0 8.88 133.932 15:20 17.09.2019
1769 Rain 24 1017 92 0 8.88 133.932 14:56 17.09.2019
1770 Rain 24 1017 92 0 8.88 133.932 14:38 17.09.2019
1771 Rain 24 1017 92 0 8.88 133.932 14:19 17.09.2019
1772 Rain 24 1017 92 0 8.88 133.932 13:56 17.09.2019
1773 Rain 24 1017 92 0 8.88 133.932 13:56 17.09.2019
1774 Rain 24 1017 92 0 8.88 133.932 13:38 17.09.2019
1775 Rain 24 1017 92 0 8.98 132.129 13:20 17.09.2019
1776 Rain 24 1017 92 0 8.98 132.129 12:42 17.09.2019
1777 Rain 24 1015 90 0 9.54 145.549 12:19 17.09.2019
1778 Rain 24 1015 90 0 9.54 145.549 12:19 17.09.2019
1779 Rain 24 1015 90 0 9.54 145.549 11:44 17.09.2019
1780 Rain 24 1013 94 0 5.1 150 11:26 17.09.2019
1781 Rain 24 1013 94 0 5.1 150 10:59 17.09.2019
1782 Rain 24 1013 94 0 5.1 150 10:40 17.09.2019
1783 Rain 24 1013 94 0 5.1 150 10:20 17.09.2019
1784 Rain 24 1013 94 0 5.1 140 09:43 17.09.2019
1785 Haze 26 1011 83 10000 5.1 150 09:24 17.09.2019
1786 Haze 26 1011 83 10000 5.1 150 08:57 17.09.2019
1787 Haze 26 1011 83 10000 5.1 150 08:39 17.09.2019
1788 Haze 26 1011 83 10000 5.1 150 08:39 17.09.2019
1789 Haze 26 1011 83 10000 5.1 150 08:20 17.09.2019
1790 Haze 28 1011 74 10000 5.1 150 07:42 17.09.2019
1791 Haze 28 1011 74 10000 5.1 150 07:24 17.09.2019
1792 Haze 30 1011 70 10000 5.1 150 06:52 17.09.2019
1793 Haze 30 1012 70 0 7.7 170 06:29 17.09.2019
1794 Haze 30 1012 70 0 7.7 170 05:52 17.09.2019
1795 Haze 30 1013 66 10000 7.7 160 04:46 17.09.2019
1796 Haze 28 1014 74 10000 7.7 160 03:40 17.09.2019
1797 Haze 28 1015 74 10000 5.1 170 02:39 17.09.2019
1798 Haze 26 1015 78 10000 5.1 130 01:49 17.09.2019
1799 Clouds 25 1015 83 10000 9.3 150 00:45 17.09.2019
1800 Clouds 24 1014 88 10000 7.7 150 23:41 16.09.2019
1801 Clouds 24 1014 88 10000 7.7 150 23:19 16.09.2019
1802 Clouds 24 1015 86 0 8.87 130.875 22:57 16.09.2019
1803 Clouds 24 1015 86 0 8.87 130.875 22:39 16.09.2019
1804 Clouds 24 1012 88 10000 7.7 150 22:21 16.09.2019
1805 Clouds 24 1012 88 10000 7.7 150 21:55 16.09.2019
1806 Clouds 24 1012 88 10000 7.7 150 21:37 16.09.2019
1807 Clouds 24 1013 86 0 8.76 128.556 21:18 16.09.2019
1808 Clouds 24 1012 88 10000 7.7 160 20:40 16.09.2019
1809 Clouds 24 1012 88 10000 7.7 160 20:22 16.09.2019
1810 Clouds 24 1012 88 10000 7.7 160 19:57 16.09.2019
1811 Clouds 24 1012 88 10000 7.7 160 19:39 16.09.2019
1812 Clouds 24 1012 88 10000 7.7 160 19:19 16.09.2019
1813 Clouds 24 1014 86 0 8.75 130.787 18:47 16.09.2019
1814 Clouds 24 1013 88 10000 7.7 160 18:28 16.09.2019
1815 Clouds 24 1013 88 10000 7.7 160 17:58 16.09.2019
1816 Clouds 24 1013 88 10000 7.7 160 17:39 16.09.2019
1817 Clouds 24 1014 86 0 9.95 130.948 17:21 16.09.2019
1818 Clouds 24 1014 86 0 9.95 130.948 16:55 16.09.2019
1819 -273 0 0 0 0 0 16:55 16.09.2019
1820 Clouds 24 1014 86 0 9.95 130.948 16:36 16.09.2019
1821 Clouds 24 1014 86 0 9.95 130.948 16:18 16.09.2019
1822 Clouds 24 1014 86 0 9.95 130.948 15:54 16.09.2019
1823 Clouds 24 1014 86 0 9.95 130.948 15:36 16.09.2019
1824 Clouds 24 1015 84 0 10.27 137.325 15:18 16.09.2019
1825 Clouds 24 1015 84 0 10.27 137.325 14:40 16.09.2019
1826 Clouds 24 1015 84 0 10.27 137.325 14:22 16.09.2019
1827 Clouds 24 1015 84 0 10.27 137.325 13:55 16.09.2019
1828 Clouds 24 1015 84 0 10.27 137.325 13:37 16.09.2019
1829 Clouds 24 1015 83 0 10.17 133.469 13:18 16.09.2019
1830 Clouds 24 1015 83 0 10.17 133.469 13:18 16.09.2019
1831 Clouds 24 1015 83 0 10.17 133.469 12:40 16.09.2019
1832 Clouds 24 1013 82 0 12.47 142.892 12:22 16.09.2019
1833 Clouds 24 1013 82 0 12.47 142.892 11:46 16.09.2019
1834 Haze 26 1011 78 10000 7.7 160 11:23 16.09.2019
1835 Haze 26 1011 78 10000 7.7 160 10:58 16.09.2019
1836 Haze 26 1011 78 10000 7.7 160 10:38 16.09.2019
1837 Haze 26 1011 78 10000 7.7 160 10:19 16.09.2019
1838 Haze 27 1011 74 10000 7.7 160 09:57 16.09.2019
1839 Haze 27 1011 74 10000 7.7 160 09:38 16.09.2019
1840 Haze 27 1011 74 10000 7.7 150 09:18 16.09.2019
1841 Haze 27 1011 74 10000 7.7 150 08:42 16.09.2019
1842 Haze 27 1011 74 10000 7.7 150 08:24 16.09.2019
1843 Haze 29 1011 66 10000 5.1 160 07:43 16.09.2019
1844 Haze 29 1011 66 10000 5.1 160 07:24 16.09.2019
1845 Haze 29 1012 70 10000 5.1 150 06:58 16.09.2019
1846 Haze 29 1012 70 10000 5.1 150 06:39 16.09.2019
1847 Haze 29 1012 70 10000 5.1 150 06:21 16.09.2019
1848 Haze 30 1012 66 10000 2.6 160 05:43 16.09.2019
1849 Clouds 30 1013 66 10000 6.2 130 05:21 16.09.2019
1850 Clouds 29 1014 62 10000 6.2 120 03:46 16.09.2019
1851 Clouds 27 1015 69 10000 4.1 130 01:31 16.09.2019
1852 Clouds 26 1015 74 10000 6.2 150 00:38 16.09.2019
1853 Clouds 24 1016 82 0 7.73 126.455 00:20 16.09.2019
1854 Clouds 24 1016 82 0 7.73 126.455 23:39 15.09.2019
1855 Clouds 23 1014 88 10000 5.1 140 23:20 15.09.2019
1856 Clouds 23 1014 88 10000 5.1 140 22:40 15.09.2019
1857 Clouds 24 1016 82 0 7.73 126.455 22:21 15.09.2019
1858 Clouds 24 1016 82 0 7.73 126.455 22:21 15.09.2019
1859 Clouds 24 1016 82 0 7.73 126.455 21:58 15.09.2019
1860 Clouds 24 1016 82 0 7.73 126.455 21:39 15.09.2019
1861 Clouds 24 1014 84 0 9.47 125.45 21:21 15.09.2019
1862 Clouds 24 1014 84 0 9.47 125.45 20:55 15.09.2019
1863 Clouds 24 1014 84 0 9.47 125.45 20:55 15.09.2019
1864 Clouds 24 1014 84 0 9.47 125.45 20:55 15.09.2019
1865 Clouds 24 1014 84 0 10.15 126.771 20:37 15.09.2019
1866 Clouds 24 1014 84 0 10.15 126.771 20:19 15.09.2019
1867 Clouds 24 1014 84 0 10.15 126.771 19:42 15.09.2019
1868 Clouds 24 1014 84 0 10.15 126.771 19:22 15.09.2019
1869 Clouds 24 1014 84 0 10.15 126.771 18:42 15.09.2019
1870 Clouds 24 1014 84 0 10.12 127.362 18:24 15.09.2019
1871 Clouds 24 1014 84 0 10.12 127.362 17:56 15.09.2019
1872 Clouds 24 1014 84 0 10.12 127.362 17:36 15.09.2019
1873 Clouds 24 1014 84 0 10.12 127.362 17:18 15.09.2019
1874 Clouds 24 1014 84 0 10.12 127.362 16:42 15.09.2019
1875 Clouds 24 1014 84 0 10.12 127.362 16:23 15.09.2019
1876 Clouds 24 1014 84 0 10.12 127.362 15:58 15.09.2019
1877 Clouds 24 1014 84 0 10.12 127.362 15:38 15.09.2019
1878 Clouds 24 1014 84 0 10.12 127.362 15:38 15.09.2019
1879 Clouds 24 1016 83 0 12.61 132.566 15:19 15.09.2019
1880 Clouds 24 1016 83 0 12.61 132.566 14:56 15.09.2019
1881 Clouds 24 1016 83 0 12.61 132.566 14:37 15.09.2019
1882 Clouds 24 1016 83 0 12.61 132.566 14:19 15.09.2019
1883 Clouds 24 1016 83 0 12.61 132.566 13:44 15.09.2019
1884 Clouds 24 1015 82 0 12.26 132.013 13:22 15.09.2019
1885 Clouds 24 1015 82 0 12.26 132.013 12:43 15.09.2019
1886 Clouds 24 1015 82 0 12.26 132.013 12:25 15.09.2019
1887 Clouds 24 1015 82 0 12.26 132.013 12:25 15.09.2019
1888 Clouds 24 1014 81 0 14.01 138.957 11:58 15.09.2019
1889 Clouds 24 1014 81 0 14.01 138.957 11:58 15.09.2019
1890 Clouds 24 1014 81 0 14.01 138.957 11:40 15.09.2019
1891 Clouds 24 1014 81 0 14.01 138.957 11:21 15.09.2019
1892 Clouds 24 1014 81 0 14.01 138.957 10:46 15.09.2019
1893 Clouds 24 1014 81 0 14.01 138.957 10:23 15.09.2019
1894 Clouds 24 1014 81 0 14.01 138.957 09:58 15.09.2019
1895 Clouds 24 1014 81 0 14.01 138.957 09:37 15.09.2019
1896 Clouds 24 1013 80 0 14.07 149.118 09:19 15.09.2019
1897 Clouds 24 1013 80 0 14.07 149.118 08:46 15.09.2019
1898 Haze 28 1011 69 10000 12.9 150 08:26 15.09.2019
1899 Haze 28 1011 69 10000 12.9 150 07:48 15.09.2019
1900 Haze 29 1012 70 10000 12.3 150 07:26 15.09.2019
1901 Haze 29 1012 70 10000 12.3 150 06:42 15.09.2019
1902 Haze 29 1014 66 10000 10.3 160 03:31 15.09.2019
1903 Haze 28 1015 65 10000 8.7 150 02:33 15.09.2019
1904 Haze 27 1015 74 10000 8.2 160 01:39 15.09.2019
1905 Haze 27 1015 74 10000 8.2 160 01:19 15.09.2019
1906 Haze 25 1015 78 10000 7.7 140 00:41 15.09.2019
1907 Haze 25 1015 78 10000 7.7 140 00:21 15.09.2019
1908 Haze 23 1014 88 10000 5.7 140 23:57 14.09.2019
1909 Haze 23 1014 88 10000 5.7 140 23:39 14.09.2019
1910 Haze 23 1014 88 10000 5.7 140 23:21 14.09.2019
1911 Haze 23 1014 83 10000 5.1 130 22:58 14.09.2019
1912 Haze 23 1014 83 10000 5.1 130 22:39 14.09.2019
1913 Haze 23 1014 83 10000 5.1 130 22:19 14.09.2019
1914 Clouds 23 1013 83 10000 7.7 140 21:40 14.09.2019
1915 Clouds 23 1013 88 10000 7.7 150 21:21 14.09.2019
1916 Clouds 23 1013 88 10000 7.7 150 20:59 14.09.2019
1917 Clouds 23 1013 88 10000 7.7 150 20:59 14.09.2019
1918 Clouds 23 1013 88 10000 7.7 150 20:40 14.09.2019
1919 Clouds 23 1013 88 10000 7.7 150 20:22 14.09.2019
1920 Clouds 23 1013 88 10000 7.7 150 19:51 14.09.2019
1921 Clouds 23 1013 88 10000 6.2 140 19:23 14.09.2019
1922 Clouds 23 1013 88 10000 6.2 140 19:23 14.09.2019
1923 Clouds 23 1013 88 10000 6.2 140 18:58 14.09.2019
1924 Clouds 23 1013 88 10000 6.2 140 18:39 14.09.2019
1925 Clouds 23 1013 88 10000 6.2 140 18:20 14.09.2019
1926 Clouds 24 1013 83 10000 7.7 150 17:55 14.09.2019
1927 Clouds 24 1013 83 10000 7.7 150 17:37 14.09.2019
1928 Clouds 24 1013 83 10000 7.7 150 17:18 14.09.2019
1929 Clouds 24 1014 83 10000 8.2 140 16:42 14.09.2019
1930 Clouds 24 1014 83 10000 7.7 140 16:21 14.09.2019
1931 Clouds 24 1014 83 10000 7.7 140 15:42 14.09.2019
1932 Clouds 24 1016 81 0 12.12 132.164 15:23 14.09.2019
1933 Clouds 24 1016 81 0 12.12 132.164 15:23 14.09.2019
1934 Clouds 24 1016 81 0 12.12 132.164 14:58 14.09.2019
1935 Clouds 24 1016 81 0 12.12 132.164 14:39 14.09.2019
1936 Clouds 24 1016 81 0 12.12 132.164 14:39 14.09.2019
1937 Clouds 24 1016 81 0 12.12 132.164 14:18 14.09.2019
1938 Clouds 24 1016 81 0 12.12 132.164 13:46 14.09.2019
1939 Clear 24 1016 81 0 12.28 132.888 13:21 14.09.2019
1940 Clear 24 1016 81 0 12.28 132.888 12:46 14.09.2019
1941 Clear 24 1014 79 0 12.71 138.879 12:23 14.09.2019
1942 Clear 24 1014 79 0 12.71 138.879 11:41 14.09.2019
1943 Clouds 26 1013 74 10000 10.3 150 11:20 14.09.2019
1944 Clouds 26 1013 74 10000 10.3 150 11:20 14.09.2019
1945 Clouds 26 1013 74 10000 10.3 150 10:40 14.09.2019
1946 Clouds 26 1013 74 10000 10.3 150 10:40 14.09.2019
1947 Clouds 27 1012 69 10000 12.3 150 10:22 14.09.2019
1948 Clouds 27 1012 69 10000 12.3 150 09:59 14.09.2019
1949 Clouds 27 1012 69 10000 12.3 150 09:40 14.09.2019
1950 Clouds 28 1011 65 10000 12.3 160 09:21 14.09.2019
1951 Clouds 28 1011 65 10000 12.3 160 08:56 14.09.2019
1952 Clouds 28 1011 65 10000 12.3 160 08:56 14.09.2019
1953 Clouds 28 1011 65 10000 12.3 160 08:37 14.09.2019
1954 Clouds 28 1011 65 10000 12.3 160 08:18 14.09.2019
1955 Clouds 29 1011 62 10000 14.4 150 07:42 14.09.2019
1956 Clouds 29 1011 62 10000 14.4 150 07:20 14.09.2019
1957 Clouds 29 1011 62 10000 14.4 160 06:33 14.09.2019
1958 Clouds 25 1013 77 0 12.01 151.914 05:43 14.09.2019
1959 Clouds 29 1014 62 10000 10.3 160 03:59 14.09.2019
1960 Clouds 28 1015 61 10000 9.8 160 02:57 14.09.2019
1961 Clouds 25 1015 73 10000 7.7 140 02:30 14.09.2019
1962 Clouds 25 1015 73 10000 7.7 140 01:44 14.09.2019
1963 Clouds 25 1015 73 10000 7.7 140 01:19 14.09.2019
1964 Clouds 24 1015 78 10000 7.7 140 00:40 14.09.2019
1965 Clouds 24 1015 78 10000 7.7 140 00:21 14.09.2019
1966 Clouds 23 1015 83 10000 7.7 130 23:54 13.09.2019
1967 Clouds 23 1015 83 10000 7.7 130 23:36 13.09.2019
1968 Clouds 23 1015 83 10000 7.7 130 23:36 13.09.2019
1969 Clouds 23 1015 83 10000 7.7 130 23:18 13.09.2019
1970 Clouds 23 1014 88 10000 7.7 150 22:39 13.09.2019
1971 Clouds 24 1015 80 0 11.07 127.353 22:20 13.09.2019
1972 Clouds 24 1015 80 0 11.07 127.353 21:56 13.09.2019
1973 Clouds 24 1015 80 0 11.07 127.353 21:37 13.09.2019
1974 Clouds 24 1014 80 0 11.24 129.598 21:19 13.09.2019
1975 Clouds 24 1014 80 0 11.24 129.598 20:55 13.09.2019
1976 Clouds 24 1014 81 0 11.5 129.795 20:36 13.09.2019
1977 Clouds 24 1014 81 0 11.5 129.795 20:18 13.09.2019
1978 Clouds 24 1014 81 0 11.5 129.795 19:42 13.09.2019
1979 Clouds 24 1014 81 0 11.5 129.795 19:21 13.09.2019
1980 Clouds 24 1014 81 0 11.5 129.795 18:58 13.09.2019
1981 Clouds 24 1014 81 0 11.5 129.795 18:37 13.09.2019
1982 Clouds 24 1014 81 0 11.5 129.795 18:37 13.09.2019
1983 Clouds 24 1015 82 0 12.32 134.77 18:19 13.09.2019
1984 Clouds 24 1015 82 0 12.32 134.77 17:43 13.09.2019
1985 Clouds 24 1015 82 0 12.32 134.77 17:19 13.09.2019
1986 Clouds 24 1015 82 0 12.32 134.77 16:54 13.09.2019
1987 Clouds 24 1015 82 0 12.32 134.77 16:36 13.09.2019
1988 Clouds 23 1015 83 10000 11.8 150 16:18 13.09.2019
1989 Clouds 23 1015 83 10000 11.8 150 15:40 13.09.2019
1990 Clouds 23 1015 83 10000 11.8 150 15:20 13.09.2019
1991 Clouds 23 1015 83 10000 11.8 150 14:44 13.09.2019
1992 Clouds 23 1015 83 10000 11.8 150 14:22 13.09.2019
1993 Clouds 24 1015 78 10000 11.8 140 13:56 13.09.2019
1994 Clouds 24 1015 78 10000 11.8 140 13:56 13.09.2019
1995 Clouds 24 1015 78 10000 11.8 140 13:37 13.09.2019
1996 Clouds 24 1016 81 0 12.43 134.583 13:19 13.09.2019
1997 Clouds 24 1016 81 0 12.43 134.583 13:19 13.09.2019
1998 Clouds 24 1016 81 0 12.43 134.583 12:41 13.09.2019
1999 Clouds 24 1015 79 0 13.72 140.672 12:23 13.09.2019
2000 Clouds 24 1015 79 0 13.72 140.672 11:56 13.09.2019
2001 Smoke 25 1013 78 10000 14.4 150 11:20 13.09.2019
2002 Smoke 25 1013 78 10000 14.4 150 10:41 13.09.2019
2003 Smoke 25 1013 78 10000 14.4 150 10:20 13.09.2019
2004 Smoke 25 1012 78 10000 15.9 150 09:47 13.09.2019
2005 Smoke 25 1012 78 10000 15.9 150 09:25 13.09.2019
2006 Smoke 27 1012 69 10000 10.3 160 08:59 13.09.2019
2007 Smoke 27 1012 69 10000 10.3 160 08:41 13.09.2019
2008 Clouds 25 1013 76 0 13.79 148.498 08:21 13.09.2019
2009 Smoke 28 1011 69 10000 15.4 160 07:56 13.09.2019
2010 Smoke 28 1011 69 10000 15.4 160 07:38 13.09.2019
2011 Smoke 28 1012 69 10000 14.4 150 06:48 13.09.2019
2012 Smoke 29 1012 79 10000 14.4 150 05:50 13.09.2019
2013 Haze 29 1013 62 10000 12.9 160 05:18 13.09.2019
2014 Haze 28 1014 65 10000 10.3 150 03:40 13.09.2019
2015 Haze 28 1015 61 10000 10.3 150 02:21 13.09.2019
2016 Haze 26 1015 69 10000 10.3 150 01:59 13.09.2019
2017 Haze 26 1015 69 10000 10.3 150 01:34 13.09.2019
2018 Haze 26 1015 69 10000 10.3 150 01:34 13.09.2019
2019 Haze 25 1015 73 10000 10.3 150 00:58 13.09.2019
2020 Clouds 24 1015 83 10000 5.1 150 00:23 13.09.2019
2021 Clouds 24 1015 83 10000 5.1 150 23:39 12.09.2019
2022 Clouds 24 1015 83 10000 5.1 150 23:20 12.09.2019
2023 Clear 24 1015 81 0 12.1 127.964 22:42 12.09.2019
2024 Clear 24 1015 81 0 12.1 127.964 22:24 12.09.2019
2025 Clear 24 1015 81 0 12.1 127.964 21:57 12.09.2019
2026 Clear 24 1015 81 0 12.1 127.964 21:38 12.09.2019
2027 Clear 24 1015 81 0 12.1 127.964 21:38 12.09.2019
2028 Clouds 23 1013 83 10000 5.1 150 21:20 12.09.2019
2029 Clouds 23 1013 83 10000 5.1 150 20:56 12.09.2019
2030 Clouds 23 1013 83 10000 5.1 150 20:38 12.09.2019
2031 Clouds 23 1013 83 10000 5.1 150 20:20 12.09.2019
2032 Clouds 23 1013 83 10000 5.1 150 19:54 12.09.2019
2033 Clouds 23 1013 83 10000 5.1 150 19:36 12.09.2019
2034 Clouds 23 1013 83 10000 5.1 150 19:36 12.09.2019
2035 Clouds 23 1013 83 10000 5.7 140 19:18 12.09.2019
2036 Clear 24 1014 79 0 11.56 125.658 18:37 12.09.2019
2037 Clear 24 1014 80 0 12.43 127.994 18:19 12.09.2019
2038 Clear 24 1014 80 0 12.43 127.994 17:56 12.09.2019
2039 Clear 24 1014 80 0 12.43 127.994 17:38 12.09.2019
2040 Clear 24 1014 80 0 12.43 127.994 17:19 12.09.2019
2041 Clear 24 1014 80 0 12.43 127.994 16:41 12.09.2019
2042 Clear 24 1014 80 0 12.43 127.994 16:21 12.09.2019
2043 Clear 24 1014 80 0 12.43 127.994 15:43 12.09.2019
2044 Clouds 24 1015 73 10000 5.1 140 15:24 12.09.2019
2045 Clouds 24 1015 73 10000 5.1 140 14:56 12.09.2019
2046 Clouds 24 1015 73 10000 5.1 140 14:38 12.09.2019
2047 Clouds 24 1015 73 10000 5.1 140 14:20 12.09.2019
2048 Clouds 24 1015 73 10000 5.1 140 13:39 12.09.2019
2049 Clouds 24 1017 77 0 12.37 128.252 13:21 12.09.2019
2050 Clouds 24 1017 77 0 12.37 128.252 12:49 12.09.2019
2051 Clouds 24 1017 77 0 12.37 128.252 12:49 12.09.2019
2052 Clouds 25 1014 78 10000 7.7 150 12:19 12.09.2019
2053 Clouds 25 1014 78 10000 7.7 150 11:58 12.09.2019
2054 Clouds 25 1014 78 10000 7.7 150 11:39 12.09.2019
2055 Smoke 26 1013 69 10000 7.7 150 11:21 12.09.2019
2056 Smoke 26 1013 69 10000 7.7 150 11:21 12.09.2019
2057 Smoke 26 1013 69 10000 7.7 150 10:48 12.09.2019
2058 Smoke 26 1013 69 10000 7.7 150 10:26 12.09.2019
2059 Smoke 27 1012 69 10000 7.7 150 09:56 12.09.2019
2060 Smoke 27 1012 69 10000 7.7 150 09:38 12.09.2019
2061 Clouds 25 1013 76 0 14.41 148.128 09:18 12.09.2019
2062 Clouds 25 1013 76 0 14.41 148.128 09:18 12.09.2019
2063 Smoke 27 1011 69 10000 7.7 160 08:43 12.09.2019
2064 Smoke 27 1011 69 10000 7.7 160 08:22 12.09.2019
2065 Smoke 28 1011 61 10000 7.7 160 07:46 12.09.2019
2066 Smoke 28 1011 61 10000 7.7 160 07:20 12.09.2019
2067 Smoke 28 1012 69 10000 7.7 160 06:51 12.09.2019
2068 Smoke 28 1012 69 10000 7.7 160 06:31 12.09.2019
2069 Smoke 29 1012 62 10000 7.7 160 05:52 12.09.2019
2070 Clouds 30 1013 33 10000 7.7 170 05:34 12.09.2019
2071 Clouds 30 1013 33 10000 7.7 170 04:41 12.09.2019
2072 Clouds 25 1016 69 0 10.99 134.565 02:59 12.09.2019
2073 Clouds 25 1016 67 0 11.07 133.953 01:37 12.09.2019
2074 Haze 25 1015 65 10000 5.1 140 01:19 12.09.2019
2075 Haze 25 1015 65 10000 5.1 140 00:44 12.09.2019
2076 Haze 25 1015 65 10000 5.1 140 00:24 12.09.2019
2077 Clouds 23 1015 73 10000 5.1 120 23:42 11.09.2019
2078 Clouds 23 1015 73 10000 5.1 120 23:24 11.09.2019
2079 Clouds 23 1015 73 10000 5.1 120 23:24 11.09.2019
2080 Clouds 22 1014 73 10000 5.1 100 22:57 11.09.2019
2081 Clouds 22 1014 73 10000 5.1 100 22:37 11.09.2019
2082 Clouds 22 1014 73 10000 5.1 100 22:19 11.09.2019
2083 Clouds 24 1016 73 0 10.62 124.706 21:43 11.09.2019
2084 Clouds 22 1014 78 10000 2.6 100 21:25 11.09.2019
2085 Clouds 23 1015 77 0 11.96 123.919 20:58 11.09.2019
2086 Clouds 24 1015 75 0 11.81 126.191 20:40 11.09.2019
2087 Clouds 23 1013 78 10000 5.1 140 20:20 11.09.2019
2088 Clouds 23 1013 78 10000 5.1 140 19:58 11.09.2019
2089 Clouds 23 1013 78 10000 5.1 140 19:40 11.09.2019
2090 Clouds 23 1014 78 10000 7.7 140 19:21 11.09.2019
2091 Clouds 23 1014 78 10000 7.7 140 18:59 11.09.2019
2092 Clouds 23 1014 78 10000 7.7 140 18:59 11.09.2019
2093 Clouds 23 1014 78 10000 7.7 140 18:40 11.09.2019
2094 Clouds 24 1016 76 0 12.13 125.412 18:22 11.09.2019
2095 Clouds 23 1015 78 10000 8.2 140 17:56 11.09.2019
2096 Clouds 23 1015 78 10000 8.2 140 17:38 11.09.2019
2097 Clouds 23 1015 78 10000 8.2 140 17:38 11.09.2019
2098 Clouds 23 1016 78 10000 8.7 150 17:20 11.09.2019
2099 Clouds 23 1016 78 10000 8.7 150 16:48 11.09.2019
2100 Clouds 23 1016 78 10000 8.7 150 16:26 11.09.2019
2101 Clouds 24 1016 76 0 12.13 125.412 15:59 11.09.2019
2102 Clouds 24 1016 76 0 12.13 125.412 15:40 11.09.2019
2103 Clouds 24 1017 74 0 13.16 130.467 15:19 11.09.2019
2104 Clouds 24 1017 74 0 13.16 130.467 14:55 11.09.2019
2105 Clouds 24 1017 74 0 13.16 130.467 14:36 11.09.2019
2106 Clouds 24 1017 74 0 13.16 130.467 14:18 11.09.2019
2107 Clouds 24 1017 74 0 13.16 130.467 13:38 11.09.2019
2108 Clouds 24 1016 69 10000 7.7 140 13:20 11.09.2019
2109 Clouds 24 1016 69 10000 7.7 140 12:56 11.09.2019
2110 Clouds 24 1016 69 10000 7.7 140 12:38 11.09.2019
2111 Clouds 24 1016 69 10000 7.7 140 12:20 11.09.2019
2112 Clear 24 1016 72 0 13.75 136.937 11:39 11.09.2019
2113 Smoke 26 1015 61 10000 7.7 150 11:21 11.09.2019
2114 Smoke 26 1015 61 10000 7.7 150 11:21 11.09.2019
2115 Smoke 26 1015 61 10000 7.7 150 11:21 11.09.2019
2116 Smoke 26 1015 61 10000 7.7 150 10:56 11.09.2019
2117 Smoke 26 1015 61 10000 7.7 150 10:38 11.09.2019
2118 Smoke 26 1015 61 10000 7.7 150 10:19 11.09.2019
2119 Clouds 26 1013 65 10000 7.7 160 09:39 11.09.2019
2120 Clouds 26 1013 65 10000 10.3 160 09:19 11.09.2019
2121 Clouds 26 1013 65 10000 10.3 160 08:55 11.09.2019
2122 Clouds 26 1013 65 10000 10.3 160 08:36 11.09.2019
2123 Clouds 26 1013 65 10000 10.3 160 08:18 11.09.2019
2124 Smoke 27 1013 65 10000 10.3 170 07:40 11.09.2019
2125 Clouds 24 1014 73 0 14.7 146.282 07:21 11.09.2019
2126 Clouds 29 1013 54 10000 15.4 160 06:46 11.09.2019
2127 Clouds 29 1013 54 10000 15.4 160 06:24 11.09.2019
2128 Clouds 24 1014 69 0 12.43 149.352 05:36 11.09.2019
2129 Smoke 29 1015 54 10000 11.8 170 05:18 11.09.2019
2130 Smoke 29 1015 54 10000 11.8 170 04:22 11.09.2019
2131 Smoke 28 1016 48 10000 11.8 140 03:29 11.09.2019
2132 Clouds 27 1016 51 10000 5.1 145 02:37 11.09.2019
2133 Haze 26 1016 57 10000 11.8 150 01:33 11.09.2019
2134 Haze 24 1016 64 10000 9.3 140 00:40 11.09.2019
2135 Clouds 23 1016 73 0 11.14 123.352 00:20 11.09.2019
2136 Smoke 23 1016 69 10000 5.1 130 23:40 10.09.2019
2137 Haze 22 1015 73 10000 4.1 120 23:22 10.09.2019
2138 Haze 22 1015 73 10000 4.1 120 22:57 10.09.2019
2139 Haze 22 1015 73 10000 4.1 120 22:37 10.09.2019
2140 Clouds 23 1016 73 0 11.14 123.352 22:18 10.09.2019
2141 Clouds 23 1016 73 0 11.14 123.352 21:54 10.09.2019
2142 Clouds 23 1016 73 0 11.14 123.352 21:36 10.09.2019
2143 Clouds 23 1014 69 10000 7.7 120 21:18 10.09.2019
2144 Clouds 23 1014 69 10000 7.7 120 20:55 10.09.2019
2145 Clouds 23 1014 69 10000 7.7 120 20:37 10.09.2019
2146 Clear 23 1015 75 0 11.46 127.389 20:18 10.09.2019
2147 Clear 23 1015 75 0 11.46 127.389 19:55 10.09.2019
2148 Clear 23 1015 75 0 11.46 127.389 19:36 10.09.2019
2149 Clear 23 1015 75 0 11.46 127.389 19:36 10.09.2019
2150 Clouds 22 1014 73 10000 7.7 140 19:18 10.09.2019
2151 Clouds 22 1014 73 10000 7.7 140 18:43 10.09.2019
2152 Clouds 22 1014 73 10000 7.7 140 18:22 10.09.2019
2153 Clear 23 1015 73 0 11.68 129.149 17:57 10.09.2019
2154 Clear 23 1015 73 0 11.68 129.149 17:57 10.09.2019
2155 Clear 23 1015 73 0 11.68 129.149 17:39 10.09.2019
2156 Clouds 23 1015 73 10000 7.7 140 17:19 10.09.2019
2157 Clouds 23 1015 73 10000 7.7 140 16:57 10.09.2019
2158 Clouds 23 1015 73 10000 7.7 140 16:38 10.09.2019
2159 Clouds 23 1015 73 10000 7.7 140 16:19 10.09.2019
2160 -273 0 0 0 0 0 16:19 10.09.2019
2161 Clear 23 1015 73 0 11.68 129.149 15:43 10.09.2019
2162 Clear 24 1016 71 0 11.61 125.495 15:23 10.09.2019
2163 Clear 24 1016 71 0 11.61 125.495 14:57 10.09.2019
2164 Clear 24 1016 71 0 11.61 125.495 14:38 10.09.2019
2165 Clear 24 1016 71 0 11.61 125.495 14:19 10.09.2019
2166 Clear 24 1016 71 0 11.61 125.495 13:44 10.09.2019
2167 Clouds 23 1016 71 0 11.55 125.624 13:23 10.09.2019
2168 Clouds 23 1016 71 0 11.55 125.624 12:52 10.09.2019
2169 Clouds 23 1016 71 0 11.55 125.624 12:28 10.09.2019
2170 Clouds 24 1015 72 0 11.85 138.446 11:59 10.09.2019
2171 Clouds 24 1015 72 0 11.85 138.446 11:59 10.09.2019
2172 Clouds 24 1015 72 0 11.85 138.446 11:40 10.09.2019
2173 Clouds 24 1015 72 0 11.85 138.446 11:22 10.09.2019
2174 Clouds 24 1015 72 0 11.85 138.446 10:43 10.09.2019
2175 Clouds 24 1015 72 0 11.85 138.446 10:21 10.09.2019
2176 Clouds 24 1015 72 0 11.85 138.446 09:59 10.09.2019
2177 Clouds 24 1015 72 0 11.85 138.446 09:41 10.09.2019
2178 Clouds 26 1012 65 10000 10.3 160 09:19 10.09.2019
2179 Clouds 26 1012 65 10000 10.3 160 09:19 10.09.2019
2180 Clouds 26 1012 65 10000 10.3 160 08:47 10.09.2019
2181 Clouds 27 1012 61 10000 7.7 170 08:28 10.09.2019
2182 Clouds 27 1012 61 10000 7.7 170 07:55 10.09.2019
2183 Clouds 27 1012 61 10000 7.7 170 07:55 10.09.2019
2184 Clouds 27 1012 61 10000 7.7 170 07:55 10.09.2019
2185 -273 0 0 0 0 0 07:55 10.09.2019
2186 Clouds 27 1012 61 10000 7.7 170 07:37 10.09.2019
2187 Clouds 27 1012 61 10000 7.7 170 07:18 10.09.2019
2188 Clouds 28 1012 58 10000 7.7 170 06:39 10.09.2019
2189 Clouds 28 1012 58 10000 7.7 170 06:18 10.09.2019
2190 Haze 28 1013 58 10000 7.7 170 04:18 10.09.2019
2191 Clouds 23 1015 72 0 7.68 138.345 02:38 10.09.2019
2192 Clouds 23 1015 72 0 7.68 138.345 02:38 10.09.2019
2193 Clouds 23 1015 72 0 7.68 138.345 02:38 10.09.2019
2194 Smoke 25 1015 69 10000 6.2 120 02:19 10.09.2019
2195 Smoke 25 1015 69 10000 6.2 120 01:45 10.09.2019
2196 Smoke 25 1015 69 10000 6.2 120 01:22 10.09.2019
2197 Smoke 24 1015 73 10000 2.6 150 00:34 10.09.2019
2198 Fog 19 1014 93 10000 1 0 23:48 09.09.2019
2199 Fog 19 1014 93 10000 1 0 23:20 09.09.2019
2200 Clouds 19 1014 93 10000 1 0 22:58 09.09.2019
2201 Clouds 19 1014 93 10000 1 0 22:39 09.09.2019
2202 Clouds 19 1014 93 10000 1 0 22:21 09.09.2019
2203 Clouds 21 1013 83 10000 2.1 0 21:58 09.09.2019
2204 Clouds 23 1015 70 0 6.89 127.863 21:40 09.09.2019
2205 Clouds 21 1013 83 10000 2.1 0 21:20 09.09.2019
2206 Clouds 21 1013 83 10000 2.1 0 20:57 09.09.2019
2207 Clouds 23 1014 72 0 5.72 121.686 20:37 09.09.2019
2208 Clouds 21 1013 83 10000 2.6 160 20:19 09.09.2019
2209 Clouds 21 1013 83 10000 2.6 160 19:58 09.09.2019
2210 Clouds 21 1013 83 10000 2.6 160 19:39 09.09.2019
2211 Clouds 21 1013 83 10000 2.6 160 19:19 09.09.2019
2212 Clouds 23 1014 72 0 5.72 121.686 18:58 09.09.2019
2213 Clouds 23 1014 72 0 5.72 121.686 18:40 09.09.2019
2214 Clear 23 1014 72 0 7.35 127.878 18:21 09.09.2019
2215 Clear 23 1014 72 0 7.35 127.878 17:58 09.09.2019
2216 Clear 23 1014 72 0 7.35 127.878 17:40 09.09.2019
2217 Clear 23 1014 72 0 7.35 127.878 17:21 09.09.2019
2218 Clear 23 1014 72 0 7.35 127.878 17:21 09.09.2019
2219 Clear 23 1014 72 0 7.35 127.878 16:55 09.09.2019
2220 Clear 23 1014 72 0 7.35 127.878 16:37 09.09.2019
2221 Clouds 22 1014 83 10000 7.35 127.878 16:19 09.09.2019
2222 Clouds 22 1014 83 10000 7.35 127.878 15:55 09.09.2019
2223 Clouds 22 1014 83 10000 7.35 127.878 15:55 09.09.2019
2224 Clouds 22 1014 83 10000 7.35 127.878 15:36 09.09.2019
2225 Clouds 22 1014 83 10000 8.2 129.405 15:18 09.09.2019
2226 Clouds 23 1015 78 10000 8.2 129.405 14:54 09.09.2019
2227 Clouds 24 1016 70 0 8.2 129.405 14:36 09.09.2019
2228 Clouds 24 1016 70 0 8.2 129.405 14:18 09.09.2019
2229 Clouds 24 1016 70 0 8.2 129.405 13:43 09.09.2019
2230 Clouds 24 1016 71 0 8.41 130.091 13:19 09.09.2019
2231 Clouds 24 1016 71 0 8.41 130.091 12:57 09.09.2019
2232 Clouds 24 1016 71 0 8.41 130.091 12:38 09.09.2019
2233 Clear 24 1014 72 0 8.58 144.598 12:19 09.09.2019
2234 Clear 24 1014 72 0 8.58 144.598 11:43 09.09.2019
2235 Clouds 24 1013 69 10000 5.1 150 11:20 09.09.2019
2236 Clouds 24 1013 69 10000 5.1 150 10:57 09.09.2019
2237 Clear 24 1014 72 0 8.58 144.598 10:39 09.09.2019
2238 Haze 26 1012 65 10000 7.7 160 10:19 09.09.2019
2239 Haze 26 1012 65 10000 7.7 160 09:49 09.09.2019
2240 Haze 26 1012 65 10000 7.7 160 09:30 09.09.2019
2241 Haze 26 1011 61 10000 7.7 160 08:57 09.09.2019
2242 Clouds 24 1012 70 0 7.9 157.237 08:38 09.09.2019
2243 Haze 27 1011 57 10000 7.7 160 08:19 09.09.2019
2244 Haze 27 1011 57 10000 7.7 160 08:19 09.09.2019
2245 Haze 27 1011 57 10000 7.7 160 07:41 09.09.2019
2246 Haze 27 1011 57 10000 7.7 160 07:21 09.09.2019
2247 Haze 27 1012 57 10000 7.7 150 06:54 09.09.2019
2248 Haze 27 1012 57 10000 7.7 150 06:54 09.09.2019
2249 Haze 28 1012 58 10000 5.1 150 06:27 09.09.2019
2250 Clouds 28 1013 58 10000 7.7 180 03:21 09.09.2019
2251 Smoke 28 1014 58 10000 1.5 0 02:42 09.09.2019
2252 Haze 25 1014 73 10000 1.5 0 01:25 09.09.2019
2253 Haze 25 1014 73 10000 1.5 0 00:24 09.09.2019
2254 Smoke 20 1014 100 10000 1.5 0 23:56 08.09.2019
2255 Smoke 20 1014 100 10000 1.5 0 23:56 08.09.2019
2256 Smoke 20 1014 100 10000 1.5 0 23:38 08.09.2019
2257 Smoke 20 1014 100 10000 1.5 0 23:19 08.09.2019
2258 Smoke 19 1013 100 10000 1.5 0 22:41 08.09.2019
2259 Clouds 23 1015 72 0 4.34 110.715 22:23 08.09.2019
2260 Clouds 23 1015 72 0 4.34 110.715 22:23 08.09.2019
2261 Clouds 23 1015 72 0 4.34 110.715 21:59 08.09.2019
2262 Clouds 23 1015 72 0 4.34 110.715 21:40 08.09.2019
2263 Clouds 23 1013 75 0 7.06 122.471 21:22 08.09.2019
2264 Clouds 23 1013 75 0 7.06 122.471 20:56 08.09.2019
2265 Clouds 23 1013 75 0 7.21 115.542 20:37 08.09.2019
2266 Clouds 23 1013 75 0 7.21 115.542 20:19 08.09.2019
2267 Clouds 23 1013 75 0 7.21 115.542 19:39 08.09.2019
2268 Clouds 23 1013 75 0 7.21 115.542 19:21 08.09.2019
2269 Clouds 23 1013 75 0 7.21 115.542 19:21 08.09.2019
2270 Clouds 23 1013 75 0 7.21 115.542 18:59 08.09.2019
2271 Clouds 23 1013 75 0 7.21 115.542 18:39 08.09.2019
2272 Clouds 23 1014 76 0 7.71 131.642 18:20 08.09.2019
2273 Clouds 23 1014 76 0 7.71 131.642 17:59 08.09.2019
2274 Clouds 23 1014 76 0 7.71 131.642 17:37 08.09.2019
2275 Clouds 20 1015 94 10000 1 0 17:19 08.09.2019
2276 Clouds 20 1015 94 10000 1 0 16:57 08.09.2019
2277 Clouds 20 1015 94 10000 1 0 16:39 08.09.2019
2278 Clouds 20 1015 94 10000 1 0 16:20 08.09.2019
2279 Clouds 23 1014 76 0 7.71 131.642 15:42 08.09.2019
2280 Clouds 22 1015 83 10000 5.1 130 15:24 08.09.2019
2281 Clouds 22 1015 83 10000 5.1 130 14:59 08.09.2019
2282 Clouds 24 1015 76 0 6.55 137.859 14:40 08.09.2019
2283 Clouds 24 1015 76 0 6.55 137.859 14:40 08.09.2019
2284 Clouds 24 1015 76 0 6.55 137.859 14:40 08.09.2019
2285 Clouds 23 1015 83 10000 5.1 140 14:21 08.09.2019
2286 Clouds 23 1015 83 10000 5.1 140 13:58 08.09.2019
2287 Clouds 23 1015 83 10000 5.1 140 13:40 08.09.2019
2288 Clouds 23 1015 83 10000 5.1 140 13:21 08.09.2019
2289 Clouds 23 1014 83 10000 5.1 160 12:55 08.09.2019
2290 Clouds 23 1014 83 10000 5.1 160 12:37 08.09.2019
2291 Clouds 23 1014 83 10000 5.1 160 12:18 08.09.2019
2292 Clouds 24 1014 83 10000 5.1 160 11:56 08.09.2019
2293 Clouds 24 1014 83 10000 5.1 160 11:37 08.09.2019
2294 Clouds 24 1014 83 10000 5.1 160 11:18 08.09.2019
2295 Clouds 24 1013 83 10000 5.1 160 10:42 08.09.2019
2296 Clouds 24 1013 83 10000 5.1 160 10:23 08.09.2019
2297 Clouds 26 1013 78 10000 5.1 160 09:56 08.09.2019
2298 Clouds 26 1013 78 10000 5.1 160 09:37 08.09.2019
2299 Clouds 26 1013 78 10000 5.1 160 09:19 08.09.2019
2300 Clouds 28 1012 65 10000 5.1 170 08:39 08.09.2019
2301 Clouds 28 1012 65 10000 5.1 170 08:19 08.09.2019
2302 Haze 30 1012 55 10000 5.1 210 07:42 08.09.2019
2303 Haze 30 1012 55 10000 5.1 210 07:21 08.09.2019
2304 Haze 30 1012 55 10000 5.1 210 06:57 08.09.2019
2305 Haze 30 1012 55 10000 5.1 210 06:34 08.09.2019
2306 Haze 31 1013 45 10000 5.1 110 05:40 08.09.2019
2307 Haze 31 1014 45 10000 5.1 320 04:58 08.09.2019
2308 Haze 30 1015 48 10000 2.6 0 03:23 08.09.2019
2309 Haze 28 1016 54 10000 2.6 140 02:36 08.09.2019
2310 Haze 27 1017 57 10000 2.1 0 01:53 08.09.2019
2311 Haze 27 1017 57 10000 2.1 0 01:25 08.09.2019
2312 Smoke 24 1016 73 10000 2.1 0 00:47 08.09.2019
2313 Smoke 24 1016 73 10000 2.1 0 00:28 08.09.2019
2314 Clouds 22 1016 83 10000 2.6 140 23:39 07.09.2019
2315 Clouds 22 1016 83 10000 2.6 140 23:21 07.09.2019
2316 Clouds 22 1015 83 10000 2.6 150 22:59 07.09.2019
2317 Clouds 22 1015 83 10000 2.6 150 22:40 07.09.2019
2318 Clouds 22 1015 83 10000 2.6 150 22:22 07.09.2019
2319 Clouds 21 1014 88 10000 2.6 120 21:54 07.09.2019
2320 Clouds 21 1014 88 10000 2.6 120 21:36 07.09.2019
2321 Clouds 21 1014 88 10000 2.6 120 21:18 07.09.2019
2322 Clouds 23 1015 70 0 5.87 126.558 20:39 07.09.2019
2323 Clouds 23 1015 70 0 5.87 126.558 20:20 07.09.2019
2324 Clouds 23 1015 70 0 5.87 126.558 20:20 07.09.2019
2325 Clouds 23 1015 70 0 5.87 126.558 19:56 07.09.2019
2326 Clouds 23 1015 70 0 5.87 126.558 19:37 07.09.2019
2327 Clouds 23 1015 70 0 5.87 126.558 19:19 07.09.2019
2328 Clouds 23 1015 70 0 5.87 126.558 18:58 07.09.2019
2329 Clouds 23 1015 70 0 5.87 126.558 18:58 07.09.2019
2330 Clouds 23 1015 70 0 5.87 126.558 18:38 07.09.2019
2331 Clouds 24 1015 72 0 7.27 127.212 18:20 07.09.2019
2332 Clouds 24 1015 72 0 7.27 127.212 17:56 07.09.2019
2333 Clouds 24 1015 72 0 7.27 127.212 17:38 07.09.2019
2334 Clouds 24 1015 78 10000 5.7 160 17:18 07.09.2019
2335 Clouds 24 1015 78 10000 5.7 160 16:43 07.09.2019
2336 Clouds 24 1015 78 10000 5.7 160 16:43 07.09.2019
2337 Clouds 24 1015 78 10000 5.7 160 16:43 07.09.2019
2338 Clouds 24 1015 78 10000 5.7 160 16:23 07.09.2019
2339 Clouds 24 1015 72 0 7.27 127.212 15:58 07.09.2019
2340 Clouds 24 1015 72 0 7.27 127.212 15:39 07.09.2019
2341 Clouds 24 1015 78 10000 5.7 160 15:21 07.09.2019
2342 Clouds 24 1015 78 10000 5.7 160 14:55 07.09.2019
2343 Clouds 24 1015 78 10000 5.7 160 14:55 07.09.2019
2344 Clouds 24 1015 78 10000 5.7 160 14:55 07.09.2019
2345 Clouds 24 1017 73 0 7.86 136.309 14:36 07.09.2019
2346 Clouds 24 1017 73 0 7.86 136.309 14:18 07.09.2019
2347 Clouds 24 1017 73 0 7.86 136.309 13:44 07.09.2019
2348 Clouds 24 1015 78 10000 5.7 160 13:25 07.09.2019
2349 Clouds 24 1015 78 10000 5.7 160 12:54 07.09.2019
2350 Clouds 24 1017 72 0 8.13 135.743 12:36 07.09.2019
2351 Clouds 24 1017 72 0 8.13 135.743 12:36 07.09.2019
2352 Haze 24 1014 78 10000 5.7 160 12:18 07.09.2019
2353 Haze 24 1014 78 10000 5.7 160 11:40 07.09.2019
2354 Smoke 25 1014 69 10000 8.7 160 11:21 07.09.2019
2355 Smoke 25 1014 69 10000 8.7 160 10:41 07.09.2019
2356 Smoke 25 1014 69 10000 8.7 160 10:41 07.09.2019
2357 Smoke 25 1014 69 10000 8.7 160 10:22 07.09.2019
2358 Smoke 27 1013 57 10000 10.3 160 09:58 07.09.2019
2359 Smoke 27 1013 57 10000 10.3 160 09:39 07.09.2019
2360 Smoke 27 1013 57 10000 10.3 160 09:39 07.09.2019
2361 Smoke 27 1013 57 10000 10.3 160 09:20 07.09.2019
2362 Smoke 27 1013 57 10000 10.3 160 09:20 07.09.2019
2363 Smoke 27 1013 57 10000 10.3 160 08:45 07.09.2019
2364 Smoke 27 1013 57 10000 10.3 160 08:26 07.09.2019
2365 Smoke 29 1013 51 10000 7.7 150 07:48 07.09.2019
2366 Smoke 29 1013 51 10000 7.7 150 07:28 07.09.2019
2367 Smoke 29 1013 54 10000 8.2 160 06:55 07.09.2019
2368 Smoke 29 1013 54 10000 8.2 160 06:35 07.09.2019
2369 Smoke 29 1013 54 10000 7.7 190 05:32 07.09.2019
2370 Smoke 30 1014 55 10000 7.7 180 04:25 07.09.2019
2371 Smoke 28 1016 61 10000 5.1 200 02:57 07.09.2019
2372 Smoke 28 1016 61 10000 5.1 200 02:21 07.09.2019
2373 Smoke 26 1016 69 10000 2.6 0 01:26 07.09.2019
2374 Smoke 24 1016 83 10000 2.6 0 00:44 07.09.2019
2375 Smoke 24 1016 83 10000 2.6 0 00:21 07.09.2019
2376 Haze 22 1015 94 10000 1.5 0 23:43 06.09.2019
2377 Haze 22 1015 94 10000 1.5 0 23:23 06.09.2019
2378 Haze 22 1015 94 10000 1.5 0 23:23 06.09.2019
2379 Clouds 22 1014 88 10000 1.5 0 22:59 06.09.2019
2380 Clouds 22 1014 88 10000 1.5 0 22:40 06.09.2019
2381 Clouds 22 1014 88 10000 1.5 0 22:19 06.09.2019
2382 Clouds 23 1016 75 0 7.21 123.282 21:59 06.09.2019
2383 Clouds 23 1016 75 0 7.21 123.282 21:40 06.09.2019
2384 Clouds 23 1014 76 0 7.55 119.484 21:22 06.09.2019
2385 Clouds 23 1014 76 0 7.55 119.484 20:59 06.09.2019
2386 Clouds 23 1014 77 0 8.3 120.869 20:40 06.09.2019
2387 Clouds 23 1014 77 0 8.3 120.869 20:21 06.09.2019
2388 Clouds 23 1014 77 0 8.3 120.869 19:57 06.09.2019
2389 Clouds 23 1014 77 0 8.3 120.869 19:39 06.09.2019
2390 Clouds 23 1014 77 0 8.3 120.869 19:20 06.09.2019
2391 Clouds 23 1014 77 0 8.3 120.869 18:47 06.09.2019
2392 Clouds 23 1014 77 0 8.3 120.869 18:27 06.09.2019
2393 Clouds 23 1015 77 0 9.36 129.101 17:59 06.09.2019
2394 Clouds 23 1015 77 0 9.36 129.101 17:38 06.09.2019
2395 Clouds 24 1014 78 10000 3.1 130 17:19 06.09.2019
2396 Clouds 24 1014 78 10000 3.1 130 16:41 06.09.2019
2397 Clouds 24 1014 78 10000 3.1 130 16:19 06.09.2019
2398 Clouds 24 1014 78 10000 2.1 140 15:44 06.09.2019
2399 Clouds 24 1014 78 10000 2.1 140 15:26 06.09.2019
2400 Clouds 24 1016 75 0 9.38 132.381 14:57 06.09.2019
2401 Clouds 24 1016 75 0 9.38 132.381 14:39 06.09.2019
2402 Clouds 24 1016 75 0 9.38 132.381 14:18 06.09.2019
2403 Clouds 24 1016 75 0 9.38 132.381 13:42 06.09.2019
2404 Clouds 24 1015 75 0 9.57 131.62 13:20 06.09.2019
2405 Clouds 24 1015 75 0 9.57 131.62 12:38 06.09.2019
2406 Haze 25 1013 69 10000 12.9 160 12:20 06.09.2019
2407 Haze 25 1013 69 10000 12.9 160 11:55 06.09.2019
2408 Clouds 24 1014 75 0 10.26 140.478 11:36 06.09.2019
2409 Clouds 25 1012 69 10000 12.9 160 11:18 06.09.2019
2410 Clouds 25 1012 69 10000 12.9 160 10:40 06.09.2019
2411 Clouds 25 1012 69 10000 12.9 160 10:22 06.09.2019
2412 Clouds 26 1012 69 10000 12.9 150 09:57 06.09.2019
2413 Clouds 24 1014 75 0 10.12 140.443 09:36 06.09.2019
2414 Clouds 27 1012 65 10000 12.9 140 09:18 06.09.2019
2415 Clouds 27 1012 65 10000 12.9 140 08:43 06.09.2019
2416 Clouds 27 1012 65 10000 12.9 140 08:25 06.09.2019
2417 Clouds 28 1011 61 10000 7.7 150 07:49 06.09.2019
2418 Clouds 28 1011 61 10000 7.7 150 07:27 06.09.2019
2419 Clear 24 1012 74 0 9.74 147.181 06:58 06.09.2019
2420 Clear 24 1012 74 0 9.74 147.181 06:28 06.09.2019
2421 Clear 24 1012 73 0 8.81 155.626 05:43 06.09.2019
2422 Clear 24 1012 73 0 8.81 155.626 04:52 06.09.2019
2423 Haze 29 1013 54 10000 5.1 180 04:19 06.09.2019
2424 Haze 28 1014 54 10000 5.1 140 02:23 06.09.2019
2425 Clouds 24 1014 69 10000 2.6 160 00:45 06.09.2019
2426 Clouds 22 1014 78 10000 7.28 119.136 23:56 05.09.2019
2427 Clouds 22 1014 78 10000 7.28 119.136 23:38 05.09.2019
2428 Clouds 22 1014 78 10000 7.28 119.136 23:19 05.09.2019
2429 Clouds 22 1013 83 10000 7.28 119.136 22:43 05.09.2019
2430 Clouds 22 1013 83 10000 7.28 119.136 22:24 05.09.2019
2431 Clouds 23 1015 73 0 7.28 119.136 21:56 05.09.2019
2432 Clouds 23 1015 73 0 7.28 119.136 21:38 05.09.2019
2433 Clear 23 1013 73 0 8.05 118.808 21:19 05.09.2019
2434 Clear 23 1013 73 0 8.05 118.808 20:57 05.09.2019
2435 Clear 23 1013 75 0 8.66 120.214 20:37 05.09.2019
2436 Clear 23 1013 75 0 8.66 120.214 20:19 05.09.2019
2437 Clear 23 1013 75 0 8.66 120.214 20:19 05.09.2019
2438 Clear 23 1013 75 0 8.66 120.214 19:55 05.09.2019
2439 Clear 23 1013 75 0 8.66 120.214 19:36 05.09.2019
2440 Clear 23 1013 75 0 8.66 120.214 19:18 05.09.2019
2441 Clear 23 1013 75 0 8.66 120.214 18:40 05.09.2019
2442 Clear 23 1013 77 0 9.81 125.386 18:20 05.09.2019
2443 Clear 23 1013 77 0 9.81 125.386 17:56 05.09.2019
2444 Clear 23 1013 77 0 9.81 125.386 17:37 05.09.2019
2445 Clear 23 1013 77 0 9.81 125.386 17:19 05.09.2019
2446 Clear 23 1013 77 0 9.81 125.386 16:41 05.09.2019
2447 Clear 23 1013 77 0 9.81 125.386 16:20 05.09.2019
2448 Clear 23 1013 77 0 9.81 125.386 15:58 05.09.2019
2449 Clear 23 1013 77 0 9.81 125.386 15:39 05.09.2019
2450 Clouds 24 1015 75 0 10.17 127.468 15:19 05.09.2019
2451 Clouds 24 1015 75 0 10.17 127.468 15:19 05.09.2019
2452 Clouds 24 1015 75 0 10.17 127.468 14:43 05.09.2019
2453 Clouds 24 1015 75 0 10.17 127.468 14:22 05.09.2019
2454 Clouds 24 1015 75 0 10.17 127.468 13:44 05.09.2019
2455 Clouds 24 1015 75 0 10.69 127.526 13:24 05.09.2019
2456 Clouds 24 1015 75 0 10.69 127.526 12:59 05.09.2019
2457 Clouds 24 1015 75 0 10.69 127.526 12:41 05.09.2019
2458 Clouds 24 1014 73 0 11.79 139.715 12:22 05.09.2019
2459 Clouds 24 1014 73 0 11.79 139.715 11:44 05.09.2019
2460 Haze 25 1012 69 10000 8.2 150 11:20 05.09.2019
2461 Haze 25 1012 69 10000 8.2 150 10:57 05.09.2019
2462 Clouds 24 1014 73 0 11.79 139.715 10:36 05.09.2019
2463 Clouds 25 1012 69 10000 8.7 160 10:18 05.09.2019
2464 Clouds 25 1012 69 10000 8.7 160 09:40 05.09.2019
2465 Clouds 27 1011 61 10000 8.7 160 09:20 05.09.2019
2466 Clouds 27 1011 61 10000 8.7 160 08:56 05.09.2019
2467 -273 0 0 0 0 0 08:55 05.09.2019
2468 Clouds 27 1011 61 10000 8.7 160 08:37 05.09.2019
2469 Clouds 27 1011 61 10000 8.7 160 08:19 05.09.2019
2470 Clouds 24 1012 74 0 11.82 147.915 07:42 05.09.2019
2471 Haze 28 1011 58 10000 9.3 170 07:23 05.09.2019
2472 Haze 28 1011 58 10000 9.3 170 06:44 05.09.2019
2473 Haze 28 1011 58 10000 9.3 170 06:22 05.09.2019
2474 Haze 28 1012 58 10000 7.7 160 05:42 05.09.2019
2475 Haze 28 1013 58 10000 7.7 160 05:23 05.09.2019
2476 Haze 28 1013 58 10000 7.7 150 04:30 05.09.2019
2477 Haze 28 1013 58 10000 7.7 150 03:46 05.09.2019
2478 Haze 28 1014 54 10000 7.7 150 02:56 05.09.2019
2479 Haze 28 1014 54 10000 7.7 150 02:28 05.09.2019
2480 Haze 28 1014 54 10000 7.7 150 02:28 05.09.2019
2481 Haze 26 1014 57 10000 5.1 160 01:48 05.09.2019
2482 Haze 26 1014 57 10000 5.1 160 00:51 05.09.2019
2483 Haze 24 1013 73 10000 1.5 0 00:23 05.09.2019
2484 Haze 24 1013 73 10000 1.5 0 23:59 04.09.2019
2485 Haze 24 1013 73 10000 1.5 0 23:39 04.09.2019
2486 Haze 24 1013 73 10000 1.5 0 23:19 04.09.2019
2487 Clouds 21 1012 83 10000 1.5 0 22:47 04.09.2019
2488 Clouds 21 1012 83 10000 1.5 0 22:19 04.09.2019
2489 Clouds 21 1012 83 10000 1.5 0 21:41 04.09.2019
2490 Clouds 23 1013 73 0 10.19 123.812 21:21 04.09.2019
2491 Clouds 23 1013 73 0 10.19 123.812 20:59 04.09.2019
2492 Clouds 23 1013 73 0 10.19 123.812 20:40 04.09.2019
2493 Clouds 23 1013 73 0 10.19 123.812 20:20 04.09.2019
2494 Clouds 23 1013 73 0 10.19 123.812 19:59 04.09.2019
2495 Clouds 23 1013 73 0 10.19 123.812 19:39 04.09.2019
2496 Clouds 23 1013 73 0 10.19 123.812 19:20 04.09.2019
2497 -273 0 0 0 0 0 18:41 04.09.2019
2498 Clouds 23 1014 74 0 10.91 128.736 18:23 04.09.2019
2499 Clouds 23 1014 74 0 10.91 128.736 17:56 04.09.2019
2500 Clouds 23 1014 74 0 10.91 128.736 17:37 04.09.2019
2501 Clouds 23 1014 74 0 10.91 128.736 17:19 04.09.2019
2502 Clouds 23 1014 74 0 10.91 128.736 16:48 04.09.2019
2503 Clouds 23 1014 74 0 10.91 128.736 16:28 04.09.2019
2504 Clouds 23 1014 74 0 10.91 128.736 15:59 04.09.2019
2505 Clouds 23 1014 74 0 10.91 128.736 15:39 04.09.2019
2506 Clouds 23 1014 74 0 10.91 128.736 15:39 04.09.2019
2507 Clear 24 1015 75 0 11 130.231 15:21 04.09.2019
2508 Clear 24 1015 75 0 11 130.231 14:57 04.09.2019
2509 Clear 24 1015 75 0 11 130.231 14:37 04.09.2019
2510 Clear 24 1015 75 0 11 130.231 14:19 04.09.2019
2511 Clear 24 1015 75 0 11 130.231 13:40 04.09.2019
2512 Clear 24 1015 76 0 11.53 131.462 13:22 04.09.2019
2513 Clear 24 1015 76 0 11.53 131.462 12:59 04.09.2019
2514 Clear 24 1015 76 0 11.53 131.462 12:39 04.09.2019
2515 Clear 24 1013 77 0 12.31 140.881 12:21 04.09.2019
2516 Clear 24 1013 77 0 12.31 140.881 11:55 04.09.2019
2517 Clear 24 1013 77 0 12.31 140.881 11:55 04.09.2019
2518 Clear 24 1013 77 0 12.31 140.881 11:36 04.09.2019
2519 Haze 25 1012 73 10000 6.2 140 11:18 04.09.2019
2520 Haze 25 1012 73 10000 6.2 140 10:43 04.09.2019
2521 Clear 24 1013 77 0 12.31 140.881 10:25 04.09.2019
2522 Clear 24 1013 77 0 12.1 139.971 09:47 04.09.2019
2523 Clouds 27 1011 65 10000 7.7 150 09:27 04.09.2019
2524 Clouds 27 1011 65 10000 7.7 150 08:59 04.09.2019
2525 Clouds 27 1011 65 10000 7.7 150 08:40 04.09.2019
2526 Clouds 27 1011 65 10000 7.7 150 08:22 04.09.2019
2527 Clouds 27 1011 65 10000 7.7 150 07:49 04.09.2019
2528 Clouds 27 1011 65 10000 7.7 150 07:29 04.09.2019
2529 Clouds 27 1011 65 10000 7.7 170 06:40 04.09.2019
2530 Haze 29 1012 62 10000 8.7 170 05:51 04.09.2019
2531 Clouds 27 1013 69 10000 7.7 150 04:52 04.09.2019
2532 Clouds 28 1014 65 10000 7.7 150 03:52 04.09.2019
2533 Clouds 26 1015 74 10000 10.3 130 01:39 04.09.2019
2534 Clouds 24 1014 83 10000 7.7 140 00:54 04.09.2019
2535 Clouds 24 1014 83 10000 7.7 140 00:32 04.09.2019
2536 Clouds 23 1014 83 10000 7.7 140 23:54 03.09.2019
2537 Clouds 23 1014 83 10000 7.7 140 23:28 03.09.2019
2538 Clouds 23 1013 83 10000 7.7 140 22:59 03.09.2019
2539 Clouds 23 1013 83 10000 7.7 140 22:40 03.09.2019
2540 Clouds 23 1013 83 10000 7.7 140 22:21 03.09.2019
2541 Clouds 24 1015 80 0 9.3 127.315 21:56 03.09.2019
2542 Clouds 24 1015 80 0 9.3 127.315 21:56 03.09.2019
2543 Clouds 24 1015 80 0 9.3 127.315 21:56 03.09.2019
2544 Clouds 24 1015 80 0 9.3 127.315 21:36 03.09.2019
2545 Clouds 23 1012 88 10000 8.2 150 21:18 03.09.2019
2546 Clouds 23 1012 88 10000 8.2 150 20:42 03.09.2019
2547 Clouds 24 1013 79 0 9.23 128.345 20:24 03.09.2019
2548 Clouds 24 1013 79 0 9.23 128.345 19:56 03.09.2019
2549 Clouds 24 1013 79 0 9.23 128.345 19:38 03.09.2019
2550 Clouds 24 1013 79 0 9.23 128.345 19:18 03.09.2019
2551 Clouds 24 1013 79 0 9.23 128.345 18:45 03.09.2019
2552 Clouds 24 1013 79 0 9.23 128.345 18:27 03.09.2019
2553 Clouds 24 1013 79 0 9.83 129.735 17:59 03.09.2019
2554 Clouds 24 1013 79 0 9.83 129.735 17:40 03.09.2019
2555 Clouds 23 1013 83 10000 5.7 150 17:19 03.09.2019
2556 Clouds 23 1013 83 10000 5.7 150 16:56 03.09.2019
2557 Clouds 23 1013 83 10000 5.7 150 16:37 03.09.2019
2558 Clouds 23 1013 83 10000 5.7 150 16:19 03.09.2019
2559 Clouds 23 1013 88 10000 5.1 150 15:40 03.09.2019
2560 Clouds 24 1014 78 0 9.72 130.938 15:21 03.09.2019
2561 Clouds 24 1014 78 0 9.72 130.938 14:58 03.09.2019
2562 Clouds 24 1014 78 0 9.72 130.938 14:40 03.09.2019
2563 Clouds 24 1013 78 10000 5.7 150 14:20 03.09.2019
2564 Clouds 24 1013 78 10000 5.7 150 13:56 03.09.2019
2565 Clouds 24 1013 78 10000 5.7 150 13:56 03.09.2019
2566 Clouds 24 1013 78 10000 5.7 150 13:37 03.09.2019
2567 Clouds 24 1013 78 10000 5.7 150 13:19 03.09.2019
2568 Clouds 24 1015 78 0 9.52 130.1 12:48 03.09.2019
2569 Clouds 24 1015 78 0 9.52 130.1 12:30 03.09.2019
2570 Clouds 24 1013 77 0 11.31 139.691 11:58 03.09.2019
2571 Clouds 24 1013 77 0 11.31 139.691 11:38 03.09.2019
2572 Clouds 24 1013 77 0 11.31 139.691 11:38 03.09.2019
2573 Clouds 25 1011 78 10000 9.3 160 11:19 03.09.2019
2574 Clouds 25 1011 78 10000 9.3 160 10:54 03.09.2019
2575 Clouds 24 1013 77 0 11.31 139.691 10:36 03.09.2019
2576 Clouds 24 1013 77 0 11.31 139.691 10:18 03.09.2019
2577 Clouds 24 1013 77 0 11.31 139.691 10:18 03.09.2019
2578 Clouds 24 1013 77 0 11.2 141.398 09:41 03.09.2019
2579 Clouds 24 1013 77 0 11.2 141.398 09:41 03.09.2019
2580 Clouds 27 1010 65 10000 7.7 160 09:23 03.09.2019
2581 Clouds 27 1010 65 10000 7.7 160 08:39 03.09.2019
2582 Clouds 27 1010 65 10000 7.7 160 08:21 03.09.2019
2583 Clouds 28 1010 65 10000 7.7 160 07:54 03.09.2019
2584 Clouds 28 1010 65 10000 7.7 160 07:36 03.09.2019
2585 Clouds 28 1010 65 10000 7.7 160 07:18 03.09.2019
2586 Clouds 28 1011 65 10000 7.7 160 06:41 03.09.2019
2587 Haze 27 1014 65 10000 7.7 150 03:45 03.09.2019
2588 Clouds 27 1014 65 10000 7.7 150 02:59 03.09.2019
2589 Clouds 24 1015 77 0 10.1 136.982 02:38 03.09.2019
2590 Clouds 26 1014 69 10000 7.7 140 02:20 03.09.2019
2591 Clouds 26 1014 69 10000 7.7 140 01:43 03.09.2019
2592 Clouds 26 1014 69 10000 7.7 140 01:25 03.09.2019
2593 Smoke 24 1014 78 10000 5.1 150 00:31 03.09.2019
2594 Smoke 23 1013 83 10000 10.3 150 23:57 02.09.2019
2595 Smoke 23 1013 83 10000 10.3 150 23:57 02.09.2019
2596 Smoke 23 1013 83 10000 10.3 150 23:37 02.09.2019
2597 Smoke 23 1013 83 10000 10.3 150 23:18 02.09.2019
2598 Clouds 23 1013 83 10000 12.9 150 22:55 02.09.2019
2599 Clouds 23 1013 83 10000 12.9 150 22:55 02.09.2019
2600 -273 0 0 0 0 0 22:55 02.09.2019
2601 Clouds 23 1013 83 10000 12.9 150 22:36 02.09.2019
2602 Clouds 23 1013 83 10000 12.9 150 22:18 02.09.2019
2603 Clouds 23 1012 83 10000 7.2 150 21:54 02.09.2019
2604 Clouds 23 1012 83 10000 7.2 150 21:36 02.09.2019
2605 Clouds 23 1012 83 10000 7.2 150 21:18 02.09.2019
2606 Clouds 23 1012 83 10000 5.1 150 20:41 02.09.2019
2607 Clouds 23 1012 83 10000 5.1 150 20:22 02.09.2019
2608 Clouds 23 1012 83 10000 5.1 150 19:57 02.09.2019
2609 Clouds 24 1013 78 0 10.11 128.91 19:39 02.09.2019
2610 Clouds 24 1013 78 0 10.11 128.91 19:39 02.09.2019
2611 Clouds 23 1012 83 10000 5.1 150 19:21 02.09.2019
2612 Clouds 23 1012 83 10000 5.1 150 18:41 02.09.2019
2613 Clouds 23 1012 83 10000 5.1 150 18:23 02.09.2019
2614 Clouds 24 1013 79 0 10.2 130.309 17:59 02.09.2019
2615 Clouds 24 1013 79 0 10.2 130.309 17:40 02.09.2019
2616 Clouds 23 1013 83 10000 6.7 150 17:21 02.09.2019
2617 Clouds 23 1013 83 10000 6.7 150 17:21 02.09.2019
2618 Clouds 23 1013 83 10000 6.7 150 16:58 02.09.2019
2619 Clouds 23 1013 83 10000 6.7 150 16:38 02.09.2019
2620 Clouds 23 1013 83 10000 6.7 150 16:20 02.09.2019
2621 Clouds 23 1013 83 10000 8.2 150 15:45 02.09.2019
2622 Clouds 24 1013 83 10000 9.3 150 15:22 02.09.2019
2623 Clouds 24 1013 83 10000 9.3 150 14:57 02.09.2019
2624 Clouds 24 1013 83 10000 9.3 150 14:57 02.09.2019
2625 Clouds 24 1013 83 10000 9.3 150 14:37 02.09.2019
2626 Clouds 24 1013 83 10000 9.3 150 14:19 02.09.2019
2627 Clear 24 1015 78 0 10.35 132.983 13:54 02.09.2019
2628 Clear 24 1015 78 0 10.35 132.983 13:36 02.09.2019
2629 Clouds 24 1013 78 10000 7.7 160 13:18 02.09.2019
2630 Clouds 24 1013 78 10000 7.7 160 12:41 02.09.2019
2631 Clear 24 1014 77 0 11.86 143.226 12:23 02.09.2019
2632 Clear 24 1014 77 0 11.86 143.226 11:58 02.09.2019
2633 Clear 24 1014 77 0 11.86 143.226 11:38 02.09.2019
2634 Clear 24 1014 77 0 11.86 143.226 11:19 02.09.2019
2635 Clear 24 1014 77 0 11.86 143.226 10:42 02.09.2019
2636 Clouds 26 1011 74 10000 7.7 160 10:22 02.09.2019
2637 Clouds 26 1011 74 10000 7.7 160 09:59 02.09.2019
2638 Clouds 26 1011 74 10000 7.7 160 09:39 02.09.2019
2639 Clouds 26 1011 74 10000 7.7 160 09:20 02.09.2019
2640 Clouds 27 1011 74 10000 7.7 150 08:43 02.09.2019
2641 Clouds 27 1011 74 10000 7.7 150 08:22 02.09.2019
2642 Haze 27 1011 74 10000 7.7 150 07:57 02.09.2019
2643 Haze 27 1011 74 10000 7.7 150 07:37 02.09.2019
2644 Haze 27 1011 74 10000 7.7 150 07:19 02.09.2019
2645 Haze 28 1011 69 10000 7.7 160 06:42 02.09.2019
2646 Haze 28 1012 69 10000 7.7 160 05:54 02.09.2019
2647 Clouds 29 1013 66 10000 7.7 160 05:25 02.09.2019
2648 Clouds 29 1013 66 10000 7.7 160 04:48 02.09.2019
2649 Clouds 27 1015 69 10000 6.7 150 02:20 02.09.2019
2650 Haze 26 1015 74 10000 6.7 140 01:37 02.09.2019
2651 Haze 26 1015 74 10000 6.7 140 01:37 02.09.2019
2652 Haze 24 1015 83 10000 3.6 150 00:39 02.09.2019
2653 Haze 24 1015 83 10000 3.6 150 00:19 02.09.2019
2654 Smoke 21 1014 94 10000 1.5 0 23:39 01.09.2019
2655 Smoke 21 1014 94 10000 1.5 0 23:19 01.09.2019
2656 Clouds 19 1014 93 10000 1.5 0 22:56 01.09.2019
2657 Clouds 19 1014 93 10000 1.5 0 22:38 01.09.2019
2658 Clouds 19 1014 93 10000 1.5 0 22:38 01.09.2019
2659 Clouds 19 1014 93 10000 1.5 0 22:18 01.09.2019
2660 Clouds 20 1013 94 10000 2.6 150 21:42 01.09.2019
2661 Clouds 20 1013 94 10000 5.1 160 21:23 01.09.2019
2662 Clouds 20 1013 94 10000 5.1 160 21:23 01.09.2019
2663 Clouds 20 1013 94 10000 5.1 160 20:58 01.09.2019
2664 Clouds 20 1013 94 10000 5.1 160 20:39 01.09.2019
2665 Clouds 20 1013 94 10000 5.1 160 20:19 01.09.2019
2666 Clouds 21 1013 88 10000 5.1 130 19:59 01.09.2019
2667 Clouds 21 1013 88 10000 5.1 130 19:59 01.09.2019
2668 Clouds 21 1013 88 10000 5.1 130 19:40 01.09.2019
2669 Clouds 21 1013 88 10000 5.1 130 19:21 01.09.2019
2670 Clouds 21 1013 88 10000 5.1 130 18:45 01.09.2019
2671 Clouds 21 1013 88 10000 5.1 130 18:27 01.09.2019
2672 Clouds 22 1014 88 10000 5.1 120 17:59 01.09.2019
2673 Clouds 22 1014 88 10000 5.1 120 17:39 01.09.2019
2674 Clouds 22 1014 88 10000 5.1 120 17:39 01.09.2019
2675 Clouds 22 1014 88 10000 5.1 120 17:20 01.09.2019
2676 Clouds 23 1014 83 10000 7.7 140 16:41 01.09.2019
2677 Clouds 23 1014 83 10000 7.7 140 16:21 01.09.2019
2678 Clouds 24 1014 76 0 8.7 125.101 15:58 01.09.2019
2679 Clouds 24 1014 76 0 8.7 125.101 15:39 01.09.2019
2680 Clouds 24 1016 76 0 10.38 129.331 15:20 01.09.2019
2681 Clouds 24 1016 76 0 10.38 129.331 14:42 01.09.2019
2682 Clouds 24 1016 76 0 10.38 129.331 14:22 01.09.2019
2683 Clouds 24 1016 76 0 10.38 129.331 13:59 01.09.2019
2684 Clouds 24 1016 76 0 10.38 129.331 13:40 01.09.2019
2685 Clouds 24 1016 76 0 10.63 130.722 13:21 01.09.2019
2686 Clouds 24 1016 76 0 10.63 130.722 12:43 01.09.2019
2687 Clouds 24 1016 76 0 10.63 130.722 12:25 01.09.2019
2688 Clouds 24 1016 76 0 10.63 130.722 12:25 01.09.2019
2689 Clear 25 1014 75 0 11.45 142.161 11:55 01.09.2019
2690 Clear 25 1014 75 0 11.45 142.161 11:37 01.09.2019
2691 Smoke 25 1012 78 10000 7.7 150 11:18 01.09.2019
2692 Smoke 25 1012 78 10000 7.7 150 10:44 01.09.2019
2693 Smoke 25 1012 78 10000 7.7 150 10:23 01.09.2019
2694 Smoke 27 1011 65 10000 7.7 160 09:47 01.09.2019
2695 Smoke 27 1011 65 10000 7.7 160 09:26 01.09.2019
2696 Smoke 28 1011 61 10000 7.7 160 08:46 01.09.2019
2697 Smoke 28 1011 61 10000 7.7 160 08:25 01.09.2019
2698 Smoke 28 1011 61 10000 7.7 160 07:59 01.09.2019
2699 Smoke 28 1011 61 10000 7.7 160 07:41 01.09.2019
2700 Smoke 28 1011 61 10000 7.7 160 07:18 01.09.2019
2701 Smoke 29 1011 62 10000 7.7 160 06:37 01.09.2019
2702 Smoke 29 1012 58 10000 10.8 170 05:57 01.09.2019
2703 Clouds 25 1012 73 0 8.87 158.455 04:34 01.09.2019
2704 Clouds 25 1012 73 0 8.87 158.455 03:43 01.09.2019
2705 Clouds 28 1014 61 10000 10.3 140 02:59 01.09.2019
2706 Clouds 28 1014 61 10000 10.3 140 02:28 01.09.2019
2707 Clouds 26 1014 69 10000 7.2 160 01:51 01.09.2019
2708 Clouds 26 1014 69 10000 7.2 160 01:24 01.09.2019
2709 Clouds 25 1014 78 10000 3.6 140 00:46 01.09.2019
2710 Clouds 23 1013 83 10000 3.6 130 00:23 01.09.2019
2711 Clouds 23 1013 83 10000 3.6 130 23:55 31.08.2019
2712 Clouds 23 1013 83 10000 3.6 130 23:36 31.08.2019
2713 Clouds 23 1013 83 10000 3.6 130 23:18 31.08.2019
2714 Clouds 22 1012 88 10000 4.6 140 22:44 31.08.2019
2715 Clouds 22 1012 88 10000 4.6 140 22:25 31.08.2019
2716 Clouds 24 1014 77 0 9.25 130.305 21:57 31.08.2019
2717 Clouds 23 1014 77 0 9.12 128.637 21:38 31.08.2019
2718 Clouds 23 1012 78 0 9.29 129.216 21:19 31.08.2019
2719 Clouds 23 1012 78 0 9.29 129.216 20:47 31.08.2019
2720 Clouds 23 1012 78 0 9.29 129.216 20:29 31.08.2019
2721 Clouds 23 1012 78 0 9.29 129.216 19:56 31.08.2019
2722 Clouds 23 1012 78 0 9.29 129.216 19:38 31.08.2019
2723 Clouds 23 1012 78 0 9.29 129.216 19:20 31.08.2019
2724 Clouds 23 1012 78 0 9.29 129.216 18:40 31.08.2019
2725 Clouds 24 1013 79 0 10.22 133.541 18:20 31.08.2019
2726 Clouds 24 1013 79 0 10.22 133.541 17:56 31.08.2019
2727 Clouds 24 1013 79 0 10.22 133.541 17:37 31.08.2019
2728 Clouds 24 1013 79 0 10.22 133.541 17:18 31.08.2019
2729 Clouds 24 1013 79 0 10.22 133.541 16:57 31.08.2019
2730 Clouds 24 1013 79 0 10.22 133.541 16:39 31.08.2019
2731 Clouds 24 1013 79 0 10.22 133.541 16:20 31.08.2019
2732 Clouds 24 1013 79 0 10.22 133.541 15:42 31.08.2019
2733 Clouds 24 1014 79 0 10.36 131.792 15:19 31.08.2019
2734 Clouds 24 1014 79 0 10.36 131.792 14:57 31.08.2019
2735 Clouds 24 1014 79 0 10.36 131.792 14:39 31.08.2019
2736 Clouds 24 1014 79 0 10.36 131.792 14:19 31.08.2019
2737 Clouds 24 1014 79 0 10.36 131.792 13:41 31.08.2019
2738 Clouds 25 1012 83 10000 7.7 160 13:22 31.08.2019
2739 Clouds 25 1012 83 10000 7.7 160 12:58 31.08.2019
2740 Clouds 25 1012 83 10000 7.7 160 12:38 31.08.2019
2741 Clouds 25 1012 83 10000 7.7 160 12:19 31.08.2019
2742 Clouds 25 1012 83 10000 7.7 160 12:19 31.08.2019
2743 Clouds 24 1012 80 0 11.69 144.658 11:46 31.08.2019
2744 Clouds 24 1012 80 0 11.69 144.658 11:46 31.08.2019
2745 Smoke 25 1010 83 10000 7.7 160 11:28 31.08.2019
2746 Smoke 25 1010 83 10000 7.7 160 10:58 31.08.2019
2747 Smoke 25 1010 83 10000 7.7 160 10:40 31.08.2019
2748 Smoke 25 1010 83 10000 7.7 160 10:19 31.08.2019
2749 Smoke 25 1010 83 10000 10.3 160 09:54 31.08.2019
2750 Clouds 24 1012 81 0 11.68 145.161 09:36 31.08.2019
2751 Smoke 27 1009 74 10000 7.7 150 09:18 31.08.2019
2752 Smoke 27 1009 74 10000 7.7 150 08:41 31.08.2019
2753 Smoke 27 1009 74 10000 7.7 150 08:41 31.08.2019
2754 Smoke 27 1009 74 10000 7.7 150 08:22 31.08.2019
2755 Smoke 28 1009 69 10000 7.7 150 07:40 31.08.2019
2756 Smoke 28 1009 69 10000 7.7 150 07:20 31.08.2019
2757 Clouds 28 1010 69 10000 5.1 160 06:28 31.08.2019
2758 Clouds 29 1011 66 10000 5.1 160 05:55 31.08.2019
2759 Clouds 29 1011 66 10000 5.1 160 05:30 31.08.2019
2760 Haze 28 1012 65 10000 7.7 150 04:30 31.08.2019
2761 Haze 28 1012 65 10000 7.7 150 03:44 31.08.2019
2762 Clouds 27 1013 69 10000 8.2 140 02:29 31.08.2019
2763 Clouds 26 1014 74 10000 8.2 150 01:51 31.08.2019
2764 Clouds 26 1014 74 10000 8.2 150 01:31 31.08.2019
2765 Haze 25 1013 78 10000 6.7 150 00:48 31.08.2019
2766 Haze 25 1013 78 10000 6.7 150 00:48 31.08.2019
2767 Clouds 23 1013 88 10000 5.1 150 00:28 31.08.2019
2768 Clouds 23 1013 88 10000 5.1 150 23:51 30.08.2019
2769 Clouds 23 1013 88 10000 5.1 150 23:20 30.08.2019
2770 Clouds 23 1012 83 10000 1.5 0 22:59 30.08.2019
2771 Clouds 23 1012 83 10000 1.5 0 22:39 30.08.2019
2772 Clouds 23 1012 83 10000 1.5 0 22:21 30.08.2019
2773 Clouds 22 1011 94 10000 1.5 0 21:57 30.08.2019
2774 Clouds 24 1013 81 0 9.23 129.806 21:37 30.08.2019
2775 Clouds 24 1013 81 0 9.23 129.806 21:37 30.08.2019
2776 Clear 24 1012 82 0 9.16 136.412 21:18 30.08.2019
2777 Clear 24 1012 82 0 9.16 136.412 20:57 30.08.2019
2778 Clear 24 1012 82 0 9.16 136.412 20:38 30.08.2019
2779 Clear 24 1012 82 0 9.16 136.412 20:19 30.08.2019
2780 Clear 24 1012 82 0 9.16 136.412 20:19 30.08.2019
2781 Clear 24 1012 82 0 9.16 136.412 19:55 30.08.2019
2782 Clear 24 1012 82 0 9.16 136.412 19:36 30.08.2019
2783 Clear 24 1012 82 0 9.16 136.412 19:18 30.08.2019
2784 Clear 24 1012 82 0 9.16 136.412 18:44 30.08.2019
2785 Clear 24 1012 82 0 9.11 138.023 18:24 30.08.2019
2786 Clear 24 1012 82 0 9.11 138.023 17:56 30.08.2019
2787 Clear 24 1012 82 0 9.11 138.023 17:56 30.08.2019
2788 Clear 24 1012 82 0 9.11 138.023 17:38 30.08.2019
2789 Clear 24 1012 82 0 9.11 138.023 17:19 30.08.2019
2790 Clear 24 1012 82 0 9.11 138.023 16:48 30.08.2019
2791 Clear 24 1012 82 0 9.11 138.023 16:29 30.08.2019
2792 Clear 24 1012 82 0 9.11 138.023 15:59 30.08.2019
2793 Clear 24 1012 82 0 9.11 138.023 15:38 30.08.2019
2794 Rain 25 1013 83 0 10.37 140.009 15:19 30.08.2019
2795 Rain 25 1013 83 0 10.37 140.009 14:44 30.08.2019
2796 Rain 25 1013 83 0 10.37 140.009 14:25 30.08.2019
2797 -273 0 0 0 0 0 13:56 30.08.2019
2798 Rain 25 1013 83 0 10.37 140.009 13:37 30.08.2019
2799 Clouds 25 1013 84 0 10.18 137.766 13:19 30.08.2019
2800 Clouds 25 1013 84 0 10.18 137.766 13:19 30.08.2019
2801 Clouds 25 1013 84 0 10.18 137.766 12:42 30.08.2019
2802 Clouds 25 1012 85 0 10.43 142.328 12:23 30.08.2019
2803 Clouds 25 1012 85 0 10.43 142.328 11:43 30.08.2019
2804 Rain 22 1011 100 3000 12.9 160 11:25 30.08.2019
2805 Rain 22 1011 100 3000 12.9 160 10:59 30.08.2019
2806 Rain 22 1011 100 3000 12.9 160 10:37 30.08.2019
2807 Rain 22 1011 100 3000 12.9 160 10:18 30.08.2019
2808 Rain 25 1010 83 10000 12.9 160 09:42 30.08.2019
2809 Rain 25 1010 83 10000 12.9 160 09:20 30.08.2019
2810 Rain 24 1009 88 10000 12.9 160 08:59 30.08.2019
2811 Rain 24 1009 88 10000 12.9 160 08:40 30.08.2019
2812 Rain 24 1009 88 10000 12.9 160 08:21 30.08.2019
2813 Rain 24 1010 94 10000 12.9 160 07:44 30.08.2019
2814 Rain 24 1010 94 10000 12.9 160 07:23 30.08.2019
2815 Rain 24 1010 100 0 10.3 160 06:47 30.08.2019
2816 Rain 25 1010 94 0 7.7 160 06:29 30.08.2019
2817 Rain 25 1010 94 0 11.8 160 05:55 30.08.2019
2818 Rain 25 1012 94 0 11.8 170 04:27 30.08.2019
2819 Rain 24 1012 100 0 11.8 160 03:46 30.08.2019
2820 Rain 24 1012 100 0 10.3 160 03:27 30.08.2019
2821 Rain 24 1013 100 0 9.3 150 02:32 30.08.2019
2822 Clouds 26 1012 88 10000 7.2 160 01:38 30.08.2019
2823 Clouds 25 1013 84 0 7.29 146.877 00:45 30.08.2019
2824 Clouds 24 1011 94 10000 3.1 140 00:18 30.08.2019
2825 Clouds 24 1011 94 10000 3.1 140 23:41 29.08.2019
2826 Clouds 24 1011 94 10000 2.6 160 23:21 29.08.2019
2827 Clouds 24 1011 94 10000 2.6 160 22:44 29.08.2019
2828 Clouds 24 1010 94 10000 6.2 160 22:26 29.08.2019
2829 Clouds 24 1010 94 10000 6.2 160 21:57 29.08.2019
2830 Clouds 25 1013 85 0 6.99 138.34 21:39 29.08.2019
2831 Clouds 24 1010 94 10000 6.7 160 21:21 29.08.2019
2832 Clouds 24 1010 94 10000 6.7 160 21:21 29.08.2019
2833 Clouds 24 1010 94 10000 6.7 160 20:54 29.08.2019
2834 Clouds 24 1010 94 10000 6.7 160 20:36 29.08.2019
2835 Clouds 24 1010 94 10000 6.7 160 20:18 29.08.2019
2836 Rain 25 1011 85 0 6.69 140.284 19:46 29.08.2019
2837 Clouds 25 1011 88 10000 7.7 150 19:25 29.08.2019
2838 Clouds 25 1011 88 10000 7.7 150 18:45 29.08.2019
2839 Clouds 24 1011 94 10000 7.7 160 18:22 29.08.2019
2840 Clouds 24 1011 94 10000 7.7 160 17:58 29.08.2019
2841 Rain 25 1012 87 0 7.17 142.591 17:39 29.08.2019
2842 Rain 25 1012 87 0 7.17 142.591 17:20 29.08.2019
2843 Rain 25 1012 87 0 7.17 142.591 16:59 29.08.2019
2844 Rain 25 1012 87 0 7.17 142.591 16:40 29.08.2019
2845 Rain 25 1012 87 0 7.17 142.591 16:22 29.08.2019
2846 Rain 25 1012 87 0 7.17 142.591 16:22 29.08.2019
2847 Rain 25 1012 87 0 7.17 142.591 15:40 29.08.2019
2848 Clouds 25 1014 87 0 7.96 144.327 15:21 29.08.2019
2849 Clouds 25 1014 87 0 7.96 144.327 14:57 29.08.2019
2850 Clouds 25 1014 87 0 7.96 144.327 14:37 29.08.2019
2851 Clouds 25 1014 87 0 7.96 144.327 14:19 29.08.2019
2852 Clouds 25 1014 87 0 7.96 144.327 13:54 29.08.2019
2853 Clouds 25 1014 87 0 7.96 144.327 13:36 29.08.2019
2854 Clouds 25 1014 87 0 8.09 145.057 13:18 29.08.2019
2855 Clouds 25 1014 87 0 8.09 145.057 12:55 29.08.2019
2856 Clouds 25 1014 87 0 8.09 145.057 12:36 29.08.2019
2857 Clouds 25 1012 86 0 9.2 148.492 12:18 29.08.2019
2858 Clouds 25 1012 86 0 9.2 148.492 11:40 29.08.2019
2859 Clouds 25 1009 94 10000 7.2 160 11:20 29.08.2019
2860 Clouds 25 1009 94 10000 7.2 160 10:56 29.08.2019
2861 Clouds 25 1009 94 10000 7.2 160 10:38 29.08.2019
2862 Clouds 25 1009 94 10000 7.2 160 10:19 29.08.2019
2863 Clouds 26 1008 88 10000 8.7 160 09:41 29.08.2019
2864 Clouds 26 1008 88 10000 8.7 160 09:18 29.08.2019
2865 Clouds 28 1008 78 10000 8.7 160 08:41 29.08.2019
2866 Clouds 29 1008 74 10000 7.7 160 08:23 29.08.2019
2867 Clouds 29 1008 74 10000 7.7 160 07:53 29.08.2019
2868 Haze 29 1009 74 10000 7.2 160 07:33 29.08.2019
2869 Haze 29 1009 74 10000 7.2 160 06:56 29.08.2019
2870 Haze 29 1009 74 10000 7.2 160 06:37 29.08.2019
2871 Haze 29 1009 74 10000 9.3 160 05:51 29.08.2019
2872 Clouds 29 1010 74 10000 9.3 150 04:52 29.08.2019
2873 Clouds 29 1010 74 10000 9.3 150 04:30 29.08.2019
2874 Clouds 25 1010 85 0 9.1 158.008 03:54 29.08.2019
2875 Clouds 25 1013 85 0 8.22 139.17 01:53 29.08.2019
2876 Clouds 25 1012 88 10000 5.1 160 01:34 29.08.2019
2877 Clouds 25 1012 88 10000 5.1 160 01:34 29.08.2019
2878 Clouds 25 1012 88 10000 5.1 160 00:46 29.08.2019
2879 Clouds 25 1012 88 10000 5.1 160 00:21 29.08.2019
2880 Clouds 24 1012 94 10000 4.1 140 23:56 28.08.2019
2881 Clouds 24 1012 94 10000 4.1 140 23:38 28.08.2019
2882 Clouds 24 1012 94 10000 4.1 140 23:19 28.08.2019
2883 Clouds 25 1013 85 0 7.66 134.064 22:39 28.08.2019
2884 Clouds 23 1011 94 10000 1.5 0 22:19 28.08.2019
2885 Clouds 23 1011 94 10000 1.5 0 21:59 28.08.2019
2886 Clouds 23 1011 94 10000 1.5 0 21:39 28.08.2019
2887 Clouds 23 1011 94 10000 1.5 0 21:39 28.08.2019
2888 Clouds 23 1011 94 10000 1.5 0 21:21 28.08.2019
2889 Rain 25 1011 88 0 8.74 137.309 20:46 28.08.2019
2890 Rain 23 1011 94 10000 5.1 150 20:27 28.08.2019
2891 Rain 23 1011 94 10000 5.1 150 19:59 28.08.2019
2892 Rain 23 1011 94 10000 5.1 150 19:40 28.08.2019
2893 Rain 23 1011 94 10000 5.1 150 19:21 28.08.2019
2894 Rain 23 1012 94 10000 5.1 160 18:42 28.08.2019
2895 Rain 23 1012 94 10000 5.1 160 18:42 28.08.2019
2896 Rain 23 1012 94 10000 5.1 160 18:22 28.08.2019
2897 Rain 25 1012 88 0 9.57 160.316 17:59 28.08.2019
2898 Rain 25 1012 88 0 9.57 160.316 17:37 28.08.2019
2899 Rain 25 1012 88 0 9.57 160.316 17:19 28.08.2019
2900 Rain 25 1012 88 0 9.57 160.316 16:43 28.08.2019
2901 Rain 23 1013 100 0 7.2 160 16:19 28.08.2019
2902 Rain 23 1013 100 0 7.2 160 15:59 28.08.2019
2903 Rain 25 1012 88 0 9.57 160.316 15:37 28.08.2019
2904 Clouds 24 1013 94 10000 6.2 150 15:19 28.08.2019
2905 Clouds 24 1013 94 10000 6.2 150 14:56 28.08.2019
2906 Clouds 24 1013 94 10000 6.2 150 14:37 28.08.2019
2907 Clouds 24 1013 94 10000 6.2 150 14:19 28.08.2019
2908 Rain 25 1014 88 0 11.04 163.767 13:56 28.08.2019
2909 Rain 25 1014 88 0 11.04 163.767 13:37 28.08.2019
2910 Clouds 24 1013 100 10000 6.7 160 13:18 28.08.2019
2911 Clouds 24 1013 100 10000 6.7 160 12:41 28.08.2019
2912 Clouds 25 1012 88 10000 8.2 160 12:23 28.08.2019
2913 Clouds 25 1012 88 10000 8.2 160 12:23 28.08.2019
2914 Clouds 25 1012 88 10000 8.2 160 11:42 28.08.2019
2915 Clouds 25 1012 88 10000 8.2 160 11:42 28.08.2019
2916 Clouds 25 1012 88 10000 8.2 160 11:23 28.08.2019
2917 Rain 25 1012 87 0 9.97 160.106 10:59 28.08.2019
2918 Rain 25 1012 87 0 9.97 160.106 10:41 28.08.2019
2919 Rain 25 1010 94 0 7.7 160 10:21 28.08.2019
2920 Rain 25 1010 94 0 7.7 160 09:56 28.08.2019
2921 Rain 25 1010 94 0 10.3 170 09:38 28.08.2019
2922 Rain 25 1010 94 0 10.3 170 09:18 28.08.2019
2923 Rain 25 1009 94 0 11.3 160 08:38 28.08.2019
2924 Rain 25 1009 94 0 11.3 160 08:20 28.08.2019
2925 Rain 25 1010 94 0 7.7 170 07:39 28.08.2019
2926 Rain 25 1010 94 0 7.7 170 07:20 28.08.2019
2927 Rain 25 1010 94 0 7.7 170 06:51 28.08.2019
2928 Rain 26 1010 88 0 7.7 170 06:31 28.08.2019
2929 Clouds 29 1012 74 10000 8.7 140 05:29 28.08.2019
2930 Clouds 27 1013 83 10000 8.2 140 02:24 28.08.2019
2931 Clouds 27 1013 83 10000 8.2 140 01:31 28.08.2019
2932 Clouds 25 1012 94 0 5.1 160 00:54 28.08.2019
2933 Clouds 24 1012 94 10000 5.1 140 00:34 28.08.2019
2934 Clouds 24 1012 94 10000 5.1 140 23:58 27.08.2019
2935 Clouds 24 1012 94 10000 5.1 140 23:38 27.08.2019
2936 Clouds 24 1012 94 10000 5.1 140 23:19 27.08.2019
2937 Clouds 24 1012 94 0 5.1 140 22:42 27.08.2019
2938 Rain 24 1011 94 0 8.7 160 22:23 27.08.2019
2939 Rain 25 1013 88 0 9.27 141.105 21:57 27.08.2019
2940 Rain 25 1013 88 0 9.27 141.105 21:38 27.08.2019
2941 Rain 25 1012 87 0 9.34 139.935 21:20 27.08.2019
2942 Rain 25 1012 87 0 9.34 139.935 20:59 27.08.2019
2943 Rain 25 1012 87 0 9.34 139.935 20:40 27.08.2019
2944 Rain 23 1011 100 0 8.7 150 20:19 27.08.2019
2945 Rain 23 1011 100 0 8.7 150 19:45 27.08.2019
2946 Rain 23 1011 100 0 8.7 150 19:27 27.08.2019
2947 Rain 25 1012 87 0 9.34 139.935 18:58 27.08.2019
2948 Rain 25 1012 87 0 9.34 139.935 18:39 27.08.2019
2949 Rain 25 1012 87 0 9.7 138.257 18:18 27.08.2019
2950 Rain 25 1012 87 0 9.7 138.257 17:55 27.08.2019
2951 Rain 25 1012 87 0 9.7 138.257 17:37 27.08.2019
2952 Drizzle 24 1013 94 0 8.2 160 17:18 27.08.2019
2953 Drizzle 24 1013 94 0 8.2 160 16:42 27.08.2019
2954 Drizzle 24 1013 94 0 8.2 160 16:23 27.08.2019
2955 Clouds 24 1013 94 10000 9.3 160 15:55 27.08.2019
2956 Rain 25 1012 87 0 9.7 138.257 15:36 27.08.2019
2957 Clouds 25 1014 87 0 9.88 145.541 15:18 27.08.2019
2958 Clouds 25 1014 87 0 9.88 145.541 14:42 27.08.2019
2959 Clouds 24 1013 94 10000 9.3 140 14:23 27.08.2019
2960 Clouds 24 1013 94 10000 9.3 140 13:43 27.08.2019
2961 Clouds 24 1013 94 10000 9.3 140 13:24 27.08.2019
2962 Clouds 24 1013 94 10000 9.3 160 12:58 27.08.2019
2963 Rain 25 1014 88 0 9.97 139.851 12:39 27.08.2019
2964 Rain 25 1013 87 0 9.8 144.198 12:19 27.08.2019
2965 Rain 25 1013 87 0 9.8 144.198 11:45 27.08.2019
2966 Clouds 24 1012 94 0 5.1 150 11:26 27.08.2019
2967 Clouds 24 1012 94 0 5.1 150 10:46 27.08.2019
2968 Rain 25 1013 87 0 9.8 144.198 10:26 27.08.2019
2969 Rain 25 1013 87 0 9.8 144.198 09:59 27.08.2019
2970 Rain 25 1013 87 0 9.8 144.198 09:59 27.08.2019
2971 Rain 25 1013 87 0 9.8 144.198 09:39 27.08.2019
2972 Clouds 25 1010 85 0 9.89 153.313 09:21 27.08.2019
2973 Clouds 25 1010 85 0 9.89 153.313 08:56 27.08.2019
2974 Clouds 25 1010 85 0 9.89 153.313 08:37 27.08.2019
2975 Clouds 25 1010 85 0 9.89 153.313 08:37 27.08.2019
2976 Haze 26 1010 83 10000 7.7 150 08:18 27.08.2019
2977 Haze 26 1010 83 10000 7.7 150 07:40 27.08.2019
2978 Haze 26 1010 83 10000 7.7 150 07:19 27.08.2019
2979 Haze 28 1010 74 10000 7.7 150 06:54 27.08.2019
2980 Haze 28 1010 74 10000 7.7 150 06:25 27.08.2019
2981 Haze 27 1011 78 10000 7.7 150 05:42 27.08.2019
2982 Clouds 27 1012 78 10000 10.3 160 04:37 27.08.2019
2983 Clouds 28 1013 74 10000 7.7 160 03:34 27.08.2019
2984 Clouds 27 1013 78 10000 7.7 130 02:23 27.08.2019
2985 Clouds 25 1014 88 10000 7.7 150 01:40 27.08.2019
2986 Clouds 25 1013 83 10000 7.7 150 00:58 27.08.2019
2987 Clouds 25 1013 83 10000 7.7 150 00:39 27.08.2019
2988 Clouds 25 1013 83 10000 7.7 150 00:19 27.08.2019
2989 Rain 25 1014 87 0 6.59 133.833 23:37 26.08.2019
2990 Clouds 23 1012 94 10000 7.7 150 23:19 26.08.2019
2991 Clouds 23 1012 94 10000 7.7 150 22:39 26.08.2019
2992 Clouds 23 1012 94 10000 7.7 150 22:19 26.08.2019
2993 Rain 25 1013 86 0 6.58 138.278 21:57 26.08.2019
2994 Rain 25 1013 86 0 6.58 138.278 21:37 26.08.2019
2995 Rain 25 1012 86 0 7.47 144.193 21:18 26.08.2019
2996 Rain 25 1012 86 0 7.47 144.193 20:54 26.08.2019
2997 Rain 25 1012 86 0 7.47 144.193 20:36 26.08.2019
2998 Rain 25 1012 86 0 7.47 144.193 20:36 26.08.2019
2999 Rain 25 1012 86 0 7.47 144.193 20:18 26.08.2019
3000 Rain 25 1012 86 0 7.47 144.193 19:42 26.08.2019
3001 Rain 25 1012 86 0 7.47 144.193 19:19 26.08.2019
3002 Rain 25 1012 86 0 7.47 144.193 18:56 26.08.2019
3003 Rain 25 1012 86 0 7.47 144.193 18:37 26.08.2019
3004 Rain 25 1013 85 0 8.49 140.248 18:18 26.08.2019
3005 Rain 25 1013 85 0 8.49 140.248 17:43 26.08.2019
3006 Rain 25 1013 85 0 8.49 140.248 17:19 26.08.2019
3007 Clouds 23 1013 94 10000 9.3 150 16:57 26.08.2019
3008 Clouds 23 1013 94 10000 9.3 150 16:38 26.08.2019
3009 Clouds 23 1013 94 10000 9.3 150 16:18 26.08.2019
3010 Clouds 23 1013 94 10000 9.3 160 15:42 26.08.2019
3011 Clouds 23 1013 94 10000 9.3 160 15:22 26.08.2019
3012 Rain 25 1014 84 0 10.52 135.601 14:58 26.08.2019
3013 Rain 25 1014 84 0 10.52 135.601 14:38 26.08.2019
3014 Rain 25 1014 84 0 10.52 135.601 14:19 26.08.2019
3015 Rain 25 1014 84 0 10.52 135.601 13:43 26.08.2019
3016 Clouds 24 1013 94 10000 7.7 160 13:22 26.08.2019
3017 Clouds 24 1013 94 10000 7.7 160 12:54 26.08.2019
3018 Clouds 25 1013 83 0 10.59 136.722 12:36 26.08.2019
3019 Clouds 24 1012 88 10000 9.3 140 12:18 26.08.2019
3020 Clouds 24 1012 88 10000 9.3 140 11:38 26.08.2019
3021 Clouds 24 1012 88 10000 9.3 140 11:19 26.08.2019
3022 Clouds 24 1011 94 10000 5.1 140 10:55 26.08.2019
3023 Clouds 24 1011 94 10000 5.1 140 10:36 26.08.2019
3024 Clouds 24 1011 94 10000 5.1 140 10:18 26.08.2019
3025 Clouds 24 1011 94 10000 10.3 150 09:41 26.08.2019
3026 Rain 24 1010 94 0 7.7 140 09:23 26.08.2019
3027 Rain 24 1010 94 0 7.7 140 08:56 26.08.2019
3028 Rain 24 1010 94 0 7.7 140 08:37 26.08.2019
3029 Rain 24 1010 94 0 7.7 140 08:19 26.08.2019
3030 Rain 24 1011 94 0 5.1 140 07:42 26.08.2019
3031 Clouds 26 1011 83 10000 5.1 140 07:24 26.08.2019
3032 Clouds 26 1011 83 10000 5.1 140 06:50 26.08.2019
3033 Clouds 26 1011 83 10000 5.1 140 06:25 26.08.2019
3034 Haze 28 1011 74 10000 5.1 160 05:56 26.08.2019
3035 Haze 29 1012 70 10000 10.3 150 04:35 26.08.2019
3036 Rain 25 1011 84 0 9.57 154.594 03:48 26.08.2019
3037 Haze 25 1014 78 10000 2.6 150 01:41 26.08.2019
3038 Haze 25 1014 78 10000 2.6 150 01:21 26.08.2019
3039 Clouds 24 1013 83 10000 1.5 120 00:42 26.08.2019
3040 Clouds 24 1013 85 0 6.69 135.909 00:23 26.08.2019
3041 Clouds 24 1013 85 0 6.69 135.909 23:43 25.08.2019
3042 Clouds 24 1013 85 0 6.69 135.909 23:43 25.08.2019
3043 Clouds 22 1012 94 10000 1.5 0 23:19 25.08.2019
3044 Clouds 22 1012 94 10000 1.5 0 22:57 25.08.2019
3045 Clouds 22 1012 94 10000 1.5 0 22:57 25.08.2019
3046 Clouds 22 1012 94 10000 1.5 0 22:39 25.08.2019
3047 Clouds 22 1012 94 10000 1.5 0 22:20 25.08.2019
3048 Clouds 22 1011 94 10000 1.5 0 21:57 25.08.2019
3049 Clouds 24 1013 84 0 6.07 135.854 21:38 25.08.2019
3050 Clouds 24 1012 83 0 7.58 134.818 21:18 25.08.2019
3051 Clouds 24 1012 83 0 7.58 134.818 20:40 25.08.2019
3052 Clouds 24 1012 83 0 7.58 134.818 20:20 25.08.2019
3053 Clouds 24 1012 83 0 7.58 134.818 19:58 25.08.2019
3054 Clouds 24 1012 83 0 7.58 134.818 19:39 25.08.2019
3055 Clouds 24 1012 83 0 7.58 134.818 19:19 25.08.2019
3056 Clouds 24 1012 83 0 7.58 134.818 18:57 25.08.2019
3057 Clouds 24 1012 83 0 7.58 134.818 18:39 25.08.2019
3058 Clouds 24 1013 84 0 8.32 138.965 18:21 25.08.2019
3059 Clouds 24 1013 84 0 8.32 138.965 17:43 25.08.2019
3060 Clouds 24 1013 84 0 8.32 138.965 17:25 25.08.2019
3061 Clouds 24 1013 84 0 8.32 138.965 16:56 25.08.2019
3062 Clouds 24 1013 84 0 8.32 138.965 16:36 25.08.2019
3063 Clouds 25 1013 78 10000 5.1 150 16:18 25.08.2019
3064 Clouds 25 1013 78 10000 5.1 150 15:42 25.08.2019
3065 Clouds 25 1014 83 0 8.79 141.198 15:24 25.08.2019
3066 Clouds 25 1014 83 0 8.79 141.198 14:43 25.08.2019
3067 Clouds 25 1012 78 10000 5.1 150 14:24 25.08.2019
3068 Clouds 25 1012 78 10000 5.1 150 13:56 25.08.2019
3069 Clouds 25 1014 83 0 8.79 141.198 13:37 25.08.2019
3070 Clouds 25 1012 78 10000 5.1 150 13:18 25.08.2019
3071 Clouds 25 1012 78 10000 5.1 150 12:42 25.08.2019
3072 Clouds 25 1012 78 10000 5.1 150 12:24 25.08.2019
3073 Clouds 25 1012 78 10000 5.1 150 11:58 25.08.2019
3074 Clouds 25 1012 78 10000 5.1 150 11:38 25.08.2019
3075 Clouds 25 1012 78 10000 5.1 150 11:20 25.08.2019
3076 Haze 25 1011 78 10000 9.3 160 10:56 25.08.2019
3077 Clouds 24 1012 81 0 9.19 148.617 10:37 25.08.2019
3078 Haze 26 1011 74 10000 9.3 140 10:19 25.08.2019
3079 Haze 26 1011 74 10000 9.3 140 09:43 25.08.2019
3080 Haze 26 1011 74 10000 9.3 140 09:24 25.08.2019
3081 Haze 27 1010 69 10000 11.3 150 08:47 25.08.2019
3082 Haze 27 1010 69 10000 11.3 150 08:29 25.08.2019
3083 Clouds 24 1011 82 0 7.91 157.243 07:54 25.08.2019
3084 Haze 28 1010 65 10000 10.3 150 07:32 25.08.2019
3085 Haze 28 1010 65 10000 10.3 150 07:32 25.08.2019
3086 Clouds 24 1011 82 0 7.91 157.243 06:39 25.08.2019
3087 Haze 29 1011 62 10000 9.3 170 05:27 25.08.2019
3088 Haze 28 1013 58 10000 6.2 150 03:45 25.08.2019
3089 Haze 28 1013 58 10000 5.1 140 02:42 25.08.2019
3090 Clouds 24 1014 78 10000 1.5 0 01:53 25.08.2019
3091 Haze 23 1014 83 10000 1.5 0 00:45 25.08.2019
3092 Haze 23 1014 83 10000 1.5 0 00:23 25.08.2019
3093 Haze 20 1013 88 10000 1.5 0 23:57 24.08.2019
3094 Haze 20 1013 88 10000 1.5 0 23:57 24.08.2019
3095 Clouds 23 1014 80 0 6.84 125.026 23:39 24.08.2019
3096 Clouds 19 1012 93 10000 1.5 0 23:21 24.08.2019
3097 Clouds 19 1012 93 10000 1.5 0 22:40 24.08.2019
3098 Clouds 19 1012 93 10000 1.5 0 22:19 24.08.2019
3099 Clouds 21 1012 83 10000 1.5 0 21:58 24.08.2019
3100 Clouds 23 1014 80 0 6.84 125.026 21:39 24.08.2019
3101 Clouds 23 1013 81 0 7.94 126.489 21:21 24.08.2019
3102 Clouds 23 1013 81 0 7.94 126.489 21:21 24.08.2019
3103 Clouds 23 1013 81 0 7.94 126.489 20:57 24.08.2019
3104 Clouds 23 1013 81 0 7.94 126.489 20:38 24.08.2019
3105 Clouds 23 1013 81 0 7.94 126.489 20:18 24.08.2019
3106 Clouds 23 1013 81 0 7.94 126.489 19:57 24.08.2019
3107 Clouds 23 1013 81 0 7.94 126.489 19:38 24.08.2019
3108 Clouds 23 1013 81 0 7.94 126.489 19:19 24.08.2019
3109 Clouds 23 1013 81 0 7.94 126.489 18:45 24.08.2019
3110 Clouds 23 1013 82 0 9.8 126.496 18:23 24.08.2019
3111 Clouds 23 1013 82 0 9.8 126.496 17:46 24.08.2019
3112 Clouds 23 1013 82 0 9.8 126.496 17:27 24.08.2019
3113 Clouds 23 1013 82 0 9.8 126.496 16:56 24.08.2019
3114 Clouds 23 1013 82 0 9.8 126.496 16:36 24.08.2019
3115 Clouds 23 1013 82 0 9.8 126.496 16:18 24.08.2019
3116 Clouds 23 1013 82 0 9.8 126.496 15:43 24.08.2019
3117 Clouds 24 1015 82 0 10.94 132.77 15:25 24.08.2019
3118 Clouds 24 1015 82 0 10.94 132.77 14:56 24.08.2019
3119 Clouds 24 1015 82 0 10.94 132.77 14:37 24.08.2019
3120 Clouds 24 1015 82 0 10.94 132.77 14:18 24.08.2019
3121 Clouds 24 1015 82 0 10.94 132.77 13:42 24.08.2019
3122 Clouds 23 1013 88 10000 10.3 130 13:22 24.08.2019
3123 Clouds 23 1013 88 10000 10.3 130 12:58 24.08.2019
3124 Clouds 23 1013 88 10000 10.3 130 12:39 24.08.2019
3125 Clouds 23 1013 88 10000 10.3 130 12:39 24.08.2019
3126 Clouds 23 1013 88 10000 10.3 130 12:21 24.08.2019
3127 Clouds 24 1014 81 0 11.99 142.103 11:46 24.08.2019
3128 Haze 25 1012 78 10000 10.3 160 11:24 24.08.2019
3129 Haze 25 1012 78 10000 10.3 160 10:57 24.08.2019
3130 Haze 25 1012 78 10000 10.3 160 10:38 24.08.2019
3131 Haze 25 1012 78 10000 10.3 160 10:19 24.08.2019
3132 Haze 26 1012 74 10000 12.9 160 09:40 24.08.2019
3133 Haze 26 1012 74 10000 12.9 160 09:18 24.08.2019
3134 Haze 27 1011 74 10000 10.3 160 08:41 24.08.2019
3135 Haze 27 1011 74 10000 10.3 160 08:23 24.08.2019
3136 Haze 27 1011 74 10000 10.3 160 08:23 24.08.2019
3137 Clouds 24 1013 81 0 11.56 149.577 07:50 24.08.2019
3138 Haze 28 1012 69 10000 12.9 160 07:28 24.08.2019
3139 Haze 28 1012 69 10000 12.9 160 06:31 24.08.2019
3140 Haze 29 1013 66 10000 10.3 170 05:47 24.08.2019
3141 Haze 29 1013 66 10000 10.3 170 05:29 24.08.2019
3142 Haze 27 1014 74 10000 8.2 160 03:39 24.08.2019
3143 Haze 27 1015 74 10000 8.2 160 02:33 24.08.2019
3144 Haze 25 1015 78 10000 3.6 130 01:47 24.08.2019
3145 Haze 25 1015 78 10000 3.6 130 01:22 24.08.2019
3146 Haze 24 1015 83 10000 3.1 150 00:43 24.08.2019
3147 Haze 24 1015 83 10000 3.1 150 00:18 24.08.2019
3148 Clouds 23 1014 88 10000 1.5 0 23:43 23.08.2019
3149 Clouds 23 1014 88 10000 1.5 0 23:19 23.08.2019
3150 Clouds 22 1014 94 10000 2.1 0 22:43 23.08.2019
3151 Clouds 22 1013 94 10000 1.5 0 22:24 23.08.2019
3152 Clouds 22 1013 94 10000 1.5 0 21:54 23.08.2019
3153 Clouds 24 1014 83 0 9.18 127.803 21:36 23.08.2019
3154 Clouds 22 1013 94 10000 1.5 0 21:18 23.08.2019
3155 Clouds 22 1013 94 10000 1.5 0 20:40 23.08.2019
3156 Clouds 22 1013 94 10000 1.5 0 20:22 23.08.2019
3157 Clouds 24 1013 84 0 9.13 129.985 19:44 23.08.2019
3158 Clouds 22 1013 88 10000 2.1 0 19:19 23.08.2019
3159 Clouds 22 1013 88 10000 2.1 0 18:49 23.08.2019
3160 Clouds 24 1013 84 0 9.13 129.985 18:31 23.08.2019
3161 Rain 24 1014 83 0 8.97 131.973 17:58 23.08.2019
3162 Rain 24 1014 83 0 8.97 131.973 17:39 23.08.2019
3163 Clouds 22 1014 94 10000 5.1 150 17:20 23.08.2019
3164 Clouds 22 1014 94 10000 5.1 150 16:48 23.08.2019
3165 Clouds 22 1014 94 10000 5.1 150 16:29 23.08.2019
3166 Rain 24 1014 83 0 8.97 131.973 15:57 23.08.2019
3167 Rain 24 1014 83 0 8.97 131.973 15:37 23.08.2019
3168 Clouds 23 1015 88 10000 7.7 130 15:19 23.08.2019
3169 Clouds 23 1015 88 10000 7.7 130 14:42 23.08.2019
3170 Clouds 23 1015 88 10000 7.7 130 14:21 23.08.2019
3171 Clouds 24 1015 83 0 9.18 131.141 13:58 23.08.2019
3172 Clouds 24 1015 83 0 9.18 131.141 13:40 23.08.2019
3173 Clouds 24 1016 84 0 9.3 133.165 13:22 23.08.2019
3174 Clouds 24 1016 84 0 9.3 133.165 12:58 23.08.2019
3175 Clouds 24 1016 84 0 9.3 133.165 12:40 23.08.2019
3176 Clouds 24 1014 84 0 9.48 140.114 12:21 23.08.2019
3177 Clouds 24 1014 84 0 9.48 140.114 11:56 23.08.2019
3178 Clouds 24 1014 84 0 9.48 140.114 11:37 23.08.2019
3179 Haze 24 1014 88 0 6.7 160 11:18 23.08.2019
3180 Haze 24 1014 88 0 6.7 160 10:43 23.08.2019
3181 Haze 24 1014 88 0 6.7 160 10:22 23.08.2019
3182 Haze 24 1013 88 10000 8.2 150 09:57 23.08.2019
3183 Clouds 24 1014 84 0 9.31 142.124 09:39 23.08.2019
3184 Haze 25 1012 83 10000 8.2 150 09:20 23.08.2019
3185 Haze 25 1012 83 10000 8.2 150 08:43 23.08.2019
3186 Haze 25 1012 83 10000 8.2 150 08:19 23.08.2019
3187 Haze 25 1012 83 10000 7.7 150 07:43 23.08.2019
3188 Haze 25 1012 83 10000 7.7 150 07:24 23.08.2019
3189 Haze 25 1012 83 10000 7.7 150 07:24 23.08.2019
3190 Haze 25 1012 83 10000 7.7 150 07:24 23.08.2019
3191 Haze 25 1013 78 10000 7.7 150 06:57 23.08.2019
3192 Clouds 24 1013 83 0 9.18 149.295 06:39 23.08.2019
3193 Clouds 24 1013 83 0 9.18 149.295 06:39 23.08.2019
3194 Clouds 26 1013 78 10000 7.7 160 06:20 23.08.2019
3195 Clouds 24 1014 84 0 8.01 159.065 05:34 23.08.2019
3196 Clouds 24 1014 84 0 8.01 159.065 04:52 23.08.2019
3197 Haze 25 1016 83 10000 7.7 150 03:21 23.08.2019
3198 Haze 25 1016 83 10000 7.7 150 02:23 23.08.2019
3199 Rain 24 1016 83 0 6.41 134.311 01:40 23.08.2019
3200 Clouds 23 1015 88 10000 1.5 0 00:45 23.08.2019
3201 Clouds 23 1015 88 10000 1.5 0 00:20 23.08.2019
3202 Clouds 22 1014 94 10000 1.5 0 23:47 22.08.2019
3203 Clouds 22 1014 94 10000 1.5 0 23:25 22.08.2019
3204 Clouds 22 1014 94 10000 1.5 0 22:57 22.08.2019
3205 Rain 24 1015 84 0 6.55 135.563 22:38 22.08.2019
3206 Rain 24 1015 84 0 6.55 135.563 22:19 22.08.2019
3207 Rain 24 1015 84 0 6.55 135.563 21:55 22.08.2019
3208 Rain 24 1015 85 0 6.92 139.824 21:37 22.08.2019
3209 Clouds 24 1013 84 0 7.4 131.235 21:18 22.08.2019
3210 Clouds 24 1013 84 0 7.4 131.235 20:55 22.08.2019
3211 Clouds 24 1013 84 0 7.4 131.235 20:37 22.08.2019
3212 Clouds 24 1013 84 0 7.4 131.235 20:18 22.08.2019
3213 Clouds 24 1013 84 0 7.4 131.235 19:40 22.08.2019
3214 Clouds 22 1013 83 10000 1.5 100 19:22 22.08.2019
3215 Clouds 22 1013 83 10000 1.5 100 18:59 22.08.2019
3216 Clouds 22 1013 83 10000 1.5 100 18:41 22.08.2019
3217 Clouds 22 1013 83 10000 1.5 100 18:20 22.08.2019
3218 Clouds 24 1014 81 0 9.07 133.473 17:58 22.08.2019
3219 Clouds 24 1014 81 0 9.07 133.473 17:58 22.08.2019
3220 Clouds 24 1014 81 0 9.07 133.473 17:58 22.08.2019
3221 Clouds 24 1014 81 0 9.07 133.473 17:39 22.08.2019
3222 Clouds 24 1014 81 0 9.07 133.473 17:20 22.08.2019
3223 Clouds 24 1014 81 0 9.07 133.473 16:56 22.08.2019
3224 Clouds 24 1014 81 0 9.07 133.473 16:38 22.08.2019
3225 Clouds 23 1014 83 10000 3.1 140 16:20 22.08.2019
3226 Clouds 23 1014 83 10000 3.1 140 16:19 22.08.2019
3227 Clouds 23 1014 83 10000 3.1 140 15:43 22.08.2019
3228 Clouds 23 1014 83 10000 3.1 140 15:43 22.08.2019
3229 Clouds 23 1014 83 10000 3.1 140 15:43 22.08.2019
3230 Clouds 23 1014 83 10000 3.1 140 15:24 22.08.2019
3231 Clouds 23 1014 83 10000 3.1 140 15:24 22.08.2019
3232 Clouds 23 1014 83 10000 2.6 140 14:59 22.08.2019
3233 Clouds 23 1014 83 10000 2.6 140 14:41 22.08.2019
3234 Clouds 24 1014 78 10000 5.7 150 14:22 22.08.2019
3235 Clouds 24 1014 78 10000 5.7 150 13:59 22.08.2019
3236 Clouds 25 1015 76 0 10.62 129.186 13:40 22.08.2019
3237 Clouds 25 1015 75 0 10.9 129.005 13:20 22.08.2019
3238 Clouds 25 1015 75 0 10.9 129.005 13:20 22.08.2019
3239 Clouds 25 1015 75 0 10.9 129.005 12:56 22.08.2019
3240 Clouds 25 1015 75 0 10.9 129.005 12:38 22.08.2019
3241 Clouds 25 1013 69 10000 5.7 150 12:19 22.08.2019
3242 Clouds 25 1013 69 10000 5.7 150 11:42 22.08.2019
3243 Haze 25 1012 73 10000 8.2 160 11:20 22.08.2019
3244 Haze 25 1012 73 10000 8.2 160 10:58 22.08.2019
3245 Haze 25 1012 73 10000 8.2 160 10:40 22.08.2019
3246 Haze 25 1012 73 10000 8.2 160 10:22 22.08.2019
3247 Clouds 25 1013 76 0 12.12 141.316 09:57 22.08.2019
3248 Clouds 25 1013 76 0 12.12 141.316 09:39 22.08.2019
3249 Clouds 25 1013 76 0 12.12 141.316 09:39 22.08.2019
3250 Clouds 27 1010 65 10000 10.3 160 09:20 22.08.2019
3251 Clouds 27 1010 65 10000 10.3 160 08:54 22.08.2019
3252 Clouds 27 1010 65 10000 10.3 160 08:36 22.08.2019
3253 Clouds 27 1010 65 10000 10.3 160 08:18 22.08.2019
3254 Clouds 25 1011 76 0 11.68 152.47 07:39 22.08.2019
3255 Clouds 29 1011 62 10000 7.7 150 07:19 22.08.2019
3256 Clouds 29 1011 62 10000 7.7 150 06:47 22.08.2019
3257 Clouds 29 1011 62 10000 7.7 150 06:22 22.08.2019
3258 Clouds 29 1011 62 10000 7.7 170 05:30 22.08.2019
3259 Smoke 30 1012 55 10000 7.7 170 04:19 22.08.2019
3260 Clouds 25 1014 76 0 10.21 136.024 02:37 22.08.2019
3261 Clouds 28 1014 58 10000 10.3 150 01:39 22.08.2019
3262 Clouds 25 1013 69 10000 7.7 150 00:57 22.08.2019
3263 Clouds 25 1013 69 10000 7.7 150 00:39 22.08.2019
3264 Clouds 25 1013 69 10000 7.7 150 00:20 22.08.2019
3265 Clouds 25 1012 73 10000 7.7 140 23:42 21.08.2019
3266 Clouds 25 1012 73 10000 7.7 140 23:24 21.08.2019
3267 Clouds 24 1012 78 10000 7.7 140 22:58 21.08.2019
3268 Clouds 24 1014 78 0 11.67 125.792 22:39 21.08.2019
3269 Clouds 23 1011 83 10000 2.6 0 22:20 21.08.2019
3270 Clouds 23 1011 83 10000 2.6 0 21:56 21.08.2019
3271 Clouds 24 1014 78 0 12.16 127.362 21:37 21.08.2019
3272 Clouds 24 1013 78 0 12.03 128.985 21:19 21.08.2019
3273 Clouds 24 1013 78 0 12.03 128.985 20:55 21.08.2019
3274 Clouds 24 1013 78 0 12.03 128.985 20:55 21.08.2019
3275 Clouds 24 1013 78 0 12.03 128.985 20:37 21.08.2019
3276 Clouds 24 1013 78 0 12.03 128.985 20:19 21.08.2019
3277 Clouds 24 1013 78 0 12.03 128.985 19:42 21.08.2019
3278 Clouds 24 1013 78 0 12.03 128.985 19:23 21.08.2019
3279 Clouds 24 1013 78 0 12.03 128.985 18:56 21.08.2019
3280 Clouds 24 1013 78 0 12.03 128.985 18:56 21.08.2019
3281 Clouds 24 1013 78 0 12.03 128.985 18:38 21.08.2019
3282 Clouds 25 1013 79 0 13.08 131.691 18:20 21.08.2019
3283 Clouds 25 1013 79 0 13.08 131.691 17:44 21.08.2019
3284 Clouds 24 1013 83 10000 7.7 140 17:22 21.08.2019
3285 Clouds 24 1013 83 10000 7.7 140 16:57 21.08.2019
3286 Clouds 24 1013 83 10000 7.7 140 16:39 21.08.2019
3287 Clouds 24 1013 83 10000 7.7 140 16:18 21.08.2019
3288 Clouds 25 1013 79 0 13.08 131.691 15:56 21.08.2019
3289 Clouds 25 1013 79 0 13.08 131.691 15:38 21.08.2019
3290 Clouds 25 1013 79 0 13.08 131.691 15:38 21.08.2019
3291 Clouds 25 1014 80 0 12.19 129.007 15:18 21.08.2019
3292 Clouds 25 1014 80 0 12.19 129.007 14:54 21.08.2019
3293 Clouds 25 1014 80 0 12.19 129.007 14:36 21.08.2019
3294 Clouds 24 1013 83 10000 6.7 150 14:18 21.08.2019
3295 Clouds 24 1013 83 10000 6.7 150 14:18 21.08.2019
3296 Clouds 24 1013 83 10000 6.7 150 13:42 21.08.2019
3297 Clouds 25 1013 78 10000 6.2 140 13:20 21.08.2019
3298 Clouds 25 1013 78 10000 6.2 140 12:57 21.08.2019
3299 Clouds 25 1013 78 10000 6.2 140 12:38 21.08.2019
3300 Clouds 25 1013 78 10000 6.2 140 12:19 21.08.2019
3301 Clouds 25 1012 83 10000 5.7 150 11:44 21.08.2019
3302 Clouds 25 1012 83 10000 5.7 150 11:24 21.08.2019
3303 Haze 25 1011 88 10000 7.7 150 10:58 21.08.2019
3304 Haze 25 1011 88 10000 7.7 150 10:38 21.08.2019
3305 Haze 25 1011 88 10000 7.7 150 10:20 21.08.2019
3306 Haze 25 1010 88 10000 7.7 140 09:57 21.08.2019
3307 Haze 25 1010 88 10000 7.7 140 09:39 21.08.2019
3308 Haze 25 1010 88 10000 7.7 140 09:20 21.08.2019
3309 Haze 26 1010 78 10000 7.7 160 08:48 21.08.2019
3310 Haze 26 1010 78 10000 7.7 160 08:24 21.08.2019
3311 Smoke 28 1010 69 10000 7.7 160 07:45 21.08.2019
3312 Smoke 28 1010 69 10000 7.7 160 07:25 21.08.2019
3313 Clouds 29 1010 66 10000 7.7 160 06:51 21.08.2019
3314 Clouds 29 1010 66 10000 7.7 160 06:32 21.08.2019
3315 Clear 25 1012 81 0 8.28 157.506 05:57 21.08.2019
3316 Haze 29 1012 70 10000 5.1 170 05:28 21.08.2019
3317 Haze 29 1012 70 10000 5.1 170 04:35 21.08.2019
3318 Haze 26 1014 74 10000 5.1 140 01:56 21.08.2019
3319 Haze 26 1014 74 10000 5.1 140 01:24 21.08.2019
3320 Clouds 25 1013 73 10000 7.7 150 00:39 21.08.2019
3321 Clouds 25 1013 73 10000 7.7 150 00:20 21.08.2019
3322 Clouds 21 1013 88 10000 1.5 0 23:44 20.08.2019
3323 Clouds 21 1013 88 10000 1.5 0 23:20 20.08.2019
3324 Clouds 20 1012 106 10000 1.5 0 22:58 20.08.2019
3325 Clouds 20 1012 106 10000 1.5 0 22:58 20.08.2019
3326 Clouds 20 1012 106 10000 1.5 0 22:58 20.08.2019
3327 Clouds 20 1012 106 10000 1.5 0 22:40 20.08.2019
3328 Clouds 20 1012 106 10000 1.5 0 22:21 20.08.2019
3329 Clouds 20 1012 106 10000 1.5 0 22:21 20.08.2019
3330 Clouds 20 1012 100 10000 1 0 21:58 20.08.2019
3331 Clouds 20 1012 100 10000 1 0 21:38 20.08.2019
3332 Clouds 20 1012 100 10000 1 0 21:19 20.08.2019
3333 Clouds 20 1012 100 10000 1 0 21:19 20.08.2019
3334 Clouds 22 1012 88 10000 1 0 20:56 20.08.2019
3335 Clouds 24 1013 75 0 7.78 127.306 20:36 20.08.2019
3336 Clouds 24 1013 75 0 7.78 127.306 20:36 20.08.2019
3337 Clouds 22 1012 88 10000 2.6 150 20:18 20.08.2019
3338 Clouds 24 1013 75 0 7.78 127.306 19:39 20.08.2019
3339 Clouds 22 1013 88 10000 5.1 150 19:21 20.08.2019
3340 Clouds 22 1013 88 10000 5.1 150 18:56 20.08.2019
3341 Clouds 22 1013 88 10000 5.1 150 18:38 20.08.2019
3342 Clouds 22 1013 88 10000 5.1 150 18:19 20.08.2019
3343 Clouds 23 1013 88 10000 4.6 150 17:55 20.08.2019
3344 Clouds 24 1014 72 0 8.38 129.772 17:37 20.08.2019
3345 Clouds 22 1014 88 10000 1.5 0 17:18 20.08.2019
3346 Clouds 22 1014 88 10000 1.5 0 16:42 20.08.2019
3347 Clouds 22 1014 88 10000 1.5 0 16:23 20.08.2019
3348 Clouds 22 1014 88 10000 1.5 0 15:42 20.08.2019
3349 Clouds 25 1015 73 0 8.48 128.71 15:19 20.08.2019
3350 Clouds 25 1015 73 0 8.48 128.71 14:57 20.08.2019
3351 Clouds 25 1015 73 0 8.48 128.71 14:39 20.08.2019
3352 Clouds 24 1014 78 10000 5.1 150 14:20 20.08.2019
3353 Clouds 24 1014 78 10000 5.1 150 13:56 20.08.2019
3354 Clouds 24 1014 78 10000 5.1 150 13:56 20.08.2019
3355 Clouds 25 1015 73 0 8.48 128.71 13:37 20.08.2019
3356 Clouds 24 1014 78 10000 5.1 150 13:18 20.08.2019
3357 Clouds 24 1014 78 10000 5.1 150 12:50 20.08.2019
3358 Clouds 25 1015 73 0 8.85 130.047 12:25 20.08.2019
3359 Clouds 25 1013 75 0 8.43 142.541 11:56 20.08.2019
3360 Clouds 25 1013 75 0 8.43 142.541 11:38 20.08.2019
3361 Haze 25 1013 73 10000 9.3 140 11:18 20.08.2019
3362 Haze 25 1013 73 10000 9.3 140 10:56 20.08.2019
3363 Haze 25 1013 73 10000 9.3 140 10:56 20.08.2019
3364 Clouds 25 1013 75 0 8.43 142.541 10:37 20.08.2019
3365 Haze 26 1012 74 10000 10.3 160 10:18 20.08.2019
3366 Haze 26 1012 74 10000 10.3 160 09:41 20.08.2019
3367 Haze 26 1012 74 10000 10.3 160 09:22 20.08.2019
3368 Haze 26 1012 74 10000 9.3 150 08:43 20.08.2019
3369 Haze 27 1011 69 10000 10.3 130 08:24 20.08.2019
3370 Haze 27 1011 69 10000 10.3 130 08:24 20.08.2019
3371 Haze 27 1011 69 10000 10.3 130 07:58 20.08.2019
3372 Haze 27 1011 69 10000 10.3 130 07:40 20.08.2019
3373 Haze 27 1011 69 10000 10.3 130 07:22 20.08.2019
3374 Haze 27 1012 65 10000 10.3 160 06:47 20.08.2019
3375 Haze 27 1012 65 10000 10.3 160 06:21 20.08.2019
3376 Clouds 27 1013 69 10000 10.3 160 05:48 20.08.2019
3377 Haze 26 1013 74 10000 7.7 150 04:42 20.08.2019
3378 Clouds 26 1014 74 10000 7.7 140 02:58 20.08.2019
3379 Clouds 25 1014 78 10000 6.7 140 02:18 20.08.2019
3380 Clouds 25 1014 78 10000 6.7 150 01:21 20.08.2019
3381 Clouds 25 1014 78 10000 6.7 150 00:45 20.08.2019
3382 Clouds 23 1013 88 10000 4.1 140 00:25 20.08.2019
3383 Clouds 23 1013 88 10000 4.1 140 23:50 19.08.2019
3384 Clouds 23 1013 88 10000 4.1 140 23:19 19.08.2019
3385 Clouds 23 1012 88 10000 5.7 160 22:59 19.08.2019
3386 Clouds 23 1012 88 10000 5.7 160 22:41 19.08.2019
3387 Clouds 23 1012 88 10000 5.7 160 22:21 19.08.2019
3388 Clouds 24 1015 79 0 8.58 134.476 21:57 19.08.2019
3389 Clouds 24 1014 78 0 9.55 136.21 21:38 19.08.2019
3390 Clouds 24 1014 78 0 9.55 136.21 21:38 19.08.2019
3391 Rain 24 1013 80 0 8.67 139.589 21:19 19.08.2019
3392 Rain 24 1013 80 0 8.67 139.589 20:55 19.08.2019
3393 Rain 24 1013 80 0 8.67 139.589 20:37 19.08.2019
3394 Rain 24 1013 80 0 8.67 139.589 20:19 19.08.2019
3395 Rain 24 1013 80 0 8.67 139.589 19:54 19.08.2019
3396 Rain 24 1013 80 0 8.67 139.589 19:36 19.08.2019
3397 Rain 24 1013 80 0 8.67 139.589 19:18 19.08.2019
3398 Rain 24 1013 80 0 8.67 139.589 18:41 19.08.2019
3399 Clouds 24 1014 76 0 9.38 134.434 18:22 19.08.2019
3400 Clouds 24 1014 76 0 9.38 134.434 17:56 19.08.2019
3401 Clouds 24 1014 76 0 9.38 134.434 17:38 19.08.2019
3402 Clouds 24 1014 78 10000 9.3 140 17:19 19.08.2019
3403 Clouds 24 1014 78 10000 9.3 140 16:54 19.08.2019
3404 Clouds 24 1014 78 10000 9.3 140 16:36 19.08.2019
3405 Clouds 24 1014 78 10000 9.3 140 16:18 19.08.2019
3406 Clouds 24 1014 78 10000 9.3 140 16:18 19.08.2019
3407 Clouds 24 1014 83 10000 9.3 150 15:43 19.08.2019
3408 Clouds 24 1014 83 10000 9.3 150 15:19 19.08.2019
3409 Clouds 25 1013 78 10000 9.3 140 14:44 19.08.2019
3410 Clouds 25 1013 78 10000 9.3 140 14:24 19.08.2019
3411 Clouds 24 1013 78 10000 9.3 150 13:58 19.08.2019
3412 Clouds 24 1015 77 0 10.65 137.774 13:40 19.08.2019
3413 Clouds 25 1012 78 10000 5.1 140 13:20 19.08.2019
3414 Clouds 25 1012 78 10000 5.1 140 12:58 19.08.2019
3415 Clouds 25 1012 78 10000 5.1 140 12:40 19.08.2019
3416 Clouds 25 1012 78 10000 5.1 140 12:20 19.08.2019
3417 Clear 24 1013 80 0 11.48 147.086 11:40 19.08.2019
3418 Clouds 25 1011 78 10000 5.1 150 11:22 19.08.2019
3419 Clouds 25 1011 78 10000 5.1 150 10:58 19.08.2019
3420 Clear 24 1013 80 0 11.48 147.086 10:38 19.08.2019
3421 Clouds 26 1010 74 10000 11.3 150 10:18 19.08.2019
3422 Clouds 26 1010 74 10000 11.3 150 09:45 19.08.2019
3423 Clouds 28 1010 65 10000 7.7 160 09:24 19.08.2019
3424 Clouds 28 1010 65 10000 7.7 160 09:24 19.08.2019
3425 Clouds 28 1010 65 10000 7.7 160 08:59 19.08.2019
3426 Clouds 28 1010 65 10000 7.7 160 08:41 19.08.2019
3427 Clouds 28 1010 65 10000 7.7 160 08:41 19.08.2019
3428 Clouds 28 1010 65 10000 7.7 160 08:20 19.08.2019
3429 Clouds 28 1010 69 10000 7.7 160 07:50 19.08.2019
3430 Clouds 28 1010 69 10000 7.7 160 07:31 19.08.2019
3431 Clouds 29 1011 70 10000 5.1 160 06:52 19.08.2019
3432 Clouds 29 1011 70 10000 5.1 160 06:33 19.08.2019
3433 Haze 28 1012 69 10000 10.3 170 05:25 19.08.2019
3434 Haze 28 1012 69 10000 10.3 170 04:32 19.08.2019
3435 Haze 29 1013 66 10000 10.3 155 03:24 19.08.2019
3436 Clouds 28 1013 65 10000 10.3 150 02:29 19.08.2019
3437 Clouds 26 1013 78 10000 10.3 140 01:36 19.08.2019
3438 Clouds 25 1013 83 10000 10.3 150 00:44 19.08.2019
3439 Clouds 23 1012 94 10000 7.7 150 00:23 19.08.2019
3440 Clouds 23 1012 94 10000 7.7 150 23:43 18.08.2019
3441 Clouds 23 1012 94 10000 7.7 150 23:22 18.08.2019
3442 Clouds 23 1012 94 10000 7.7 150 22:57 18.08.2019
3443 Clouds 23 1012 94 10000 7.7 150 22:38 18.08.2019
3444 Clouds 23 1012 94 10000 7.7 150 22:20 18.08.2019
3445 Clouds 25 1014 82 0 10.71 129.238 21:56 18.08.2019
3446 Clouds 25 1014 82 0 10.71 129.238 21:37 18.08.2019
3447 Clouds 25 1012 82 0 11.94 126.68 21:19 18.08.2019
3448 Clouds 25 1012 82 0 11.94 126.68 20:44 18.08.2019
3449 Clouds 25 1012 82 0 11.94 126.68 20:25 18.08.2019
3450 Clouds 25 1012 82 0 11.94 126.68 19:56 18.08.2019
3451 Clouds 25 1012 82 0 11.94 126.68 19:56 18.08.2019
3452 Clouds 25 1012 82 0 11.94 126.68 19:37 18.08.2019
3453 Clouds 25 1012 82 0 11.94 126.68 19:19 18.08.2019
3454 Clouds 25 1012 82 0 11.94 126.68 18:41 18.08.2019
3455 Clouds 25 1013 83 0 12.9 131.425 18:23 18.08.2019
3456 Clouds 25 1013 83 0 12.9 131.425 17:58 18.08.2019
3457 Clouds 25 1013 83 0 12.9 131.425 17:40 18.08.2019
3458 Clouds 25 1013 83 0 12.9 131.425 17:19 18.08.2019
3459 Clouds 25 1013 83 0 12.9 131.425 16:57 18.08.2019
3460 Clouds 25 1013 83 0 12.9 131.425 16:38 18.08.2019
3461 Clouds 25 1013 83 0 12.9 131.425 16:19 18.08.2019
3462 Clouds 25 1013 83 0 12.9 131.425 15:55 18.08.2019
3463 Clouds 25 1013 83 0 12.9 131.425 15:55 18.08.2019
3464 Clouds 25 1013 83 0 12.9 131.425 15:37 18.08.2019
3465 Clouds 25 1014 83 0 13.42 134.453 15:19 18.08.2019
3466 Clouds 25 1014 83 0 13.42 134.453 14:40 18.08.2019
3467 Clouds 25 1014 83 0 13.42 134.453 14:20 18.08.2019
3468 Clouds 25 1014 83 0 13.42 134.453 13:59 18.08.2019
3469 Clouds 25 1014 83 0 13.42 134.453 13:41 18.08.2019
3470 Clouds 25 1014 83 0 13.42 134.453 13:22 18.08.2019
3471 Clouds 25 1014 83 0 13.42 134.453 12:57 18.08.2019
3472 Clouds 25 1014 83 0 13.42 134.453 12:38 18.08.2019
3473 Clouds 25 1014 83 0 13.42 134.453 12:38 18.08.2019
3474 Clear 25 1013 84 0 14.1 139.74 12:20 18.08.2019
3475 Clear 25 1013 84 0 14.1 139.74 11:42 18.08.2019
3476 Clouds 26 1010 83 10000 10.3 150 11:23 18.08.2019
3477 Clouds 26 1010 83 10000 10.3 150 10:56 18.08.2019
3478 Clouds 26 1010 83 10000 10.3 150 10:38 18.08.2019
3479 Clouds 26 1010 83 10000 10.3 150 10:18 18.08.2019
3480 Clouds 26 1010 83 10000 10.3 150 10:18 18.08.2019
3481 Clouds 27 1010 83 10000 10.3 150 09:42 18.08.2019
3482 Clouds 29 1010 74 10000 7.7 160 09:19 18.08.2019
3483 Clouds 29 1010 74 10000 7.7 160 08:43 18.08.2019
3484 Clouds 29 1010 74 10000 7.7 160 08:25 18.08.2019
3485 Clouds 30 1010 70 10000 7.7 160 07:54 18.08.2019
3486 Clouds 30 1010 70 10000 7.7 160 07:29 18.08.2019
3487 Clouds 29 1011 74 10000 7.7 160 06:32 18.08.2019
3488 Clouds 30 1011 70 10000 7.7 160 05:41 18.08.2019
3489 Clear 26 1012 84 0 12.36 151.245 03:51 18.08.2019
3490 Clouds 26 1014 80 0 9.12 139.339 02:52 18.08.2019
3491 Clouds 26 1014 80 0 9.12 139.339 02:32 18.08.2019
3492 Clouds 28 1014 74 10000 7.7 140 01:53 18.08.2019
3493 Clouds 28 1014 74 10000 7.7 140 01:25 18.08.2019
3494 Clouds 28 1014 74 10000 7.7 140 01:25 18.08.2019
3495 Clouds 26 1014 81 0 9.71 137.278 00:40 18.08.2019
3496 Clouds 23 1012 94 10000 5.1 140 00:19 18.08.2019
3497 Clouds 23 1012 94 10000 5.1 140 23:57 17.08.2019
3498 Clouds 23 1012 94 10000 5.1 140 23:37 17.08.2019
3499 Clouds 23 1012 94 10000 5.1 140 23:19 17.08.2019
3500 Clouds 23 1012 94 10000 5.1 140 23:19 17.08.2019
3501 Clouds 22 1012 100 10000 2.6 150 22:56 17.08.2019
3502 Clouds 22 1012 100 10000 2.6 150 22:56 17.08.2019
3503 Clouds 22 1012 100 10000 2.6 150 22:38 17.08.2019
3504 Clouds 22 1012 100 10000 2.6 150 22:20 17.08.2019
3505 Clouds 23 1012 94 10000 3.6 150 21:43 17.08.2019
3506 Clouds 23 1012 94 10000 8.86 126.446 21:24 17.08.2019
3507 Clouds 23 1012 94 10000 8.86 126.446 20:58 17.08.2019
3508 Rain 25 1012 86 0 8.86 126.446 20:37 17.08.2019
3509 Clouds 23 1012 94 10000 3.6 160 20:18 17.08.2019
3510 Clouds 23 1012 94 10000 3.6 160 19:43 17.08.2019
3511 Clouds 23 1012 94 10000 3.6 160 19:43 17.08.2019
3512 Clouds 23 1012 94 10000 3.6 160 19:24 17.08.2019
3513 Clouds 23 1012 94 10000 3.6 160 19:24 17.08.2019
3514 Clouds 24 1012 94 10000 3.6 140 18:55 17.08.2019
3515 Rain 25 1012 86 0 8.86 126.446 18:37 17.08.2019
3516 Clouds 25 1013 87 0 10.17 130.574 18:18 17.08.2019
3517 Clouds 25 1013 87 0 10.17 130.574 17:42 17.08.2019
3518 Clouds 25 1013 87 0 10.17 130.574 17:22 17.08.2019
3519 Clouds 25 1013 87 0 10.17 130.574 16:56 17.08.2019
3520 Clouds 25 1013 87 0 10.17 130.574 16:38 17.08.2019
3521 Clouds 25 1013 87 0 10.17 130.574 16:19 17.08.2019
3522 Clouds 25 1013 87 0 10.17 130.574 15:42 17.08.2019
3523 Rain 26 1014 86 0 11.04 136.604 15:22 17.08.2019
3524 Rain 26 1014 86 0 11.04 136.604 14:58 17.08.2019
3525 Rain 26 1014 86 0 11.04 136.604 14:39 17.08.2019
3526 Rain 26 1014 86 0 11.04 136.604 14:21 17.08.2019
3527 Rain 26 1014 86 0 11.04 136.604 13:45 17.08.2019
3528 Rain 26 1014 86 0 11.04 136.604 13:45 17.08.2019
3529 Clear 26 1014 86 0 11.62 132.802 13:20 17.08.2019
3530 Clear 26 1014 86 0 11.62 132.802 12:45 17.08.2019
3531 Clear 26 1012 84 0 12.4 141.687 12:20 17.08.2019
3532 Clear 26 1012 84 0 12.4 141.687 11:58 17.08.2019
3533 Clear 26 1012 84 0 12.4 141.687 11:39 17.08.2019
3534 Clear 26 1012 84 0 12.4 141.687 11:20 17.08.2019
3535 Clear 26 1012 84 0 12.4 141.687 10:42 17.08.2019
3536 Clear 26 1012 84 0 12.4 141.687 10:21 17.08.2019
3537 Haze 27 1010 83 10000 12.9 150 09:57 17.08.2019
3538 Haze 27 1010 83 10000 12.9 150 09:37 17.08.2019
3539 Haze 27 1010 83 10000 12.9 150 09:18 17.08.2019
3540 Haze 27 1009 83 10000 10.3 150 08:46 17.08.2019
3541 Haze 27 1009 83 10000 10.3 150 08:20 17.08.2019
3542 Haze 29 1009 74 10000 10.3 150 07:42 17.08.2019
3543 Haze 29 1009 74 10000 10.3 150 07:20 17.08.2019
3544 Haze 30 1009 70 10000 10.3 150 06:21 17.08.2019
3545 Haze 30 1011 66 10000 4.1 200 04:32 17.08.2019
3546 Haze 30 1011 66 10000 4.1 200 04:32 17.08.2019
3547 Haze 28 1012 74 10000 4.1 160 03:51 17.08.2019
3548 Haze 28 1012 78 10000 4.1 160 02:38 17.08.2019
3549 Haze 26 1013 83 10000 3.1 150 01:38 17.08.2019
3550 Haze 26 1013 83 10000 3.1 150 01:19 17.08.2019
3551 Haze 26 1013 83 10000 3.1 150 01:19 17.08.2019
3552 Haze 26 1013 83 10000 2.6 160 00:45 17.08.2019
3553 Clouds 25 1014 86 0 8.15 122.604 00:18 17.08.2019
3554 Clouds 25 1014 86 0 8.15 122.604 23:39 16.08.2019
3555 Clouds 23 1012 94 10000 1 0 23:21 16.08.2019
3556 Clouds 23 1012 94 10000 1 0 22:42 16.08.2019
3557 Clouds 24 1011 94 10000 1.5 0 22:20 16.08.2019
3558 Clouds 24 1011 94 10000 1.5 0 21:56 16.08.2019
3559 Clouds 24 1011 94 10000 1.5 0 21:38 16.08.2019
3560 Clouds 24 1011 94 10000 1.5 0 21:18 16.08.2019
3561 Clouds 25 1012 86 0 9.42 124.23 20:41 16.08.2019
3562 Clouds 25 1011 88 10000 1.5 0 20:19 16.08.2019
3563 Clouds 25 1011 88 10000 1.5 0 19:55 16.08.2019
3564 Clouds 25 1011 88 10000 1.5 0 19:37 16.08.2019
3565 Clouds 25 1011 88 10000 1.5 0 19:19 16.08.2019
3566 Clouds 24 1011 94 10000 2.6 140 18:41 16.08.2019
3567 Clouds 24 1011 94 10000 2.6 140 18:22 16.08.2019
3568 Clouds 25 1012 88 10000 5.1 130 17:45 16.08.2019
3569 Clouds 25 1012 88 10000 5.1 130 17:25 16.08.2019
3570 Clouds 25 1013 86 0 10.21 129.003 16:56 16.08.2019
3571 Clouds 25 1013 86 0 10.21 129.003 16:38 16.08.2019
3572 Clouds 25 1013 86 0 10.21 129.003 16:18 16.08.2019
3573 Clouds 25 1013 86 0 10.21 129.003 15:55 16.08.2019
3574 Clouds 25 1013 86 0 10.21 129.003 15:37 16.08.2019
3575 Clouds 26 1014 86 0 11.88 134.277 15:19 16.08.2019
3576 Clouds 26 1014 86 0 11.88 134.277 14:42 16.08.2019
3577 Clouds 26 1014 86 0 11.88 134.277 14:19 16.08.2019
3578 Clouds 26 1014 86 0 11.88 134.277 14:19 16.08.2019
3579 Clouds 26 1014 86 0 11.88 134.277 13:59 16.08.2019
3580 Clouds 26 1014 86 0 11.88 134.277 13:38 16.08.2019
3581 Clouds 26 1014 85 0 12.05 133.497 13:20 16.08.2019
3582 Clouds 26 1014 85 0 12.05 133.497 12:39 16.08.2019
3583 Clouds 26 1012 85 0 12.51 139.949 12:20 16.08.2019
3584 Clouds 26 1012 85 0 12.51 139.949 11:43 16.08.2019
3585 Clouds 26 1010 88 10000 7.7 150 11:24 16.08.2019
3586 Clouds 26 1010 88 10000 7.7 150 10:58 16.08.2019
3587 Clouds 26 1010 88 10000 7.7 150 10:40 16.08.2019
3588 Clouds 26 1010 88 10000 7.7 150 10:18 16.08.2019
3589 Haze 29 1010 74 10000 7.7 150 09:38 16.08.2019
3590 Haze 29 1010 74 10000 7.7 150 09:19 16.08.2019
3591 Haze 29 1010 74 10000 7.7 160 08:56 16.08.2019
3592 Haze 29 1010 74 10000 7.7 160 08:38 16.08.2019
3593 Haze 29 1010 74 10000 7.7 160 08:19 16.08.2019
3594 Clouds 26 1011 86 0 13.53 146.061 07:44 16.08.2019
3595 Haze 30 1010 74 10000 7.7 160 07:25 16.08.2019
3596 Clouds 26 1011 86 0 13.53 146.061 06:38 16.08.2019
3597 Haze 31 1011 70 10000 7.2 160 05:58 16.08.2019
3598 Clouds 26 1012 85 0 10.44 147.714 05:33 16.08.2019
3599 Clouds 29 1013 74 10000 2.6 130 03:19 16.08.2019
3600 Clouds 25 1014 85 0 5.93 134.228 01:45 16.08.2019
3601 Clouds 27 1013 83 10000 5.1 130 01:25 16.08.2019
3602 Clouds 27 1013 83 10000 5.1 130 00:48 16.08.2019
3603 Clouds 27 1013 83 10000 5.1 130 00:22 16.08.2019
3604 Clouds 25 1012 88 10000 2.6 130 23:46 15.08.2019
3605 Clouds 25 1012 88 10000 2.6 130 23:25 15.08.2019
3606 Clouds 24 1012 94 10000 2.6 130 22:59 15.08.2019
3607 Clouds 24 1012 94 10000 2.6 130 22:41 15.08.2019
3608 Clouds 24 1012 94 10000 2.6 130 22:21 15.08.2019
3609 Clouds 25 1014 88 0 6.23 114.091 21:56 15.08.2019
3610 Clouds 25 1014 88 0 6.21 115.286 21:38 15.08.2019
3611 Clouds 25 1012 88 0 7.22 120.922 21:19 15.08.2019
3612 Clouds 25 1012 88 0 7.22 120.922 20:45 15.08.2019
3613 Clouds 25 1012 88 0 7.22 120.922 20:22 15.08.2019
3614 Clouds 25 1012 88 0 7.22 120.922 19:59 15.08.2019
3615 Clouds 25 1012 88 0 7.22 120.922 19:39 15.08.2019
3616 Clouds 25 1012 88 0 7.22 120.922 19:21 15.08.2019
3617 Clouds 25 1012 88 0 7.22 120.922 18:48 15.08.2019
3618 Clouds 25 1013 87 0 10.02 130.497 18:24 15.08.2019
3619 Clouds 25 1013 87 0 10.02 130.497 17:58 15.08.2019
3620 Clouds 25 1013 87 0 10.02 130.497 17:38 15.08.2019
3621 Clouds 25 1013 94 10000 5.1 150 17:20 15.08.2019
3622 Clouds 25 1013 94 10000 5.1 150 16:58 15.08.2019
3623 Clouds 25 1013 94 10000 5.1 150 16:40 15.08.2019
3624 Clouds 25 1013 94 10000 5.1 150 16:21 15.08.2019
3625 Clouds 25 1013 87 0 10.02 130.497 15:39 15.08.2019
3626 Clouds 26 1013 88 10000 5.1 150 15:20 15.08.2019
3627 Clouds 26 1013 88 10000 5.1 150 14:56 15.08.2019
3628 Clouds 26 1014 87 0 11.79 137.254 14:37 15.08.2019
3629 Clouds 26 1014 88 10000 5.1 150 14:18 15.08.2019
3630 Clouds 26 1014 88 10000 5.1 150 13:55 15.08.2019
3631 Clouds 26 1014 87 0 11.79 137.254 13:37 15.08.2019
3632 Clouds 26 1013 88 10000 6.7 150 13:19 15.08.2019
3633 Clouds 26 1013 88 10000 6.7 150 13:19 15.08.2019
3634 Clouds 25 1014 87 0 11.68 137.293 12:40 15.08.2019
3635 Clouds 26 1012 88 10000 6.7 150 12:20 15.08.2019
3636 Clouds 26 1012 88 10000 6.7 150 11:58 15.08.2019
3637 Clouds 26 1012 88 10000 6.7 150 11:38 15.08.2019
3638 Clouds 26 1012 88 10000 6.7 150 11:19 15.08.2019
3639 Clouds 27 1011 83 10000 8.2 150 10:58 15.08.2019
3640 Clouds 25 1013 87 0 12.12 141.769 10:37 15.08.2019
3641 Clouds 25 1013 87 0 12.12 141.769 10:37 15.08.2019
3642 Clouds 28 1011 78 10000 7.7 150 10:18 15.08.2019
3643 Clouds 28 1011 78 10000 7.7 150 09:43 15.08.2019
3644 Clouds 28 1011 78 10000 7.7 150 09:22 15.08.2019
3645 Clear 25 1011 87 0 11.74 150.539 08:39 15.08.2019
3646 Clouds 29 1011 79 10000 10.3 140 08:21 15.08.2019
3647 Clouds 29 1011 79 10000 10.3 140 07:56 15.08.2019
3648 Clouds 29 1011 79 10000 10.3 140 07:38 15.08.2019
3649 Clouds 29 1011 79 10000 10.3 140 07:20 15.08.2019
3650 Clouds 29 1011 79 10000 7.7 150 06:47 15.08.2019
3651 Clouds 29 1011 79 10000 7.7 150 06:25 15.08.2019
3652 Clouds 30 1012 70 10000 5.1 170 05:30 15.08.2019
3653 Clouds 30 1013 70 10000 6.2 150 04:57 15.08.2019
3654 Clouds 29 1014 70 10000 6.2 150 03:53 15.08.2019
3655 Clouds 29 1014 70 10000 6.2 150 03:18 15.08.2019
3656 Clouds 29 1015 70 10000 5.1 170 02:25 15.08.2019
3657 Clear 25 1016 83 0 4.61 135.501 01:39 15.08.2019
3658 Clouds 26 1015 88 10000 1.5 0 00:55 15.08.2019
3659 Clouds 26 1015 88 10000 1.5 0 00:36 15.08.2019
3660 Clouds 26 1015 88 10000 1.5 0 00:18 15.08.2019
3661 Clouds 24 1014 100 10000 1.5 0 23:54 14.08.2019
3662 Clouds 24 1014 100 10000 1.5 0 23:36 14.08.2019
3663 Clouds 24 1014 100 10000 1.5 0 23:18 14.08.2019
3664 Clouds 24 1013 94 10000 1.5 0 22:41 14.08.2019
3665 Clouds 24 1013 94 10000 1.5 0 22:22 14.08.2019
3666 Clouds 24 1013 94 10000 5.1 120 21:57 14.08.2019
3667 Clear 24 1015 84 0 3.16 94.541 21:38 14.08.2019
3668 Clear 25 1013 88 0 6.31 114.222 21:20 14.08.2019
3669 Clear 25 1013 88 0 6.31 114.222 20:56 14.08.2019
3670 Clear 25 1013 88 0 6.31 114.222 20:37 14.08.2019
3671 Clear 25 1013 88 0 6.31 114.222 20:18 14.08.2019
3672 Clear 25 1013 88 0 6.31 114.222 19:40 14.08.2019
3673 Clear 25 1013 88 0 6.31 114.222 19:22 14.08.2019
3674 Clear 25 1013 88 0 6.31 114.222 18:57 14.08.2019
3675 Clear 25 1013 88 0 6.31 114.222 18:39 14.08.2019
3676 Clouds 24 1013 94 10000 5.1 160 18:20 14.08.2019
3677 Clouds 24 1013 94 10000 5.1 160 17:59 14.08.2019
3678 Clouds 25 1014 88 0 7.75 128.452 17:37 14.08.2019
3679 Clouds 25 1014 88 0 7.75 128.452 17:37 14.08.2019
3680 Clouds 25 1013 88 10000 5.1 160 17:19 14.08.2019
3681 Clouds 25 1013 88 10000 5.1 160 16:55 14.08.2019
3682 Clouds 25 1013 88 10000 5.1 160 16:36 14.08.2019
3683 Clouds 25 1013 88 10000 5.1 160 16:18 14.08.2019
3684 Clouds 25 1014 94 10000 5.1 160 15:42 14.08.2019
3685 Clouds 25 1013 94 10000 5.1 150 15:18 14.08.2019
3686 Clouds 25 1013 94 10000 5.1 150 14:54 14.08.2019
3687 Clouds 25 1015 88 0 10.84 130.508 14:36 14.08.2019
3688 Clouds 25 1015 88 0 10.84 130.508 14:18 14.08.2019
3689 Clouds 25 1015 88 0 10.84 130.508 13:43 14.08.2019
3690 Clouds 25 1015 88 0 10.76 131.458 13:23 14.08.2019
3691 Clouds 25 1015 88 0 10.76 131.458 12:56 14.08.2019
3692 Clouds 25 1015 88 0 10.76 131.458 12:38 14.08.2019
3693 Clouds 26 1012 88 10000 5.1 150 12:20 14.08.2019
3694 Clouds 26 1012 88 10000 5.1 150 11:48 14.08.2019
3695 Clouds 26 1012 88 10000 5.1 150 11:23 14.08.2019
3696 Clouds 26 1012 88 10000 5.1 150 11:23 14.08.2019
3697 Clouds 27 1012 83 10000 10.3 160 10:59 14.08.2019
3698 Clouds 27 1012 83 10000 10.3 160 10:40 14.08.2019
3699 Clouds 27 1012 83 10000 10.3 160 10:22 14.08.2019
3700 Rain 28 1011 78 10000 9.3 160 09:45 14.08.2019
3701 Rain 28 1011 78 10000 9.3 160 09:22 14.08.2019
3702 Clear 26 1012 84 0 11.74 145.518 08:52 14.08.2019
3703 Clear 26 1012 84 0 11.74 145.518 08:34 14.08.2019
3704 Clear 26 1012 84 0 11.74 145.518 07:58 14.08.2019
3705 Clear 26 1012 84 0 11.74 145.518 07:39 14.08.2019
3706 Clouds 31 1011 66 10000 4.1 150 07:21 14.08.2019
3707 Clouds 31 1011 66 10000 4.1 150 06:43 14.08.2019
3708 Clouds 30 1012 66 10000 4.1 150 05:47 14.08.2019
3709 Clouds 30 1013 70 10000 2.6 140 04:45 14.08.2019
3710 Clouds 27 1015 78 10000 3.6 140 02:52 14.08.2019
3711 Clouds 27 1015 78 10000 3.6 140 02:25 14.08.2019
3712 Clouds 26 1015 83 10000 2.6 130 01:34 14.08.2019
3713 Clouds 25 1015 88 10000 3.6 130 00:48 14.08.2019
3714 Clouds 25 1014 88 10000 3.6 130 23:47 13.08.2019
3715 Clouds 25 1014 88 10000 3.6 130 23:21 13.08.2019
3716 Clouds 24 1013 94 10000 3.6 130 22:57 13.08.2019
3717 Rain 25 1015 86 0 10.84 131.986 22:39 13.08.2019
3718 Clouds 24 1012 94 10000 7.7 140 22:20 13.08.2019
3719 Clouds 24 1012 94 10000 7.7 140 21:56 13.08.2019
3720 Rain 25 1015 86 0 10.84 131.986 21:37 13.08.2019
3721 Clouds 24 1011 88 10000 5.1 140 21:18 13.08.2019
3722 Clouds 24 1011 88 10000 5.1 140 20:44 13.08.2019
3723 Clouds 24 1011 88 10000 5.1 140 20:20 13.08.2019
3724 Rain 24 1015 85 0 11.01 126.6 19:58 13.08.2019
3725 Rain 24 1015 85 0 11.01 126.6 19:40 13.08.2019
3726 Rain 24 1015 85 0 11.01 126.6 19:21 13.08.2019
3727 Rain 24 1015 85 0 11.01 126.6 18:42 13.08.2019
3728 Rain 24 1015 85 0 11.94 134.644 18:22 13.08.2019
3729 Rain 24 1015 85 0 11.94 134.644 17:58 13.08.2019
3730 Rain 24 1015 85 0 11.94 134.644 17:39 13.08.2019
3731 Rain 24 1015 85 0 11.94 134.644 17:19 13.08.2019
3732 Rain 24 1015 85 0 11.94 134.644 17:19 13.08.2019
3733 Rain 24 1015 85 0 11.94 134.644 16:56 13.08.2019
3734 Rain 24 1015 85 0 11.94 134.644 16:56 13.08.2019
3735 Rain 24 1015 85 0 11.94 134.644 16:56 13.08.2019
3736 Rain 24 1015 85 0 11.94 134.644 16:37 13.08.2019
3737 Rain 24 1015 85 0 11.94 134.644 16:18 13.08.2019
3738 Rain 24 1015 85 0 11.94 134.644 15:38 13.08.2019
3739 Rain 24 1017 86 0 12.02 127.797 15:20 13.08.2019
3740 Rain 24 1017 86 0 12.02 127.797 14:55 13.08.2019
3741 Rain 24 1017 86 0 12.02 127.797 14:37 13.08.2019
3742 Clouds 24 1015 94 10000 10.3 150 14:18 13.08.2019
3743 Rain 24 1017 86 0 12.02 127.797 13:41 13.08.2019
3744 Rain 25 1017 84 0 11.94 129.176 13:21 13.08.2019
3745 Rain 25 1017 84 0 11.94 129.176 13:21 13.08.2019
3746 Rain 25 1017 84 0 11.94 129.176 12:57 13.08.2019
3747 Rain 25 1017 84 0 11.94 129.176 12:39 13.08.2019
3748 Rain 25 1015 87 0 12.65 139.507 12:21 13.08.2019
3749 Rain 25 1015 87 0 12.65 139.507 11:44 13.08.2019
3750 Rain 23 1013 100 0 7.7 150 11:23 13.08.2019
3751 Rain 23 1013 100 0 7.7 150 10:59 13.08.2019
3752 Rain 25 1015 87 0 12.65 139.507 10:39 13.08.2019
3753 Rain 24 1012 100 0 7.7 150 10:20 13.08.2019
3754 Rain 24 1012 100 0 7.7 150 09:59 13.08.2019
3755 Rain 24 1012 100 0 7.7 150 09:40 13.08.2019
3756 Rain 24 1012 100 0 7.7 150 09:22 13.08.2019
3757 Rain 27 1011 83 0 7.7 160 08:42 13.08.2019
3758 Rain 27 1011 83 0 7.7 160 08:22 13.08.2019
3759 Clouds 27 1011 83 10000 7.7 160 07:51 13.08.2019
3760 Clouds 27 1011 83 10000 7.7 160 07:31 13.08.2019
3761 Clouds 27 1011 83 10000 5.1 150 06:45 13.08.2019
3762 Clouds 27 1011 83 10000 5.1 150 06:19 13.08.2019
3763 Rain 25 1014 86 0 11.23 149.796 05:32 13.08.2019
3764 Clouds 26 1015 88 10000 5.1 150 02:32 13.08.2019
3765 Clouds 26 1015 88 10000 7.7 150 01:46 13.08.2019
3766 Clouds 24 1014 94 10000 7.7 160 00:52 13.08.2019
3767 Clouds 24 1014 94 10000 7.7 160 00:22 13.08.2019
3768 Clouds 24 1014 94 10000 7.7 150 23:47 12.08.2019
3769 Clouds 24 1014 94 10000 7.7 150 23:21 12.08.2019
3770 Haze 24 1014 94 10000 7.7 140 22:56 12.08.2019
3771 Rain 24 1015 89 0 9.91 136.811 22:38 12.08.2019
3772 Clouds 24 1013 94 0 5.1 160 22:18 12.08.2019
3773 Clouds 24 1013 94 0 5.1 160 21:54 12.08.2019
3774 Rain 24 1015 89 0 9.91 136.811 21:36 12.08.2019
3775 Rain 24 1013 90 0 8.37 132.582 21:18 12.08.2019
3776 Rain 24 1013 90 0 8.37 132.582 20:41 12.08.2019
3777 Rain 24 1013 90 0 8.37 132.582 20:21 12.08.2019
3778 Rain 24 1013 90 0 8.37 132.582 19:58 12.08.2019
3779 Rain 24 1013 90 0 8.37 132.582 19:39 12.08.2019
3780 Rain 24 1013 90 0 8.37 132.582 19:21 12.08.2019
3781 Rain 24 1013 90 0 8.37 132.582 18:59 12.08.2019
3782 Rain 24 1013 90 0 8.37 132.582 18:39 12.08.2019
3783 Rain 24 1015 88 0 9.21 133.891 18:20 12.08.2019
3784 Rain 24 1015 88 0 9.21 133.891 17:56 12.08.2019
3785 Rain 24 1015 88 0 9.21 133.891 17:38 12.08.2019
3786 Clouds 24 1014 94 10000 6.7 140 17:20 12.08.2019
3787 Clouds 24 1014 94 10000 6.7 140 16:41 12.08.2019
3788 Clouds 24 1014 94 10000 6.7 140 16:20 12.08.2019
3789 Clouds 24 1015 94 10000 5.1 140 15:59 12.08.2019
3790 Clouds 24 1015 94 10000 5.1 140 15:59 12.08.2019
3791 Clouds 24 1015 94 10000 5.1 140 15:41 12.08.2019
3792 Clouds 24 1015 94 10000 5.1 140 15:22 12.08.2019
3793 Clouds 24 1015 94 10000 9.3 150 14:58 12.08.2019
3794 Clouds 24 1015 94 10000 9.3 150 14:58 12.08.2019
3795 Clouds 24 1016 88 0 9.67 135.935 14:39 12.08.2019
3796 Clouds 24 1016 88 0 9.67 135.935 14:39 12.08.2019
3797 Clouds 24 1016 88 0 9.67 135.935 14:20 12.08.2019
3798 Clouds 24 1016 88 0 9.67 135.935 13:54 12.08.2019
3799 Clouds 24 1016 88 0 9.67 135.935 13:36 12.08.2019
3800 Clouds 25 1013 88 10000 9.3 150 13:18 12.08.2019
3801 Clouds 25 1013 88 10000 9.3 150 12:41 12.08.2019
3802 Clouds 25 1013 88 10000 9.3 150 12:19 12.08.2019
3803 -273 0 0 0 0 0 11:44 12.08.2019
3804 Clouds 25 1013 88 10000 9.3 150 11:43 12.08.2019
3805 Haze 25 1012 88 10000 7.7 150 11:25 12.08.2019
3806 Haze 25 1012 88 10000 7.7 150 10:43 12.08.2019
3807 Haze 25 1012 88 10000 7.7 150 10:24 12.08.2019
3808 Haze 26 1012 83 10000 7.7 160 09:57 12.08.2019
3809 Haze 26 1012 83 10000 7.7 160 09:38 12.08.2019
3810 Haze 26 1012 83 10000 7.7 160 09:20 12.08.2019
3811 Haze 28 1011 74 10000 12.9 160 08:58 12.08.2019
3812 Haze 28 1011 74 10000 12.9 160 08:39 12.08.2019
3813 Haze 28 1011 74 10000 12.9 160 08:20 12.08.2019
3814 Haze 28 1011 74 10000 12.9 160 08:20 12.08.2019
3815 Haze 27 1011 83 10000 12.9 160 07:52 12.08.2019
3816 Haze 27 1011 83 10000 12.9 160 07:28 12.08.2019
3817 Clouds 27 1012 83 10000 10.3 150 06:52 12.08.2019
3818 Rain 27 1013 83 10000 10.3 150 05:40 12.08.2019
3819 Rain 24 1016 88 0 8.18 137.106 02:44 12.08.2019
3820 Clouds 25 1015 94 10000 1.5 0 01:55 12.08.2019
3821 Clouds 25 1015 94 10000 1.5 0 01:22 12.08.2019
3822 Clouds 24 1014 94 10000 1.5 0 00:58 12.08.2019
3823 Clouds 24 1014 94 10000 1.5 0 00:39 12.08.2019
3824 Clouds 24 1014 94 10000 1.5 0 00:20 12.08.2019
3825 Clouds 23 1013 100 10000 1.5 0 23:55 11.08.2019
3826 Clouds 23 1013 100 10000 1.5 0 23:37 11.08.2019
3827 Clouds 23 1013 100 10000 1.5 0 23:18 11.08.2019
3828 Rain 24 1014 88 0 7.89 132.972 22:40 11.08.2019
3829 Clouds 23 1011 100 10000 1.5 0 22:20 11.08.2019
3830 Clouds 23 1011 100 10000 1.5 0 21:59 11.08.2019
3831 Rain 24 1014 88 0 7.89 132.972 21:41 11.08.2019
3832 Clouds 23 1011 100 10000 1.5 0 21:21 11.08.2019
3833 Clouds 23 1011 100 10000 1.5 0 20:57 11.08.2019
3834 Clouds 23 1011 100 10000 1.5 0 20:57 11.08.2019
3835 Rain 24 1012 86 0 7.1 135.285 20:39 11.08.2019
3836 Rain 24 1012 86 0 7.1 135.285 20:20 11.08.2019
3837 Rain 24 1012 86 0 7.1 135.285 19:43 11.08.2019
3838 Clouds 23 1011 100 10000 1 0 19:19 11.08.2019
3839 Clouds 23 1011 100 10000 1 0 18:41 11.08.2019
3840 Rain 24 1014 91 0 8.17 145.659 18:22 11.08.2019
3841 Rain 24 1014 91 0 8.17 145.659 17:59 11.08.2019
3842 Rain 24 1014 91 0 8.17 145.659 17:40 11.08.2019
3843 Clouds 23 1013 100 10000 1.5 230 17:20 11.08.2019
3844 Clouds 23 1013 100 10000 1.5 230 16:56 11.08.2019
3845 Rain 24 1014 91 0 8.17 145.659 16:38 11.08.2019
3846 Rain 23 1014 100 10000 1.5 230 16:18 11.08.2019
3847 Rain 23 1014 100 10000 1.5 230 15:43 11.08.2019
3848 Rain 23 1014 100 10000 1.5 230 15:24 11.08.2019
3849 Clouds 23 1014 100 10000 1.5 170 14:59 11.08.2019
3850 Clouds 23 1014 100 10000 1.5 170 14:39 11.08.2019
3851 Clouds 23 1014 100 10000 1.5 170 14:19 11.08.2019
3852 Clouds 23 1014 100 10000 1.5 170 13:44 11.08.2019
3853 Clouds 23 1014 100 10000 1.5 170 13:25 11.08.2019
3854 Rain 24 1015 87 0 8.96 140.776 12:49 11.08.2019
3855 Clouds 23 1012 100 10000 1.5 120 12:25 11.08.2019
3856 Clouds 23 1012 100 10000 1.5 120 11:57 11.08.2019
3857 Clouds 23 1012 100 10000 1.5 120 11:39 11.08.2019
3858 Clouds 23 1012 100 10000 1.5 120 11:20 11.08.2019
3859 Clouds 24 1011 94 10000 4.1 100 10:55 11.08.2019
3860 Clouds 24 1011 94 10000 4.1 100 10:36 11.08.2019
3861 Clouds 24 1011 94 10000 4.1 100 10:18 11.08.2019
3862 Clouds 24 1011 94 10000 4.1 100 10:18 11.08.2019
3863 Clouds 24 1011 94 10000 12.9 150 09:40 11.08.2019
3864 Clouds 24 1011 94 10000 12.9 150 09:22 11.08.2019
3865 Clouds 24 1011 94 10000 12.9 150 08:48 11.08.2019
3866 Clouds 24 1011 94 10000 12.9 150 08:28 11.08.2019
3867 Clouds 24 1011 94 7000 12.9 150 07:56 11.08.2019
3868 Rain 24 1011 87 0 9.23 155.886 07:26 11.08.2019
3869 Clouds 25 1011 94 10000 12.9 150 06:45 11.08.2019
3870 Clouds 27 1012 88 10000 6.2 150 05:58 11.08.2019
3871 Clouds 26 1013 94 10000 2.6 240 03:56 11.08.2019
3872 Clouds 25 1014 94 10000 2.6 240 02:49 11.08.2019
3873 Clouds 25 1014 94 10000 3.6 350 01:51 11.08.2019
3874 Clouds 25 1014 94 10000 3.6 350 01:20 11.08.2019
3875 Clouds 25 1014 94 10000 2.1 0 00:48 11.08.2019
3876 Clouds 25 1014 94 10000 2.1 0 00:28 11.08.2019
3877 Clouds 24 1013 100 10000 1.5 0 23:47 10.08.2019
3878 Clouds 23 1012 100 10000 1.5 0 23:28 10.08.2019
3879 Clouds 23 1012 100 10000 1.5 0 22:44 10.08.2019
3880 Clouds 23 1012 100 10000 1.5 0 22:44 10.08.2019
3881 Clouds 23 1012 100 10000 1.5 0 22:26 10.08.2019
3882 Clouds 24 1012 94 10000 2.6 330 21:58 10.08.2019
3883 Rain 25 1014 89 0 4.28 116.888 21:38 10.08.2019
3884 Rain 24 1012 94 10000 2.6 320 21:20 10.08.2019
3885 Rain 25 1012 89 0 6 130.71 20:56 10.08.2019
3886 Rain 25 1012 89 0 6 130.71 20:37 10.08.2019
3887 Clouds 24 1012 94 10000 1.5 0 20:18 10.08.2019
3888 Rain 25 1012 89 0 6 130.71 19:39 10.08.2019
3889 Rain 25 1012 89 0 6 130.71 19:21 10.08.2019
3890 Rain 25 1012 89 0 6 130.71 18:41 10.08.2019
3891 Rain 26 1013 86 0 4.82 133.52 18:23 10.08.2019
3892 Rain 26 1013 86 0 4.82 133.52 17:46 10.08.2019
3893 Rain 26 1013 86 0 4.82 133.52 17:25 10.08.2019
3894 Rain 26 1013 86 0 4.82 133.52 16:48 10.08.2019
3895 Rain 26 1013 86 0 4.82 133.52 16:29 10.08.2019
3896 Rain 26 1013 86 0 4.82 133.52 15:59 10.08.2019
3897 Rain 26 1013 86 0 4.82 133.52 15:40 10.08.2019
3898 Rain 26 1013 87 0 5.3 138.636 15:21 10.08.2019
3899 Rain 26 1013 87 0 5.3 138.636 15:21 10.08.2019
3900 Rain 26 1013 87 0 5.3 138.636 14:43 10.08.2019
3901 Rain 26 1013 87 0 5.3 138.636 14:18 10.08.2019
3902 Rain 26 1013 87 0 5.3 138.636 13:39 10.08.2019
3903 Rain 25 1014 88 0 6.07 128.641 13:19 10.08.2019
3904 Rain 25 1014 88 0 6.07 128.641 12:42 10.08.2019
3905 Clouds 26 1011 94 10000 3.6 170 12:22 10.08.2019
3906 Clouds 26 1011 94 10000 3.6 170 11:57 10.08.2019
3907 Clouds 26 1011 94 10000 3.6 170 11:39 10.08.2019
3908 Clouds 26 1011 94 10000 3.6 170 11:20 10.08.2019
3909 Clouds 26 1011 94 10000 5.1 140 10:39 10.08.2019
3910 Clouds 26 1011 94 10000 5.1 140 10:20 10.08.2019
3911 Clouds 26 1010 94 10000 7.7 160 09:59 10.08.2019
3912 Rain 26 1012 85 0 5.92 157.309 09:38 10.08.2019
3913 Clouds 28 1009 83 10000 7.7 140 09:20 10.08.2019
3914 Clouds 26 1009 85 0 3.04 174.821 08:38 10.08.2019
3915 Clouds 30 1009 74 10000 7.7 180 08:19 10.08.2019
3916 Clouds 30 1009 74 10000 7.7 180 07:51 10.08.2019
3917 Clouds 30 1009 74 10000 7.7 180 07:27 10.08.2019
3918 Clouds 30 1009 74 10000 6.2 150 06:48 10.08.2019
3919 Clouds 29 1010 79 10000 6.2 130 06:21 10.08.2019
3920 Clouds 29 1010 79 10000 6.2 130 05:22 10.08.2019
3921 Clouds 30 1011 74 10000 4.6 160 04:18 10.08.2019
3922 Clouds 28 1012 78 10000 1.5 0 02:52 10.08.2019
3923 Clouds 27 1012 83 10000 1.5 0 01:57 10.08.2019
3924 Clouds 27 1012 83 10000 1.5 0 01:57 10.08.2019
3925 Clouds 27 1012 83 10000 1.5 0 01:37 10.08.2019
3926 Clouds 27 1012 83 10000 1.5 0 01:19 10.08.2019
3927 Clouds 25 1012 94 10000 1 0 00:43 10.08.2019
3928 Clouds 25 1012 94 10000 1 0 00:20 10.08.2019
3929 Clouds 24 1013 90 0 2.63 8.17 23:41 09.08.2019
3930 Clouds 24 1011 94 10000 1 0 23:22 09.08.2019
3931 Clouds 24 1011 94 10000 1 0 22:56 09.08.2019
3932 Clouds 24 1011 94 10000 1 0 22:37 09.08.2019
3933 Clouds 24 1011 94 10000 1 0 22:19 09.08.2019
3934 Clouds 24 1013 90 0 2.63 8.17 21:41 09.08.2019
3935 Rain 25 1011 90 0 2.44 359.671 21:22 09.08.2019
3936 Rain 25 1011 90 0 2.44 359.671 20:58 09.08.2019
3937 Rain 24 1011 90 0 2.01 7.157 20:39 09.08.2019
3938 Rain 24 1011 90 0 2.01 7.157 20:39 09.08.2019
3939 Rain 24 1011 90 0 2.01 7.157 20:20 09.08.2019
3940 Rain 24 1011 90 0 2.01 7.157 19:44 09.08.2019
3941 Rain 24 1011 90 0 2.01 7.157 19:23 09.08.2019
3942 Rain 24 1011 90 0 2.01 7.157 18:59 09.08.2019
3943 Rain 24 1011 90 0 2.01 7.157 18:39 09.08.2019
3944 Clouds 24 1010 100 10000 1.5 0 18:20 09.08.2019
3945 Clouds 24 1010 100 10000 1.5 0 17:45 09.08.2019
3946 Clouds 25 1012 94 10000 1.5 0 17:25 09.08.2019
3947 -273 0 0 0 0 0 16:56 09.08.2019
3948 Clouds 25 1012 94 10000 1.5 0 16:37 09.08.2019
3949 Clouds 25 1012 94 10000 1.5 0 16:18 09.08.2019
3950 -273 0 0 0 0 0 15:42 09.08.2019
3951 Clouds 25 1012 94 10000 1.5 0 15:42 09.08.2019
3952 Rain 25 1013 89 0 3.7 131.61 15:22 09.08.2019
3953 Rain 25 1013 89 0 3.7 131.61 14:58 09.08.2019
3954 Rain 25 1013 89 0 3.7 131.61 14:40 09.08.2019
3955 -273 0 0 0 0 0 14:20 09.08.2019
3956 Clouds 25 1011 94 10000 4.6 150 13:46 09.08.2019
3957 Clouds 25 1011 94 10000 4.6 150 13:21 09.08.2019
3958 Rain 25 1013 90 0 3.94 135.093 12:56 09.08.2019
3959 Rain 25 1013 90 0 3.94 135.093 12:37 09.08.2019
3960 Clouds 25 1011 89 0 3 131.481 12:18 09.08.2019
3961 Clouds 25 1011 89 0 3 131.481 11:41 09.08.2019
3962 Clouds 26 1009 94 10000 4.6 140 11:21 09.08.2019
3963 Clouds 26 1009 94 10000 4.6 140 10:54 09.08.2019
3964 Clouds 26 1009 94 10000 4.6 140 10:36 09.08.2019
3965 Clouds 26 1009 94 10000 4.6 140 10:18 09.08.2019
3966 -273 0 0 0 0 0 09:41 09.08.2019
3967 Clouds 26 1009 88 10000 5.1 150 09:19 09.08.2019
3968 Clouds 27 1009 88 10000 5.1 140 08:45 09.08.2019
3969 Clouds 27 1009 88 10000 5.1 140 08:25 09.08.2019
3970 Clouds 27 1009 88 10000 5.1 150 07:56 09.08.2019
3971 Rain 25 1009 89 0 3.34 188.171 07:37 09.08.2019
3972 Clouds 29 1010 74 10000 5.1 140 07:19 09.08.2019
3973 Clouds 29 1010 74 10000 5.1 140 06:44 09.08.2019
3974 Clouds 29 1010 74 10000 5.1 140 06:21 09.08.2019
3975 Clouds 30 1010 70 10000 5.1 240 05:31 09.08.2019
3976 Clouds 26 1013 88 10000 2.6 330 02:28 09.08.2019
3977 Clouds 25 1013 94 10000 3.1 320 01:24 09.08.2019
3978 Clouds 24 1012 100 10000 3.1 350 00:42 09.08.2019
3979 Clouds 24 1012 100 10000 3.1 350 00:23 09.08.2019
3980 Clouds 24 1012 100 10000 3.1 350 23:56 08.08.2019
3981 Clouds 24 1012 100 10000 3.1 350 23:37 08.08.2019
3982 Clouds 24 1012 100 10000 3.1 350 23:18 08.08.2019
3983 Rain 23 1012 94 0 0.68 17.98 22:38 08.08.2019
3984 Clouds 24 1011 100 10000 3.1 350 22:19 08.08.2019
3985 Clouds 24 1011 100 10000 3.1 350 21:59 08.08.2019
3986 Clouds 24 1011 100 10000 3.1 350 21:41 08.08.2019
3987 Clouds 24 1010 100 10000 1.5 0 21:22 08.08.2019
3988 Clouds 24 1010 100 10000 1.5 0 20:57 08.08.2019
3989 Clouds 24 1010 100 10000 1.5 0 20:39 08.08.2019
3990 Clouds 24 1010 100 10000 1.5 0 20:19 08.08.2019
3991 Clouds 24 1010 100 10000 1.5 0 19:47 08.08.2019
3992 Clouds 24 1010 100 10000 1.5 0 19:28 08.08.2019
3993 Clouds 24 1010 100 10000 1.5 0 18:47 08.08.2019
3994 Rain 24 1012 91 0 0.99 50.895 18:25 08.08.2019
3995 Rain 24 1012 91 0 0.99 50.895 17:59 08.08.2019
3996 Rain 24 1012 91 0 0.99 50.895 17:41 08.08.2019
3997 Clouds 24 1011 100 10000 2.6 150 17:22 08.08.2019
3998 Clouds 24 1011 100 10000 2.6 150 16:56 08.08.2019
3999 Rain 24 1012 91 0 0.99 50.895 16:37 08.08.2019
4000 Clouds 24 1012 100 10000 1 0 16:19 08.08.2019
4001 Clouds 24 1012 100 10000 1 0 15:42 08.08.2019
4002 Clouds 24 1012 100 10000 1 0 15:23 08.08.2019
4003 Rain 24 1013 92 0 3.21 354.288 14:59 08.08.2019
4004 Rain 24 1013 92 0 3.21 354.288 14:37 08.08.2019
4005 Clouds 24 1013 94 10000 1 0 14:18 08.08.2019
4006 Clouds 24 1013 94 10000 1 0 13:40 08.08.2019
4007 Clouds 24 1013 94 10000 1 0 13:22 08.08.2019
4008 Clouds 25 1012 100 10000 2.43 8.513 12:43 08.08.2019
4009 Clouds 25 1012 100 10000 3.57 13.085 12:23 08.08.2019
4010 Clouds 25 1011 100 10000 2.6 160 11:59 08.08.2019
4011 Rain 24 1011 94 0 3.57 13.085 11:39 08.08.2019
4012 Clouds 25 1010 100 10000 5.1 150 11:21 08.08.2019
4013 Clouds 25 1010 100 10000 5.1 150 10:41 08.08.2019
4014 Clouds 26 1010 94 10000 5.1 140 10:21 08.08.2019
4015 Clouds 26 1010 94 10000 5.1 140 09:52 08.08.2019
4016 Clouds 26 1010 94 10000 5.1 140 09:31 08.08.2019
4017 Clouds 26 1009 94 10000 5.1 150 08:57 08.08.2019
4018 Rain 25 1009 88 0 3.72 326.165 08:39 08.08.2019
4019 Clouds 28 1009 78 10000 6.7 200 08:19 08.08.2019
4020 Clouds 28 1009 78 10000 6.7 200 07:40 08.08.2019
4021 Clouds 28 1009 78 10000 6.7 200 07:20 08.08.2019
4022 Clouds 30 1009 74 10000 6.7 220 06:48 08.08.2019
4023 Clouds 30 1009 74 10000 6.7 220 06:27 08.08.2019
4024 Haze 29 1010 74 10000 5.1 190 05:53 08.08.2019
4025 Haze 29 1010 79 10000 5.1 200 04:54 08.08.2019
4026 Haze 28 1011 83 10000 1.5 0 03:53 08.08.2019
4027 Haze 28 1011 78 10000 1.5 0 02:30 08.08.2019
4028 Clouds 27 1011 83 10000 1.5 0 01:37 08.08.2019
4029 Fog 24 1011 100 10000 1.5 0 00:26 08.08.2019
4030 Clouds 23 1010 100 10000 1.5 0 23:51 07.08.2019
4031 Clouds 23 1010 100 10000 1.5 0 23:20 07.08.2019
4032 Clouds 23 1010 100 10000 1.5 0 22:56 07.08.2019
4033 Clouds 23 1010 100 10000 1.5 0 22:38 07.08.2019
4034 Clouds 23 1010 100 10000 1.5 0 22:19 07.08.2019
4035 Clouds 24 1009 100 10000 2.6 0 21:55 07.08.2019
4036 Rain 25 1011 90 0 2.71 105.864 21:37 07.08.2019
4037 Clouds 24 1009 100 10000 2.1 0 21:18 07.08.2019
4038 Clouds 24 1009 100 10000 2.1 0 20:42 07.08.2019
4039 Clouds 24 1009 100 10000 2.1 0 20:23 07.08.2019
4040 Clouds 24 1009 100 10000 2.1 0 19:57 07.08.2019
4041 Clouds 24 1009 100 10000 2.1 0 19:39 07.08.2019
4042 Clouds 24 1009 100 10000 2.1 0 19:21 07.08.2019
4043 Clouds 25 1009 94 10000 1 0 18:43 07.08.2019
4044 Clouds 25 1009 94 10000 1 0 18:21 07.08.2019
4045 Clouds 24 1009 100 10000 1 170 17:59 07.08.2019
4046 Clouds 24 1009 100 10000 1 170 17:40 07.08.2019
4047 Clouds 24 1009 100 10000 1 170 17:21 07.08.2019
4048 Clouds 25 1009 94 10000 2.6 0 16:57 07.08.2019
4049 Clouds 25 1009 94 10000 2.6 0 16:39 07.08.2019
4050 Clouds 25 1009 94 10000 2.6 0 16:20 07.08.2019
4051 Clouds 24 1009 100 10000 1.5 0 15:56 07.08.2019
4052 Rain 25 1010 93 0 9.38 125.56 15:37 07.08.2019
4053 Clouds 24 1010 100 10000 2.6 0 15:19 07.08.2019
4054 Clouds 24 1010 100 10000 2.6 0 14:45 07.08.2019
4055 Clouds 24 1010 100 10000 5.1 350 14:27 07.08.2019
4056 Clouds 24 1010 100 10000 5.1 350 13:45 07.08.2019
4057 Clouds 24 1010 100 10000 5.1 350 13:19 07.08.2019
4058 Rain 24 1010 100 0 5.1 350 12:58 07.08.2019
4059 Rain 24 1010 100 0 5.1 350 12:39 07.08.2019
4060 Rain 24 1010 100 0 5.1 350 12:21 07.08.2019
4061 Rain 26 1009 87 0 7.54 136.414 12:00 07.08.2019
4062 Rain 26 1009 87 0 7.54 136.414 11:41 07.08.2019
4063 Smoke 26 1008 94 10000 7.7 140 11:19 07.08.2019
4064 Smoke 26 1008 94 10000 7.7 140 11:19 07.08.2019
4065 Smoke 26 1008 94 10000 7.7 140 10:55 07.08.2019
4066 Smoke 26 1008 94 10000 7.7 140 10:37 07.08.2019
4067 Smoke 26 1008 94 10000 7.7 140 10:18 07.08.2019
4068 Smoke 28 1006 83 10000 7.7 170 09:44 07.08.2019
4069 Smoke 28 1006 83 10000 7.7 170 09:21 07.08.2019
4070 Smoke 30 1006 74 10000 7.7 170 08:45 07.08.2019
4071 Smoke 30 1006 74 10000 7.7 170 08:26 07.08.2019
4072 Smoke 31 1006 70 10000 6.7 170 07:52 07.08.2019
4073 Smoke 31 1006 70 10000 6.7 170 07:34 07.08.2019
4074 Smoke 31 1007 70 10000 6.7 190 06:57 07.08.2019
4075 Smoke 31 1008 66 10000 6.2 170 06:29 07.08.2019
4076 Smoke 31 1008 66 10000 6.2 170 05:46 07.08.2019
4077 Haze 30 1008 70 10000 6.2 140 04:46 07.08.2019
4078 Haze 29 1009 74 10000 5.1 190 03:21 07.08.2019
4079 Haze 30 1010 70 10000 5.1 150 02:44 07.08.2019
4080 Clouds 27 1010 83 10000 1.5 0 01:58 07.08.2019
4081 Clouds 27 1010 83 10000 1.5 0 01:31 07.08.2019
4082 Clouds 26 1010 83 10000 1.5 0 00:38 07.08.2019
4083 Clouds 26 1010 83 10000 1.5 0 00:19 07.08.2019
4084 Clouds 24 1009 94 10000 1.5 0 23:41 06.08.2019
4085 Clouds 24 1009 94 10000 1.5 0 23:21 06.08.2019
4086 Haze 24 1008 94 10000 1.5 0 22:56 06.08.2019
4087 Haze 24 1008 94 10000 1.5 0 22:37 06.08.2019
4088 Haze 24 1008 94 10000 1.5 0 22:18 06.08.2019
4089 Clouds 25 1010 87 0 3.44 97.953 21:40 06.08.2019
4090 Clouds 25 1009 87 0 7.89 130.325 21:20 06.08.2019
4091 Clouds 25 1009 87 0 7.1 126.318 20:48 06.08.2019
4092 Clouds 25 1009 87 0 7.1 126.318 20:29 06.08.2019
4093 Clouds 25 1009 87 0 7.1 126.318 19:59 06.08.2019
4094 Clouds 25 1009 87 0 7.1 126.318 19:41 06.08.2019
4095 Clouds 25 1009 87 0 7.1 126.318 19:22 06.08.2019
4096 Clouds 25 1009 87 0 7.1 126.318 18:45 06.08.2019
4097 Clouds 25 1009 87 0 7.1 126.318 18:26 06.08.2019
4098 Clouds 25 1009 86 0 9.32 127.792 17:58 06.08.2019
4099 Clouds 25 1009 86 0 9.32 127.792 17:38 06.08.2019
4100 Clouds 25 1009 86 0 9.32 127.792 17:20 06.08.2019
4101 Clouds 25 1009 86 0 9.32 127.792 16:54 06.08.2019
4102 Clouds 25 1009 86 0 9.32 127.792 16:36 06.08.2019
4103 Clouds 25 1009 86 0 9.32 127.792 16:18 06.08.2019
4104 Clouds 25 1009 86 0 9.32 127.792 15:56 06.08.2019
4105 Clouds 25 1009 86 0 9.32 127.792 15:37 06.08.2019
4106 Clouds 25 1009 88 10000 2.6 160 15:18 06.08.2019
4107 Clouds 25 1009 88 10000 2.6 160 14:40 06.08.2019
4108 Clouds 25 1009 88 10000 2.6 160 14:22 06.08.2019
4109 Clouds 26 1009 83 10000 2.6 150 13:55 06.08.2019
4110 Clouds 26 1009 83 10000 2.6 150 13:37 06.08.2019
4111 Clouds 26 1009 83 10000 2.6 150 13:19 06.08.2019
4112 Clouds 25 1011 85 0 10.82 135.416 12:41 06.08.2019
4113 Clouds 25 1011 85 0 10.82 135.416 12:41 06.08.2019
4114 Clouds 25 1011 85 0 10.82 135.416 12:41 06.08.2019
4115 Clouds 25 1009 83 0 11.36 133.937 12:23 06.08.2019
4116 Clouds 25 1009 83 0 11.36 133.937 11:46 06.08.2019
4117 Clouds 26 1008 83 10000 5.1 160 11:22 06.08.2019
4118 Clouds 26 1008 83 10000 5.1 160 10:59 06.08.2019
4119 Clouds 26 1008 83 10000 5.1 160 10:40 06.08.2019
4120 Clouds 26 1008 83 10000 5.1 160 10:22 06.08.2019
4121 Clouds 27 1007 83 10000 5.1 150 09:43 06.08.2019
4122 Clouds 27 1007 83 10000 5.1 150 09:23 06.08.2019
4123 Clouds 26 1008 83 0 13.03 141.742 08:51 06.08.2019
4124 Clouds 29 1007 79 10000 5.1 150 08:30 06.08.2019
4125 Clouds 29 1007 79 10000 5.1 150 08:30 06.08.2019
4126 Clouds 29 1007 79 10000 5.1 150 07:59 06.08.2019
4127 Clouds 29 1007 79 10000 5.1 150 07:31 06.08.2019
4128 Clouds 28 1008 78 10000 5.1 130 06:45 06.08.2019
4129 Clouds 28 1008 78 10000 5.1 130 06:24 06.08.2019
4130 Clouds 30 1008 70 10000 5.1 130 05:46 06.08.2019
4131 Clouds 28 1010 74 10000 7.7 160 02:51 06.08.2019
4132 Clouds 27 1010 78 10000 5.1 150 01:26 06.08.2019
4133 Clouds 25 1010 83 10000 3.1 150 00:52 06.08.2019
4134 Clouds 25 1010 83 10000 3.1 150 00:19 06.08.2019
4135 Clouds 24 1009 88 10000 2.6 130 23:21 05.08.2019
4136 Clouds 24 1009 88 10000 2.6 130 22:57 05.08.2019
4137 Clouds 24 1009 88 10000 2.6 130 22:57 05.08.2019
4138 Clouds 25 1011 83 0 10.7 123.827 22:38 05.08.2019
4139 Clouds 23 1009 88 10000 2.6 130 22:20 05.08.2019
4140 Clouds 23 1009 88 10000 2.6 130 21:42 05.08.2019
4141 Clouds 23 1009 88 10000 2.6 130 21:21 05.08.2019
4142 Clouds 25 1011 84 0 10.71 125.1 20:57 05.08.2019
4143 Clouds 25 1011 84 0 10.71 125.1 20:39 05.08.2019
4144 Clouds 24 1009 94 10000 3.1 130 20:21 05.08.2019
4145 Clouds 24 1009 94 10000 3.1 130 20:21 05.08.2019
4146 Clouds 24 1009 94 10000 3.1 130 19:55 05.08.2019
4147 Clouds 24 1009 94 10000 3.1 130 19:37 05.08.2019
4148 Clouds 24 1009 94 10000 3.1 130 19:18 05.08.2019
4149 Clouds 25 1011 84 0 10.71 125.1 18:41 05.08.2019
4150 Clouds 25 1012 84 0 9.99 123.655 18:20 05.08.2019
4151 Clouds 25 1012 84 0 9.99 123.655 17:47 05.08.2019
4152 Clouds 25 1011 83 10000 7.7 150 17:29 05.08.2019
4153 Clouds 25 1011 83 10000 7.7 150 16:58 05.08.2019
4154 Clouds 25 1011 83 10000 7.7 150 16:40 05.08.2019
4155 Clouds 25 1011 83 10000 7.7 150 16:22 05.08.2019
4156 Clouds 25 1011 83 10000 7.7 150 15:40 05.08.2019
4157 Clouds 25 1011 83 10000 7.7 150 15:20 05.08.2019
4158 Clouds 25 1011 83 10000 7.7 150 14:40 05.08.2019
4159 Clouds 25 1011 83 10000 7.7 150 14:21 05.08.2019
4160 Smoke 25 1011 83 10000 7.7 150 13:48 05.08.2019
4161 Smoke 25 1011 83 10000 7.7 150 13:23 05.08.2019
4162 Clouds 26 1010 78 10000 7.7 150 12:49 05.08.2019
4163 Clouds 26 1010 78 10000 7.7 150 12:21 05.08.2019
4164 Clouds 25 1012 81 0 10.54 132.151 11:54 05.08.2019
4165 Clouds 25 1012 81 0 10.54 132.151 11:36 05.08.2019
4166 Smoke 26 1009 78 10000 7.7 150 11:18 05.08.2019
4167 Smoke 26 1009 78 10000 7.7 150 10:43 05.08.2019
4168 Smoke 27 1008 78 10000 7.7 150 10:22 05.08.2019
4169 Smoke 27 1008 78 10000 7.7 150 09:43 05.08.2019
4170 Smoke 27 1008 78 10000 7.7 150 09:25 05.08.2019
4171 Clouds 29 1008 70 10000 7.7 150 08:59 05.08.2019
4172 Clouds 29 1008 70 10000 7.7 150 08:40 05.08.2019
4173 Clouds 29 1008 70 10000 7.7 150 08:20 05.08.2019
4174 Clouds 29 1008 70 10000 7.7 150 08:20 05.08.2019
4175 Clouds 29 1007 70 10000 7.7 150 07:42 05.08.2019
4176 Clouds 29 1007 70 10000 7.7 150 07:22 05.08.2019
4177 Smoke 30 1008 66 10000 12.9 160 06:35 05.08.2019
4178 Smoke 30 1009 66 10000 12.9 150 05:52 05.08.2019
4179 Smoke 30 1009 66 10000 12.9 150 05:19 05.08.2019
4180 Clouds 30 1009 62 10000 8.7 150 04:25 05.08.2019
4181 Haze 30 1010 62 10000 5.7 160 03:30 05.08.2019
4182 Haze 29 1010 66 10000 5.1 150 02:36 05.08.2019
4183 Haze 26 1010 78 10000 5.1 140 01:34 05.08.2019
4184 Haze 26 1010 78 10000 5.1 140 00:42 05.08.2019
4185 Haze 26 1010 78 10000 5.1 140 00:21 05.08.2019
4186 Clouds 25 1010 83 10000 3.1 130 23:57 04.08.2019
4187 Clouds 25 1010 83 10000 3.1 130 23:39 04.08.2019
4188 Clouds 25 1010 83 10000 3.1 130 23:19 04.08.2019
4189 Clouds 24 1009 83 10000 2.6 140 22:55 04.08.2019
4190 Clouds 24 1009 83 10000 2.6 140 22:54 04.08.2019
4191 Clouds 24 1009 83 10000 2.6 140 22:36 04.08.2019
4192 Clouds 24 1009 83 10000 2.6 140 22:36 04.08.2019
4193 Clouds 24 1009 83 10000 2.6 140 22:18 04.08.2019
4194 Clouds 24 1009 83 10000 3.1 140 21:42 04.08.2019
4195 Clouds 25 1010 82 0 11.92 125.837 21:20 04.08.2019
4196 Clouds 25 1010 81 0 11.84 124.97 20:45 04.08.2019
4197 Clouds 25 1010 81 0 11.84 124.97 20:19 04.08.2019
4198 Clouds 25 1010 81 0 11.84 124.97 19:58 04.08.2019
4199 Clouds 25 1010 81 0 11.84 124.97 19:38 04.08.2019
4200 Clouds 25 1010 81 0 11.84 124.97 19:19 04.08.2019
4201 Clouds 25 1010 81 0 11.84 124.97 18:42 04.08.2019
4202 Clouds 25 1011 81 0 13.61 128.645 18:20 04.08.2019
4203 Clouds 25 1011 81 0 13.61 128.645 18:20 04.08.2019
4204 Clouds 25 1011 81 0 13.61 128.645 17:45 04.08.2019
4205 Clouds 25 1011 81 0 13.61 128.645 17:25 04.08.2019
4206 Clouds 25 1011 81 0 13.61 128.645 16:56 04.08.2019
4207 Clouds 25 1011 81 0 13.61 128.645 16:38 04.08.2019
4208 Clouds 25 1011 81 0 13.61 128.645 16:19 04.08.2019
4209 Clouds 25 1011 81 0 13.61 128.645 15:40 04.08.2019
4210 Clouds 25 1013 82 0 14.23 127.601 15:20 04.08.2019
4211 Clouds 25 1013 82 0 14.23 127.601 14:44 04.08.2019
4212 Haze 25 1011 83 10000 5.1 140 14:26 04.08.2019
4213 Haze 25 1011 83 10000 5.1 140 13:47 04.08.2019
4214 Haze 25 1010 83 10000 11.8 140 13:28 04.08.2019
4215 Haze 25 1010 83 10000 11.8 140 12:58 04.08.2019
4216 Haze 25 1010 83 10000 11.8 140 12:40 04.08.2019
4217 Haze 25 1010 83 10000 11.8 140 12:22 04.08.2019
4218 Clouds 25 1011 81 0 14.93 132.785 11:49 04.08.2019
4219 Haze 25 1009 83 10000 11.8 150 11:23 04.08.2019
4220 Haze 25 1009 83 10000 11.8 150 10:51 04.08.2019
4221 Haze 25 1009 83 10000 11.8 150 10:23 04.08.2019
4222 Clouds 26 1009 83 10000 10.3 160 09:47 04.08.2019
4223 Clouds 26 1009 83 10000 10.3 160 09:27 04.08.2019
4224 Clouds 25 1010 81 0 14.32 128.228 08:59 04.08.2019
4225 Clouds 25 1010 81 0 14.32 128.228 08:38 04.08.2019
4226 Clouds 28 1009 74 10000 10.3 150 07:56 04.08.2019
4227 Clouds 28 1009 74 10000 10.3 150 07:38 04.08.2019
4228 Haze 29 1009 66 10000 7.7 150 06:46 04.08.2019
4229 Haze 29 1009 66 10000 7.7 150 06:23 04.08.2019
4230 Clouds 28 1012 74 10000 7.2 150 03:38 04.08.2019
4231 Clouds 27 1012 78 10000 6.7 150 01:56 04.08.2019
4232 Clouds 25 1012 88 10000 5.1 130 01:33 04.08.2019
4233 Clouds 25 1012 88 10000 5.1 130 00:43 04.08.2019
4234 Clouds 25 1012 88 10000 5.1 130 00:24 04.08.2019
4235 Clouds 25 1011 83 10000 2.6 130 23:56 03.08.2019
4236 Rain 25 1012 85 0 10.08 124.709 23:37 03.08.2019
4237 Clouds 24 1011 88 10000 2.6 120 23:18 03.08.2019
4238 Clouds 24 1011 88 10000 2.6 120 22:40 03.08.2019
4239 Clouds 24 1011 88 10000 2.6 120 22:19 03.08.2019
4240 Rain 25 1012 85 0 10.08 124.709 21:39 03.08.2019
4241 Clouds 23 1010 88 10000 1.5 0 21:21 03.08.2019
4242 Clouds 23 1010 88 10000 1.5 0 20:45 03.08.2019
4243 Clouds 23 1010 88 10000 1.5 0 20:24 03.08.2019
4244 Rain 25 1011 83 0 9.86 120.179 19:55 03.08.2019
4245 Rain 25 1011 83 0 9.86 120.179 19:36 03.08.2019
4246 Clouds 24 1010 88 10000 5.1 150 19:18 03.08.2019
4247 Rain 25 1011 83 0 9.86 120.179 18:40 03.08.2019
4248 Clouds 24 1011 88 10000 2.6 150 18:21 03.08.2019
4249 Clouds 24 1011 88 10000 2.6 150 17:42 03.08.2019
4250 Clouds 24 1011 88 10000 2.6 150 17:42 03.08.2019
4251 Clouds 24 1011 88 10000 2.6 150 17:18 03.08.2019
4252 Rain 25 1012 82 0 10.84 125.372 16:38 03.08.2019
4253 Rain 25 1012 82 0 10.84 125.372 16:19 03.08.2019
4254 Rain 25 1012 82 0 10.84 125.372 15:45 03.08.2019
4255 Rain 25 1013 79 0 11.84 131.601 15:25 03.08.2019
4256 Rain 25 1013 79 0 11.84 131.601 14:46 03.08.2019
4257 Rain 25 1013 79 0 11.84 131.601 14:23 03.08.2019
4258 Rain 25 1013 79 0 11.84 131.601 13:57 03.08.2019
4259 Rain 25 1013 79 0 11.84 131.601 13:36 03.08.2019
4260 Rain 25 1013 80 0 12.49 128.264 13:18 03.08.2019
4261 Rain 25 1013 80 0 12.49 128.264 12:41 03.08.2019
4262 Clouds 26 1011 78 0 12.68 135.297 12:23 03.08.2019
4263 Clouds 26 1011 78 0 12.68 135.297 11:52 03.08.2019
4264 Clouds 26 1010 83 10000 5.1 150 11:33 03.08.2019
4265 Clouds 26 1010 83 10000 5.1 150 10:46 03.08.2019
4266 Clouds 26 1010 83 10000 5.1 150 10:24 03.08.2019
4267 Clouds 26 1009 83 10000 7.7 150 09:45 03.08.2019
4268 Clouds 26 1009 83 10000 7.7 150 09:23 03.08.2019
4269 Clouds 29 1009 70 10000 7.7 150 08:55 03.08.2019
4270 -273 0 0 0 0 0 08:21 03.08.2019
4271 Clouds 30 1009 66 10000 10.3 150 07:37 03.08.2019
4272 Clouds 30 1010 66 10000 10.3 150 06:39 03.08.2019
4273 Clouds 29 1011 66 10000 7.7 150 04:56 03.08.2019
4274 Clouds 28 1013 69 10000 7.2 150 02:40 03.08.2019
4275 Clouds 26 1013 78 10000 5.1 150 01:50 03.08.2019
4276 Clouds 26 1013 78 10000 5.1 150 01:50 03.08.2019
4277 Clouds 25 1012 83 10000 3.6 140 00:49 03.08.2019
4278 Clouds 25 1012 83 10000 3.6 140 00:28 03.08.2019
4279 Clouds 23 1012 88 10000 1.5 0 23:41 02.08.2019
4280 Clouds 23 1012 88 10000 1.5 0 23:19 02.08.2019
4281 Clouds 23 1011 88 10000 4.6 150 22:57 02.08.2019
4282 Clouds 23 1011 88 10000 4.6 150 22:38 02.08.2019
4283 Clouds 23 1011 88 10000 4.6 150 22:19 02.08.2019
4284 Clouds 23 1011 88 10000 3.1 140 21:43 02.08.2019
4285 Rain 25 1011 83 0 10.91 128.236 21:25 02.08.2019
4286 Rain 25 1011 83 0 10.91 128.236 21:25 02.08.2019
4287 Rain 25 1012 83 0 10.91 127.681 20:59 02.08.2019
4288 Rain 25 1012 83 0 10.91 127.681 20:40 02.08.2019
4289 Rain 25 1012 83 0 10.91 127.681 20:20 02.08.2019
4290 Rain 25 1012 83 0 10.91 127.681 19:46 02.08.2019
4291 Rain 25 1012 83 0 10.91 127.681 19:26 02.08.2019
4292 Rain 25 1012 83 0 10.91 127.681 18:45 02.08.2019
4293 Rain 25 1012 83 0 10.91 127.681 18:26 02.08.2019
4294 Clouds 25 1013 83 0 11.59 134.025 17:48 02.08.2019
4295 Clouds 25 1013 83 0 11.59 134.025 17:25 02.08.2019
4296 Clouds 25 1013 83 0 11.59 134.025 16:58 02.08.2019
4297 Clouds 25 1013 83 0 11.59 134.025 16:38 02.08.2019
4298 Clouds 24 1012 83 10000 5.7 150 16:18 02.08.2019
4299 Clouds 24 1012 83 10000 5.7 150 15:39 02.08.2019
4300 Clouds 24 1012 83 10000 5.7 150 15:19 02.08.2019
4301 Clouds 24 1013 78 10000 6.2 150 14:46 02.08.2019
4302 Rain 25 1014 81 0 12.67 133.951 14:18 02.08.2019
4303 Rain 25 1014 81 0 12.67 133.951 13:48 02.08.2019
4304 Clouds 25 1012 73 10000 7.7 150 13:26 02.08.2019
4305 Clouds 25 1012 73 10000 7.7 150 12:45 02.08.2019
4306 Clouds 25 1012 73 10000 7.7 150 12:22 02.08.2019
4307 Clouds 25 1011 78 10000 7.7 150 11:53 02.08.2019
4308 Clouds 25 1011 78 10000 7.7 150 11:34 02.08.2019
4309 Clouds 25 1011 78 10000 7.7 150 10:57 02.08.2019
4310 Rain 25 1013 80 0 12.48 132.272 10:39 02.08.2019
4311 Clouds 26 1010 74 10000 8.2 150 10:20 02.08.2019
4312 Clouds 26 1010 74 10000 8.2 150 09:52 02.08.2019
4313 Clouds 26 1010 74 10000 8.2 150 09:25 02.08.2019
4314 Clouds 27 1010 69 10000 7.7 150 08:49 02.08.2019
4315 Clouds 27 1010 69 10000 7.7 150 08:49 02.08.2019
4316 Rain 25 1011 80 0 12.85 140.753 08:22 02.08.2019
4317 Rain 25 1011 80 0 12.85 140.753 07:50 02.08.2019
4318 Clouds 28 1010 69 10000 12.9 150 07:31 02.08.2019
4319 Clouds 28 1010 69 10000 12.9 150 06:46 02.08.2019
4320 Clouds 27 1011 74 10000 12.9 150 05:52 02.08.2019
4321 Clouds 27 1011 74 10000 12.9 150 05:25 02.08.2019
4322 Clouds 27 1013 69 10000 12.9 150 03:28 02.08.2019
4323 Clouds 26 1013 74 10000 10.3 150 02:33 02.08.2019
4324 Clouds 23 1013 88 10000 6.2 140 00:40 02.08.2019
4325 Clouds 23 1013 88 10000 6.2 140 23:46 01.08.2019
4326 Clouds 23 1013 88 10000 6.2 140 23:28 01.08.2019
4327 Clouds 23 1012 88 10000 6.2 140 22:58 01.08.2019
4328 Clouds 23 1012 88 10000 6.2 140 22:38 01.08.2019
4329 Clouds 23 1012 88 10000 6.2 140 22:19 01.08.2019
4330 Rain 25 1014 82 0 10.15 132.877 21:43 01.08.2019
4331 Rain 25 1012 82 0 8.75 128.278 21:23 01.08.2019
4332 Rain 25 1012 80 0 8.91 128.844 20:55 01.08.2019
4333 Rain 25 1012 80 0 8.91 128.844 20:36 01.08.2019
4334 Rain 25 1012 80 0 8.91 128.844 20:18 01.08.2019
4335 Rain 25 1012 80 0 8.91 128.844 19:40 01.08.2019
4336 Clouds 23 1012 88 10000 6.2 150 19:19 01.08.2019
4337 Clouds 23 1012 88 10000 6.2 150 18:43 01.08.2019
4338 Rain 25 1013 82 0 9.07 128.802 18:24 01.08.2019
4339 Rain 25 1013 82 0 9.07 128.802 17:51 01.08.2019
4340 Rain 25 1013 82 0 9.07 128.802 17:32 01.08.2019
4341 Rain 25 1013 82 0 9.07 128.802 16:45 01.08.2019
4342 Rain 25 1013 82 0 9.07 128.802 16:23 01.08.2019
4343 Rain 25 1013 82 0 9.07 128.802 15:59 01.08.2019
4344 Rain 25 1013 82 0 9.07 128.802 15:41 01.08.2019
4345 Clouds 23 1014 88 10000 3.6 140 15:19 01.08.2019
4346 Clouds 23 1014 88 10000 3.6 140 15:19 01.08.2019
4347 Clouds 23 1014 88 10000 3.6 140 14:42 01.08.2019
4348 Clouds 23 1014 88 10000 3.6 140 14:19 01.08.2019
4349 Clouds 24 1014 83 10000 5.1 140 13:58 01.08.2019
4350 Clouds 24 1014 83 10000 5.1 140 13:39 01.08.2019
4351 Clouds 24 1014 83 10000 5.1 140 13:20 01.08.2019
4352 Clouds 24 1014 83 10000 5.1 150 12:44 01.08.2019
4353 Clouds 23 1013 94 10000 9.3 150 12:26 01.08.2019
4354 Clouds 23 1013 94 10000 9.3 150 11:43 01.08.2019
4355 Clouds 23 1013 94 10000 9.3 150 11:24 01.08.2019
4356 Clouds 25 1012 78 10000 7.7 150 10:54 01.08.2019
4357 Clouds 25 1012 78 10000 7.7 150 10:36 01.08.2019
4358 Clouds 25 1012 78 10000 7.7 150 10:36 01.08.2019
4359 Clouds 25 1012 78 10000 7.7 150 10:18 01.08.2019
4360 Clouds 25 1011 78 10000 7.7 150 09:43 01.08.2019
4361 Haze 26 1011 78 10000 12.9 150 09:23 01.08.2019
4362 Haze 26 1011 78 10000 12.9 150 08:46 01.08.2019
4363 Haze 26 1011 78 10000 12.9 150 08:20 01.08.2019
4364 Haze 28 1011 69 10000 10.3 160 07:50 01.08.2019
4365 Haze 28 1011 69 10000 10.3 160 07:26 01.08.2019
4366 Haze 29 1011 62 10000 12.9 160 06:49 01.08.2019
4367 Haze 29 1011 62 10000 12.9 160 06:27 01.08.2019
4368 Clouds 28 1013 61 10000 7.7 150 04:24 01.08.2019
4369 Haze 28 1014 69 10000 10.3 150 02:35 01.08.2019
4370 Clouds 25 1013 73 10000 9.3 140 00:46 01.08.2019
4371 Clouds 25 1013 73 10000 9.3 140 00:25 01.08.2019
4372 Clouds 23 1013 83 10000 7.7 150 23:43 31.07.2019
4373 Clouds 23 1013 83 10000 7.7 150 23:43 31.07.2019
4374 Clouds 23 1013 83 10000 7.7 150 23:21 31.07.2019
4375 Clouds 23 1012 83 10000 7.7 150 22:58 31.07.2019
4376 Clouds 23 1012 83 10000 7.7 150 22:39 31.07.2019
4377 Clouds 23 1012 83 10000 7.7 150 22:21 31.07.2019
4378 Clouds 23 1012 83 10000 7.7 150 21:38 31.07.2019
4379 Clouds 23 1012 83 10000 7.7 150 21:19 31.07.2019
4380 Clouds 23 1012 83 10000 7.7 150 20:43 31.07.2019
4381 Clouds 23 1012 83 10000 7.7 150 20:22 31.07.2019
4382 Clouds 23 1011 83 10000 7.7 150 19:43 31.07.2019
4383 Clouds 23 1012 88 10000 5.1 150 19:24 31.07.2019
4384 Clouds 23 1012 88 10000 5.1 150 18:53 31.07.2019
4385 Clouds 23 1012 88 10000 5.1 150 18:28 31.07.2019
4386 Rain 24 1014 82 0 12.17 133.238 17:59 31.07.2019
4387 Rain 24 1014 82 0 12.17 133.238 17:40 31.07.2019
4388 Rain 24 1014 82 0 12.17 133.238 17:19 31.07.2019
4389 Rain 24 1014 82 0 12.17 133.238 16:43 31.07.2019
4390 Rain 24 1014 82 0 12.17 133.238 16:20 31.07.2019
4391 Rain 24 1014 82 0 12.17 133.238 15:45 31.07.2019
4392 Rain 25 1014 84 0 11.73 132.768 15:25 31.07.2019
4393 Rain 25 1014 84 0 11.73 132.768 14:43 31.07.2019
4394 Rain 25 1014 84 0 11.73 132.768 14:22 31.07.2019
4395 Rain 25 1014 84 0 11.73 132.768 13:58 31.07.2019
4396 Rain 25 1014 84 0 11.73 132.768 13:38 31.07.2019
4397 Rain 25 1014 83 0 12.24 132.141 13:20 31.07.2019
4398 Rain 25 1014 83 0 12.24 132.141 12:45 31.07.2019
4399 Rain 25 1014 83 0 12.24 132.141 12:45 31.07.2019
4400 Rain 25 1014 83 0 12.24 132.141 12:27 31.07.2019
4401 Clouds 25 1013 81 0 11.47 134.53 11:58 31.07.2019
4402 Clouds 25 1013 81 0 11.47 134.53 11:38 31.07.2019
4403 Clouds 25 1012 83 10000 7.7 160 11:19 31.07.2019
4404 Clouds 25 1012 83 10000 7.7 160 10:41 31.07.2019
4405 Clouds 25 1012 83 10000 7.7 160 10:20 31.07.2019
4406 Clouds 25 1011 83 10000 10.3 160 09:43 31.07.2019
4407 Clouds 25 1011 83 10000 10.3 160 09:24 31.07.2019
4408 Clouds 25 1011 81 0 12.54 144.978 08:45 31.07.2019
4409 Clouds 26 1011 78 10000 10.3 160 08:26 31.07.2019
4410 Clouds 26 1011 78 10000 10.3 160 07:57 31.07.2019
4411 Clouds 26 1011 78 10000 10.3 160 07:34 31.07.2019
4412 Clouds 26 1012 78 10000 10.3 160 06:18 31.07.2019
4413 Clouds 27 1012 74 10000 8.7 150 04:42 31.07.2019
4414 Haze 25 1013 78 10000 10.3 130 00:58 31.07.2019
4415 Clouds 24 1013 83 10000 4.1 130 23:56 30.07.2019
4416 Clouds 24 1013 83 10000 4.1 130 23:38 30.07.2019
4417 Clouds 24 1013 83 10000 4.1 130 23:18 30.07.2019
4418 Clouds 23 1012 88 10000 4.1 130 22:42 30.07.2019
4419 Clouds 23 1011 88 10000 4.1 140 22:22 30.07.2019
4420 Clouds 23 1011 88 10000 4.1 140 21:38 30.07.2019
4421 Clouds 23 1011 88 10000 4.1 140 21:20 30.07.2019
4422 Clouds 23 1011 83 10000 2.6 120 20:57 30.07.2019
4423 Clouds 23 1011 83 10000 2.6 120 20:39 30.07.2019
4424 Clouds 23 1011 83 10000 2.6 120 20:19 30.07.2019
4425 Clouds 23 1011 88 10000 5.7 140 19:49 30.07.2019
4426 Clouds 23 1011 88 10000 5.7 140 19:29 30.07.2019
4427 Clouds 24 1012 83 0 9.11 127.938 18:48 30.07.2019
4428 Clouds 24 1012 83 10000 4.1 140 18:27 30.07.2019
4429 Clouds 24 1012 83 10000 4.1 140 17:58 30.07.2019
4430 Clouds 25 1013 81 0 10.37 130.967 17:40 30.07.2019
4431 Clouds 24 1012 78 10000 4.1 40 17:18 30.07.2019
4432 Clouds 24 1012 78 10000 4.1 40 16:46 30.07.2019
4433 Clouds 24 1012 78 10000 4.1 40 16:19 30.07.2019
4434 Clouds 25 1013 81 0 10.37 130.967 15:41 30.07.2019
4435 Clouds 24 1013 78 10000 6.2 130 15:22 30.07.2019
4436 Clouds 24 1013 78 10000 6.2 130 14:46 30.07.2019
4437 Clouds 25 1012 78 10000 7.7 150 14:26 30.07.2019
4438 -273 0 0 0 0 0 13:56 30.07.2019
4439 Clouds 25 1012 78 10000 7.7 150 13:37 30.07.2019
4440 Clouds 25 1012 78 10000 7.7 150 13:19 30.07.2019
4441 Clouds 25 1012 78 10000 7.7 150 12:43 30.07.2019
4442 Clouds 25 1011 78 10000 7.7 150 12:25 30.07.2019
4443 Clouds 25 1011 78 10000 7.7 150 11:46 30.07.2019
4444 Clouds 25 1011 78 10000 7.7 150 11:26 30.07.2019
4445 Haze 26 1010 74 10000 7.7 150 10:57 30.07.2019
4446 Haze 26 1010 74 10000 7.7 150 10:38 30.07.2019
4447 Haze 26 1010 74 10000 7.7 150 10:20 30.07.2019
4448 Haze 27 1010 69 10000 7.7 150 09:46 30.07.2019
4449 Haze 27 1010 69 10000 7.7 150 09:27 30.07.2019
4450 Haze 28 1010 69 10000 7.7 150 08:39 30.07.2019
4451 Haze 28 1010 69 10000 7.7 150 08:18 30.07.2019
4452 Haze 28 1010 69 10000 10.3 150 07:40 30.07.2019
4453 Haze 28 1010 69 10000 10.3 150 07:22 30.07.2019
4454 Haze 28 1011 69 10000 7.7 160 06:43 30.07.2019
4455 Haze 30 1011 62 10000 8.7 150 05:35 30.07.2019
4456 Haze 29 1012 62 10000 10.3 150 04:29 30.07.2019
4457 Haze 26 1014 74 10000 7.7 130 01:23 30.07.2019
4458 Haze 25 1013 78 10000 2.6 130 00:27 30.07.2019
4459 Haze 25 1013 78 10000 2.6 130 00:27 30.07.2019
4460 Clouds 23 1013 88 10000 2.6 130 23:59 29.07.2019
4461 Clouds 23 1013 88 10000 2.6 130 23:39 29.07.2019
4462 Clouds 23 1013 88 10000 2.6 130 23:20 29.07.2019
4463 Clouds 23 1013 88 10000 2.6 140 22:54 29.07.2019
4464 Clouds 23 1013 88 10000 2.6 140 22:36 29.07.2019
4465 Clouds 23 1013 88 10000 2.6 140 22:18 29.07.2019
4466 Clouds 24 1013 80 0 8.22 125.198 21:41 29.07.2019
4467 Clouds 25 1012 80 0 8.28 128.352 21:23 29.07.2019
4468 Clouds 25 1012 80 0 8.28 128.352 20:57 29.07.2019
4469 Clouds 25 1012 80 0 8.28 128.352 20:38 29.07.2019
4470 Clouds 25 1012 80 0 8.28 128.352 20:19 29.07.2019
4471 Clouds 25 1012 80 0 8.28 128.352 19:43 29.07.2019
4472 Clouds 25 1012 80 0 8.28 128.352 19:22 29.07.2019
4473 Clouds 25 1012 80 0 8.28 128.352 18:55 29.07.2019
4474 Clouds 25 1012 80 0 8.28 128.352 18:36 29.07.2019
4475 Clouds 25 1013 79 0 8.83 130.33 18:18 29.07.2019
4476 Clouds 25 1013 79 0 8.83 130.33 17:46 29.07.2019
4477 Clouds 25 1013 79 0 8.83 130.33 17:26 29.07.2019
4478 Clouds 25 1013 79 0 8.83 130.33 16:46 29.07.2019
4479 Haze 24 1013 83 10000 7.7 150 16:26 29.07.2019
4480 Haze 24 1013 83 10000 7.7 150 15:54 29.07.2019
4481 Haze 24 1013 83 10000 7.7 150 15:35 29.07.2019
4482 Haze 25 1013 78 10000 7.7 150 14:57 29.07.2019
4483 Haze 25 1013 78 10000 7.7 150 14:39 29.07.2019
4484 Haze 25 1013 78 10000 7.7 150 14:21 29.07.2019
4485 Haze 25 1013 78 10000 2.6 160 13:43 29.07.2019
4486 Haze 25 1012 83 10000 5.1 160 13:23 29.07.2019
4487 Haze 25 1012 83 10000 5.1 160 12:43 29.07.2019
4488 Haze 25 1012 83 10000 5.1 160 12:43 29.07.2019
4489 Haze 25 1012 83 10000 5.1 160 12:25 29.07.2019
4490 Clouds 25 1012 78 0 10.65 142.945 11:45 29.07.2019
4491 Haze 25 1011 83 10000 7.7 150 11:24 29.07.2019
4492 -273 0 0 0 0 0 10:57 29.07.2019
4493 Haze 25 1011 83 10000 7.7 150 10:57 29.07.2019
4494 Haze 25 1011 83 10000 7.7 150 10:38 29.07.2019
4495 Haze 25 1011 83 10000 7.7 150 10:19 29.07.2019
4496 Haze 26 1010 74 10000 8.7 161 09:38 29.07.2019
4497 Haze 26 1010 74 10000 8.7 161 09:19 29.07.2019
4498 Clouds 25 1010 77 0 9.96 152.03 08:36 29.07.2019
4499 Clouds 25 1010 77 0 9.96 152.03 08:18 29.07.2019
4500 Clouds 25 1010 77 0 9.96 152.03 07:41 29.07.2019
4501 Haze 28 1010 65 10000 7.7 160 07:20 29.07.2019
4502 Haze 28 1011 65 10000 7.7 160 05:47 29.07.2019
4503 Clouds 25 1011 76 0 8.68 157.452 04:53 29.07.2019
4504 Clouds 28 1013 58 10000 6.7 150 02:26 29.07.2019
4505 Clouds 27 1014 61 10000 2.6 150 01:43 29.07.2019
4506 Clouds 25 1013 69 10000 3.1 150 01:22 29.07.2019
4507 Clouds 25 1013 69 10000 3.1 150 00:43 29.07.2019
4508 Clouds 22 1013 83 10000 8.41 125.892 00:20 29.07.2019
4509 Clouds 22 1013 83 10000 8.41 125.892 23:41 28.07.2019
4510 Clouds 22 1013 83 10000 8.41 125.892 23:18 28.07.2019
4511 Clouds 22 1012 83 10000 2.1 0 22:39 28.07.2019
4512 Clouds 22 1012 83 10000 2.1 0 22:21 28.07.2019
4513 Clouds 24 1014 77 0 8.41 125.892 21:46 28.07.2019
4514 Clouds 24 1013 79 0 8.68 127.146 21:19 28.07.2019
4515 Clouds 24 1013 77 0 9.09 127.895 20:47 28.07.2019
4516 Clouds 24 1013 77 0 9.09 127.895 20:29 28.07.2019
4517 Clouds 24 1013 77 0 9.09 127.895 19:42 28.07.2019
4518 Clouds 24 1013 77 0 9.09 127.895 19:42 28.07.2019
4519 Clouds 24 1013 77 0 9.09 127.895 19:22 28.07.2019
4520 Clouds 24 1013 77 0 9.09 127.895 18:58 28.07.2019
4521 Clouds 24 1013 77 0 9.09 127.895 18:38 28.07.2019
4522 Clouds 24 1013 77 0 9.09 127.895 18:38 28.07.2019
4523 Clouds 24 1014 78 0 9.14 129.734 18:18 28.07.2019
4524 Clouds 24 1014 78 0 9.14 129.734 17:41 28.07.2019
4525 Clouds 24 1014 78 0 9.14 129.734 17:22 28.07.2019
4526 Clouds 24 1014 78 0 9.14 129.734 16:57 28.07.2019
4527 Clouds 24 1014 78 0 9.14 129.734 16:38 28.07.2019
4528 Clouds 24 1014 78 0 9.14 129.734 16:19 28.07.2019
4529 Clouds 24 1014 78 0 9.14 129.734 15:42 28.07.2019
4530 Clouds 24 1015 79 0 9.68 128.826 15:21 28.07.2019
4531 Clouds 24 1015 79 0 9.68 128.826 14:37 28.07.2019
4532 Clouds 24 1015 79 0 9.68 128.826 14:37 28.07.2019
4533 Clouds 24 1015 79 0 9.68 128.826 14:37 28.07.2019
4534 Clouds 24 1015 79 0 9.68 128.826 14:37 28.07.2019
4535 Clouds 24 1015 79 0 9.68 128.826 14:19 28.07.2019
4536 Clouds 24 1015 79 0 9.68 128.826 13:44 28.07.2019
4537 Clouds 24 1015 78 0 9.75 128.01 13:23 28.07.2019
4538 Clouds 24 1015 78 0 9.75 128.01 12:59 28.07.2019
4539 Clouds 24 1015 78 0 9.75 128.01 12:40 28.07.2019
4540 Clouds 25 1015 81 0 11.56 141.592 12:22 28.07.2019
4541 Clouds 25 1015 81 0 11.56 141.592 11:46 28.07.2019
4542 Clouds 25 1015 81 0 11.56 141.592 11:27 28.07.2019
4543 Clouds 25 1015 81 0 11.56 141.592 11:27 28.07.2019
4544 Clouds 25 1015 81 0 11.56 141.592 10:40 28.07.2019
4545 Clouds 27 1011 74 10000 5.1 150 10:21 28.07.2019
4546 Clouds 27 1011 74 10000 5.1 150 09:45 28.07.2019
4547 Clouds 27 1011 74 10000 5.1 150 09:27 28.07.2019
4548 Clouds 28 1011 69 10000 5.1 150 08:51 28.07.2019
4549 Clouds 28 1011 69 10000 5.1 150 08:28 28.07.2019
4550 Clouds 29 1011 66 10000 5.1 150 07:53 28.07.2019
4551 Clouds 28 1011 65 10000 7.2 150 07:35 28.07.2019
4552 Clouds 28 1011 65 10000 7.2 150 06:41 28.07.2019
4553 Haze 28 1013 58 10000 6.7 160 05:26 28.07.2019
4554 Haze 27 1015 57 10000 2.1 0 03:27 28.07.2019
4555 Haze 27 1015 57 10000 2.1 0 02:19 28.07.2019
4556 Clouds 23 1014 78 10000 1.5 0 01:19 28.07.2019
4557 Clouds 23 1014 78 10000 1.5 0 00:44 28.07.2019
4558 Clouds 21 1014 88 10000 1 0 00:18 28.07.2019
4559 Clouds 21 1014 88 10000 1 0 23:44 27.07.2019
4560 Clouds 21 1014 88 10000 1 0 23:19 27.07.2019
4561 Clouds 20 1013 94 10000 1 0 22:40 27.07.2019
4562 Clouds 20 1013 94 10000 1 0 22:19 27.07.2019
4563 Clear 24 1015 76 0 9.69 126.548 21:39 27.07.2019
4564 Clouds 22 1013 83 10000 2.6 120 21:20 27.07.2019
4565 Clear 24 1013 78 0 10.28 125.501 20:50 27.07.2019
4566 Clear 24 1013 78 0 10.28 125.501 20:23 27.07.2019
4567 Clear 24 1013 78 0 10.28 125.501 19:46 27.07.2019
4568 Clear 24 1013 78 0 10.28 125.501 19:26 27.07.2019
4569 Clear 24 1013 78 0 10.28 125.501 18:51 27.07.2019
4570 Clear 24 1013 78 0 10.28 125.501 18:32 27.07.2019
4571 Clear 24 1014 78 0 11.08 128.296 17:52 27.07.2019
4572 Clear 24 1014 78 0 11.08 128.296 17:33 27.07.2019
4573 Clear 24 1014 78 0 11.08 128.296 16:58 27.07.2019
4574 Clear 24 1014 78 0 11.08 128.296 16:39 27.07.2019
4575 Clear 24 1014 78 0 11.08 128.296 16:19 27.07.2019
4576 Clear 24 1014 78 0 11.08 128.296 15:44 27.07.2019
4577 Clouds 24 1015 80 0 10.57 131.425 15:19 27.07.2019
4578 Clouds 24 1015 80 0 10.57 131.425 14:48 27.07.2019
4579 Clouds 24 1015 80 0 10.57 131.425 14:29 27.07.2019
4580 Clouds 24 1015 80 0 10.57 131.425 13:52 27.07.2019
4581 Clear 24 1015 80 0 10.73 133.362 13:25 27.07.2019
4582 Clear 24 1015 80 0 10.73 133.362 12:56 27.07.2019
4583 Clear 24 1015 80 0 10.73 133.362 12:37 27.07.2019
4584 Clouds 25 1014 77 0 11.92 138.872 12:19 27.07.2019
4585 Clouds 25 1014 77 0 11.92 138.872 11:40 27.07.2019
4586 Haze 25 1012 78 10000 12.9 160 11:21 27.07.2019
4587 Haze 25 1012 78 10000 12.9 160 10:41 27.07.2019
4588 Haze 25 1012 78 10000 12.9 160 10:22 27.07.2019
4589 Haze 26 1011 74 10000 10.8 160 09:41 27.07.2019
4590 Haze 26 1011 74 10000 10.8 160 09:23 27.07.2019
4591 Haze 27 1011 74 10000 12.9 160 08:49 27.07.2019
4592 Haze 27 1011 74 10000 12.9 160 08:49 27.07.2019
4593 Haze 27 1011 74 10000 12.9 160 08:30 27.07.2019
4594 Haze 28 1011 69 10000 12.9 160 07:55 27.07.2019
4595 Haze 28 1011 69 10000 12.9 160 07:33 27.07.2019
4596 Haze 29 1011 62 10000 10.3 160 06:57 27.07.2019
4597 Haze 29 1011 62 10000 10.3 160 06:32 27.07.2019
4598 Haze 29 1012 62 10000 10.3 160 05:53 27.07.2019
4599 Haze 29 1012 62 10000 10.3 160 05:28 27.07.2019
4600 Clouds 28 1013 58 10000 5.1 170 04:33 27.07.2019
4601 Clouds 28 1013 58 10000 5.1 170 03:28 27.07.2019
4602 Clouds 24 1015 74 0 10.27 126.874 02:40 27.07.2019
4603 Clouds 26 1014 65 10000 5.1 130 01:48 27.07.2019
4604 Clouds 26 1014 65 10000 5.1 130 01:21 27.07.2019
4605 Haze 24 1013 73 10000 5.1 130 00:32 27.07.2019
4606 Clouds 22 1013 83 10000 2.6 130 23:54 26.07.2019
4607 Clouds 22 1013 83 10000 2.6 130 23:33 26.07.2019
4608 Clouds 22 1013 83 10000 2.6 130 23:33 26.07.2019
4609 Clouds 21 1012 88 10000 5.1 120 22:57 26.07.2019
4610 Clouds 24 1014 76 0 11.16 127.275 22:38 26.07.2019
4611 Clouds 21 1012 88 10000 3.1 120 22:20 26.07.2019
4612 Clouds 21 1012 88 10000 3.1 120 21:49 26.07.2019
4613 Clouds 21 1012 88 10000 3.1 120 21:20 26.07.2019
4614 Clouds 24 1012 77 0 11.24 126.971 20:43 26.07.2019
4615 Clouds 24 1012 77 0 11.24 126.971 20:24 26.07.2019
4616 Clouds 24 1012 77 0 11.24 126.971 19:44 26.07.2019
4617 Clouds 24 1012 77 0 11.24 126.971 19:25 26.07.2019
4618 Clouds 24 1012 77 0 11.24 126.971 18:58 26.07.2019
4619 Clouds 24 1012 77 0 11.24 126.971 18:37 26.07.2019
4620 Clouds 23 1012 83 10000 5.1 130 18:19 26.07.2019
4621 Clouds 23 1012 83 10000 5.1 130 17:46 26.07.2019
4622 Clouds 23 1012 83 10000 3.6 140 17:19 26.07.2019
4623 Clouds 23 1012 83 10000 3.6 140 16:57 26.07.2019
4624 Clouds 23 1012 83 10000 3.6 140 16:38 26.07.2019
4625 Clouds 23 1012 83 10000 3.6 140 16:19 26.07.2019
4626 Clouds 24 1013 79 0 12.25 127.918 15:55 26.07.2019
4627 Clouds 24 1013 79 0 12.25 127.918 15:36 26.07.2019
4628 Clouds 25 1015 79 0 13.3 130.262 15:18 26.07.2019
4629 Clouds 25 1015 79 0 13.3 130.262 14:42 26.07.2019
4630 Clouds 24 1012 83 10000 8.7 140 14:22 26.07.2019
4631 Clouds 25 1015 79 0 13.3 130.262 13:40 26.07.2019
4632 Clouds 24 1012 88 10000 7.2 150 13:22 26.07.2019
4633 Clouds 24 1012 88 10000 7.2 150 12:48 26.07.2019
4634 Clouds 25 1011 78 10000 6.2 150 12:20 26.07.2019
4635 Clouds 25 1011 78 10000 6.2 150 11:40 26.07.2019
4636 Clouds 25 1011 78 10000 6.2 150 11:21 26.07.2019
4637 Haze 26 1010 78 10000 10.3 160 10:57 26.07.2019
4638 Clouds 25 1012 80 0 13.27 139.046 10:38 26.07.2019
4639 Haze 26 1010 78 10000 10.3 160 09:55 26.07.2019
4640 Haze 26 1010 78 10000 10.3 160 09:37 26.07.2019
4641 Smoke 27 1010 78 10000 7.7 150 08:57 26.07.2019
4642 Smoke 27 1010 78 10000 7.7 150 08:57 26.07.2019
4643 Smoke 27 1010 78 10000 7.7 150 08:39 26.07.2019
4644 Smoke 27 1010 78 10000 7.7 150 08:20 26.07.2019
4645 Haze 28 1010 74 10000 7.7 160 07:33 26.07.2019
4646 Haze 28 1010 74 10000 7.7 160 06:56 26.07.2019
4647 Haze 28 1011 74 10000 7.7 150 05:23 26.07.2019
4648 Haze 29 1012 66 10000 7.7 160 04:29 26.07.2019
4649 Haze 28 1012 69 10000 7.7 150 03:43 26.07.2019
4650 Smoke 25 1013 83 10000 1.5 0 01:43 26.07.2019
4651 Smoke 22 1014 100 10000 1.5 0 00:47 26.07.2019
4652 Fog 21 1013 100 10000 1.5 0 23:59 25.07.2019
4653 Fog 19 1013 100 10000 1.5 0 23:25 25.07.2019
4654 Fog 19 1013 100 10000 1.5 0 22:58 25.07.2019
4655 Fog 19 1013 100 10000 1.5 0 22:39 25.07.2019
4656 Fog 19 1013 100 10000 1.5 0 22:20 25.07.2019
4657 Clouds 24 1014 82 0 10.35 124.033 21:45 25.07.2019
4658 Rain 24 1013 83 0 10.47 126.22 21:22 25.07.2019
4659 Clouds 24 1013 82 0 10.11 125.392 20:48 25.07.2019
4660 Clouds 24 1013 82 0 10.11 125.392 20:23 25.07.2019
4661 Clouds 24 1013 82 0 10.11 125.392 19:44 25.07.2019
4662 Clouds 24 1013 82 0 10.11 125.392 19:26 25.07.2019
4663 Clouds 24 1013 82 0 10.11 125.392 18:58 25.07.2019
4664 Clouds 24 1013 82 0 10.11 125.392 18:39 25.07.2019
4665 Clouds 25 1014 83 0 10.83 129.384 18:20 25.07.2019
4666 Clouds 25 1014 83 0 10.83 129.384 17:44 25.07.2019
4667 Clouds 25 1014 83 0 10.83 129.384 17:24 25.07.2019
4668 Clouds 25 1014 83 0 10.83 129.384 16:44 25.07.2019
4669 Clouds 22 1013 94 10000 4.1 140 16:26 25.07.2019
4670 Clouds 25 1014 83 0 10.83 129.384 15:56 25.07.2019
4671 Clouds 22 1013 94 10000 4.1 150 15:21 25.07.2019
4672 Clouds 22 1013 94 10000 4.1 150 14:58 25.07.2019
4673 Clouds 22 1013 94 10000 4.1 150 14:40 25.07.2019
4674 Clouds 22 1013 94 10000 4.1 150 14:20 25.07.2019
4675 Clouds 24 1013 88 10000 7.7 150 13:41 25.07.2019
4676 Clouds 24 1013 88 10000 7.7 150 13:23 25.07.2019
4677 Clouds 25 1015 83 0 11.26 130.308 12:39 25.07.2019
4678 Clouds 25 1013 81 0 11.42 139.139 12:21 25.07.2019
4679 Clouds 25 1013 81 0 11.42 139.139 11:41 25.07.2019
4680 Clouds 25 1011 83 10000 7.7 140 11:23 25.07.2019
4681 Clouds 25 1011 83 10000 7.7 140 11:23 25.07.2019
4682 Clouds 25 1011 83 10000 7.7 140 10:45 25.07.2019
4683 Clouds 25 1011 83 10000 7.7 140 10:25 25.07.2019
4684 Clouds 26 1011 83 10000 10.3 140 09:47 25.07.2019
4685 Clouds 26 1011 83 10000 10.3 140 09:28 25.07.2019
4686 Smoke 27 1010 74 10000 7.7 140 08:53 25.07.2019
4687 Smoke 27 1010 74 10000 7.7 140 08:33 25.07.2019
4688 Clouds 27 1010 74 10000 12.9 140 07:41 25.07.2019
4689 Clouds 28 1011 65 10000 12.9 150 06:50 25.07.2019
4690 Clouds 28 1011 65 10000 12.9 150 06:31 25.07.2019
4691 Clouds 28 1011 65 10000 12.9 160 05:36 25.07.2019
4692 Clouds 29 1012 51 10000 12.9 160 04:50 25.07.2019
4693 Clouds 27 1013 61 10000 12.9 150 03:24 25.07.2019
4694 Clouds 27 1013 61 10000 10.3 130 01:21 25.07.2019
4695 Clouds 25 1013 69 10000 5.7 130 00:34 25.07.2019
4696 Clouds 23 1012 78 10000 5.1 130 23:56 24.07.2019
4697 Clouds 23 1012 78 10000 5.1 130 23:38 24.07.2019
4698 Clouds 23 1012 78 10000 5.1 130 23:20 24.07.2019
4699 Clouds 23 1012 78 10000 5.1 130 22:44 24.07.2019
4700 Clouds 23 1012 78 10000 5.1 130 22:22 24.07.2019
4701 Clouds 24 1014 78 0 11.95 126.363 21:55 24.07.2019
4702 Clouds 24 1014 78 0 11.95 126.363 21:37 24.07.2019
4703 Clouds 24 1013 78 0 12.87 130.091 21:18 24.07.2019
4704 Clouds 24 1013 79 0 12.78 130.04 20:45 24.07.2019
4705 Clouds 24 1013 79 0 12.78 130.04 20:26 24.07.2019
4706 Clouds 24 1013 79 0 12.78 130.04 19:58 24.07.2019
4707 Clouds 24 1013 79 0 12.78 130.04 19:39 24.07.2019
4708 Clouds 24 1013 79 0 12.78 130.04 19:19 24.07.2019
4709 Clouds 24 1013 79 0 12.78 130.04 18:43 24.07.2019
4710 Clouds 24 1014 77 0 13.45 128.524 18:24 24.07.2019
4711 Clouds 24 1014 77 0 13.45 128.524 17:47 24.07.2019
4712 Clouds 24 1014 77 0 13.45 128.524 17:21 24.07.2019
4713 Clouds 24 1014 77 0 13.45 128.524 16:44 24.07.2019
4714 Clouds 25 1013 78 10000 15.4 150 16:23 24.07.2019
4715 Clouds 25 1013 78 10000 15.4 150 15:59 24.07.2019
4716 Clouds 25 1013 78 10000 15.4 150 15:36 24.07.2019
4717 Clouds 25 1013 78 10000 15.4 150 15:18 24.07.2019
4718 Clouds 25 1013 73 10000 12.9 140 14:43 24.07.2019
4719 Clouds 25 1015 75 0 14.21 130.376 14:19 24.07.2019
4720 Clouds 25 1015 75 0 14.21 130.376 13:39 24.07.2019
4721 Clouds 25 1015 75 0 14.14 130.066 13:19 24.07.2019
4722 Clouds 25 1015 75 0 14.14 130.066 12:51 24.07.2019
4723 Clouds 25 1015 75 0 14.14 130.066 12:51 24.07.2019
4724 Clouds 25 1015 75 0 14.14 130.066 12:33 24.07.2019
4725 Clouds 25 1013 75 0 15 135.551 11:41 24.07.2019
4726 Clouds 26 1010 74 10000 7.7 150 11:21 24.07.2019
4727 Clouds 26 1010 74 10000 7.7 150 10:47 24.07.2019
4728 Clouds 26 1010 74 10000 7.7 150 10:26 24.07.2019
4729 Clouds 27 1010 74 10000 7.7 170 09:52 24.07.2019
4730 Clouds 27 1010 74 10000 7.7 170 09:26 24.07.2019
4731 Clouds 28 1010 74 10000 7.7 160 08:59 24.07.2019
4732 Clouds 28 1010 74 10000 7.7 160 08:35 24.07.2019
4733 Clouds 29 1009 66 10000 7.7 160 07:52 24.07.2019
4734 Clouds 29 1009 66 10000 7.7 160 07:31 24.07.2019
4735 Clouds 29 1009 66 10000 7.7 160 07:31 24.07.2019
4736 Clouds 30 1010 62 10000 7.7 160 06:51 24.07.2019
4737 Clouds 30 1010 62 10000 7.7 160 06:27 24.07.2019
4738 Clouds 30 1011 62 10000 7.7 150 04:45 24.07.2019
4739 Clouds 27 1013 69 10000 5.1 150 01:47 24.07.2019
4740 Clouds 26 1012 74 10000 5.1 140 00:57 24.07.2019
4741 Clouds 26 1012 74 10000 5.1 140 00:30 24.07.2019
4742 Clouds 23 1012 88 10000 1.5 0 23:46 23.07.2019
4743 Clouds 23 1012 88 10000 1.5 0 23:25 23.07.2019
4744 Clouds 23 1012 88 10000 1.5 0 23:25 23.07.2019
4745 Clouds 23 1011 88 10000 3.6 130 22:56 23.07.2019
4746 Clouds 25 1013 76 0 14.25 125.586 22:36 23.07.2019
4747 Clouds 24 1010 83 10000 6.2 140 22:18 23.07.2019
4748 Clouds 24 1010 83 10000 6.2 140 22:18 23.07.2019
4749 Clouds 24 1010 83 10000 6.2 140 21:43 23.07.2019
4750 Clouds 24 1010 83 10000 6.2 140 21:25 23.07.2019
4751 Clouds 25 1011 78 0 13.43 122.772 20:48 23.07.2019
4752 Clouds 25 1011 78 0 13.43 122.772 20:29 23.07.2019
4753 Clouds 25 1011 78 0 13.43 122.772 19:43 23.07.2019
4754 Clouds 25 1011 78 0 13.43 122.772 19:24 23.07.2019
4755 Clouds 25 1011 78 0 13.43 122.772 18:55 23.07.2019
4756 Clouds 25 1011 78 0 13.43 122.772 18:37 23.07.2019
4757 Rain 25 1012 79 0 13.94 127.139 18:19 23.07.2019
4758 Rain 25 1012 79 0 13.94 127.139 17:41 23.07.2019
4759 Haze 25 1011 83 10000 8.7 140 17:20 23.07.2019
4760 Haze 25 1011 83 10000 8.7 140 16:42 23.07.2019
4761 Haze 25 1011 83 10000 8.7 140 16:24 23.07.2019
4762 Haze 25 1011 83 10000 8.7 140 15:48 23.07.2019
4763 Haze 25 1011 83 10000 8.7 140 15:29 23.07.2019
4764 Clouds 25 1013 81 0 12.26 130.764 14:41 23.07.2019
4765 Haze 25 1011 88 10000 8.7 150 14:23 23.07.2019
4766 Clouds 25 1013 81 0 12.26 130.764 14:00 23.07.2019
4767 Clouds 25 1013 81 0 12.26 130.764 13:41 23.07.2019
4768 Haze 25 1010 88 10000 9.3 150 13:23 23.07.2019
4769 Haze 25 1010 88 10000 9.3 150 12:49 23.07.2019
4770 Haze 25 1010 94 10000 7.2 150 12:27 23.07.2019
4771 Clouds 26 1011 82 0 12.2 136.309 11:55 23.07.2019
4772 Clouds 26 1011 82 0 12.2 136.309 11:37 23.07.2019
4773 Haze 26 1009 88 10000 3.6 150 11:18 23.07.2019
4774 Haze 26 1009 88 10000 3.6 150 10:41 23.07.2019
4775 Haze 26 1009 88 10000 3.6 150 10:21 23.07.2019
4776 Haze 26 1009 88 10000 3.6 150 10:21 23.07.2019
4777 Haze 26 1008 88 10000 7.7 150 09:41 23.07.2019
4778 Haze 26 1008 88 10000 7.7 150 09:20 23.07.2019
4779 Haze 27 1008 83 10000 7.7 150 08:43 23.07.2019
4780 Haze 27 1008 83 10000 7.7 150 08:19 23.07.2019
4781 Haze 28 1008 83 10000 7.7 140 07:55 23.07.2019
4782 Haze 28 1008 83 10000 7.7 140 07:36 23.07.2019
4783 Haze 29 1008 79 10000 7.7 160 06:48 23.07.2019
4784 Haze 28 1009 78 10000 5.1 160 06:29 23.07.2019
4785 Clouds 28 1011 78 10000 5.1 150 03:27 23.07.2019
4786 Clouds 25 1012 88 10000 1.5 0 01:33 23.07.2019
4787 Clouds 25 1012 88 10000 1.5 0 00:31 23.07.2019
4788 Clouds 23 1011 94 10000 1.5 0 23:56 22.07.2019
4789 Clouds 23 1011 94 10000 1.5 0 23:36 22.07.2019
4790 Clouds 23 1011 94 10000 1.5 0 23:18 22.07.2019
4791 Clouds 25 1012 85 0 7.64 123.971 22:42 22.07.2019
4792 Clouds 25 1012 85 0 7.64 123.971 22:21 22.07.2019
4793 Clouds 25 1012 85 0 7.64 123.971 21:43 22.07.2019
4794 Clouds 23 1010 94 10000 2.6 150 21:23 22.07.2019
4795 Clouds 23 1010 94 10000 2.6 150 20:49 22.07.2019
4796 Clouds 23 1010 94 10000 2.6 150 20:31 22.07.2019
4797 Clouds 23 1009 100 10000 2.6 140 19:57 22.07.2019
4798 Clouds 23 1009 100 10000 2.6 140 19:37 22.07.2019
4799 Clouds 23 1009 100 10000 2.6 140 19:18 22.07.2019
4800 Clouds 23 1009 100 10000 2.6 140 19:18 22.07.2019
4801 Clouds 25 1010 85 0 9.22 132.405 18:41 22.07.2019
4802 Clouds 25 1011 85 0 10.3 138.438 18:23 22.07.2019
4803 Clouds 25 1011 85 0 10.3 138.438 17:43 22.07.2019
4804 Clouds 25 1011 85 0 10.3 138.438 17:25 22.07.2019
4805 Clouds 25 1011 85 0 10.3 138.438 16:54 22.07.2019
4806 Clouds 25 1011 85 0 10.3 138.438 16:36 22.07.2019
4807 Clouds 25 1011 85 0 10.3 138.438 16:18 22.07.2019
4808 Clouds 25 1011 85 0 10.3 138.438 15:38 22.07.2019
4809 Rain 25 1012 87 0 9.01 145.177 15:19 22.07.2019
4810 Rain 25 1012 87 0 9.01 145.177 14:43 22.07.2019
4811 Rain 25 1012 87 0 9.01 145.177 14:21 22.07.2019
4812 Rain 25 1012 87 0 9.01 145.177 14:21 22.07.2019
4813 Rain 25 1012 87 0 9.01 145.177 13:48 22.07.2019
4814 Rain 25 1012 87 0 9.01 145.177 13:29 22.07.2019
4815 Rain 25 1012 87 0 9.01 145.177 12:47 22.07.2019
4816 Rain 25 1012 87 0 9.01 145.177 12:28 22.07.2019
4817 Clouds 24 1009 100 0 5.1 160 11:45 22.07.2019
4818 Clouds 24 1009 100 0 5.1 160 11:25 22.07.2019
4819 Clouds 24 1009 100 0 5.1 160 10:58 22.07.2019
4820 Clouds 24 1009 100 0 5.1 160 10:33 22.07.2019
4821 Clouds 24 1009 100 0 7.7 160 09:45 22.07.2019
4822 Clouds 24 1009 100 0 7.7 160 09:26 22.07.2019
4823 Rain 25 1009 86 0 9.88 147.219 08:56 22.07.2019
4824 Rain 25 1009 86 0 9.88 147.219 08:36 22.07.2019
4825 Clouds 26 1008 88 10000 10.3 160 08:18 22.07.2019
4826 Clouds 26 1008 88 10000 10.3 160 07:41 22.07.2019
4827 Clouds 26 1008 88 10000 10.3 160 07:22 22.07.2019
4828 Clouds 28 1010 74 10000 5.1 140 03:59 22.07.2019
4829 Haze 27 1011 78 10000 5.7 130 02:45 22.07.2019
4830 Smoke 24 1011 88 10000 2.6 130 00:58 22.07.2019
4831 Smoke 24 1011 88 10000 2.6 130 00:29 22.07.2019
4832 Clouds 23 1010 94 10000 1 0 23:57 21.07.2019
4833 Clouds 23 1010 94 10000 1 0 23:36 21.07.2019
4834 Clouds 23 1010 94 10000 1.5 0 22:55 21.07.2019
4835 Clouds 23 1010 94 10000 1.5 0 22:36 21.07.2019
4836 Clouds 23 1010 94 10000 1.5 0 22:18 21.07.2019
4837 Clouds 23 1010 94 10000 1 0 21:44 21.07.2019
4838 Clouds 25 1010 86 0 5.9 133.113 21:24 21.07.2019
4839 Clouds 25 1010 86 0 7.14 133.343 20:54 21.07.2019
4840 Clouds 25 1010 86 0 7.14 133.343 20:36 21.07.2019
4841 Clouds 25 1010 86 0 7.14 133.343 20:36 21.07.2019
4842 Clouds 25 1010 86 0 7.14 133.343 20:18 21.07.2019
4843 Clouds 25 1010 86 0 7.14 133.343 19:44 21.07.2019
4844 Clouds 25 1010 86 0 7.14 133.343 19:22 21.07.2019
4845 Clouds 25 1010 86 0 7.14 133.343 18:48 21.07.2019
4846 Rain 25 1011 85 0 7.51 133.737 18:26 21.07.2019
4847 Rain 25 1011 85 0 7.51 133.737 18:26 21.07.2019
4848 Rain 25 1011 85 0 7.51 133.737 17:43 21.07.2019
4849 Rain 25 1011 85 0 7.51 133.737 17:20 21.07.2019
4850 Rain 25 1011 85 0 7.51 133.737 16:57 21.07.2019
4851 Rain 25 1011 85 0 7.51 133.737 16:38 21.07.2019
4852 Rain 25 1011 85 0 7.51 133.737 16:20 21.07.2019
4853 Rain 25 1011 85 0 7.51 133.737 15:37 21.07.2019
4854 Clouds 25 1012 83 0 7.33 136.332 15:18 21.07.2019
4855 Clouds 25 1012 83 0 7.33 136.332 14:41 21.07.2019
4856 Clouds 25 1012 83 0 7.33 136.332 14:22 21.07.2019
4857 Clouds 25 1012 83 0 7.33 136.332 13:51 21.07.2019
4858 Clouds 25 1012 83 0 7.33 136.332 13:30 21.07.2019
4859 Clouds 25 1013 82 0 7.6 138.557 12:44 21.07.2019
4860 Clouds 25 1011 82 0 9.02 144.764 12:25 21.07.2019
4861 Clouds 25 1011 82 0 9.02 144.764 11:51 21.07.2019
4862 Clouds 25 1011 82 0 9.02 144.764 11:30 21.07.2019
4863 Clouds 25 1011 82 0 9.02 144.764 10:58 21.07.2019
4864 Clouds 25 1011 82 0 9.02 144.764 10:40 21.07.2019
4865 Clouds 25 1011 82 0 9.02 144.764 10:22 21.07.2019
4866 Clouds 25 1011 82 0 9.02 144.764 09:38 21.07.2019
4867 Clouds 27 1009 74 10000 5.1 150 09:20 21.07.2019
4868 Clouds 27 1009 74 10000 5.1 150 08:43 21.07.2019
4869 Clouds 27 1009 74 10000 5.1 150 08:25 21.07.2019
4870 Clouds 27 1009 78 10000 5.1 140 07:37 21.07.2019
4871 Clouds 27 1009 78 10000 5.1 160 06:45 21.07.2019
4872 Clouds 27 1011 74 10000 7.7 160 05:28 21.07.2019
4873 Clouds 25 1012 78 10000 5.1 140 02:27 21.07.2019
4874 Clouds 22 1012 88 10000 1.5 0 00:57 21.07.2019
4875 Clouds 22 1012 88 10000 1.5 0 00:24 21.07.2019
4876 Clouds 21 1012 94 10000 1.5 0 23:59 20.07.2019
4877 Clear 24 1013 80 0 8.07 120.916 23:37 20.07.2019
4878 Clouds 19 1011 100 10000 1.5 0 23:18 20.07.2019
4879 Clouds 19 1011 100 10000 1.5 0 22:42 20.07.2019
4880 Clouds 19 1011 100 10000 1.5 0 22:21 20.07.2019
4881 Clouds 20 1011 94 10000 1.5 150 21:45 20.07.2019
4882 Clouds 20 1011 94 10000 1.5 150 21:45 20.07.2019
4883 Clear 24 1011 80 0 8.91 120.48 21:24 20.07.2019
4884 Clear 24 1012 81 0 8.98 122.687 20:44 20.07.2019
4885 Clear 24 1012 81 0 8.98 122.687 20:23 20.07.2019
4886 Clear 24 1012 81 0 8.98 122.687 19:53 20.07.2019
4887 Clear 24 1012 81 0 8.98 122.687 19:53 20.07.2019
4888 Clear 24 1012 81 0 8.98 122.687 19:34 20.07.2019
4889 Clear 24 1012 81 0 8.98 122.687 18:58 20.07.2019
4890 Clear 24 1012 81 0 8.98 122.687 18:40 20.07.2019
4891 Clear 24 1013 80 0 9.73 126.992 18:19 20.07.2019
4892 Clear 24 1013 80 0 9.73 126.992 17:47 20.07.2019
4893 Clear 24 1013 80 0 9.73 126.992 17:20 20.07.2019
4894 Clear 24 1013 80 0 9.73 126.992 16:42 20.07.2019
4895 Clear 24 1013 80 0 9.73 126.992 16:24 20.07.2019
4896 Clear 24 1013 80 0 9.73 126.992 15:55 20.07.2019
4897 Clear 24 1013 80 0 9.73 126.992 15:37 20.07.2019
4898 Clouds 24 1014 79 0 10.96 130.107 15:18 20.07.2019
4899 Clouds 24 1014 79 0 10.96 130.107 14:42 20.07.2019
4900 Clouds 24 1014 79 0 10.96 130.107 14:20 20.07.2019
4901 Clouds 24 1014 79 0 10.96 130.107 13:38 20.07.2019
4902 Clouds 24 1014 78 0 10.75 130.06 13:19 20.07.2019
4903 Clouds 24 1014 78 0 10.75 130.06 12:51 20.07.2019
4904 Clouds 25 1013 78 0 11.83 136.949 12:20 20.07.2019
4905 Clouds 25 1013 78 0 11.83 136.949 11:52 20.07.2019
4906 Haze 25 1011 78 10000 7.7 150 11:23 20.07.2019
4907 Haze 25 1011 78 10000 7.7 150 10:49 20.07.2019
4908 Haze 25 1011 78 10000 7.7 150 10:26 20.07.2019
4909 Clouds 25 1013 78 0 11.83 136.949 09:52 20.07.2019
4910 Clouds 25 1013 78 0 11.83 136.949 09:27 20.07.2019
4911 Haze 27 1010 74 10000 12.9 150 08:57 20.07.2019
4912 Haze 27 1010 74 10000 12.9 150 08:36 20.07.2019
4913 Haze 27 1010 74 10000 12.9 150 08:18 20.07.2019
4914 Haze 28 1011 65 10000 12.9 160 06:47 20.07.2019
4915 Haze 28 1011 65 10000 12.9 160 06:21 20.07.2019
4916 Clouds 28 1013 65 10000 7.7 160 04:31 20.07.2019
4917 Clouds 26 1013 74 10000 7.7 140 02:34 20.07.2019
4918 Clouds 24 1013 83 10000 7.7 140 01:19 20.07.2019
4919 Clouds 24 1013 83 10000 7.7 140 00:39 20.07.2019
4920 Clouds 24 1013 83 10000 7.7 140 00:18 20.07.2019
4921 Clouds 24 1013 83 0 10.32 131.026 23:40 19.07.2019
4922 Clouds 24 1011 83 10000 5.1 140 23:22 19.07.2019
4923 Clouds 24 1011 83 10000 5.1 140 22:43 19.07.2019
4924 Clouds 24 1011 83 10000 5.1 140 22:23 19.07.2019
4925 Clouds 24 1013 83 0 10.32 131.026 21:45 19.07.2019
4926 Clouds 24 1013 82 0 11.08 130.347 21:26 19.07.2019
4927 Clouds 24 1012 83 0 9.92 130.416 20:49 19.07.2019
4928 Clouds 24 1012 83 0 9.92 130.416 20:31 19.07.2019
4929 Clouds 24 1012 83 0 9.92 130.416 19:48 19.07.2019
4930 Clouds 24 1012 83 0 9.92 130.416 19:20 19.07.2019
4931 Clouds 24 1012 83 0 9.92 130.416 18:42 19.07.2019
4932 Clouds 24 1013 84 0 11.05 130.377 18:21 19.07.2019
4933 Clouds 24 1013 84 0 11.05 130.377 17:52 19.07.2019
4934 Clouds 24 1012 83 10000 7.2 150 17:27 19.07.2019
4935 Clouds 24 1012 83 10000 7.2 150 17:27 19.07.2019
4936 Clouds 24 1012 83 10000 7.2 150 16:49 19.07.2019
4937 Clouds 24 1012 83 10000 7.2 150 16:26 19.07.2019
4938 Clouds 24 1013 84 0 11.05 130.377 15:50 19.07.2019
4939 Clouds 24 1012 83 10000 6.7 140 15:31 19.07.2019
4940 Clouds 24 1012 83 10000 6.7 140 14:57 19.07.2019
4941 Clouds 24 1012 83 10000 6.7 140 14:38 19.07.2019
4942 Clouds 24 1012 83 10000 6.7 140 14:20 19.07.2019
4943 Clouds 24 1012 88 10000 7.2 140 13:44 19.07.2019
4944 Clouds 24 1012 88 10000 7.2 140 13:44 19.07.2019
4945 Clouds 24 1012 88 10000 7.2 140 13:44 19.07.2019
4946 Clouds 24 1012 88 10000 7.2 140 13:44 19.07.2019
4947 Clouds 24 1012 88 10000 7.2 140 13:44 19.07.2019
4948 Clouds 24 1012 88 10000 7.2 140 13:25 19.07.2019
4949 Clouds 24 1012 88 10000 5.7 150 12:55 19.07.2019
4950 Clouds 24 1011 88 10000 5.7 145 12:31 19.07.2019
4951 Clouds 24 1011 88 10000 5.7 145 11:58 19.07.2019
4952 Clouds 24 1011 88 10000 5.7 145 11:40 19.07.2019
4953 Clouds 24 1011 88 10000 5.7 145 11:18 19.07.2019
4954 Clouds 25 1012 84 0 12.71 138.873 10:41 19.07.2019
4955 Clouds 25 1010 83 10000 7.7 150 10:21 19.07.2019
4956 Clouds 25 1010 83 10000 7.7 150 09:44 19.07.2019
4957 Clouds 26 1010 83 10000 7.7 150 09:22 19.07.2019
4958 Clouds 26 1010 83 10000 7.7 150 08:59 19.07.2019
4959 Clouds 26 1010 83 10000 7.7 150 08:40 19.07.2019
4960 Clouds 26 1009 78 10000 7.7 150 07:48 19.07.2019
4961 Clouds 26 1009 78 10000 7.7 150 07:26 19.07.2019
4962 Haze 28 1010 74 10000 7.7 160 05:55 19.07.2019
4963 Clouds 25 1014 79 0 9.96 134.195 02:23 19.07.2019
4964 Clouds 25 1013 78 10000 2.6 150 00:59 19.07.2019
4965 Clouds 25 1013 78 10000 2.6 150 00:31 19.07.2019
4966 Haze 24 1012 83 10000 7.7 150 23:43 18.07.2019
4967 Haze 24 1012 83 10000 7.7 150 23:23 18.07.2019
4968 Clouds 23 1011 88 10000 5.1 140 22:59 18.07.2019
4969 Clouds 23 1011 88 10000 5.1 140 22:39 18.07.2019
4970 Clouds 23 1011 88 10000 5.1 140 22:18 18.07.2019
4971 Clouds 24 1013 82 0 10.47 130.642 21:41 18.07.2019
4972 Clouds 24 1012 82 0 10.08 132.097 21:22 18.07.2019
4973 Clouds 24 1012 81 0 9.76 133.098 20:49 18.07.2019
4974 Clouds 24 1012 81 0 9.76 133.098 20:28 18.07.2019
4975 Clouds 24 1012 81 0 9.76 133.098 19:53 18.07.2019
4976 Clouds 24 1012 81 0 9.76 133.098 19:31 18.07.2019
4977 Clouds 24 1012 81 0 9.76 133.098 18:57 18.07.2019
4978 Clouds 24 1012 81 0 9.76 133.098 18:38 18.07.2019
4979 Clouds 25 1012 80 0 8.97 126.147 18:19 18.07.2019
4980 Clouds 25 1012 80 0 8.97 126.147 17:42 18.07.2019
4981 Clouds 25 1012 80 0 8.97 126.147 17:42 18.07.2019
4982 Clouds 24 1012 83 10000 5.1 140 17:24 18.07.2019
4983 Clouds 24 1012 83 10000 5.1 140 16:54 18.07.2019
4984 Clouds 24 1012 83 10000 5.1 140 16:29 18.07.2019
4985 Clouds 25 1012 80 0 8.97 126.147 15:58 18.07.2019
4986 Clouds 25 1012 80 0 8.97 126.147 15:37 18.07.2019
4987 Clouds 25 1013 82 0 12.02 130.204 15:19 18.07.2019
4988 Clouds 25 1013 82 0 12.02 130.204 14:42 18.07.2019
4989 Clouds 24 1011 83 10000 5.1 140 14:23 18.07.2019
4990 Clouds 24 1011 83 10000 5.1 140 13:43 18.07.2019
4991 Clouds 24 1011 83 10000 5.1 140 13:22 18.07.2019
4992 Clouds 24 1011 88 10000 5.1 140 12:48 18.07.2019
4993 Clouds 24 1011 88 10000 5.1 140 12:21 18.07.2019
4994 Clouds 24 1011 88 10000 5.1 140 11:52 18.07.2019
4995 Clouds 24 1010 88 10000 7.7 140 11:34 18.07.2019
4996 Clouds 24 1010 88 10000 7.7 140 10:58 18.07.2019
4997 Clouds 24 1010 88 10000 7.7 140 10:38 18.07.2019
4998 Clouds 25 1009 88 10000 7.7 140 09:48 18.07.2019
4999 Clouds 25 1009 88 10000 7.7 140 09:25 18.07.2019
5000 Drizzle 25 1009 88 10000 7.7 130 08:50 18.07.2019
5001 Drizzle 25 1009 88 10000 7.7 130 08:20 18.07.2019
5002 Clouds 25 1009 88 10000 9.3 150 07:44 18.07.2019
5003 Clouds 25 1009 88 10000 9.3 150 07:26 18.07.2019
5004 Haze 27 1009 78 10000 7.7 130 06:38 18.07.2019
5005 Clouds 25 1011 86 0 11.17 143.249 05:35 18.07.2019
5006 Clouds 28 1012 74 10000 4.6 140 03:23 18.07.2019
5007 Clouds 26 1012 83 10000 4.6 150 01:52 18.07.2019
5008 Clouds 24 1012 88 10000 5.1 130 00:36 18.07.2019
5009 Clouds 24 1011 88 10000 3.1 130 23:49 17.07.2019
5010 Clouds 25 1012 84 0 10.12 130.047 23:20 17.07.2019
5011 Clouds 25 1012 84 0 10.12 130.047 22:56 17.07.2019
5012 Clouds 25 1012 84 0 10.12 130.047 22:38 17.07.2019
5013 Clouds 24 1010 88 10000 2.1 130 22:18 17.07.2019
5014 Clouds 24 1010 88 10000 2.1 130 21:43 17.07.2019
5015 Clouds 24 1010 88 10000 2.1 130 21:25 17.07.2019
5016 Clouds 25 1011 85 0 10.77 127.726 20:58 17.07.2019
5017 Clouds 25 1011 85 0 10.77 127.726 20:39 17.07.2019
5018 Clouds 25 1011 85 0 10.77 127.726 20:20 17.07.2019
5019 Clouds 25 1011 85 0 10.77 127.726 20:20 17.07.2019
5020 Clouds 25 1011 85 0 10.77 127.726 19:43 17.07.2019
5021 Clouds 25 1011 85 0 10.77 127.726 19:22 17.07.2019
5022 Clouds 25 1011 85 0 10.77 127.726 18:58 17.07.2019
5023 Clouds 25 1011 85 0 10.77 127.726 18:39 17.07.2019
5024 Clouds 25 1012 84 0 10.55 129.359 18:20 17.07.2019
5025 Clouds 25 1012 84 0 10.55 129.359 17:45 17.07.2019
5026 Clouds 25 1012 84 0 10.55 129.359 17:24 17.07.2019
5027 Clouds 25 1012 84 0 10.55 129.359 16:43 17.07.2019
5028 Clouds 25 1012 84 0 10.55 129.359 16:23 17.07.2019
5029 Clouds 25 1012 84 0 10.55 129.359 15:52 17.07.2019
5030 Clouds 25 1012 84 0 10.55 129.359 15:32 17.07.2019
5031 Clouds 25 1013 85 0 11.36 133.334 14:58 17.07.2019
5032 Clouds 25 1013 85 0 11.36 133.334 14:40 17.07.2019
5033 Clouds 25 1013 85 0 11.36 133.334 14:21 17.07.2019
5034 Clouds 25 1013 85 0 11.36 133.334 13:57 17.07.2019
5035 Clouds 25 1013 85 0 11.36 133.334 13:36 17.07.2019
5036 Clouds 25 1013 86 0 12.15 136.701 13:18 17.07.2019
5037 Clouds 25 1013 86 0 12.15 136.701 12:39 17.07.2019
5038 Clouds 25 1010 88 10000 6.2 150 12:19 17.07.2019
5039 Clouds 25 1010 88 10000 6.2 150 11:43 17.07.2019
5040 Clouds 26 1009 83 10000 5.1 150 11:19 17.07.2019
5041 Clouds 26 1009 83 10000 5.1 150 10:49 17.07.2019
5042 Clouds 26 1009 83 10000 5.1 150 10:24 17.07.2019
5043 Clouds 26 1009 88 10000 5.1 150 09:45 17.07.2019
5044 Clouds 27 1008 78 10000 7.7 150 09:27 17.07.2019
5045 Clouds 27 1008 78 10000 7.7 150 08:56 17.07.2019
5046 Clear 25 1009 85 0 12.89 147.321 08:37 17.07.2019
5047 Clouds 27 1008 83 10000 7.7 150 08:18 17.07.2019
5048 Clouds 27 1008 83 10000 7.7 150 07:41 17.07.2019
5049 Clouds 27 1008 83 10000 7.7 150 07:21 17.07.2019
5050 Clouds 27 1009 83 10000 7.7 150 06:45 17.07.2019
5051 Clouds 27 1009 83 10000 7.7 150 06:45 17.07.2019
5052 Clouds 27 1009 83 10000 7.7 150 06:45 17.07.2019
5053 Clouds 27 1009 83 10000 7.7 150 06:25 17.07.2019
5054 Clear 25 1010 86 0 10.15 147.593 05:39 17.07.2019
5055 Clouds 27 1011 83 10000 10.3 150 04:58 17.07.2019
5056 Clouds 28 1011 74 10000 10.3 150 03:55 17.07.2019
5057 Clouds 28 1012 78 10000 10.3 150 02:43 17.07.2019
5058 Clouds 25 1012 88 10000 10.3 150 01:42 17.07.2019
5059 Clouds 24 1012 94 10000 7.7 150 01:22 17.07.2019
5060 Clouds 24 1012 94 10000 7.7 150 00:42 17.07.2019
5061 Clouds 24 1012 94 10000 7.7 150 00:22 17.07.2019
5062 Clouds 24 1011 94 10000 7.7 150 23:45 16.07.2019
5063 Clouds 24 1011 94 10000 7.7 150 23:24 16.07.2019
5064 Clouds 24 1011 94 10000 7.7 150 23:24 16.07.2019
5065 Clouds 24 1011 94 10000 7.7 160 22:45 16.07.2019
5066 Clouds 24 1011 94 10000 7.7 160 22:26 16.07.2019
5067 Clouds 24 1011 94 10000 7.7 160 21:59 16.07.2019
5068 Clouds 24 1011 94 10000 7.7 160 21:59 16.07.2019
5069 Rain 25 1012 89 0 10.04 140.487 21:40 16.07.2019
5070 Rain 25 1011 89 0 10.04 141.698 21:19 16.07.2019
5071 Rain 25 1011 87 0 10.68 135.19 20:41 16.07.2019
5072 Clouds 24 1011 94 10000 4.6 160 20:23 16.07.2019
5073 Clouds 24 1011 94 10000 4.6 160 20:23 16.07.2019
5074 Clouds 24 1011 94 10000 4.6 160 19:54 16.07.2019
5075 Clouds 24 1011 94 10000 5.7 150 19:30 16.07.2019
5076 Clouds 24 1011 94 10000 5.7 150 18:59 16.07.2019
5077 Rain 25 1011 87 0 10.68 135.19 18:41 16.07.2019
5078 Clouds 24 1011 94 10000 5.1 160 18:21 16.07.2019
5079 Clouds 24 1011 94 10000 5.1 160 17:49 16.07.2019
5080 Clouds 24 1012 94 10000 7.7 160 17:28 16.07.2019
5081 Clouds 24 1012 94 10000 7.7 160 16:51 16.07.2019
5082 Clouds 24 1012 94 10000 7.7 160 16:27 16.07.2019
5083 Clouds 24 1012 94 10000 7.7 160 15:57 16.07.2019
5084 Clouds 24 1012 94 10000 7.7 160 15:39 16.07.2019
5085 Clouds 24 1012 94 10000 7.7 160 15:19 16.07.2019
5086 Clouds 24 1012 94 10000 7.7 160 14:55 16.07.2019
5087 Clouds 24 1012 94 10000 7.7 160 14:36 16.07.2019
5088 Clouds 24 1012 94 10000 7.7 160 14:18 16.07.2019
5089 Clouds 24 1012 94 10000 5.1 150 13:38 16.07.2019
5090 Clouds 24 1012 94 10000 5.1 150 13:18 16.07.2019
5091 Clouds 25 1010 83 10000 5.1 150 12:43 16.07.2019
5092 Clouds 25 1010 83 10000 5.1 150 12:20 16.07.2019
5093 Clouds 25 1010 88 10000 5.1 150 11:54 16.07.2019
5094 Clouds 25 1010 88 10000 5.1 150 11:36 16.07.2019
5095 Clouds 25 1010 88 10000 5.1 150 11:18 16.07.2019
5096 Clouds 25 1010 88 10000 5.1 150 11:18 16.07.2019
5097 Clouds 25 1010 88 10000 5.1 150 10:43 16.07.2019
5098 Clouds 25 1010 88 10000 5.1 150 10:19 16.07.2019
5099 Smoke 26 1010 88 10000 7.7 150 09:43 16.07.2019
5100 Smoke 26 1010 88 10000 7.7 150 09:21 16.07.2019
5101 Smoke 26 1009 88 10000 7.7 150 08:48 16.07.2019
5102 Rain 25 1010 86 0 11.71 138.987 08:27 16.07.2019
5103 Rain 25 1010 86 0 11.71 138.987 08:27 16.07.2019
5104 Rain 25 1010 86 0 11.71 138.987 07:54 16.07.2019
5105 Clouds 27 1009 83 10000 7.7 160 07:35 16.07.2019
5106 Clouds 27 1009 83 10000 7.7 160 06:58 16.07.2019
5107 Rain 25 1010 86 0 11.71 138.987 06:37 16.07.2019
5108 Clouds 27 1010 83 10000 10.3 140 05:52 16.07.2019
5109 Clouds 27 1010 83 10000 10.3 140 05:27 16.07.2019
5110 Rain 25 1010 85 0 11.88 137.746 04:34 16.07.2019
5111 Rain 25 1010 85 0 11.88 137.746 03:42 16.07.2019
5112 Clouds 27 1012 78 10000 6.7 140 02:44 16.07.2019
5113 Clouds 27 1012 78 10000 6.7 140 02:22 16.07.2019
5114 Clouds 25 1012 83 10000 6.7 160 01:24 16.07.2019
5115 Clouds 25 1012 83 10000 6.7 160 00:23 16.07.2019
5116 Clouds 24 1011 88 10000 6.2 150 23:58 15.07.2019
5117 Rain 25 1012 88 0 9.34 129.632 23:38 15.07.2019
5118 Clouds 24 1010 88 10000 6.2 150 23:18 15.07.2019
5119 Clouds 24 1010 88 10000 6.2 150 22:43 15.07.2019
5120 Clouds 24 1010 88 10000 6.2 150 22:19 15.07.2019
5121 Rain 25 1012 88 0 9.34 129.632 21:42 15.07.2019
5122 Clouds 24 1010 94 10000 5.1 150 21:21 15.07.2019
5123 Clouds 24 1010 94 10000 5.1 150 20:59 15.07.2019
5124 Rain 25 1011 88 0 9.51 133.905 20:40 15.07.2019
5125 Clouds 24 1010 94 10000 5.1 150 20:22 15.07.2019
5126 Clouds 24 1010 94 10000 5.1 150 19:55 15.07.2019
5127 Clouds 24 1010 94 10000 5.1 150 19:37 15.07.2019
5128 Clouds 24 1010 94 10000 5.1 150 19:18 15.07.2019
5129 Clouds 24 1010 94 10000 7.7 150 18:42 15.07.2019
5130 Clouds 24 1010 94 10000 7.7 150 18:19 15.07.2019
5131 Rain 24 1012 90 0 9.85 134.922 17:55 15.07.2019
5132 Rain 24 1012 90 0 9.85 134.922 17:37 15.07.2019
5133 Rain 24 1012 90 0 9.85 134.922 17:19 15.07.2019
5134 Rain 24 1012 90 0 9.85 134.922 16:39 15.07.2019
5135 Rain 24 1012 90 0 9.85 134.922 16:21 15.07.2019
5136 Rain 24 1012 90 0 9.85 134.922 15:57 15.07.2019
5137 Rain 24 1012 90 0 9.85 134.922 15:37 15.07.2019
5138 Rain 25 1013 88 0 10.01 136.972 15:19 15.07.2019
5139 Rain 25 1013 88 0 10.01 136.972 14:45 15.07.2019
5140 Rain 25 1013 88 0 10.01 136.972 14:25 15.07.2019
5141 Rain 25 1013 88 0 10.01 136.972 13:55 15.07.2019
5142 Rain 25 1013 88 0 10.01 136.972 13:36 15.07.2019
5143 Rain 25 1013 87 0 9.56 135.042 13:18 15.07.2019
5144 Rain 25 1013 87 0 9.56 135.042 12:41 15.07.2019
5145 Rain 25 1012 87 0 9.83 138.461 12:21 15.07.2019
5146 Rain 25 1012 87 0 9.83 138.461 11:43 15.07.2019
5147 Clouds 24 1011 94 0 7.7 150 11:25 15.07.2019
5148 Clouds 24 1011 94 0 7.7 150 10:47 15.07.2019
5149 Clouds 25 1010 88 0 7.7 160 10:28 15.07.2019
5150 Clouds 25 1010 88 0 7.7 160 09:48 15.07.2019
5151 Clouds 25 1010 88 0 5.1 150 09:28 15.07.2019
5152 Clouds 25 1010 88 0 5.1 150 08:59 15.07.2019
5153 Clouds 25 1010 88 0 5.1 150 08:41 15.07.2019
5154 Clouds 25 1009 94 0 7.7 150 08:23 15.07.2019
5155 Rain 24 1010 88 0 10.5 142.288 07:38 15.07.2019
5156 Clouds 26 1010 88 10000 7.7 150 06:59 15.07.2019
5157 Clouds 26 1010 88 10000 7.7 150 06:38 15.07.2019
5158 Clouds 25 1011 94 10000 7.7 150 05:44 15.07.2019
5159 Clouds 25 1011 94 10000 7.7 150 05:22 15.07.2019
5160 Clouds 25 1012 94 10000 7.7 160 04:41 15.07.2019
5161 Clouds 24 1013 100 0 4.6 150 03:35 15.07.2019
5162 Clouds 23 1013 100 0 4.6 150 02:32 15.07.2019
5163 Clouds 23 1013 100 0 5.1 150 01:41 15.07.2019
5164 Clouds 23 1013 100 0 4.6 150 01:20 15.07.2019
5165 Clouds 23 1013 100 0 4.6 160 00:46 15.07.2019
5166 Clouds 23 1012 100 0 5.7 150 00:19 15.07.2019
5167 Clouds 23 1012 100 0 5.7 150 23:42 14.07.2019
5168 Rain 23 1011 100 10000 5.1 150 23:21 14.07.2019
5169 Rain 23 1011 100 10000 5.1 150 22:59 14.07.2019
5170 Rain 23 1011 100 10000 5.1 150 22:39 14.07.2019
5171 Rain 23 1011 100 10000 5.1 150 22:21 14.07.2019
5172 Rain 24 1012 89 0 11.33 147.1 21:54 14.07.2019
5173 Rain 24 1012 89 0 11.33 147.1 21:36 14.07.2019
5174 Rain 25 1011 88 0 9.82 140.884 21:18 14.07.2019
5175 Rain 25 1011 88 0 9.82 140.884 20:39 14.07.2019
5176 Clouds 24 1011 94 10000 5.1 150 20:20 14.07.2019
5177 Clouds 24 1011 94 10000 5.1 150 19:57 14.07.2019
5178 Clouds 24 1011 94 10000 5.1 150 19:38 14.07.2019
5179 Clouds 24 1011 94 10000 5.1 150 19:19 14.07.2019
5180 Clouds 24 1011 94 10000 5.1 150 18:41 14.07.2019
5181 Rain 24 1012 91 0 10.07 143.094 18:22 14.07.2019
5182 Rain 24 1012 91 0 10.07 143.094 17:58 14.07.2019
5183 Rain 24 1012 91 0 10.07 143.094 17:23 14.07.2019
5184 Rain 24 1012 91 0 10.07 143.094 16:54 14.07.2019
5185 Rain 24 1012 91 0 10.07 143.094 16:26 14.07.2019
5186 Rain 24 1012 91 0 10.07 143.094 15:58 14.07.2019
5187 Rain 24 1012 91 0 10.07 143.094 15:38 14.07.2019
5188 Rain 24 1014 88 0 10.87 142.692 15:19 14.07.2019
5189 Rain 24 1014 88 0 10.87 142.692 14:44 14.07.2019
5190 Rain 24 1014 88 0 10.87 142.692 14:20 14.07.2019
5191 Rain 24 1014 88 0 10.87 142.692 13:45 14.07.2019
5192 Rain 25 1013 88 0 11.3 140.49 13:23 14.07.2019
5193 Rain 25 1013 88 0 11.3 140.49 12:56 14.07.2019
5194 Rain 25 1013 88 0 11.3 140.49 12:37 14.07.2019
5195 Rain 25 1011 86 0 11.82 138.582 12:18 14.07.2019
5196 Rain 25 1011 86 0 11.82 138.582 11:45 14.07.2019
5197 Clouds 24 1010 94 0 4.1 140 11:20 14.07.2019
5198 Clouds 24 1010 94 0 4.1 140 10:42 14.07.2019
5199 Clouds 24 1010 94 0 4.1 140 10:20 14.07.2019
5200 Clouds 25 1010 88 10000 7.7 150 09:45 14.07.2019
5201 Clouds 25 1009 88 10000 11.3 150 09:27 14.07.2019
5202 Clouds 25 1009 88 10000 11.3 150 08:46 14.07.2019
5203 Clouds 25 1009 88 10000 11.3 150 08:24 14.07.2019
5204 Clouds 26 1009 83 10000 8.7 150 07:41 14.07.2019
5205 Clouds 26 1010 83 10000 6.2 170 07:19 14.07.2019
5206 Clouds 26 1011 83 10000 6.2 150 05:45 14.07.2019
5207 Clouds 26 1011 83 10000 6.2 150 05:45 14.07.2019
5208 Clouds 26 1013 83 10000 5.1 170 03:51 14.07.2019
5209 Clouds 26 1013 83 10000 5.1 170 03:33 14.07.2019
5210 Clouds 25 1014 88 10000 1.5 0 02:52 14.07.2019
5211 Clouds 25 1014 88 10000 1.5 0 02:22 14.07.2019
5212 Clouds 23 1013 88 10000 1.5 0 01:34 14.07.2019
5213 Clouds 23 1013 88 10000 1.5 0 00:59 14.07.2019
5214 Clouds 23 1013 88 10000 1.5 0 00:40 14.07.2019
5215 Clouds 23 1013 88 10000 1.5 0 00:20 14.07.2019
5216 Clouds 22 1013 94 10000 1.5 0 23:45 13.07.2019
5217 Clouds 22 1013 94 10000 1.5 0 23:26 13.07.2019
5218 Clouds 22 1012 94 10000 1.5 0 22:59 13.07.2019
5219 Clouds 22 1012 94 10000 1.5 0 22:39 13.07.2019
5220 Clouds 22 1012 94 10000 1.5 0 22:20 13.07.2019
5221 Rain 23 1013 91 0 3.64 45.803 21:43 13.07.2019
5222 Rain 23 1012 93 0 0.95 317.467 21:19 13.07.2019
5223 Rain 23 1012 93 0 0.95 317.467 21:19 13.07.2019
5224 Rain 23 1012 93 0 0.95 317.467 20:45 13.07.2019
5225 Rain 23 1012 93 0 0.95 317.467 20:26 13.07.2019
5226 Rain 23 1012 93 0 0.95 317.467 19:46 13.07.2019
5227 Rain 23 1012 93 0 0.95 317.467 19:27 13.07.2019
5228 Rain 23 1012 93 0 0.95 317.467 18:44 13.07.2019
5229 Rain 24 1014 88 0 4.9 138.163 18:21 13.07.2019
5230 Rain 24 1014 88 0 4.9 138.163 17:39 13.07.2019
5231 Rain 24 1014 88 0 4.9 138.163 17:20 13.07.2019
5232 Rain 24 1014 88 0 4.9 138.163 16:56 13.07.2019
5233 Rain 24 1014 88 0 4.9 138.163 16:37 13.07.2019
5234 Rain 24 1014 88 0 4.9 138.163 16:19 13.07.2019
5235 Rain 24 1014 88 0 4.9 138.163 15:42 13.07.2019
5236 Rain 24 1015 84 0 5.73 128.827 15:20 13.07.2019
5237 Rain 24 1015 84 0 5.73 128.827 14:42 13.07.2019
5238 Rain 24 1015 84 0 5.73 128.827 14:22 13.07.2019
5239 Rain 24 1015 84 0 5.73 128.827 13:46 13.07.2019
5240 Rain 25 1015 87 0 6.69 144.129 13:24 13.07.2019
5241 Rain 25 1015 87 0 6.69 144.129 12:56 13.07.2019
5242 Rain 25 1015 87 0 6.69 144.129 12:36 13.07.2019
5243 Rain 24 1013 86 0 6.9 142.742 12:18 13.07.2019
5244 Rain 24 1013 86 0 6.9 142.742 11:39 13.07.2019
5245 Clouds 25 1013 83 10000 5.1 150 11:19 13.07.2019
5246 Clouds 25 1013 83 10000 5.1 150 10:42 13.07.2019
5247 Clouds 25 1013 83 10000 5.1 150 10:23 13.07.2019
5248 Clouds 25 1013 83 10000 5.1 150 09:52 13.07.2019
5249 Clouds 25 1013 83 10000 5.1 150 09:30 13.07.2019
5250 Clouds 26 1013 78 10000 5.1 150 08:57 13.07.2019
5251 Clouds 26 1012 74 10000 5.1 140 08:28 13.07.2019
5252 Clouds 26 1012 74 10000 5.1 140 07:55 13.07.2019
5253 Clouds 26 1013 74 10000 5.1 160 07:29 13.07.2019
5254 Clouds 26 1013 74 10000 5.1 160 06:32 13.07.2019
5255 Haze 27 1013 65 10000 6.7 170 05:49 13.07.2019
5256 Clouds 27 1014 69 10000 5.1 120 04:41 13.07.2019
5257 Haze 27 1015 69 10000 4.1 150 04:21 13.07.2019
5258 Haze 27 1015 69 10000 4.1 150 03:42 13.07.2019
5259 Clouds 26 1016 69 10000 5.1 140 03:18 13.07.2019
5260 Haze 25 1016 73 10000 4.1 120 01:53 13.07.2019
5261 Haze 25 1016 73 10000 4.1 120 01:53 13.07.2019
5262 Haze 25 1016 73 10000 4.1 120 01:21 13.07.2019
5263 Clouds 22 1015 88 10000 1.5 0 00:59 13.07.2019
5264 Clouds 22 1015 88 10000 1.5 0 00:21 13.07.2019
5265 Clouds 21 1015 94 10000 1.5 0 23:55 12.07.2019
5266 Clouds 21 1015 94 10000 1.5 0 23:34 12.07.2019
5267 Haze 20 1014 94 10000 1.5 0 22:59 12.07.2019
5268 Clouds 24 1015 81 0 6.36 130.751 22:40 12.07.2019
5269 Clouds 20 1013 94 10000 1.5 0 22:21 12.07.2019
5270 Clouds 20 1013 94 10000 1.5 0 21:42 12.07.2019
5271 Clouds 20 1013 94 10000 1.5 0 21:21 12.07.2019
5272 Clouds 20 1013 94 10000 1.5 0 20:47 12.07.2019
5273 Clouds 21 1013 88 10000 1.5 0 20:23 12.07.2019
5274 Clouds 21 1013 88 10000 1.5 0 19:44 12.07.2019
5275 Clouds 21 1013 88 10000 1.5 0 19:26 12.07.2019
5276 Clouds 22 1013 83 10000 5.1 130 18:57 12.07.2019
5277 Clouds 22 1013 83 10000 5.1 130 18:37 12.07.2019
5278 Clouds 22 1013 83 10000 5.1 130 18:18 12.07.2019
5279 Clouds 22 1013 83 10000 5.1 130 17:43 12.07.2019
5280 Clouds 24 1015 80 0 8.1 131.635 17:23 12.07.2019
5281 Clouds 24 1015 80 0 8.1 131.635 16:37 12.07.2019
5282 Clouds 24 1015 80 0 8.1 131.635 16:19 12.07.2019
5283 Clouds 24 1015 80 0 8.1 131.635 15:40 12.07.2019
5284 Clouds 23 1015 83 10000 5.1 120 15:20 12.07.2019
5285 Clouds 23 1015 83 10000 5.1 120 14:46 12.07.2019
5286 Clouds 23 1015 83 10000 5.1 120 14:46 12.07.2019
5287 Clouds 23 1015 83 10000 5.1 120 14:22 12.07.2019
5288 Clouds 23 1015 83 10000 5.1 120 14:22 12.07.2019
5289 Clouds 24 1015 79 0 9.81 132.273 13:54 12.07.2019
5290 Clouds 24 1015 77 0 10.21 131.952 13:34 12.07.2019
5291 Clouds 24 1015 77 0 10.21 131.952 12:44 12.07.2019
5292 Clouds 25 1013 73 10000 7.7 130 12:24 12.07.2019
5293 Clouds 25 1013 73 10000 7.7 130 11:59 12.07.2019
5294 Clear 24 1014 76 0 11.94 141.166 11:40 12.07.2019
5295 Haze 25 1013 73 10000 10.3 140 11:19 12.07.2019
5296 Haze 25 1013 73 10000 10.3 140 10:42 12.07.2019
5297 Haze 26 1012 69 10000 10.3 140 10:23 12.07.2019
5298 Haze 26 1012 69 10000 10.3 140 09:53 12.07.2019
5299 Clouds 27 1012 65 10000 7.7 150 09:29 12.07.2019
5300 Clouds 27 1012 65 10000 7.7 150 08:56 12.07.2019
5301 Clouds 28 1012 61 10000 7.7 150 08:26 12.07.2019
5302 Clouds 28 1012 61 10000 7.7 150 07:54 12.07.2019
5303 Clouds 28 1012 61 10000 10.3 160 07:32 12.07.2019
5304 Clouds 28 1012 61 10000 10.3 160 06:44 12.07.2019
5305 Clouds 28 1012 61 10000 10.3 160 06:25 12.07.2019
5306 Haze 29 1014 54 10000 7.7 150 05:24 12.07.2019
5307 Haze 28 1014 54 10000 7.7 130 03:20 12.07.2019
5308 Haze 26 1015 57 10000 5.1 120 01:38 12.07.2019
5309 Haze 22 1015 73 10000 2.6 140 00:49 12.07.2019
5310 Haze 22 1015 73 10000 2.6 140 00:19 12.07.2019
5311 Clouds 22 1015 73 10000 2.6 140 23:43 11.07.2019
5312 Clouds 22 1015 73 10000 2.6 140 23:23 11.07.2019
5313 Clouds 22 1015 73 10000 2.6 110 22:48 11.07.2019
5314 -273 0 0 0 0 0 22:26 11.07.2019
5315 Clouds 24 1016 75 0 10.17 123.182 21:56 11.07.2019
5316 Clouds 24 1016 75 0 10.17 123.182 21:36 11.07.2019
5317 Clouds 24 1015 75 0 11.07 126.647 21:18 11.07.2019
5318 Clouds 24 1015 75 0 11.07 126.647 20:42 11.07.2019
5319 Clouds 24 1015 75 0 11.07 126.647 20:22 11.07.2019
5320 Clouds 24 1015 75 0 11.07 126.647 19:56 11.07.2019
5321 Clouds 24 1015 75 0 11.07 126.647 19:37 11.07.2019
5322 Clouds 24 1015 75 0 11.07 126.647 19:19 11.07.2019
5323 Clouds 24 1015 75 0 11.07 126.647 18:41 11.07.2019
5324 Clouds 24 1016 74 0 11.54 127.928 18:23 11.07.2019
5325 Clouds 24 1016 74 0 11.54 127.928 17:48 11.07.2019
5326 Clouds 22 1016 83 10000 5.1 130 17:29 11.07.2019
5327 Clouds 22 1016 83 10000 5.1 130 16:53 11.07.2019
5328 Clouds 20 1016 88 10000 11.54 127.928 16:25 11.07.2019
5329 Clouds 20 1016 88 10000 11.54 127.928 15:58 11.07.2019
5330 Clouds 20 1016 88 10000 11.54 127.928 15:39 11.07.2019
5331 Clouds 20 1016 88 10000 11.76 127 15:20 11.07.2019
5332 Clouds 25 1017 74 0 11.76 127 14:44 11.07.2019
5333 Clouds 25 1017 74 0 11.76 127 14:24 11.07.2019
5334 Clouds 25 1017 74 0 11.76 127 13:52 11.07.2019
5335 Clouds 25 1017 74 0 11.76 127 13:33 11.07.2019
5336 Clouds 25 1017 73 0 12.06 127.033 12:57 11.07.2019
5337 Clouds 25 1017 73 0 12.06 127.033 12:37 11.07.2019
5338 Clouds 25 1015 74 0 12.13 135.641 12:18 11.07.2019
5339 Clouds 25 1015 74 0 12.13 135.641 11:41 11.07.2019
5340 Clouds 27 1014 54 10000 10.8 150 11:23 11.07.2019
5341 Clouds 27 1014 54 10000 10.8 150 10:51 11.07.2019
5342 Clouds 27 1014 54 10000 10.8 150 10:19 11.07.2019
5343 Clouds 27 1014 54 10000 10.3 130 09:49 11.07.2019
5344 Clouds 27 1014 54 10000 10.3 130 09:30 11.07.2019
5345 Clouds 27 1014 54 10000 10.3 130 09:30 11.07.2019
5346 Clouds 28 1013 61 10000 10.8 150 08:54 11.07.2019
5347 Clouds 28 1013 61 10000 10.8 150 08:28 11.07.2019
5348 Clouds 28 1013 65 10000 10.8 140 07:57 11.07.2019
5349 Clouds 25 1013 73 0 12.05 147.002 07:38 11.07.2019
5350 Clouds 29 1013 62 10000 10.8 140 06:41 11.07.2019
5351 Clouds 31 1014 48 10000 7.7 130 05:53 11.07.2019
5352 Clouds 31 1014 48 10000 7.7 130 05:30 11.07.2019
5353 Clouds 26 1015 68 0 9.86 149.113 04:55 11.07.2019
5354 Haze 27 1016 61 10000 5.1 140 02:41 11.07.2019
5355 Clouds 25 1016 73 0 10.36 130.037 01:41 11.07.2019
5356 Haze 23 1015 83 10000 5.1 120 00:30 11.07.2019
5357 Clouds 24 1016 77 0 10.13 125.003 23:38 10.07.2019
5358 Clouds 22 1014 94 10000 1.5 0 23:20 10.07.2019
5359 Clouds 22 1014 94 10000 1.5 0 22:48 10.07.2019
5360 Clouds 24 1016 77 0 10.13 125.003 22:22 10.07.2019
5361 Clouds 24 1016 77 0 10.13 125.003 21:48 10.07.2019
5362 Clouds 24 1016 77 0 10.13 125.003 21:28 10.07.2019
5363 Clouds 24 1014 78 0 10.47 124.729 20:58 10.07.2019
5364 Clouds 24 1014 78 0 10.47 124.729 20:39 10.07.2019
5365 Clouds 24 1014 78 0 10.47 124.729 20:39 10.07.2019
5366 Clouds 24 1014 78 0 10.47 124.729 20:19 10.07.2019
5367 Clouds 24 1014 78 0 10.47 124.729 19:53 10.07.2019
5368 Clouds 23 1013 88 10000 5.1 120 19:22 10.07.2019
5369 Clouds 23 1013 88 10000 5.1 120 18:58 10.07.2019
5370 Clouds 24 1014 78 0 10.47 124.729 18:39 10.07.2019
5371 Clouds 25 1015 79 0 10.73 125.613 18:21 10.07.2019
5372 Clouds 25 1015 79 0 10.73 125.613 17:41 10.07.2019
5373 Clouds 23 1014 88 10000 5.1 120 17:20 10.07.2019
5374 Clouds 23 1014 88 10000 5.1 120 16:37 10.07.2019
5375 Clouds 23 1014 88 10000 5.1 120 16:18 10.07.2019
5376 Clouds 25 1015 79 0 10.73 125.613 15:45 10.07.2019
5377 Clouds 25 1014 78 0 11.18 127.205 15:21 10.07.2019
5378 Clouds 25 1014 78 0 11.18 127.205 14:41 10.07.2019
5379 Clouds 25 1014 78 0 11.18 127.205 14:22 10.07.2019
5380 Clouds 25 1014 78 0 11.18 127.205 13:46 10.07.2019
5381 Clouds 25 1015 78 0 11.48 127.48 13:19 10.07.2019
5382 Clouds 25 1015 78 0 11.48 127.48 13:19 10.07.2019
5383 Clouds 25 1015 78 0 11.48 127.48 12:58 10.07.2019
5384 Clouds 25 1015 78 0 11.48 127.48 12:37 10.07.2019
5385 Clouds 25 1013 77 0 12.71 137.877 12:18 10.07.2019
5386 Clouds 25 1013 77 0 12.71 137.877 11:43 10.07.2019
5387 Clouds 26 1012 74 10000 10.3 140 11:21 10.07.2019
5388 Clouds 26 1012 74 10000 10.3 140 10:44 10.07.2019
5389 Smoke 27 1011 74 10000 10.3 130 10:20 10.07.2019
5390 Smoke 27 1011 74 10000 10.3 130 09:44 10.07.2019
5391 Smoke 27 1011 74 10000 10.3 130 09:21 10.07.2019
5392 Smoke 28 1011 69 10000 10.3 140 08:50 10.07.2019
5393 Smoke 28 1011 69 10000 10.3 140 08:29 10.07.2019
5394 Smoke 29 1011 66 10000 5.1 160 07:54 10.07.2019
5395 Smoke 29 1011 66 10000 5.1 160 07:31 10.07.2019
5396 Smoke 29 1011 66 10000 5.1 160 06:42 10.07.2019
5397 Smoke 30 1011 58 10000 10.3 160 05:44 10.07.2019
5398 Haze 29 1012 62 10000 5.1 150 04:35 10.07.2019
5399 Haze 28 1013 65 10000 5.7 110 03:20 10.07.2019
5400 Clouds 25 1014 77 0 6.91 125.002 00:45 10.07.2019
5401 Clouds 24 1014 82 0 9.15 118.266 23:58 09.07.2019
5402 Clouds 24 1014 82 0 9.15 118.266 23:39 09.07.2019
5403 Clouds 21 1012 100 10000 2.6 130 23:20 09.07.2019
5404 Clouds 21 1012 100 10000 2.6 130 22:40 09.07.2019
5405 Clouds 21 1012 100 10000 2.6 130 22:22 09.07.2019
5406 Clouds 21 1012 100 10000 3.6 140 21:47 09.07.2019
5407 Clouds 24 1014 82 0 9.15 118.266 21:27 09.07.2019
5408 Clouds 25 1012 82 0 10.3 125.543 20:57 09.07.2019
5409 Clouds 25 1012 82 0 10.3 125.543 20:39 09.07.2019
5410 Clouds 25 1012 82 0 10.3 125.543 20:21 09.07.2019
5411 Clouds 25 1012 82 0 10.3 125.543 19:39 09.07.2019
5412 Clouds 25 1012 82 0 10.3 125.543 19:19 09.07.2019
5413 Clouds 25 1012 82 0 10.3 125.543 18:40 09.07.2019
5414 Clouds 22 1012 94 10000 2.6 130 18:22 09.07.2019
5415 Clouds 22 1012 94 10000 2.6 130 17:44 09.07.2019
5416 Clouds 22 1012 94 10000 2.6 130 17:22 09.07.2019
5417 Clouds 23 1012 88 10000 5.1 120 16:59 09.07.2019
5418 Clouds 23 1012 88 10000 5.1 120 16:41 09.07.2019
5419 Clouds 23 1012 88 10000 5.1 120 16:22 09.07.2019
5420 Clouds 23 1012 94 10000 5.1 120 15:44 09.07.2019
5421 Clear 25 1014 82 0 10.73 128.832 15:25 09.07.2019
5422 Clear 25 1014 82 0 10.73 128.832 14:46 09.07.2019
5423 Clouds 25 1012 83 10000 7.7 140 14:24 09.07.2019
5424 Clouds 25 1012 83 10000 7.7 140 13:57 09.07.2019
5425 Clear 25 1014 82 0 10.73 128.832 13:39 09.07.2019
5426 Clear 25 1014 82 0 10.73 128.832 13:39 09.07.2019
5427 Clouds 25 1011 83 10000 7.7 140 13:20 09.07.2019
5428 Clear 25 1014 81 0 10.75 128.11 12:39 09.07.2019
5429 Clouds 25 1011 83 10000 7.7 140 12:19 09.07.2019
5430 Clouds 25 1011 83 10000 7.7 140 11:56 09.07.2019
5431 Clouds 25 1011 83 10000 7.7 140 11:37 09.07.2019
5432 Clouds 25 1011 83 10000 7.7 140 11:19 09.07.2019
5433 Clouds 26 1010 78 10000 5.1 140 10:47 09.07.2019
5434 Clouds 28 1009 69 10000 10.3 140 10:26 09.07.2019
5435 Clouds 28 1009 69 10000 10.3 140 09:39 09.07.2019
5436 Clouds 28 1009 69 10000 10.3 140 09:20 09.07.2019
5437 Clouds 28 1009 69 10000 12.9 140 08:45 09.07.2019
5438 Clouds 28 1009 69 10000 12.9 140 08:45 09.07.2019
5439 Clouds 28 1009 69 10000 12.9 140 08:45 09.07.2019
5440 Clouds 28 1009 69 10000 12.9 140 08:21 09.07.2019
5441 Clouds 28 1013 69 10000 5.1 160 03:52 05.07.2019
5442 Clouds 28 1013 69 10000 5.1 160 03:24 05.07.2019
5443 Clouds 27 1013 74 10000 5.1 100 02:53 05.07.2019
5444 Clouds 27 1013 74 10000 5.1 100 02:34 05.07.2019
5445 Clouds 25 1014 81 0 6.38 138.147 01:37 05.07.2019
5446 Clouds 24 1014 88 10000 1.5 130 00:52 05.07.2019
5447 Clouds 23 1013 94 10000 2.1 130 00:32 05.07.2019
5448 Clouds 23 1013 94 10000 2.1 130 23:47 04.07.2019
5449 Clouds 23 1013 94 10000 2.1 130 23:19 04.07.2019
5450 Clouds 23 1013 94 10000 2.1 130 23:19 04.07.2019
5451 Clouds 23 1012 94 10000 2.1 0 22:42 04.07.2019
5452 Rain 25 1014 83 0 7.44 139.494 22:23 04.07.2019
5453 Rain 25 1014 83 0 7.44 139.494 21:45 04.07.2019
5454 Rain 25 1013 83 0 7.22 133.569 21:26 04.07.2019
5455 Rain 25 1013 84 0 7.74 136.266 20:59 04.07.2019
5456 Rain 25 1013 84 0 7.74 136.266 20:38 04.07.2019
5457 Rain 25 1013 84 0 7.74 136.266 20:20 04.07.2019
5458 Rain 25 1013 84 0 7.74 136.266 19:42 04.07.2019
5459 Rain 25 1013 84 0 7.74 136.266 19:22 04.07.2019
5460 Rain 25 1013 84 0 7.74 136.266 18:56 04.07.2019
5461 Rain 25 1013 84 0 7.74 136.266 18:36 04.07.2019
5462 Rain 25 1013 84 0 8.52 138.001 18:18 04.07.2019
5463 Rain 25 1013 84 0 8.52 138.001 17:42 04.07.2019
5464 Clouds 25 1013 83 10000 4.1 140 17:19 04.07.2019
5465 Clouds 25 1013 83 10000 7.7 140 15:57 04.07.2019
5466 Rain 25 1013 84 0 8.52 138.001 15:39 04.07.2019
5467 Rain 25 1014 85 0 8.93 137.559 15:18 04.07.2019
5468 Rain 25 1014 85 0 8.93 137.559 14:41 04.07.2019
5469 Rain 25 1014 85 0 8.93 137.559 14:20 04.07.2019
5470 Rain 25 1014 85 0 8.93 137.559 13:57 04.07.2019
5471 Rain 25 1014 85 0 8.93 137.559 13:39 04.07.2019
5472 Clouds 25 1014 84 0 9.66 139.329 13:20 04.07.2019
5473 Clouds 25 1014 84 0 9.66 139.329 12:40 04.07.2019
5474 Clouds 25 1013 84 0 10.31 144.46 12:21 04.07.2019
5475 Clouds 25 1013 84 0 10.31 144.46 11:56 04.07.2019
5476 Clouds 25 1013 84 0 10.31 144.46 11:37 04.07.2019
5477 Clouds 25 1011 83 10000 7.7 150 11:18 04.07.2019
5478 Clouds 25 1011 83 10000 7.7 150 10:39 04.07.2019
5479 Clouds 25 1011 83 10000 7.7 150 10:18 04.07.2019
5480 Clouds 25 1013 84 0 10.31 144.46 09:39 04.07.2019
5481 Clouds 27 1010 78 10000 5.1 160 09:20 04.07.2019
5482 Clouds 27 1010 78 10000 5.1 160 08:54 04.07.2019
5483 Clouds 27 1010 78 10000 5.1 160 08:19 04.07.2019
5484 Clouds 27 1011 78 10000 7.7 140 07:43 04.07.2019
5485 Clouds 27 1011 78 10000 7.7 140 07:20 04.07.2019
5486 Haze 27 1012 74 10000 5.1 140 06:37 04.07.2019
5487 Haze 27 1012 74 10000 5.1 140 05:47 04.07.2019
5488 Haze 27 1012 74 10000 5.1 140 05:29 04.07.2019
5489 Clouds 26 1014 78 10000 7.7 140 02:41 04.07.2019
5490 Clouds 25 1014 78 10000 7.7 140 01:28 04.07.2019
5491 Clouds 24 1014 83 10000 5.1 140 00:52 04.07.2019
5492 Clouds 24 1014 83 10000 5.1 130 23:55 03.07.2019
5493 Clouds 24 1014 83 10000 5.1 130 23:55 03.07.2019
5494 Rain 25 1015 83 0 8.77 130.588 23:21 03.07.2019
5495 Rain 25 1015 83 0 8.77 130.588 23:21 03.07.2019
5496 Rain 25 1015 83 0 8.77 130.588 22:58 03.07.2019
5497 Rain 25 1015 83 0 8.77 130.588 22:39 03.07.2019
5498 Clouds 23 1013 83 10000 3.1 120 22:21 03.07.2019
5499 Clouds 23 1013 83 10000 3.1 120 21:56 03.07.2019
5500 Clouds 23 1013 83 10000 3.1 120 21:37 03.07.2019
5501 Clouds 24 1013 82 0 9.48 129.504 20:57 03.07.2019
5502 Clouds 24 1013 82 0 9.48 129.504 20:37 03.07.2019
5503 Clouds 24 1013 82 0 9.48 129.504 20:19 03.07.2019
5504 Clouds 24 1013 82 0 9.48 129.504 19:44 03.07.2019
5505 Clouds 24 1013 82 0 9.48 129.504 19:44 03.07.2019
5506 Clouds 24 1013 82 0 9.48 129.504 19:25 03.07.2019
5507 Clouds 24 1013 82 0 9.48 129.504 18:45 03.07.2019
5508 Clouds 25 1014 82 0 9.29 130.419 18:22 03.07.2019
5509 Clouds 25 1014 82 0 9.29 130.419 17:49 03.07.2019
5510 Clouds 24 1014 83 10000 7.7 130 17:19 03.07.2019
5511 Clouds 24 1014 83 10000 7.7 130 16:58 03.07.2019
5512 Clouds 24 1014 83 10000 7.7 130 16:39 03.07.2019
5513 Clouds 24 1014 83 10000 7.7 130 16:18 03.07.2019
5514 Clouds 24 1014 83 10000 7.7 130 15:44 03.07.2019
5515 Clouds 24 1014 83 10000 7.7 130 15:26 03.07.2019
5516 Clouds 24 1013 83 10000 7.7 130 14:44 03.07.2019
5517 Clouds 24 1013 83 10000 7.7 150 14:22 03.07.2019
5518 Clouds 24 1013 83 10000 7.7 150 13:50 03.07.2019
5519 Clouds 24 1013 83 10000 7.7 150 13:31 03.07.2019
5520 Clouds 25 1014 81 0 9.7 137.044 12:52 03.07.2019
5521 Clouds 25 1014 83 0 10.68 144.729 12:19 03.07.2019
5522 Clouds 25 1014 83 0 10.68 144.729 11:54 03.07.2019
5523 Haze 25 1012 83 10000 10.3 150 11:36 03.07.2019
5524 Haze 25 1012 83 10000 10.3 150 11:18 03.07.2019
5525 Haze 25 1012 83 10000 10.3 150 10:38 03.07.2019
5526 Haze 25 1012 83 10000 10.3 150 10:20 03.07.2019
5527 Clouds 25 1014 83 0 10.68 144.729 09:41 03.07.2019
5528 Haze 25 1011 83 10000 10.3 140 09:20 03.07.2019
5529 Haze 25 1011 83 10000 10.3 140 08:52 03.07.2019
5530 Haze 25 1011 83 10000 10.3 140 08:31 03.07.2019
5531 Clouds 26 1011 83 10000 10.3 130 07:47 03.07.2019
5532 Smoke 26 1011 83 10000 10.3 130 07:28 03.07.2019
5533 Smoke 26 1011 83 10000 10.3 130 06:30 03.07.2019
5534 Clouds 27 1011 78 10000 10.3 130 05:35 03.07.2019
5535 Haze 27 1012 78 10000 7.2 130 04:44 03.07.2019
5536 Haze 26 1013 78 10000 9.3 140 03:25 03.07.2019
5537 Haze 25 1014 83 10000 4.1 140 02:23 03.07.2019
5538 Haze 25 1014 83 10000 4.1 140 01:21 03.07.2019
5539 Clouds 23 1014 94 10000 5.1 150 00:47 03.07.2019
5540 Clouds 23 1014 94 10000 5.1 150 00:24 03.07.2019
5541 Clear 24 1014 81 0 7.28 131.586 23:38 02.07.2019
5542 Clouds 21 1012 94 10000 1 0 23:20 02.07.2019
5543 Clouds 21 1012 94 10000 1 0 22:57 02.07.2019
5544 Clear 24 1014 81 0 7.28 131.586 22:38 02.07.2019
5545 Clear 24 1014 81 0 7.28 131.586 22:19 02.07.2019
5546 Clear 24 1014 81 0 7.28 131.586 21:44 02.07.2019
5547 Clouds 24 1012 80 0 7.33 128.438 21:23 02.07.2019
5548 Clouds 24 1012 80 0 7.9 128.533 20:58 02.07.2019
5549 Clouds 24 1012 80 0 7.9 128.533 20:39 02.07.2019
5550 Clouds 24 1012 80 0 7.9 128.533 20:21 02.07.2019
5551 Clouds 24 1012 80 0 7.9 128.533 19:43 02.07.2019
5552 Clouds 24 1012 80 0 7.9 128.533 19:23 02.07.2019
5553 Clouds 24 1012 80 0 7.9 128.533 18:50 02.07.2019
5554 Clouds 25 1013 80 0 7.55 134.684 18:19 02.07.2019
5555 Clouds 25 1013 80 0 7.55 134.684 17:45 02.07.2019
5556 Clouds 25 1013 80 0 7.55 134.684 17:24 02.07.2019
5557 Clouds 25 1013 80 0 7.55 134.684 16:54 02.07.2019
5558 Clouds 25 1013 80 0 7.55 134.684 16:35 02.07.2019
5559 Clouds 25 1013 80 0 7.55 134.684 15:59 02.07.2019
5560 Clouds 25 1013 80 0 7.55 134.684 15:38 02.07.2019
5561 Clouds 25 1014 80 0 8.64 126.039 15:18 02.07.2019
5562 Clouds 25 1014 80 0 8.64 126.039 14:40 02.07.2019
5563 Clouds 25 1014 80 0 8.64 126.039 14:21 02.07.2019
5564 Clouds 25 1014 80 0 8.64 126.039 13:42 02.07.2019
5565 Clouds 25 1014 80 0 8.96 126.907 13:19 02.07.2019
5566 Clouds 25 1014 80 0 8.96 126.907 12:44 02.07.2019
5567 Clouds 25 1013 79 0 9.68 143.982 12:23 02.07.2019
5568 Clouds 25 1013 79 0 9.68 143.982 11:44 02.07.2019
5569 Clouds 25 1013 79 0 9.68 143.982 11:23 02.07.2019
5570 Clouds 25 1013 79 0 9.68 143.982 10:58 02.07.2019
5571 Haze 26 1010 78 10000 7.7 130 10:32 02.07.2019
5572 Haze 26 1010 78 10000 7.7 130 09:57 02.07.2019
5573 Haze 26 1010 78 10000 7.7 130 09:22 02.07.2019
5574 Haze 26 1010 74 10000 10.3 150 08:58 02.07.2019
5575 Haze 26 1010 74 10000 10.3 150 08:38 02.07.2019
5576 Haze 26 1010 78 10000 7.7 150 07:59 02.07.2019
5577 Clouds 25 1011 78 0 9.06 150.247 07:38 02.07.2019
5578 Haze 27 1010 74 10000 7.7 150 07:18 02.07.2019
5579 Clouds 25 1011 78 0 9.06 150.247 06:37 02.07.2019
5580 Haze 28 1011 65 10000 7.7 140 05:27 02.07.2019
5581 Haze 26 1013 69 10000 5.7 130 02:38 02.07.2019
5582 Clouds 22 1013 94 10000 8 129.251 00:28 02.07.2019
5583 Clouds 22 1013 94 10000 8.59 127.182 23:32 01.07.2019
5584 Clouds 22 1012 94 10000 1 0 22:54 01.07.2019
5585 Clouds 22 1012 94 10000 1 0 22:54 01.07.2019
5586 Clouds 24 1014 76 0 8.59 127.182 22:36 01.07.2019
5587 Clouds 23 1012 88 10000 2.6 120 22:18 01.07.2019
5588 Clouds 23 1012 88 10000 2.6 120 21:43 01.07.2019
5589 Clouds 23 1011 88 10000 2.6 120 21:24 01.07.2019
5590 Clouds 23 1011 88 10000 2.6 120 20:46 01.07.2019
5591 Clouds 23 1011 88 10000 2.6 120 20:20 01.07.2019
5592 Clouds 23 1011 88 10000 2.6 130 19:54 01.07.2019
5593 Clouds 23 1012 88 10000 1.5 0 19:36 01.07.2019
5594 Clouds 23 1012 88 10000 1.5 0 19:18 01.07.2019
5595 Clouds 23 1012 88 10000 1.5 0 18:42 01.07.2019
5596 Clear 24 1013 77 0 8.77 128.376 18:21 01.07.2019
5597 Clear 24 1013 77 0 8.77 128.376 17:45 01.07.2019
5598 Clear 24 1013 77 0 8.77 128.376 17:25 01.07.2019
5599 Clear 24 1013 77 0 8.77 128.376 16:56 01.07.2019
5600 Clear 24 1013 77 0 8.77 128.376 16:38 01.07.2019
5601 Clear 24 1013 77 0 8.77 128.376 16:19 01.07.2019
5602 Clear 24 1013 77 0 8.77 128.376 15:42 01.07.2019
5603 Clouds 25 1013 76 0 9.69 133.938 15:22 01.07.2019
5604 Clouds 25 1013 76 0 9.69 133.938 14:44 01.07.2019
5605 Clouds 25 1013 76 0 9.69 133.938 14:20 01.07.2019
5606 Clouds 25 1013 76 0 9.69 133.938 13:45 01.07.2019
5607 Clouds 25 1013 76 0 9.69 133.938 13:45 01.07.2019
5608 Clouds 24 1013 76 0 9.33 135.087 13:23 01.07.2019
5609 Clouds 24 1013 76 0 9.33 135.087 12:56 01.07.2019
5610 Clouds 24 1013 76 0 9.33 135.087 12:37 01.07.2019
5611 Clouds 25 1012 77 0 10.95 139.257 12:18 01.07.2019
5612 Clouds 25 1012 77 0 10.95 139.257 11:43 01.07.2019
5613 Haze 26 1010 74 10000 5.1 150 11:21 01.07.2019
5614 Haze 26 1010 74 10000 5.1 150 10:47 01.07.2019
5615 Haze 26 1010 74 10000 5.1 150 10:24 01.07.2019
5616 Haze 26 1010 78 10000 5.7 150 09:58 01.07.2019
5617 Haze 26 1010 78 10000 5.7 150 09:39 01.07.2019
5618 Haze 26 1010 78 10000 5.7 150 09:20 01.07.2019
5619 Haze 27 1010 69 10000 8.2 150 08:37 01.07.2019
5620 Clouds 27 1010 69 10000 5.1 150 07:40 01.07.2019
5621 Clouds 27 1010 69 10000 5.1 150 07:20 01.07.2019
5622 Haze 28 1011 61 10000 8.2 140 05:43 01.07.2019
5623 Clouds 24 1013 73 10000 5.1 120 01:29 01.07.2019
5624 Clouds 24 1013 73 10000 5.1 120 00:47 01.07.2019
5625 Clouds 24 1013 73 10000 5.1 120 00:24 01.07.2019
5626 Clouds 23 1012 83 10000 5.1 120 23:40 30.06.2019
5627 Clouds 23 1012 83 10000 5.1 120 23:20 30.06.2019
5628 Clouds 22 1011 83 10000 2.6 110 22:43 30.06.2019
5629 Clouds 22 1011 83 10000 2.6 110 22:20 30.06.2019
5630 Clouds 24 1013 82 0 10.41 130.395 21:41 30.06.2019
5631 Clouds 24 1011 81 0 9.66 124.549 21:19 30.06.2019
5632 Clouds 24 1011 81 0 9.66 124.549 20:55 30.06.2019
5633 Clouds 24 1011 82 0 9.36 123.975 20:36 30.06.2019
5634 Clouds 24 1011 82 0 9.36 123.975 20:18 30.06.2019
5635 Clouds 24 1011 82 0 9.36 123.975 20:18 30.06.2019
5636 Clouds 24 1011 82 0 9.36 123.975 19:43 30.06.2019
5637 Clouds 24 1011 82 0 9.36 123.975 19:24 30.06.2019
5638 Clouds 24 1012 81 0 11.16 128.927 18:26 30.06.2019
5639 Clouds 24 1012 81 0 11.16 128.927 17:57 30.06.2019
5640 Clouds 24 1012 81 0 11.16 128.927 17:38 30.06.2019
5641 Clouds 24 1012 81 0 11.16 128.927 17:18 30.06.2019
5642 Clouds 24 1012 81 0 11.16 128.927 16:45 30.06.2019
5643 Clouds 24 1012 81 0 11.16 128.927 16:25 30.06.2019
5644 Clouds 24 1012 81 0 11.16 128.927 15:38 30.06.2019
5645 Clouds 24 1013 80 0 12.68 131.26 15:18 30.06.2019
5646 Clouds 24 1013 80 0 12.68 131.26 14:50 30.06.2019
5647 Clouds 24 1013 80 0 12.68 131.26 14:50 30.06.2019
5648 Clouds 24 1013 80 0 12.68 131.26 14:30 30.06.2019
5649 Clouds 24 1013 80 0 12.68 131.26 13:48 30.06.2019
5650 Clouds 24 1013 79 0 12.74 129.601 13:29 30.06.2019
5651 Clouds 24 1013 79 0 12.74 129.601 12:52 30.06.2019
5652 Clouds 24 1013 79 0 12.74 129.601 12:28 30.06.2019
5653 Clouds 25 1011 81 0 14.25 136.484 11:57 30.06.2019
5654 Clouds 25 1011 81 0 14.25 136.484 11:38 30.06.2019
5655 Clouds 25 1010 78 10000 10.3 140 11:19 30.06.2019
5656 Clouds 25 1010 78 10000 10.3 140 10:44 30.06.2019
5657 Clouds 25 1010 78 10000 10.3 140 10:19 30.06.2019
5658 Clouds 25 1009 78 10000 10.3 130 09:57 30.06.2019
5659 Clouds 25 1009 78 10000 10.3 130 09:37 30.06.2019
5660 Clouds 25 1009 78 10000 10.3 130 09:18 30.06.2019
5661 Clouds 27 1009 74 10000 10.3 150 08:39 30.06.2019
5662 Clouds 27 1009 74 10000 10.3 150 08:19 30.06.2019
5663 Clouds 28 1009 69 10000 10.3 140 07:40 30.06.2019
5664 Clouds 28 1009 69 10000 10.3 140 07:21 30.06.2019
5665 Clouds 28 1010 69 10000 10.3 140 06:23 30.06.2019
5666 Clouds 28 1012 69 10000 10.3 130 03:26 30.06.2019
5667 Clouds 25 1012 83 10000 7.7 120 01:31 30.06.2019
5668 Clouds 25 1012 83 10000 7.7 120 00:38 30.06.2019
5669 Clouds 25 1012 83 10000 7.7 120 00:18 30.06.2019
5670 Clouds 25 1011 88 10000 7.7 130 23:36 29.06.2019
5671 Clouds 25 1011 88 10000 7.7 130 23:18 29.06.2019
5672 Clouds 25 1011 88 10000 5.1 130 22:42 29.06.2019
5673 Clouds 25 1011 88 10000 5.1 130 22:21 29.06.2019
5674 Clouds 25 1010 94 10000 5.1 120 21:52 29.06.2019
5675 Clouds 25 1011 94 10000 5.1 130 21:23 29.06.2019
5676 Clouds 25 1011 94 10000 5.1 130 20:45 29.06.2019
5677 Clouds 26 1011 85 0 11.62 131.02 20:27 29.06.2019
5678 Clouds 26 1011 85 0 11.62 131.02 19:48 29.06.2019
5679 Clouds 25 1011 94 10000 5.1 130 19:26 29.06.2019
5680 Clouds 25 1011 94 10000 5.1 130 18:55 29.06.2019
5681 Clouds 25 1011 94 10000 5.1 130 18:27 29.06.2019
5682 Clouds 26 1011 85 0 12.22 130.856 17:57 29.06.2019
5683 Clouds 26 1011 85 0 12.22 130.856 17:37 29.06.2019
5684 Clouds 25 1011 94 10000 5.1 130 17:19 29.06.2019
5685 Clouds 25 1011 94 10000 5.1 130 16:42 29.06.2019
5686 Clouds 26 1011 85 0 12.22 130.856 15:56 29.06.2019
5687 Clouds 26 1011 85 0 12.22 130.856 15:31 29.06.2019
5688 Clouds 26 1013 85 0 12.12 133.515 14:45 29.06.2019
5689 Clouds 26 1013 85 0 12.12 133.515 14:26 29.06.2019
5690 Clouds 26 1013 85 0 12.12 133.515 13:51 29.06.2019
5691 Rain 26 1013 85 0 12.57 132.872 13:27 29.06.2019
5692 Rain 26 1013 85 0 12.57 132.872 12:57 29.06.2019
5693 Rain 26 1013 85 0 12.57 132.872 12:38 29.06.2019
5694 Clouds 26 1011 84 0 12.98 137.632 12:20 29.06.2019
5695 Clouds 26 1011 84 0 12.98 137.632 11:42 29.06.2019
5696 Clouds 26 1011 84 0 12.98 137.632 11:21 29.06.2019
5697 Clouds 26 1011 84 0 12.98 137.632 10:46 29.06.2019
5698 Haze 28 1008 83 10000 7.7 140 10:21 29.06.2019
5699 Haze 28 1008 83 10000 7.7 140 09:50 29.06.2019
5700 Clouds 28 1008 83 10000 7.7 140 08:55 29.06.2019
5701 Clouds 28 1008 83 10000 7.7 140 08:28 29.06.2019
5702 Haze 29 1008 79 10000 7.7 130 07:45 29.06.2019
5703 Haze 29 1009 74 10000 7.7 140 06:48 29.06.2019
5704 Haze 29 1009 74 10000 7.7 140 06:25 29.06.2019
5705 Clouds 28 1011 83 10000 7.7 130 03:25 29.06.2019
5706 Clouds 26 1012 86 0 8.07 130.047 01:41 29.06.2019
5707 Clouds 26 1011 94 10000 5.1 130 00:32 29.06.2019
5708 Clouds 25 1011 94 10000 2.6 130 23:38 28.06.2019
5709 Clouds 25 1011 94 10000 2.6 130 23:20 28.06.2019
5710 Clouds 24 1010 100 10000 2.6 130 22:46 28.06.2019
5711 Clouds 26 1011 87 0 9.19 127.475 21:58 28.06.2019
5712 Clouds 26 1011 87 0 9.19 127.475 21:27 28.06.2019
5713 Clouds 26 1011 87 0 9.19 127.475 21:26 28.06.2019
5714 Clouds 26 1010 88 0 8.13 120.036 20:49 28.06.2019
5715 Clouds 25 1009 100 10000 2.6 150 20:30 28.06.2019
5716 Clouds 25 1009 100 10000 2.6 150 19:57 28.06.2019
5717 Clouds 25 1009 100 10000 2.6 150 19:37 28.06.2019
5718 Clouds 25 1009 100 10000 2.6 150 19:18 28.06.2019
5719 Clouds 25 1009 100 10000 2.6 150 18:41 28.06.2019
5720 Clouds 25 1009 100 10000 2.6 150 18:20 28.06.2019
5721 Clouds 26 1011 88 0 9.17 129.101 17:34 28.06.2019
5722 Clouds 26 1011 88 0 9.17 129.101 16:55 28.06.2019
5723 Clouds 25 1010 100 10000 5.1 130 16:29 28.06.2019
5724 Clouds 25 1010 100 10000 5.1 130 15:49 28.06.2019
5725 Clouds 26 1011 94 10000 6.2 130 15:29 28.06.2019
5726 Clouds 26 1011 94 10000 6.2 130 14:59 28.06.2019
5727 Rain 26 1012 86 0 10.51 136.701 14:39 28.06.2019
5728 Clouds 26 1011 88 10000 6.2 140 14:20 28.06.2019
5729 Clouds 26 1011 88 10000 6.2 140 13:45 28.06.2019
5730 Clouds 26 1012 86 0 11.18 133.369 13:22 28.06.2019
5731 Clouds 26 1012 86 0 11.18 133.369 12:50 28.06.2019
5732 Clouds 26 1009 94 10000 7.7 140 12:25 28.06.2019
5733 Clouds 26 1009 94 10000 7.7 140 11:29 28.06.2019
5734 Haze 27 1008 88 10000 5.1 150 10:47 28.06.2019
5735 Haze 27 1008 88 10000 5.1 150 10:23 28.06.2019
5736 Haze 28 1007 83 10000 10.3 150 09:59 28.06.2019
5737 Haze 28 1007 83 10000 10.3 150 09:41 28.06.2019
5738 Haze 28 1007 83 10000 10.3 150 09:22 28.06.2019
5739 Haze 29 1007 79 10000 10.3 150 08:41 28.06.2019
5740 Haze 29 1007 79 10000 10.3 150 08:23 28.06.2019
5741 Haze 30 1007 79 10000 10.3 150 07:41 28.06.2019
5742 Haze 30 1008 74 10000 9.3 150 06:40 28.06.2019
5743 Clouds 26 1011 84 0 9.53 133.137 02:56 28.06.2019
5744 Clouds 24 1011 94 10000 2.6 140 00:45 28.06.2019
5745 Clouds 24 1010 94 10000 1.5 0 23:58 27.06.2019
5746 Clouds 24 1010 94 10000 1.5 0 23:40 27.06.2019
5747 Clouds 24 1010 94 10000 1.5 0 23:21 27.06.2019
5748 Clouds 24 1009 94 10000 1.5 0 22:42 27.06.2019
5749 Clouds 26 1011 86 0 10.5 127.089 22:24 27.06.2019
5750 Clouds 26 1011 86 0 10.5 127.089 21:56 27.06.2019
5751 Clouds 26 1011 86 0 10.5 127.089 21:37 27.06.2019
5752 Clear 26 1010 85 0 11.01 128.673 21:19 27.06.2019
5753 Clear 26 1011 85 0 10.03 125.341 20:45 27.06.2019
5754 Clear 26 1011 85 0 10.03 125.341 20:45 27.06.2019
5755 -273 0 0 0 0 0 20:26 27.06.2019
5756 Clear 26 1011 85 0 10.03 125.341 20:26 27.06.2019
5757 Clear 26 1011 85 0 10.03 125.341 19:46 27.06.2019
5758 Clear 26 1011 85 0 10.03 125.341 19:27 27.06.2019
5759 Clear 26 1011 85 0 10.03 125.341 18:44 27.06.2019
5760 Clear 26 1012 86 0 10.48 130.629 18:26 27.06.2019
5761 Clear 26 1012 86 0 10.48 130.629 17:47 27.06.2019
5762 Clear 26 1012 86 0 10.48 130.629 17:23 27.06.2019
5763 Clear 26 1012 86 0 10.48 130.629 16:55 27.06.2019
5764 Clear 26 1012 86 0 10.48 130.629 16:36 27.06.2019
5765 Clear 26 1012 86 0 10.48 130.629 16:18 27.06.2019
5766 Clear 26 1012 86 0 10.48 130.629 15:44 27.06.2019
5767 Clouds 26 1013 86 0 10.82 133.726 15:18 27.06.2019
5768 Clouds 26 1013 86 0 10.82 133.726 14:42 27.06.2019
5769 Clouds 26 1013 86 0 10.82 133.726 14:24 27.06.2019
5770 Clouds 26 1013 86 0 10.82 133.726 13:46 27.06.2019
5771 Clouds 26 1012 86 0 10.89 133.214 13:27 27.06.2019
5772 Clouds 26 1012 86 0 10.89 133.214 12:51 27.06.2019
5773 Clouds 26 1010 88 10000 9.3 130 12:33 27.06.2019
5774 Clouds 26 1010 88 10000 9.3 130 11:55 27.06.2019
5775 Clouds 26 1010 88 10000 9.3 130 11:36 27.06.2019
5776 Clouds 26 1010 88 10000 9.3 130 11:18 27.06.2019
5777 Clouds 26 1011 86 0 11.71 140.398 10:42 27.06.2019
5778 Clouds 29 1009 79 10000 5.1 120 10:20 27.06.2019
5779 Clouds 29 1009 79 10000 5.1 120 09:50 27.06.2019
5780 Clouds 29 1009 79 10000 5.1 120 09:21 27.06.2019
5781 Clouds 29 1009 79 10000 5.1 120 08:51 27.06.2019
5782 Clouds 29 1009 79 10000 5.1 120 08:30 27.06.2019
5783 Clouds 29 1009 79 10000 5.1 120 07:48 27.06.2019
5784 Clouds 29 1009 79 10000 5.1 120 07:24 27.06.2019
5785 Clouds 29 1009 79 10000 5.1 120 06:37 27.06.2019
5786 Clouds 28 1011 83 10000 7.7 140 03:52 27.06.2019
5787 Clouds 26 1012 88 10000 6.2 130 02:43 27.06.2019
5788 Clouds 26 1012 94 10000 5.1 140 01:45 27.06.2019
5789 Clouds 25 1012 94 0 7.7 120 00:53 27.06.2019
5790 Clouds 24 1011 100 10000 5.1 130 00:27 27.06.2019
5791 Clouds 24 1011 100 10000 5.1 130 23:51 26.06.2019
5792 Clouds 24 1011 100 10000 5.1 130 23:23 26.06.2019
5793 Rain 24 1011 100 0 3.6 130 22:58 26.06.2019
5794 Rain 24 1011 100 0 3.6 130 22:40 26.06.2019
5795 Rain 24 1011 100 0 3.6 130 22:40 26.06.2019
5796 Rain 24 1011 100 0 3.6 130 22:19 26.06.2019
5797 Rain 24 1011 100 0 3.6 130 21:42 26.06.2019
5798 Rain 24 1011 100 0 3.6 130 21:21 26.06.2019
5799 Rain 25 1011 90 0 10.85 141.149 20:57 26.06.2019
5800 Rain 25 1011 90 0 10.85 141.149 20:37 26.06.2019
5801 Rain 25 1011 90 0 10.85 141.149 20:19 26.06.2019
5802 Rain 25 1011 90 0 10.85 141.149 19:43 26.06.2019
5803 Rain 25 1011 90 0 10.85 141.149 19:23 26.06.2019
5804 Rain 25 1011 90 0 10.85 141.149 18:46 26.06.2019
5805 Clouds 24 1011 100 0 3.6 150 18:23 26.06.2019
5806 Clouds 24 1011 100 0 3.6 150 17:57 26.06.2019
5807 Rain 25 1012 88 0 8.71 146.487 17:37 26.06.2019
5808 Clouds 24 1012 100 10000 5.1 130 17:18 26.06.2019
5809 Clouds 24 1012 100 10000 5.1 130 16:46 26.06.2019
5810 Clouds 24 1012 100 10000 5.1 130 16:22 26.06.2019
5811 Clouds 24 1012 100 10000 5.1 130 15:37 26.06.2019
5812 Clouds 24 1012 100 10000 5.1 130 15:19 26.06.2019
5813 Rain 25 1013 90 0 8.45 151.572 14:38 26.06.2019
5814 Clouds 28 1012 78 0 5.1 130 14:19 26.06.2019
5815 Clouds 28 1012 78 0 5.1 130 13:42 26.06.2019
5816 Clouds 28 1012 78 0 5.1 130 13:19 26.06.2019
5817 Clouds 28 1012 78 0 5.1 140 12:41 26.06.2019
5818 Clouds 28 1012 78 0 5.1 140 12:22 26.06.2019
5819 Clouds 28 1012 78 0 5.1 140 11:44 26.06.2019
5820 Clouds 28 1012 78 0 5.1 140 11:19 26.06.2019
5821 Rain 25 1011 94 10000 7.7 140 10:41 26.06.2019
5822 Rain 25 1011 94 10000 7.7 140 10:21 26.06.2019
5823 Rain 25 1010 94 0 8.7 140 09:41 26.06.2019
5824 Rain 25 1010 94 0 8.7 140 09:18 26.06.2019
5825 Rain 25 1010 100 0 10.3 140 08:39 26.06.2019
5826 Rain 25 1010 100 0 10.3 140 08:19 26.06.2019
5827 Rain 25 1010 100 0 7.7 140 07:45 26.06.2019
5828 Clouds 26 1011 88 0 8.2 140 06:38 26.06.2019
5829 Clouds 26 1011 88 0 8.2 140 06:20 26.06.2019
5830 Clouds 27 1013 78 10000 5.1 130 00:59 26.06.2019
5831 Clouds 25 1012 88 10000 6.7 140 00:20 26.06.2019
5832 Clouds 25 1012 88 10000 6.7 140 23:43 25.06.2019
5833 Clouds 25 1012 88 10000 6.7 140 23:24 25.06.2019
5834 Clouds 24 1012 94 10000 3.1 110 22:56 25.06.2019
5835 Clouds 24 1012 94 10000 3.1 110 22:37 25.06.2019
5836 Clouds 24 1012 94 10000 3.1 110 22:19 25.06.2019
5837 Clouds 24 1012 94 10000 5.1 130 21:40 25.06.2019
5838 Clouds 24 1012 94 10000 5.1 130 21:21 25.06.2019
5839 Rain 25 1013 85 0 10.73 132.784 20:44 25.06.2019
5840 Rain 25 1013 85 0 10.73 132.784 20:43 25.06.2019
5841 Rain 25 1013 85 0 10.73 132.784 20:20 25.06.2019
5842 Rain 25 1013 85 0 10.73 132.784 20:20 25.06.2019
5843 Rain 25 1013 85 0 10.73 132.784 19:45 25.06.2019
5844 Clouds 24 1012 100 10000 5.1 140 19:23 25.06.2019
5845 Clouds 24 1012 100 10000 5.1 140 18:44 25.06.2019
5846 Clouds 24 1012 100 10000 5.1 140 18:26 25.06.2019
5847 -273 0 0 0 0 0 17:54 25.06.2019
5848 -273 0 0 0 0 0 17:54 25.06.2019
5849 -273 0 0 0 0 0 17:54 25.06.2019
5850 -273 0 0 0 0 0 17:29 25.06.2019
5851 -273 0 0 0 0 0 17:29 25.06.2019
5852 Rain 26 1013 85 0 9.99 132.488 16:57 25.06.2019
5853 Rain 26 1013 85 0 9.99 132.488 16:38 25.06.2019
5854 Rain 26 1013 85 0 9.99 132.488 16:19 25.06.2019
5855 Rain 26 1013 85 0 9.99 132.488 15:40 25.06.2019
5856 Rain 26 1014 84 0 10.91 134.346 15:21 25.06.2019
5857 Rain 26 1014 84 0 10.91 134.346 14:53 25.06.2019
5858 Rain 26 1014 84 0 10.91 134.346 14:53 25.06.2019
5859 Rain 26 1014 84 0 10.91 134.346 14:33 25.06.2019
5860 Rain 26 1014 84 0 10.91 134.346 13:45 25.06.2019
5861 Rain 26 1014 84 0 11.28 136.937 13:26 25.06.2019
5862 Rain 26 1014 84 0 11.28 136.937 12:43 25.06.2019
5863 Rain 26 1013 84 0 10.85 139.48 12:25 25.06.2019
5864 Rain 26 1013 84 0 10.85 139.48 11:48 25.06.2019
5865 Clouds 25 1011 94 10000 10.3 150 11:26 25.06.2019
5866 Clouds 25 1011 94 10000 10.3 150 10:59 25.06.2019
5867 Clouds 25 1011 94 10000 10.3 150 10:38 25.06.2019
5868 Clouds 25 1011 94 10000 10.3 150 10:19 25.06.2019
5869 Clouds 25 1011 94 10000 10.3 150 09:40 25.06.2019
5870 Clouds 25 1011 94 10000 10.3 150 09:22 25.06.2019
5871 Clouds 25 1011 94 10000 12.9 140 08:59 25.06.2019
5872 Clouds 25 1011 94 10000 12.9 140 08:31 25.06.2019
5873 Clouds 27 1010 83 10000 12.9 140 07:51 25.06.2019
5874 Clouds 27 1010 83 10000 12.9 140 07:31 25.06.2019
5875 Clouds 28 1011 78 10000 12.9 140 06:49 25.06.2019
5876 Clouds 28 1011 78 10000 12.9 140 06:23 25.06.2019
5877 Rain 26 1014 86 0 9.73 140.52 02:44 25.06.2019
5878 Clouds 24 1014 100 0 4.1 130 00:57 25.06.2019
5879 Clouds 24 1014 100 0 4.1 130 00:57 25.06.2019
5880 Clouds 24 1014 100 0 4.1 130 00:20 25.06.2019
5881 Clouds 24 1013 100 0 5.7 130 23:51 24.06.2019
5882 Clouds 24 1013 100 0 5.1 130 23:32 24.06.2019
5883 Clouds 24 1013 100 0 7.2 140 22:48 24.06.2019
5884 Clouds 24 1012 100 0 7.2 140 22:22 24.06.2019
5885 Clouds 24 1012 100 0 7.2 140 21:57 24.06.2019
5886 Rain 25 1014 88 0 9.56 143.239 21:37 24.06.2019
5887 Clouds 24 1012 100 0 7.7 150 21:18 24.06.2019
5888 Clouds 24 1012 100 0 7.7 150 20:43 24.06.2019
5889 Rain 25 1013 87 0 9.2 149.704 20:23 24.06.2019
5890 Rain 25 1013 87 0 9.2 149.704 19:49 24.06.2019
5891 Clouds 24 1012 100 0 9.3 150 19:30 24.06.2019
5892 Clouds 24 1012 100 0 9.3 150 18:58 24.06.2019
5893 Rain 25 1013 87 0 9.2 149.704 18:38 24.06.2019
5894 Rain 26 1014 86 0 8.63 146.514 18:20 24.06.2019
5895 Rain 26 1014 86 0 8.63 146.514 17:37 24.06.2019
5896 Rain 26 1014 86 0 8.63 146.514 17:18 24.06.2019
5897 Rain 26 1014 86 0 8.63 146.514 16:40 24.06.2019
5898 Clouds 24 1013 100 10000 9.8 140 16:19 24.06.2019
5899 Rain 26 1014 86 0 8.63 146.514 15:41 24.06.2019
5900 Rain 26 1015 85 0 8.36 141.732 15:22 24.06.2019
5901 Rain 26 1015 85 0 8.36 141.732 14:35 24.06.2019
5902 Rain 26 1015 85 0 8.36 141.732 13:59 24.06.2019
5903 Rain 26 1015 85 0 8.36 141.732 13:33 24.06.2019
5904 Clouds 25 1013 94 0 9.8 140 12:57 24.06.2019
5905 Clouds 25 1013 94 0 9.8 140 12:38 24.06.2019
5906 Clouds 25 1013 94 0 9.8 140 12:20 24.06.2019
5907 Clouds 24 1012 100 0 9.8 140 11:43 24.06.2019
5908 Clouds 24 1012 100 0 9.8 140 11:24 24.06.2019
5909 Clouds 25 1012 94 0 9.8 140 10:51 24.06.2019
5910 Clouds 24 1012 100 0 10.3 160 10:31 24.06.2019
5911 Clouds 25 1011 94 0 10.3 150 09:51 24.06.2019
5912 Clouds 25 1011 94 0 10.3 150 09:23 24.06.2019
5913 Clouds 25 1011 100 0 10.3 140 08:55 24.06.2019
5914 Clouds 25 1011 94 0 10.3 140 08:32 24.06.2019
5915 Clouds 25 1011 94 0 10.3 140 07:47 24.06.2019
5916 Clouds 25 1011 94 0 10.3 140 07:27 24.06.2019
5917 Clouds 26 1011 88 0 7.7 150 06:52 24.06.2019
5918 Clouds 27 1011 88 0 7.7 140 06:22 24.06.2019
5919 Clouds 27 1012 88 10000 7.7 150 05:28 24.06.2019
5920 Clouds 27 1012 88 10000 7.7 150 04:28 24.06.2019
5921 Clouds 27 1013 83 10000 5.1 140 03:30 24.06.2019
5922 Clouds 26 1013 94 10000 4.6 130 02:33 24.06.2019
5923 Clouds 26 1013 94 10000 4.6 130 01:54 24.06.2019
5924 Clouds 25 1013 94 10000 4.1 120 01:26 24.06.2019
5925 Rain 26 1014 87 0 9.31 148.255 00:41 24.06.2019
5926 Clouds 25 1012 94 10000 2.6 120 00:19 24.06.2019
5927 Clouds 25 1012 94 10000 2.6 120 23:45 23.06.2019
5928 Clouds 24 1011 100 10000 5.1 130 23:23 23.06.2019
5929 Clouds 24 1011 100 10000 5.1 130 22:43 23.06.2019
5930 Clouds 25 1011 94 10000 6.2 140 22:21 23.06.2019
5931 Clouds 25 1011 94 10000 6.2 140 21:56 23.06.2019
5932 Clouds 25 1011 94 10000 6.2 140 21:36 23.06.2019
5933 Clouds 25 1011 94 10000 6.2 140 21:18 23.06.2019
5934 Rain 26 1011 87 0 9.52 150.143 20:40 23.06.2019
5935 Rain 26 1011 87 0 8.17 150.006 20:22 23.06.2019
5936 Rain 26 1011 87 0 8.17 150.006 19:44 23.06.2019
5937 Rain 26 1011 87 0 8.17 150.006 19:21 23.06.2019
5938 Rain 26 1011 87 0 8.17 150.006 18:54 23.06.2019
5939 Rain 26 1011 87 0 8.17 150.006 18:54 23.06.2019
5940 Rain 26 1011 87 0 8.8 148.422 18:24 23.06.2019
5941 Rain 26 1011 87 0 8.8 148.422 17:50 23.06.2019
5942 Rain 26 1011 87 0 8.8 148.422 17:26 23.06.2019
5943 Rain 26 1011 87 0 8.8 148.422 16:55 23.06.2019
5944 Rain 26 1011 87 0 8.8 148.422 16:36 23.06.2019
5945 Rain 26 1011 87 0 8.8 148.422 16:18 23.06.2019
5946 Rain 26 1011 87 0 8.8 148.422 15:40 23.06.2019
5947 Rain 26 1012 86 0 9.75 146.66 15:20 23.06.2019
5948 Rain 26 1012 86 0 9.75 146.66 14:40 23.06.2019
5949 Rain 26 1012 86 0 9.75 146.66 14:22 23.06.2019
5950 Rain 26 1012 86 0 9.75 146.66 13:57 23.06.2019
5951 Rain 26 1012 86 0 9.75 146.66 13:57 23.06.2019
5952 Rain 26 1012 86 0 9.75 146.66 13:38 23.06.2019
5953 Rain 26 1013 85 0 9.31 143.802 13:18 23.06.2019
5954 Rain 26 1013 85 0 9.31 143.802 12:42 23.06.2019
5955 Rain 26 1011 86 0 10.48 142.966 12:21 23.06.2019
5956 Rain 26 1011 86 0 10.48 142.966 11:52 23.06.2019
5957 Clouds 25 1010 94 3000 12.9 130 11:29 23.06.2019
5958 Clouds 25 1010 94 3000 12.9 130 10:54 23.06.2019
5959 Clouds 25 1010 94 3000 12.9 130 10:22 23.06.2019
5960 Clouds 25 1009 100 3000 10.3 160 09:59 23.06.2019
5961 Clouds 25 1009 100 3000 10.3 160 09:28 23.06.2019
5962 Clouds 27 1008 88 10000 10.3 160 08:56 23.06.2019
5963 Clouds 27 1008 88 10000 10.3 160 08:37 23.06.2019
5964 Clouds 27 1008 88 10000 10.3 160 08:19 23.06.2019
5965 Clouds 28 1008 83 10000 10.3 150 07:51 23.06.2019
5966 Clouds 28 1008 83 10000 10.3 150 07:20 23.06.2019
5967 Clouds 28 1008 83 10000 10.3 160 06:53 23.06.2019
5968 Clouds 27 1009 83 10000 10.3 130 05:53 23.06.2019
5969 Drizzle 26 1011 88 0 7.7 140 02:52 23.06.2019
5970 Drizzle 25 1011 100 0 7.7 140 01:43 23.06.2019
5971 Drizzle 25 1011 100 0 7.7 140 01:24 23.06.2019
5972 Drizzle 25 1011 94 0 9.3 140 00:34 23.06.2019
5973 Drizzle 24 1010 100 10000 7.7 140 23:52 22.06.2019
5974 Drizzle 24 1010 100 10000 7.7 140 23:26 22.06.2019
5975 Drizzle 24 1009 100 10000 7.7 130 22:47 22.06.2019
5976 Rain 25 1011 92 0 11.46 156.051 22:29 22.06.2019
5977 Rain 25 1011 92 0 11.46 156.051 21:59 22.06.2019
5978 Rain 25 1011 92 0 11.46 156.051 21:36 22.06.2019
5979 Rain 25 1009 93 0 10.4 160.097 21:18 22.06.2019
5980 Rain 25 1010 90 0 10.02 154.315 20:45 22.06.2019
5981 Rain 25 1010 90 0 10.02 154.315 20:24 22.06.2019
5982 Rain 25 1010 90 0 10.02 154.315 19:42 22.06.2019
5983 Rain 25 1010 90 0 10.02 154.315 19:21 22.06.2019
5984 Rain 25 1010 90 0 10.02 154.315 18:43 22.06.2019
5985 Rain 25 1010 92 0 9.32 157.543 18:23 22.06.2019
5986 Rain 25 1010 92 0 9.32 157.543 17:46 22.06.2019
5987 Rain 25 1010 92 0 9.32 157.543 17:26 22.06.2019
5988 Rain 25 1010 92 0 9.32 157.543 16:44 22.06.2019
5989 Rain 25 1010 92 0 9.32 157.543 16:24 22.06.2019
5990 Rain 25 1010 92 0 9.32 157.543 15:45 22.06.2019
5991 Rain 25 1010 92 0 9.32 157.543 15:27 22.06.2019
5992 Rain 25 1012 90 0 9.56 148.193 14:52 22.06.2019
5993 Rain 25 1012 90 0 9.56 148.193 14:32 22.06.2019
5994 Rain 25 1012 90 0 9.56 148.193 13:57 22.06.2019
5995 Rain 25 1012 90 0 9.56 148.193 13:39 22.06.2019
5996 Rain 25 1011 91 0 10.95 151.485 13:18 22.06.2019
5997 Rain 25 1011 91 0 10.95 151.485 12:43 22.06.2019
5998 Rain 25 1009 90 0 9.28 147.137 12:19 22.06.2019
5999 Rain 25 1009 90 0 9.28 147.137 11:41 22.06.2019
6000 Clouds 25 1008 94 0 8.7 140 11:19 22.06.2019
6001 Clouds 26 1008 94 0 8.2 150 10:22 22.06.2019
6002 Clouds 26 1008 94 0 8.2 150 09:56 22.06.2019
6003 Clouds 26 1008 94 0 8.2 150 09:35 22.06.2019
6004 Clouds 26 1007 94 0 7.7 150 08:48 22.06.2019
6005 Clouds 26 1007 94 0 7.7 150 08:29 22.06.2019
6006 Clouds 25 1007 100 0 7.7 140 07:44 22.06.2019
6007 Rain 27 1007 88 10000 8.2 130 07:20 22.06.2019
6008 Rain 27 1007 88 10000 8.2 130 06:35 22.06.2019
6009 Rain 26 1010 94 10000 5.1 130 03:42 22.06.2019
6010 Rain 25 1010 94 0 4.1 100 02:21 22.06.2019
6011 Rain 24 1010 100 0 2.1 100 00:48 22.06.2019
6012 Rain 24 1010 100 0 2.1 100 00:24 22.06.2019
6013 Rain 24 1010 100 0 2.1 100 23:49 21.06.2019
6014 Rain 26 1010 87 0 9.35 136.548 23:23 21.06.2019
6015 Rain 26 1010 87 0 9.35 136.548 22:54 21.06.2019
6016 Rain 26 1010 87 0 9.35 136.548 22:27 21.06.2019
6017 Rain 26 1010 87 0 9.35 136.548 21:57 21.06.2019
6018 Rain 26 1010 87 0 9.35 136.548 21:38 21.06.2019
6019 Rain 26 1010 87 0 9.35 136.548 21:38 21.06.2019
6020 Rain 26 1010 87 0 9.28 159.987 21:19 21.06.2019
6021 Rain 25 1010 88 0 8.89 157.385 20:47 21.06.2019
6022 Rain 25 1010 88 0 8.89 157.385 20:22 21.06.2019
6023 Rain 25 1010 88 0 8.89 157.385 19:38 21.06.2019
6024 Rain 25 1010 88 0 8.89 157.385 18:55 21.06.2019
6025 Rain 25 1010 88 0 8.89 157.385 18:34 21.06.2019
6026 Rain 25 1011 91 0 6.54 151.835 17:48 21.06.2019
6027 Rain 25 1011 91 0 6.54 151.835 17:48 21.06.2019
6028 Rain 25 1011 91 0 6.54 151.835 17:30 21.06.2019
6029 Rain 25 1011 91 0 6.54 151.835 16:42 21.06.2019
6030 Clouds 24 1011 100 10000 4.1 160 16:23 21.06.2019
6031 Clouds 24 1011 100 10000 4.1 160 15:45 21.06.2019
6032 Clouds 24 1012 100 10000 2.6 120 15:24 21.06.2019
6033 Clouds 24 1012 100 10000 2.6 120 14:53 21.06.2019
6034 Clouds 24 1012 100 10000 4.1 120 14:31 21.06.2019
6035 Clouds 24 1012 100 10000 4.1 120 13:58 21.06.2019
6036 Rain 25 1013 85 0 8.63 141.334 13:36 21.06.2019
6037 Clouds 24 1012 100 10000 5.1 130 13:18 21.06.2019
6038 Rain 25 1012 88 0 9.25 149.664 12:40 21.06.2019
6039 Rain 26 1011 84 0 9.35 145.734 12:22 21.06.2019
6040 Rain 26 1011 84 0 9.35 145.734 11:47 21.06.2019
6041 Rain 24 1010 100 0 9.3 130 11:26 21.06.2019
6042 Rain 24 1010 100 0 9.3 130 10:52 21.06.2019
6043 Rain 24 1010 100 0 9.3 130 10:23 21.06.2019
6044 Rain 26 1011 84 0 9.35 145.734 09:59 21.06.2019
6045 Rain 26 1011 84 0 9.35 145.734 09:40 21.06.2019
6046 Clouds 25 1009 94 10000 7.7 130 09:19 21.06.2019
6047 Clouds 25 1009 94 10000 7.7 130 08:43 21.06.2019
6048 Haze 26 1009 83 10000 5.1 150 08:24 21.06.2019
6049 Haze 26 1009 83 10000 5.1 150 07:52 21.06.2019
6050 Haze 26 1009 83 10000 5.1 150 07:30 21.06.2019
6051 Rain 26 1010 84 0 9.44 152.55 06:54 21.06.2019
6052 Rain 25 1011 91 0 9.4 156.371 06:21 21.06.2019
6053 Haze 28 1011 78 10000 7.7 150 05:26 21.06.2019
6054 Haze 28 1011 78 10000 7.7 150 04:29 21.06.2019
6055 Haze 28 1012 69 10000 8.2 130 03:34 21.06.2019
6056 Haze 28 1012 69 10000 8.2 130 02:52 21.06.2019
6057 Haze 26 1012 83 10000 6.7 130 01:49 21.06.2019
6058 Haze 26 1012 78 10000 5.1 120 00:55 21.06.2019
6059 Haze 24 1012 88 10000 2.1 100 00:22 21.06.2019
6060 Haze 24 1012 88 10000 2.1 100 23:49 20.06.2019
6061 Haze 24 1012 88 10000 2.1 100 23:23 20.06.2019
6062 Clouds 24 1011 83 10000 1.5 120 22:58 20.06.2019
6063 Clouds 24 1011 83 10000 1.5 120 22:58 20.06.2019
6064 Clouds 24 1011 83 10000 1.5 120 22:38 20.06.2019
6065 Clouds 24 1011 83 10000 1.5 120 22:20 20.06.2019
6066 Clouds 24 1011 88 10000 5.1 140 21:48 20.06.2019
6067 Clouds 24 1011 88 10000 5.1 140 21:19 20.06.2019
6068 Rain 26 1011 84 0 7.59 135.037 20:48 20.06.2019
6069 Rain 25 1011 85 0 7.46 136.658 20:27 20.06.2019
6070 Rain 25 1011 85 0 7.46 136.658 19:58 20.06.2019
6071 Rain 25 1011 85 0 7.46 136.658 19:39 20.06.2019
6072 Rain 25 1011 85 0 7.46 136.658 19:18 20.06.2019
6073 Rain 25 1011 85 0 7.46 136.658 18:43 20.06.2019
6074 Clouds 26 1012 84 0 7.87 129.16 18:23 20.06.2019
6075 Clouds 26 1012 84 0 7.87 129.16 17:55 20.06.2019
6076 Clouds 26 1012 84 0 7.87 129.16 17:37 20.06.2019
6077 Clouds 26 1012 84 0 7.87 129.16 16:56 20.06.2019
6078 Clouds 26 1012 84 0 7.87 129.16 16:37 20.06.2019
6079 Clouds 24 1012 88 10000 4.1 130 16:18 20.06.2019
6080 Clouds 26 1012 84 0 7.87 129.16 15:41 20.06.2019
6081 Clouds 25 1012 83 10000 6.2 130 15:22 20.06.2019
6082 Clouds 25 1012 83 10000 6.2 130 14:47 20.06.2019
6083 Clouds 25 1012 83 10000 9.3 130 14:23 20.06.2019
6084 Clouds 25 1012 83 10000 9.3 130 14:23 20.06.2019
6085 Clouds 26 1014 81 0 8.39 126.522 13:41 20.06.2019
6086 Clouds 26 1014 81 0 9.5 130.568 13:21 20.06.2019
6087 Clouds 26 1014 81 0 9.5 130.568 12:50 20.06.2019
6088 Clouds 25 1012 88 10000 6.7 120 12:25 20.06.2019
6089 Clouds 25 1012 88 10000 6.7 120 11:55 20.06.2019
6090 Clouds 25 1012 88 10000 6.7 120 11:55 20.06.2019
6091 Clouds 25 1012 88 10000 6.7 120 11:37 20.06.2019
6092 Clouds 25 1012 88 10000 6.7 120 11:18 20.06.2019
6093 Clouds 25 1011 88 10000 8.2 140 10:41 20.06.2019
6094 Clouds 25 1011 88 10000 8.2 140 10:21 20.06.2019
6095 Clouds 26 1012 81 0 11.02 141.783 09:40 20.06.2019
6096 Rain 26 1011 81 0 8.61 153.994 09:22 20.06.2019
6097 Clouds 26 1010 79 0 10.5 147.245 08:47 20.06.2019
6098 Clouds 26 1010 79 0 10.5 147.245 08:27 20.06.2019
6099 Clouds 26 1010 79 0 10.5 147.245 07:54 20.06.2019
6100 Clouds 27 1010 78 10000 8.2 140 07:30 20.06.2019
6101 Clouds 27 1010 78 10000 8.2 140 06:38 20.06.2019
6102 Rain 28 1010 78 10000 4.6 180 05:54 20.06.2019
6103 Clouds 28 1012 78 10000 4.1 120 03:37 20.06.2019
6104 Clouds 23 1013 100 0 1.5 0 00:34 20.06.2019
6105 Clouds 23 1013 100 0 1.5 140 23:59 19.06.2019
6106 Clouds 22 1012 100 0 1.5 140 23:41 19.06.2019
6107 Clouds 22 1012 100 0 1.5 140 23:23 19.06.2019
6108 Rain 22 1012 100 10000 2.6 140 22:47 19.06.2019
6109 Rain 22 1012 100 10000 2.6 140 22:47 19.06.2019
6110 Rain 22 1012 100 10000 2.6 140 22:20 19.06.2019
6111 Clouds 23 1011 94 10000 3.1 120 21:46 19.06.2019
6112 Rain 25 1011 85 0 5.93 133.311 21:25 19.06.2019
6113 Rain 25 1011 85 0 5.93 133.311 20:56 19.06.2019
6114 Rain 25 1011 85 0 5.93 133.311 20:37 19.06.2019
6115 Rain 25 1011 85 0 5.93 133.311 20:37 19.06.2019
6116 Rain 25 1011 85 0 5.93 133.311 20:37 19.06.2019
6117 Rain 25 1011 85 0 5.93 133.311 20:19 19.06.2019
6118 Rain 25 1011 85 0 5.93 133.311 19:40 19.06.2019
6119 Rain 25 1011 85 0 5.93 133.311 19:20 19.06.2019
6120 Rain 25 1011 85 0 5.93 133.311 18:48 19.06.2019
6121 Clouds 23 1012 94 10000 4.1 110 18:21 19.06.2019
6122 Clouds 23 1012 94 10000 4.1 110 17:38 19.06.2019
6123 Rain 25 1012 83 0 7.9 139.968 16:59 19.06.2019
6124 Rain 25 1012 83 0 7.9 139.968 16:39 19.06.2019
6125 Rain 25 1012 83 0 7.9 139.968 16:21 19.06.2019
6126 Rain 25 1012 83 0 7.9 139.968 15:53 19.06.2019
6127 Rain 25 1012 83 0 7.9 139.968 15:27 19.06.2019
6128 Clear 26 1014 81 0 9.7 137.09 14:50 19.06.2019
6129 Clear 26 1014 81 0 9.7 137.09 14:31 19.06.2019
6130 Clear 26 1014 81 0 9.7 137.09 13:59 19.06.2019
6131 Clear 26 1014 81 0 9.7 137.09 13:41 19.06.2019
6132 Clouds 26 1014 81 0 9.62 135.885 13:21 19.06.2019
6133 Clouds 26 1014 81 0 9.62 135.885 12:44 19.06.2019
6134 Clouds 26 1012 80 0 11.11 142.66 12:21 19.06.2019
6135 Clouds 26 1012 80 0 11.11 142.66 11:45 19.06.2019
6136 Clouds 26 1010 78 10000 7.7 140 11:25 19.06.2019
6137 Clouds 26 1010 78 10000 7.7 140 10:58 19.06.2019
6138 Clouds 26 1010 78 10000 7.7 140 10:40 19.06.2019
6139 Clouds 26 1010 78 10000 7.7 140 10:40 19.06.2019
6140 Clouds 26 1010 78 10000 7.7 140 10:22 19.06.2019
6141 Clouds 28 1010 69 10000 10.3 130 09:39 19.06.2019
6142 Clouds 28 1010 69 10000 10.3 130 09:19 19.06.2019
6143 Clouds 28 1010 69 10000 10.3 140 08:49 19.06.2019
6144 Smoke 29 1010 62 10000 10.3 160 08:28 19.06.2019
6145 Smoke 29 1010 62 10000 10.3 160 07:47 19.06.2019
6146 Smoke 29 1010 62 10000 10.3 160 07:47 19.06.2019
6147 Smoke 29 1010 62 10000 10.3 160 07:23 19.06.2019
6148 Smoke 29 1010 62 10000 10.3 140 06:52 19.06.2019
6149 Haze 28 1011 65 10000 10.3 150 06:26 19.06.2019
6150 Haze 28 1011 65 10000 10.3 150 05:49 19.06.2019
6151 Haze 29 1012 58 10000 8.2 150 04:19 19.06.2019
6152 Haze 29 1012 58 10000 8.2 150 03:27 19.06.2019
6153 Haze 28 1013 61 10000 4.6 110 01:49 19.06.2019
6154 Haze 28 1013 61 10000 4.6 110 01:18 19.06.2019
6155 Clouds 25 1012 73 10000 1.5 0 00:43 19.06.2019
6156 Clouds 25 1012 73 10000 1.5 0 00:20 19.06.2019
6157 Clouds 24 1012 78 10000 1.5 0 23:46 18.06.2019
6158 Clouds 21 1012 88 10000 1 0 23:26 18.06.2019
6159 Clouds 21 1012 88 10000 1 0 22:45 18.06.2019
6160 Clouds 21 1012 88 10000 1 0 22:24 18.06.2019
6161 Clouds 25 1013 81 0 9.08 125.34 21:56 18.06.2019
6162 Clouds 25 1013 81 0 9.08 125.34 21:38 18.06.2019
6163 Clouds 25 1012 82 0 9.49 132.411 21:19 18.06.2019
6164 Clouds 25 1012 81 0 9.04 132.723 20:42 18.06.2019
6165 Clouds 25 1012 81 0 9.04 132.723 20:24 18.06.2019
6166 Clouds 25 1012 81 0 9.04 132.723 19:41 18.06.2019
6167 Clouds 24 1011 83 10000 5.1 110 19:23 18.06.2019
6168 Clouds 24 1011 83 10000 5.1 110 18:56 18.06.2019
6169 Clouds 25 1013 81 0 9.98 128.774 18:26 18.06.2019
6170 Clouds 25 1013 81 0 9.98 128.774 17:57 18.06.2019
6171 Clouds 25 1013 81 0 9.98 128.774 17:57 18.06.2019
6172 Clouds 25 1013 81 0 9.98 128.774 17:38 18.06.2019
6173 Clouds 25 1013 81 0 9.98 128.774 17:19 18.06.2019
6174 Clouds 25 1013 81 0 9.98 128.774 16:42 18.06.2019
6175 Clouds 25 1013 81 0 9.98 128.774 16:22 18.06.2019
6176 Clouds 25 1013 81 0 9.98 128.774 15:43 18.06.2019
6177 Clouds 25 1013 80 0 10.39 131.164 15:23 18.06.2019
6178 Clouds 25 1013 80 0 10.39 131.164 14:57 18.06.2019
6179 Clouds 25 1013 80 0 10.39 131.164 14:39 18.06.2019
6180 Clouds 25 1013 80 0 10.39 131.164 14:19 18.06.2019
6181 Clouds 25 1013 80 0 10.39 131.164 13:50 18.06.2019
6182 Clouds 25 1014 79 0 10.64 129.81 13:31 18.06.2019
6183 Clouds 25 1014 79 0 10.64 129.81 12:46 18.06.2019
6184 Clouds 25 1014 79 0 10.64 129.81 12:28 18.06.2019
6185 Clouds 26 1012 78 0 11.96 138.244 11:56 18.06.2019
6186 Clouds 26 1012 78 0 11.96 138.244 11:38 18.06.2019
6187 Haze 26 1011 78 10000 6.2 150 11:18 18.06.2019
6188 Haze 26 1011 78 10000 6.2 150 10:43 18.06.2019
6189 Haze 26 1011 78 10000 6.2 150 10:22 18.06.2019
6190 Haze 26 1011 78 10000 6.2 150 10:22 18.06.2019
6191 Haze 27 1010 74 10000 9.3 140 09:52 18.06.2019
6192 Clouds 29 1010 66 10000 8.2 140 09:25 18.06.2019
6193 Clouds 29 1010 66 10000 8.2 140 08:56 18.06.2019
6194 Clouds 29 1010 66 10000 8.2 140 08:38 18.06.2019
6195 Clouds 29 1010 66 10000 8.2 140 08:20 18.06.2019
6196 Haze 29 1010 70 10000 9.3 150 07:26 18.06.2019
6197 Smoke 29 1010 70 10000 9.8 140 06:55 18.06.2019
6198 Smoke 29 1011 70 10000 8.7 140 05:27 18.06.2019
6199 Clouds 30 1012 66 10000 7.7 140 04:21 18.06.2019
6200 Clouds 28 1013 69 10000 5.1 150 02:48 18.06.2019
6201 Clouds 27 1013 78 10000 5.1 130 01:28 18.06.2019
6202 Clouds 25 1013 88 10000 2.6 0 00:58 18.06.2019
6203 Clouds 25 1013 88 10000 2.6 0 00:30 18.06.2019
6204 Clouds 23 1013 94 10000 1.5 0 23:58 17.06.2019
6205 Clouds 25 1013 80 0 6.58 123.772 23:37 17.06.2019
6206 Clouds 21 1012 100 10000 1.5 0 23:18 17.06.2019
6207 Clouds 21 1012 100 10000 1.5 0 22:40 17.06.2019
6208 Clouds 21 1012 100 10000 1.5 0 22:21 17.06.2019
6209 Clouds 25 1013 80 0 6.58 123.772 21:45 17.06.2019
6210 Clouds 25 1013 80 0 6.58 123.772 21:45 17.06.2019
6211 Clouds 25 1012 83 0 6.36 125.14 21:23 17.06.2019
6212 Clouds 25 1012 83 0 6.36 125.14 20:44 17.06.2019
6213 Clouds 25 1012 83 0 6.36 125.14 20:24 17.06.2019
6214 Clouds 25 1012 82 0 7.03 126.528 19:57 17.06.2019
6215 Clouds 25 1012 82 0 7.03 126.528 19:39 17.06.2019
6216 Clouds 25 1012 82 0 7.03 126.528 19:21 17.06.2019
6217 Clouds 25 1012 82 0 7.03 126.528 18:39 17.06.2019
6218 Clouds 25 1012 83 0 8.07 124.245 18:18 17.06.2019
6219 Clouds 25 1012 83 0 8.07 124.245 17:48 17.06.2019
6220 Clouds 25 1012 83 0 8.07 124.245 17:30 17.06.2019
6221 Clouds 25 1012 83 0 8.07 124.245 17:00 17.06.2019
6222 Clouds 25 1012 83 0 8.07 124.245 16:41 17.06.2019
6223 Clouds 25 1012 83 0 8.07 124.245 16:23 17.06.2019
6224 Clouds 25 1012 83 0 8.07 124.245 15:44 17.06.2019
6225 Clouds 26 1014 84 0 9.57 135.385 15:20 17.06.2019
6226 Clouds 26 1014 84 0 9.57 135.385 14:56 17.06.2019
6227 Clouds 26 1014 84 0 9.57 135.385 14:38 17.06.2019
6228 Clouds 26 1014 84 0 9.57 135.385 14:19 17.06.2019
6229 Clouds 26 1014 84 0 9.57 135.385 13:41 17.06.2019
6230 Clouds 26 1014 82 0 9.72 134.212 13:21 17.06.2019
6231 Clouds 26 1014 82 0 9.72 134.212 12:42 17.06.2019
6232 Clouds 26 1012 81 0 10.7 141.884 12:21 17.06.2019
6233 Clouds 26 1012 81 0 10.7 141.884 11:43 17.06.2019
6234 Clouds 27 1010 78 10000 7.7 140 11:25 17.06.2019
6235 Clouds 27 1010 78 10000 7.7 140 10:48 17.06.2019
6236 Clouds 27 1010 78 10000 7.7 140 10:29 17.06.2019
6237 -273 0 0 0 0 0 09:57 17.06.2019
6238 Clouds 29 1010 70 10000 7.7 140 09:35 17.06.2019
6239 Clouds 29 1010 70 10000 7.7 140 08:58 17.06.2019
6240 Clouds 29 1010 70 10000 7.7 140 08:38 17.06.2019
6241 Clouds 29 1010 70 10000 7.7 140 08:20 17.06.2019
6242 Clouds 26 1010 80 0 9.1 151.562 07:39 17.06.2019
6243 Haze 30 1010 62 10000 6.7 150 07:19 17.06.2019
6244 Haze 30 1010 62 10000 6.7 150 06:23 17.06.2019
6245 Clouds 26 1011 78 0 7.3 160.101 05:31 17.06.2019
6246 Clouds 29 1012 66 10000 3.6 120 04:32 17.06.2019
6247 Clouds 29 1012 66 10000 3.6 120 03:32 17.06.2019
6248 Haze 28 1013 69 10000 2.6 120 02:46 17.06.2019
6249 Haze 27 1013 69 10000 2.6 120 02:28 17.06.2019
6250 Clouds 25 1013 83 10000 2.6 120 01:36 17.06.2019
6251 Clouds 25 1013 83 10000 2.6 120 00:58 17.06.2019
6252 Clear 26 1014 76 0 6.64 133.163 00:38 17.06.2019
6253 Clouds 21 1012 100 10000 5.36 118.443 00:19 17.06.2019
6254 Clouds 21 1012 100 10000 5.36 118.443 23:39 16.06.2019
6255 Clouds 21 1012 100 10000 5.36 118.443 23:20 16.06.2019
6256 Haze 21 1012 100 10000 5.36 118.443 22:45 16.06.2019
6257 Haze 21 1012 100 10000 5.36 118.443 22:45 16.06.2019
6258 Haze 21 1012 100 10000 5.36 118.443 22:21 16.06.2019
6259 Clouds 22 1012 88 10000 5.1 120 21:58 16.06.2019
6260 Clouds 22 1012 88 10000 5.1 120 21:40 16.06.2019
6261 Clouds 22 1012 88 10000 5.1 120 21:21 16.06.2019
6262 Clouds 25 1012 82 0 7.51 125.472 20:40 16.06.2019
6263 Clouds 22 1012 94 10000 5.1 140 20:19 16.06.2019
6264 Clouds 22 1012 94 10000 5.1 140 19:58 16.06.2019
6265 Clouds 22 1012 94 10000 5.1 140 19:39 16.06.2019
6266 Clouds 22 1012 94 10000 5.1 140 19:21 16.06.2019
6267 Clouds 22 1012 94 10000 5.1 140 18:42 16.06.2019
6268 Clouds 22 1012 94 10000 5.1 140 18:21 16.06.2019
6269 Clouds 23 1012 94 10000 5.1 120 17:58 16.06.2019
6270 Clouds 23 1012 94 10000 5.1 120 17:40 16.06.2019
6271 Clouds 23 1012 94 10000 5.1 120 17:21 16.06.2019
6272 Clouds 24 1012 88 10000 5.1 120 16:55 16.06.2019
6273 Clouds 25 1013 83 0 8.02 131.354 16:37 16.06.2019
6274 Clouds 25 1013 83 0 8.02 131.354 16:18 16.06.2019
6275 Clouds 25 1013 83 0 8.02 131.354 15:39 16.06.2019
6276 Clouds 26 1013 83 0 8.64 135.352 15:21 16.06.2019
6277 Clouds 26 1013 83 0 8.64 135.352 14:40 16.06.2019
6278 Clouds 26 1013 83 0 8.64 135.352 14:21 16.06.2019
6279 Clouds 26 1013 83 0 8.64 135.352 13:50 16.06.2019
6280 Clouds 26 1013 83 0 8.64 135.352 13:25 16.06.2019
6281 Clouds 26 1014 83 0 8.93 134.387 12:47 16.06.2019
6282 Clouds 26 1012 81 0 10.82 143.054 12:24 16.06.2019
6283 Clouds 26 1012 81 0 10.82 143.054 11:59 16.06.2019
6284 Clouds 26 1012 81 0 10.82 143.054 11:38 16.06.2019
6285 Clouds 26 1012 81 0 10.82 143.054 11:19 16.06.2019
6286 Clouds 26 1012 81 0 10.82 143.054 10:45 16.06.2019
6287 Haze 27 1009 74 10000 12.3 130 10:20 16.06.2019
6288 Haze 27 1009 74 10000 12.3 130 10:20 16.06.2019
6289 Haze 27 1009 74 10000 12.3 130 09:46 16.06.2019
6290 Haze 27 1009 74 10000 12.3 130 09:25 16.06.2019
6291 Haze 28 1009 74 10000 9.8 130 08:50 16.06.2019
6292 Haze 28 1009 74 10000 9.8 130 08:22 16.06.2019
6293 Clouds 26 1010 77 0 9.85 153.188 07:49 16.06.2019
6294 Clouds 26 1010 77 0 9.85 153.188 07:49 16.06.2019
6295 Clouds 26 1010 77 0 9.85 153.188 07:49 16.06.2019
6296 Haze 31 1009 58 10000 6.2 150 07:31 16.06.2019
6297 Haze 31 1009 58 10000 6.2 150 06:55 16.06.2019
6298 Haze 31 1009 58 10000 6.2 150 06:20 16.06.2019
6299 Clouds 30 1011 58 10000 11.8 130 05:26 16.06.2019
6300 Clouds 30 1011 58 10000 11.8 130 04:26 16.06.2019
6301 Clear 30 1012 58 10000 10.3 130 03:43 16.06.2019
6302 Clear 30 1012 58 10000 10.3 130 03:23 16.06.2019
6303 Clear 26 1012 78 10000 5.1 130 01:51 16.06.2019
6304 Clear 26 1012 78 10000 5.1 130 01:33 16.06.2019
6305 Clear 26 1012 78 10000 8.43 135.231 00:49 16.06.2019
6306 Clear 22 1012 94 10000 9.43 127.225 00:26 16.06.2019
6307 Clear 22 1012 94 10000 9.43 127.225 23:59 15.06.2019
6308 Clear 25 1013 81 0 9.43 127.225 23:39 15.06.2019
6309 Clouds 22 1011 94 10000 2.6 130 23:20 15.06.2019
6310 Clouds 22 1011 94 10000 2.6 130 22:48 15.06.2019
6311 Clouds 22 1001 94 10000 2.6 130 22:26 15.06.2019
6312 Clouds 22 1001 94 10000 2.6 130 21:45 15.06.2019
6313 Clouds 25 1011 82 0 9.52 127.518 21:21 15.06.2019
6314 Clear 26 1012 80 0 9.28 124.077 20:46 15.06.2019
6315 Clear 26 1012 80 0 9.28 124.077 20:23 15.06.2019
6316 Clear 26 1012 80 0 9.28 124.077 19:53 15.06.2019
6317 Clouds 23 1010 94 10000 9.28 124.077 19:28 15.06.2019
6318 Clouds 23 1010 94 10000 9.28 124.077 18:46 15.06.2019
6319 Clear 26 1012 82 0 10.6 127.333 18:26 15.06.2019
6320 Clear 26 1012 82 0 10.6 127.333 17:58 15.06.2019
6321 Clear 26 1012 82 0 10.6 127.333 17:40 15.06.2019
6322 Clear 26 1012 82 0 10.6 127.333 17:21 15.06.2019
6323 Clear 26 1012 82 0 10.6 127.333 16:43 15.06.2019
6324 Clear 26 1012 82 0 10.6 127.333 16:18 15.06.2019
6325 Clear 26 1012 82 0 10.6 127.333 15:41 15.06.2019
6326 Clear 26 1013 83 0 10.87 131.096 15:21 15.06.2019
6327 Clear 26 1013 83 0 10.87 131.096 15:21 15.06.2019
6328 Clear 26 1013 83 0 10.87 131.096 14:38 15.06.2019
6329 Clear 26 1013 83 0 10.87 131.096 14:18 15.06.2019
6330 Clear 26 1013 83 0 10.87 131.096 13:44 15.06.2019
6331 Clear 26 1013 83 0 10.87 131.096 13:21 15.06.2019
6332 Clear 26 1013 83 0 10.87 131.096 12:58 15.06.2019
6333 Clear 26 1013 83 0 10.87 131.096 12:40 15.06.2019
6334 Clouds 26 1011 84 0 10.98 143.344 12:20 15.06.2019
6335 Clouds 26 1011 83 0 11.86 141.939 11:42 15.06.2019
6336 Clouds 26 1011 83 0 11.86 141.939 11:42 15.06.2019
6337 Clouds 26 1011 83 0 11.86 141.939 11:23 15.06.2019
6338 Clear 26 1011 81 0 12.37 139.987 10:42 15.06.2019
6339 Clouds 27 1008 83 10000 10.3 130 10:24 15.06.2019
6340 Clouds 27 1008 83 10000 10.3 130 09:48 15.06.2019
6341 Clouds 27 1008 83 10000 10.3 130 09:26 15.06.2019
6342 Clouds 28 1008 78 10000 7.7 150 08:54 15.06.2019
6343 Clouds 28 1008 78 10000 7.7 150 08:34 15.06.2019
6344 Clouds 28 1008 78 10000 7.7 150 08:33 15.06.2019
6345 Clouds 29 1008 74 10000 7.7 140 07:54 15.06.2019
6346 Clouds 29 1008 74 10000 7.7 140 07:25 15.06.2019
6347 Clouds 29 1008 74 10000 7.7 140 07:25 15.06.2019
6348 Haze 29 1009 74 10000 7.7 140 06:47 15.06.2019
6349 Haze 29 1009 70 10000 7.7 150 06:20 15.06.2019
6350 Clouds 29 1010 66 10000 5.1 140 05:28 15.06.2019
6351 Clouds 29 1010 66 10000 5.1 140 04:46 15.06.2019
6352 Haze 28 1011 74 10000 5.1 140 03:47 15.06.2019
6353 Haze 28 1012 65 10000 10.3 140 02:58 15.06.2019
6354 Haze 27 1012 74 10000 5.7 120 02:23 15.06.2019
6355 Haze 27 1012 74 10000 5.7 120 01:49 15.06.2019
6356 Haze 25 1012 83 10000 2.6 120 00:59 15.06.2019
6357 Clouds 26 1013 79 0 9.27 135.511 00:39 15.06.2019
6358 Clouds 23 1011 88 10000 2.6 120 23:55 14.06.2019
6359 Clouds 21 1010 94 10000 2.6 140 23:26 14.06.2019
6360 Clouds 21 1010 94 10000 2.6 140 22:56 14.06.2019
6361 Clouds 26 1012 77 0 10.09 129.145 22:37 14.06.2019
6362 Clouds 26 1012 77 0 10.09 129.145 22:19 14.06.2019
6363 Clouds 26 1012 77 0 10.09 129.145 21:40 14.06.2019
6364 Clouds 25 1011 81 0 10.06 128.256 21:22 14.06.2019
6365 Clouds 25 1011 81 0 10.06 128.256 20:43 14.06.2019
6366 Clouds 25 1011 81 0 10.06 128.256 20:43 14.06.2019
6367 Clouds 25 1011 81 0 10.06 128.256 20:19 14.06.2019
6368 Clouds 25 1011 81 0 10.06 128.256 19:56 14.06.2019
6369 Clouds 25 1011 81 0 10.06 128.256 19:36 14.06.2019
6370 Clouds 25 1011 81 0 10.06 128.256 19:18 14.06.2019
6371 Clouds 25 1011 81 0 10.06 128.256 18:42 14.06.2019
6372 Clouds 26 1012 80 0 10.55 127.915 18:24 14.06.2019
6373 Clouds 26 1012 80 0 10.55 127.915 18:24 14.06.2019
6374 Clouds 26 1012 80 0 10.55 127.915 17:55 14.06.2019
6375 Clouds 26 1012 80 0 10.55 127.915 17:36 14.06.2019
6376 Clouds 26 1012 80 0 10.55 127.915 17:18 14.06.2019
6377 Clouds 26 1012 80 0 10.55 127.915 16:44 14.06.2019
6378 Clouds 26 1012 80 0 10.55 127.915 16:19 14.06.2019
6379 Clouds 26 1012 80 0 10.55 127.915 16:19 14.06.2019
6380 Clouds 26 1012 80 0 10.55 127.915 16:19 14.06.2019
6381 Clouds 26 1012 80 0 10.55 127.915 16:19 14.06.2019
6382 Clouds 26 1012 80 0 10.55 127.915 15:41 14.06.2019
6383 Clouds 26 1012 80 0 10.56 132.263 15:23 14.06.2019
6384 Clouds 26 1012 80 0 10.56 132.263 14:59 14.06.2019
6385 Clouds 26 1012 80 0 10.56 132.263 14:59 14.06.2019
6386 Clouds 26 1012 80 0 10.56 132.263 14:59 14.06.2019
6387 Clouds 26 1012 80 0 10.56 132.263 14:39 14.06.2019
6388 Clouds 26 1012 80 0 10.56 132.263 14:38 14.06.2019
6389 Clouds 26 1012 80 0 10.56 132.263 14:19 14.06.2019
6390 -273 0 0 0 0 0 14:19 14.06.2019
6391 Clouds 26 1012 78 0 10.56 133.035 13:42 14.06.2019
6392 Clouds 26 1012 78 0 10.56 133.035 13:24 14.06.2019
6393 Clouds 26 1012 78 0 10.56 133.035 12:42 14.06.2019
6394 Clouds 26 1012 78 0 10.56 133.035 12:42 14.06.2019
6395 -273 0 0 0 0 0 12:24 14.06.2019
6396 Clouds 27 1011 74 0 9.88 136.328 11:57 14.06.2019
6397 Clouds 27 1011 74 0 9.88 136.328 11:38 14.06.2019
6398 Clouds 27 1011 74 0 9.88 136.328 11:20 14.06.2019
6399 Clouds 27 1011 74 0 9.88 136.328 10:42 14.06.2019
6400 Clouds 27 1011 74 0 9.88 136.328 10:18 14.06.2019
6401 Clouds 27 1011 76 0 9.03 130.295 09:43 14.06.2019
6402 Haze 28 1009 78 10000 5.1 150 09:21 14.06.2019
6403 Haze 28 1009 78 10000 5.1 150 09:21 14.06.2019
6404 Haze 28 1009 78 10000 5.1 150 08:45 14.06.2019
6405 Haze 28 1009 78 10000 5.1 150 08:19 14.06.2019
6406 Haze 30 1009 62 10000 7.7 150 07:48 14.06.2019
6407 Haze 30 1009 62 10000 7.7 150 07:20 14.06.2019
6408 Haze 30 1010 62 10000 7.7 150 06:34 14.06.2019
6409 Haze 30 1010 62 10000 7.7 150 05:56 14.06.2019
6410 Haze 30 1010 62 10000 7.7 150 05:19 14.06.2019
6411 Haze 30 1011 62 10000 7.7 150 04:39 14.06.2019
6412 Smoke 30 1011 70 10000 6.2 130 03:51 14.06.2019
6413 Smoke 30 1011 70 10000 6.2 130 03:25 14.06.2019
6414 Smoke 28 1012 74 10000 2.6 150 02:48 14.06.2019
6415 Smoke 28 1012 74 10000 2.6 150 02:25 14.06.2019
6416 Clouds 24 1012 88 10000 1.5 340 00:51 14.06.2019
6417 Clouds 24 1012 88 10000 1.5 340 00:23 14.06.2019
6418 Clouds 23 1011 94 10000 1.5 290 23:56 13.06.2019
6419 Clouds 23 1011 94 10000 1.5 290 23:27 13.06.2019
6420 Clouds 22 1010 100 10000 2.6 160 22:59 13.06.2019
6421 Clouds 22 1010 100 10000 2.6 160 22:39 13.06.2019
6422 Clouds 22 1010 100 10000 2.6 160 22:20 13.06.2019
6423 Clouds 25 1012 84 0 7.27 122.39 21:39 13.06.2019
6424 Clouds 25 1011 85 0 7.22 128.646 21:20 13.06.2019
6425 Clouds 25 1011 85 0 7.22 128.646 20:45 13.06.2019
6426 Clouds 25 1011 85 0 7.22 128.646 20:22 13.06.2019
6427 Clouds 25 1011 85 0 7.22 128.646 19:57 13.06.2019
6428 Clouds 25 1011 85 0 7.22 128.646 19:37 13.06.2019
6429 Clouds 25 1011 85 0 7.22 128.646 19:19 13.06.2019
6430 Clouds 25 1011 85 0 7.22 128.646 18:46 13.06.2019
6431 Clouds 25 1011 85 0 7.22 128.646 18:28 13.06.2019
6432 Clouds 26 1012 83 0 7.43 130.884 17:59 13.06.2019
6433 Clouds 26 1012 83 0 7.43 130.884 17:41 13.06.2019
6434 Clouds 26 1012 83 0 7.43 130.884 17:20 13.06.2019
6435 Clouds 26 1012 83 0 7.43 130.884 16:46 13.06.2019
6436 Clouds 26 1012 83 0 7.43 130.884 16:21 13.06.2019
6437 Clouds 26 1012 83 0 7.43 130.884 15:56 13.06.2019
6438 Clouds 26 1012 83 0 7.43 130.884 15:38 13.06.2019
6439 Clouds 26 1012 80 0 8.9 130.166 15:18 13.06.2019
6440 Clouds 26 1012 80 0 8.9 130.166 14:44 13.06.2019
6441 Clouds 26 1012 80 0 8.9 130.166 14:23 13.06.2019
6442 Clouds 26 1012 80 0 8.9 130.166 13:44 13.06.2019
6443 Clouds 26 1012 80 0 8.9 130.166 13:21 13.06.2019
6444 Clouds 26 1012 80 0 8.9 130.166 12:44 13.06.2019
6445 Clouds 27 1011 77 0 10.11 134.042 12:23 13.06.2019
6446 Clouds 27 1011 77 0 10.11 134.042 11:57 13.06.2019
6447 Clouds 27 1011 77 0 10.11 134.042 11:57 13.06.2019
6448 Clouds 27 1011 77 0 10.11 134.042 11:38 13.06.2019
6449 Haze 26 1009 78 10000 8.7 130 11:19 13.06.2019
6450 Haze 26 1009 78 10000 8.7 130 10:44 13.06.2019
6451 Haze 27 1009 74 10000 7.7 120 10:24 13.06.2019
6452 Haze 27 1009 74 10000 7.7 120 09:44 13.06.2019
6453 Haze 28 1008 74 10000 7.7 130 09:23 13.06.2019
6454 Haze 28 1008 74 10000 7.7 130 08:48 13.06.2019
6455 Clouds 28 1009 74 0 10.19 145.905 08:28 13.06.2019
6456 Clouds 28 1009 74 0 10.19 145.905 07:53 13.06.2019
6457 Haze 30 1009 62 10000 7.7 150 07:25 13.06.2019
6458 Haze 30 1009 62 10000 7.7 150 06:51 13.06.2019
6459 Haze 30 1009 62 10000 7.7 150 06:24 13.06.2019
6460 Haze 30 1009 58 10000 7.7 120 05:55 13.06.2019
6461 Haze 30 1009 58 10000 7.7 120 05:37 13.06.2019
6462 Haze 30 1011 58 10000 7.7 150 04:57 13.06.2019
6463 Haze 28 1012 65 10000 3.1 140 02:33 13.06.2019
6464 Haze 25 1012 83 10000 2.6 130 00:55 13.06.2019
6465 Haze 25 1012 83 10000 2.6 130 00:22 13.06.2019
6466 Haze 22 1011 94 10000 2.6 130 23:24 12.06.2019
6467 Clouds 22 1011 94 10000 2.6 120 22:45 12.06.2019
6468 Clear 22 1011 94 10000 1.5 0 22:26 12.06.2019
6469 Clear 22 1011 94 10000 1.5 0 21:57 12.06.2019
6470 Clear 22 1011 94 10000 1.5 0 21:38 12.06.2019
6471 Clear 22 1011 94 10000 1.5 0 21:18 12.06.2019
6472 Clouds 26 1012 80 0 7.64 122.404 20:38 12.06.2019
6473 Clouds 22 1010 94 10000 1.5 0 20:20 12.06.2019
6474 Clouds 22 1010 94 10000 1.5 0 19:42 12.06.2019
6475 Clouds 22 1010 94 10000 1.5 0 19:23 12.06.2019
6476 Clouds 26 1012 80 0 7.64 122.404 18:57 12.06.2019
6477 Clouds 26 1012 80 0 7.64 122.404 18:39 12.06.2019
6478 Clouds 24 1011 88 10000 5.1 120 18:19 12.06.2019
6479 Clouds 24 1011 88 10000 5.1 120 17:44 12.06.2019
6480 Clouds 24 1011 88 10000 5.1 120 17:21 12.06.2019
6481 Clouds 26 1013 79 0 8.79 125.958 16:42 12.06.2019
6482 Clouds 26 1013 79 0 8.79 125.958 16:23 12.06.2019
6483 Clouds 26 1013 79 0 8.79 125.958 15:54 12.06.2019
6484 Clouds 26 1013 79 0 8.79 125.958 15:32 12.06.2019
6485 Clouds 27 1013 79 0 9.73 127.471 14:49 12.06.2019
6486 Clouds 27 1013 79 0 9.73 127.471 14:27 12.06.2019
6487 Clouds 27 1013 79 0 9.73 127.471 13:44 12.06.2019
6488 Clouds 27 1013 79 0 9.73 127.471 13:44 12.06.2019
6489 Clouds 26 1013 80 0 10.08 128.853 13:21 12.06.2019
6490 Clouds 26 1013 80 0 10.08 128.853 12:59 12.06.2019
6491 Clouds 26 1013 80 0 10.08 128.853 12:39 12.06.2019
6492 Clouds 26 1013 80 0 10.08 128.853 12:39 12.06.2019
6493 Clouds 27 1012 77 0 10.47 134.33 12:19 12.06.2019
6494 Clouds 27 1012 77 0 10.47 134.33 11:47 12.06.2019
6495 Haze 27 1010 78 10000 7.7 140 11:28 12.06.2019
6496 Haze 27 1010 78 10000 7.7 140 10:52 12.06.2019
6497 Haze 27 1010 78 10000 7.7 140 10:34 12.06.2019
6498 Haze 28 1010 69 10000 5.1 130 09:55 12.06.2019
6499 Clouds 27 1012 77 0 10.47 134.33 09:37 12.06.2019
6500 Haze 29 1009 70 10000 10.3 140 09:18 12.06.2019
6501 Haze 30 1009 62 10000 10.3 140 08:25 12.06.2019
6502 Haze 30 1009 62 10000 10.3 140 07:52 12.06.2019
6503 Haze 30 1009 62 10000 10.3 140 06:55 12.06.2019
6504 Haze 30 1012 62 10000 7.7 140 05:52 12.06.2019
6505 Haze 30 1012 62 10000 7.7 140 05:23 12.06.2019
6506 Clouds 29 1012 62 10000 10.3 130 02:18 12.06.2019
6507 Clouds 25 1012 83 10000 5.1 120 00:40 12.06.2019
6508 Clouds 25 1011 83 10000 5.1 110 23:50 11.06.2019
6509 Clouds 25 1011 83 10000 5.1 110 23:31 11.06.2019
6510 Clouds 24 1011 88 10000 5.1 110 22:44 11.06.2019
6511 Clouds 24 1011 88 10000 5.1 110 22:21 11.06.2019
6512 Clouds 24 1010 88 10000 5.1 110 21:58 11.06.2019
6513 Clouds 26 1013 84 0 8.75 126.336 21:39 11.06.2019
6514 Clouds 26 1012 85 0 9.11 128.477 21:20 11.06.2019
6515 Clouds 26 1012 85 0 9.11 128.477 21:20 11.06.2019
6516 Clouds 26 1012 85 0 9.11 128.477 21:20 11.06.2019
6517 Clouds 26 1012 85 0 9.11 128.477 20:49 11.06.2019
6518 Clouds 26 1012 85 0 9.11 128.477 20:26 11.06.2019
6519 Clouds 26 1012 85 0 9.11 128.477 19:56 11.06.2019
6520 Clouds 26 1012 85 0 9.11 128.477 19:38 11.06.2019
6521 Clouds 26 1012 85 0 9.11 128.477 19:38 11.06.2019
6522 Clouds 26 1012 85 0 9.11 128.477 18:59 11.06.2019
6523 Clouds 26 1012 85 0 9.11 128.477 18:58 11.06.2019
6524 Clouds 26 1012 86 0 10.05 130.607 18:23 11.06.2019
6525 Clouds 26 1012 86 0 10.05 130.607 18:22 11.06.2019
6526 Clouds 26 1012 86 0 10.05 130.607 17:42 11.06.2019
6527 Clouds 26 1012 86 0 10.05 130.607 17:23 11.06.2019
6528 Clouds 26 1012 86 0 10.05 130.607 16:58 11.06.2019
6529 Clouds 26 1012 86 0 10.05 130.607 16:40 11.06.2019
6530 Clouds 26 1012 86 0 10.05 130.607 16:22 11.06.2019
6531 Clouds 26 1012 86 0 10.05 130.607 15:42 11.06.2019
6532 Clouds 26 1013 84 0 10.99 130.29 15:23 11.06.2019
6533 Clouds 26 1013 84 0 10.99 130.29 14:49 11.06.2019
6534 Clouds 26 1013 84 0 10.99 130.29 14:22 11.06.2019
6535 Clouds 26 1013 84 0 10.99 130.29 13:52 11.06.2019
6536 Clouds 26 1013 84 0 10.99 130.29 13:24 11.06.2019
6537 Clouds 26 1013 84 0 10.99 130.29 13:24 11.06.2019
6538 Clouds 26 1012 84 0 11.71 130.324 12:58 11.06.2019
6539 Clouds 26 1012 84 0 11.71 130.324 12:40 11.06.2019
6540 Clouds 27 1011 80 0 12.69 134.553 12:19 11.06.2019
6541 Clouds 27 1011 80 0 12.69 134.553 11:39 11.06.2019
6542 Smoke 27 1010 78 10000 10.3 130 11:19 11.06.2019
6543 Smoke 27 1010 78 10000 10.3 130 10:46 11.06.2019
6544 Smoke 27 1010 78 10000 10.3 130 10:46 11.06.2019
6545 Smoke 27 1010 78 10000 10.3 130 10:25 11.06.2019
6546 Haze 28 1009 74 10000 11.8 140 09:49 11.06.2019
6547 Haze 29 1009 74 10000 10.3 130 09:24 11.06.2019
6548 Haze 29 1009 74 10000 10.3 130 09:24 11.06.2019
6549 Haze 29 1009 74 10000 10.3 130 08:45 11.06.2019
6550 Haze 29 1009 74 10000 10.3 130 08:25 11.06.2019
6551 Clouds 27 1010 78 0 11.6 145.545 07:38 11.06.2019
6552 Haze 31 1009 66 10000 9.3 140 06:56 11.06.2019
6553 Haze 31 1009 66 10000 9.3 140 06:34 11.06.2019
6554 Haze 31 1010 62 10000 8.7 140 04:54 11.06.2019
6555 Haze 30 1011 66 10000 9.3 140 03:42 11.06.2019
6556 Haze 28 1012 78 10000 5.1 120 01:33 11.06.2019
6557 Clouds 27 1012 78 10000 5.1 140 00:46 11.06.2019
6558 Clouds 26 1011 83 10000 2.6 130 23:47 10.06.2019
6559 Clouds 26 1011 83 10000 2.6 130 23:25 10.06.2019
6560 Clouds 25 1010 88 10000 5.1 120 22:55 10.06.2019
6561 Clouds 26 1012 79 0 8.03 122.455 22:37 10.06.2019
6562 Clouds 26 1012 79 0 8.03 122.455 22:37 10.06.2019
6563 Clouds 26 1012 79 0 8.03 122.455 22:19 10.06.2019
6564 Clouds 26 1012 79 0 8.03 122.455 21:40 10.06.2019
6565 Clouds 26 1011 81 0 8.49 124.518 21:22 10.06.2019
6566 Clouds 26 1011 81 0 8.49 124.518 20:46 10.06.2019
6567 Clouds 26 1011 81 0 8.49 124.518 20:24 10.06.2019
6568 Clouds 26 1011 81 0 8.49 124.518 19:55 10.06.2019
6569 Clouds 26 1011 81 0 8.49 124.518 19:36 10.06.2019
6570 Clouds 26 1011 81 0 8.49 124.518 19:18 10.06.2019
6571 Clouds 26 1011 81 0 8.49 124.518 18:54 10.06.2019
6572 Clouds 26 1011 81 0 8.49 124.518 18:36 10.06.2019
6573 Clouds 26 1011 86 0 8.82 128.805 18:18 10.06.2019
6574 Clouds 26 1011 86 0 8.82 128.805 17:39 10.06.2019
6575 Clouds 26 1009 88 10000 2.6 130 17:19 10.06.2019
6576 Clouds 26 1009 88 10000 2.6 130 16:42 10.06.2019
6577 Clouds 26 1009 88 10000 2.6 130 16:24 10.06.2019
6578 Clouds 26 1011 86 0 8.82 128.805 15:42 10.06.2019
6579 Clouds 27 1012 87 0 9.46 132.224 15:24 10.06.2019
6580 Clouds 27 1012 87 0 9.46 132.224 14:55 10.06.2019
6581 Clouds 27 1012 87 0 9.46 132.224 14:36 10.06.2019
6582 Clouds 27 1012 87 0 9.46 132.224 14:18 10.06.2019
6583 Clouds 27 1012 87 0 9.46 132.224 13:42 10.06.2019
6584 Clouds 27 1009 83 10000 6.7 140 13:21 10.06.2019
6585 Clouds 27 1009 83 10000 6.7 140 12:42 10.06.2019
6586 Clouds 27 1009 83 10000 6.7 140 12:23 10.06.2019
6587 Clouds 27 1009 83 10000 6.7 140 11:44 10.06.2019
6588 Clouds 28 1008 78 10000 7.7 150 11:24 10.06.2019
6589 Clouds 28 1008 78 10000 7.7 150 10:42 10.06.2019
6590 Clouds 28 1008 78 10000 7.7 150 10:21 10.06.2019
6591 Clouds 30 1007 70 10000 7.7 150 09:57 10.06.2019
6592 Clouds 30 1007 70 10000 7.7 150 09:38 10.06.2019
6593 Clouds 30 1007 70 10000 7.7 150 09:19 10.06.2019
6594 Haze 30 1007 74 10000 7.7 150 08:44 10.06.2019
6595 Haze 30 1007 74 10000 7.7 150 08:23 10.06.2019
6596 Clouds 31 1008 70 10000 5.1 130 06:56 10.06.2019
6597 Clouds 31 1009 70 10000 6.2 110 04:28 10.06.2019
6598 Haze 28 1011 78 10000 4.1 160 01:58 10.06.2019
6599 Haze 28 1011 78 10000 4.1 160 01:26 10.06.2019
6600 Haze 26 1010 88 10000 4.1 140 00:55 10.06.2019
6601 Clouds 25 1010 94 10000 3.1 130 00:19 10.06.2019
6602 Clouds 25 1010 94 10000 3.1 130 23:42 09.06.2019
6603 Clouds 24 1009 94 10000 2.6 130 23:19 09.06.2019
6604 Clouds 24 1009 94 10000 2.6 130 22:43 09.06.2019
6605 Clouds 27 1011 82 0 9.05 127.496 22:24 09.06.2019
6606 Clouds 27 1011 82 0 9.05 127.496 22:24 09.06.2019
6607 Clouds 27 1011 82 0 9.05 127.496 21:41 09.06.2019
6608 Clouds 27 1010 82 0 9.29 128.069 21:22 09.06.2019
6609 Clouds 27 1010 82 0 9.29 128.069 20:42 09.06.2019
6610 Clouds 26 1009 88 10000 5.1 130 20:23 09.06.2019
6611 Clouds 26 1009 88 10000 5.1 130 19:46 09.06.2019
6612 Clouds 26 1009 88 10000 5.1 130 19:19 09.06.2019
6613 Clouds 27 1010 82 0 9.49 128.495 18:57 09.06.2019
6614 Clouds 27 1010 82 0 9.49 128.495 18:39 09.06.2019
6615 Clouds 27 1011 83 0 10.08 129.967 18:21 09.06.2019
6616 Clouds 27 1011 83 0 10.08 129.967 17:46 09.06.2019
6617 Clouds 26 1010 88 10000 5.1 130 17:26 09.06.2019
6618 Clouds 26 1010 88 10000 5.1 130 16:54 09.06.2019
6619 Clouds 26 1010 88 10000 5.1 130 16:54 09.06.2019
6620 Clouds 27 1011 83 0 10.08 129.967 16:36 09.06.2019
6621 Clouds 27 1011 83 0 10.08 129.967 16:18 09.06.2019
6622 Clouds 27 1011 83 0 10.08 129.967 15:42 09.06.2019
6623 Clouds 27 1011 84 0 10.68 129.953 15:20 09.06.2019
6624 Clouds 27 1011 84 0 10.68 129.953 14:43 09.06.2019
6625 Clouds 27 1011 84 0 10.68 129.953 14:21 09.06.2019
6626 Clouds 27 1011 84 0 10.68 129.953 13:50 09.06.2019
6627 Clouds 27 1011 84 0 10.68 129.953 13:22 09.06.2019
6628 Clouds 27 1011 86 0 10.46 129.932 12:41 09.06.2019
6629 Clouds 27 1010 83 0 12.33 136.748 12:22 09.06.2019
6630 Clouds 27 1010 83 0 12.33 136.748 11:39 09.06.2019
6631 Haze 28 1007 83 10000 10.3 140 11:21 09.06.2019
6632 Haze 28 1007 83 10000 10.3 140 10:45 09.06.2019
6633 Haze 28 1007 83 10000 10.3 140 10:22 09.06.2019
6634 Haze 29 1007 79 10000 10.3 130 09:41 09.06.2019
6635 Haze 29 1007 79 10000 10.3 130 09:41 09.06.2019
6636 Haze 29 1007 79 10000 10.3 130 09:21 09.06.2019
6637 Haze 29 1007 79 10000 10.3 130 09:21 09.06.2019
6638 Haze 30 1007 74 10000 10.3 140 08:46 09.06.2019
6639 Haze 30 1007 74 10000 10.3 140 08:27 09.06.2019
6640 Clouds 32 1007 66 10000 6.2 130 06:55 09.06.2019
6641 Clouds 32 1007 66 10000 6.2 130 06:30 09.06.2019
6642 Clouds 31 1009 70 10000 5.1 150 03:26 09.06.2019
6643 Clouds 28 1011 79 0 6.78 130.446 01:38 09.06.2019
6644 Clouds 27 1010 83 10000 5.1 130 01:19 09.06.2019
6645 Clouds 27 1010 83 10000 5.1 130 00:45 09.06.2019
6646 Clouds 25 1009 94 10000 8.47 121.414 23:43 08.06.2019
6647 Clouds 25 1009 94 10000 8.47 121.414 23:24 08.06.2019
6648 Clouds 25 1009 94 10000 2.6 140 22:56 08.06.